<?xml version="1.0" encoding="UTF-8" standalone="no" ?>
<gpx xmlns="http://www.topografix.com/GPX/1/1" xmlns:xsi="http://www.w3.org/2001/XMLSchema-instance" xsi:schemaLocation="http://www.topografix.com/GPX/1/1 http://www.topografix.com/GPX/1/1/gpx.xsd" version="1.1" creator="VisuGPX - https://www.visugpx.com">
  <metadata>
    <name>Ludran Super Saxel par Hervé</name>
    <desc><![CDATA[Ludran Super Saxel par Hervé]]></desc>
  </metadata>
  <trk>
    <name><![CDATA[2019-12-21 13:11]]></name>
    <desc><![CDATA[<p>Hora Inicio: 13:13 21 dic. 2019<br/>Hora Fin: 17:08 21 dic. 2019<br/>Distancia recorrida: 78 km (03:54)<br/>Tiempo en movimiento: 03:29<br/>Velocidad media: 19,93 km/h<br/>Vel. en Mov.: 22,31 km/h<br/>Velocidad Máxima: 56,28 km/h<br/>Altura Mínima: 394 m<br/>Altura Máxima: 1117 m<br/>Velocidad Ascenso: 528,3 m/h<br/>Velocidad Descenso: -807,1 m/h<br/>Ganancia Altitud: 1219 m<br/>Pérdida Altitud: -1186 m<br/>Tiempo Ascenso: 02:18<br/>Tiempo Descenso: 01:28<br/></p><hr align="center" width="480" style="height: 2px; width: 517px"/>]]></desc>
    <trkseg>
      <trkpt lat="46.18212" lon="6.24913">
        <ele>450.9</ele>
        <time>2019-12-21T12:13:31Z</time>
      </trkpt>
      <trkpt lat="46.1824" lon="6.24928">
        <ele>442.7</ele>
        <time>2019-12-21T12:13:36Z</time>
      </trkpt>
      <trkpt lat="46.18264" lon="6.24936">
        <ele>442.41</ele>
        <time>2019-12-21T12:13:40Z</time>
      </trkpt>
      <trkpt lat="46.18286" lon="6.24943">
        <ele>443.88</ele>
        <time>2019-12-21T12:13:44Z</time>
      </trkpt>
      <trkpt lat="46.18308" lon="6.2495">
        <ele>446.31</ele>
        <time>2019-12-21T12:13:48Z</time>
      </trkpt>
      <trkpt lat="46.18329" lon="6.24956">
        <ele>447.24</ele>
        <time>2019-12-21T12:13:52Z</time>
      </trkpt>
      <trkpt lat="46.1835" lon="6.24962">
        <ele>448.21</ele>
        <time>2019-12-21T12:13:56Z</time>
      </trkpt>
      <trkpt lat="46.1837" lon="6.24969">
        <ele>449.98</ele>
        <time>2019-12-21T12:14:00Z</time>
      </trkpt>
      <trkpt lat="46.18391" lon="6.24976">
        <ele>450.51</ele>
        <time>2019-12-21T12:14:04Z</time>
      </trkpt>
      <trkpt lat="46.18412" lon="6.24981">
        <ele>451.58</ele>
        <time>2019-12-21T12:14:08Z</time>
      </trkpt>
      <trkpt lat="46.18432" lon="6.24987">
        <ele>452.24</ele>
        <time>2019-12-21T12:14:13Z</time>
      </trkpt>
      <trkpt lat="46.18453" lon="6.24992">
        <ele>452.97</ele>
        <time>2019-12-21T12:14:17Z</time>
      </trkpt>
      <trkpt lat="46.18474" lon="6.24998">
        <ele>453.75</ele>
        <time>2019-12-21T12:14:21Z</time>
      </trkpt>
      <trkpt lat="46.18494" lon="6.25005">
        <ele>452.76</ele>
        <time>2019-12-21T12:14:25Z</time>
      </trkpt>
      <trkpt lat="46.18515" lon="6.2501">
        <ele>453.31</ele>
        <time>2019-12-21T12:14:29Z</time>
      </trkpt>
      <trkpt lat="46.18534" lon="6.25012">
        <ele>453.73</ele>
        <time>2019-12-21T12:14:33Z</time>
      </trkpt>
      <trkpt lat="46.1856" lon="6.2501">
        <ele>454.57</ele>
        <time>2019-12-21T12:14:39Z</time>
      </trkpt>
      <trkpt lat="46.1858" lon="6.25018">
        <ele>455.65</ele>
        <time>2019-12-21T12:14:45Z</time>
      </trkpt>
      <trkpt lat="46.18579" lon="6.25051">
        <ele>456.69</ele>
        <time>2019-12-21T12:14:51Z</time>
      </trkpt>
      <trkpt lat="46.18577" lon="6.25086">
        <ele>458.38</ele>
        <time>2019-12-21T12:14:57Z</time>
      </trkpt>
      <trkpt lat="46.18577" lon="6.25119">
        <ele>459.96</ele>
        <time>2019-12-21T12:15:03Z</time>
      </trkpt>
      <trkpt lat="46.18573" lon="6.25148">
        <ele>461.47</ele>
        <time>2019-12-21T12:15:09Z</time>
      </trkpt>
      <trkpt lat="46.18551" lon="6.2516">
        <ele>461.56</ele>
        <time>2019-12-21T12:15:15Z</time>
      </trkpt>
      <trkpt lat="46.18526" lon="6.25165">
        <ele>461.72</ele>
        <time>2019-12-21T12:15:21Z</time>
      </trkpt>
      <trkpt lat="46.18506" lon="6.2517">
        <ele>461.86</ele>
        <time>2019-12-21T12:15:25Z</time>
      </trkpt>
      <trkpt lat="46.18485" lon="6.25174">
        <ele>462.74</ele>
        <time>2019-12-21T12:15:29Z</time>
      </trkpt>
      <trkpt lat="46.18465" lon="6.2518">
        <ele>463.64</ele>
        <time>2019-12-21T12:15:33Z</time>
      </trkpt>
      <trkpt lat="46.18445" lon="6.25186">
        <ele>464.62</ele>
        <time>2019-12-21T12:15:37Z</time>
      </trkpt>
      <trkpt lat="46.18426" lon="6.25195">
        <ele>464.55</ele>
        <time>2019-12-21T12:15:41Z</time>
      </trkpt>
      <trkpt lat="46.18406" lon="6.25206">
        <ele>464.23</ele>
        <time>2019-12-21T12:15:45Z</time>
      </trkpt>
      <trkpt lat="46.18387" lon="6.25217">
        <ele>464.44</ele>
        <time>2019-12-21T12:15:49Z</time>
      </trkpt>
      <trkpt lat="46.1837" lon="6.25228">
        <ele>465.74</ele>
        <time>2019-12-21T12:15:53Z</time>
      </trkpt>
      <trkpt lat="46.18353" lon="6.25239">
        <ele>466.85</ele>
        <time>2019-12-21T12:15:57Z</time>
      </trkpt>
      <trkpt lat="46.18336" lon="6.25251">
        <ele>469.74</ele>
        <time>2019-12-21T12:16:01Z</time>
      </trkpt>
      <trkpt lat="46.18312" lon="6.25267">
        <ele>471.59</ele>
        <time>2019-12-21T12:16:07Z</time>
      </trkpt>
      <trkpt lat="46.18288" lon="6.25283">
        <ele>472.77</ele>
        <time>2019-12-21T12:16:13Z</time>
      </trkpt>
      <trkpt lat="46.18267" lon="6.25297">
        <ele>473.72</ele>
        <time>2019-12-21T12:16:19Z</time>
      </trkpt>
      <trkpt lat="46.18243" lon="6.25311">
        <ele>474.96</ele>
        <time>2019-12-21T12:16:25Z</time>
      </trkpt>
      <trkpt lat="46.18224" lon="6.25324">
        <ele>475.06</ele>
        <time>2019-12-21T12:16:29Z</time>
      </trkpt>
      <trkpt lat="46.18205" lon="6.25337">
        <ele>475.29</ele>
        <time>2019-12-21T12:16:33Z</time>
      </trkpt>
      <trkpt lat="46.18185" lon="6.25349">
        <ele>475.52</ele>
        <time>2019-12-21T12:16:37Z</time>
      </trkpt>
      <trkpt lat="46.18166" lon="6.25362">
        <ele>478.39</ele>
        <time>2019-12-21T12:16:41Z</time>
      </trkpt>
      <trkpt lat="46.18147" lon="6.25374">
        <ele>478.92</ele>
        <time>2019-12-21T12:16:45Z</time>
      </trkpt>
      <trkpt lat="46.18127" lon="6.25386">
        <ele>480.2</ele>
        <time>2019-12-21T12:16:49Z</time>
      </trkpt>
      <trkpt lat="46.18109" lon="6.25397">
        <ele>479.05</ele>
        <time>2019-12-21T12:16:53Z</time>
      </trkpt>
      <trkpt lat="46.18091" lon="6.2541">
        <ele>478.9</ele>
        <time>2019-12-21T12:16:57Z</time>
      </trkpt>
      <trkpt lat="46.18075" lon="6.25426">
        <ele>479.6</ele>
        <time>2019-12-21T12:17:01Z</time>
      </trkpt>
      <trkpt lat="46.18056" lon="6.25452">
        <ele>480.92</ele>
        <time>2019-12-21T12:17:07Z</time>
      </trkpt>
      <trkpt lat="46.18039" lon="6.25477">
        <ele>482.37</ele>
        <time>2019-12-21T12:17:13Z</time>
      </trkpt>
      <trkpt lat="46.18019" lon="6.255">
        <ele>483.44</ele>
        <time>2019-12-21T12:17:19Z</time>
      </trkpt>
      <trkpt lat="46.17996" lon="6.25519">
        <ele>483.97</ele>
        <time>2019-12-21T12:17:25Z</time>
      </trkpt>
      <trkpt lat="46.17977" lon="6.2553">
        <ele>484.24</ele>
        <time>2019-12-21T12:17:29Z</time>
      </trkpt>
      <trkpt lat="46.17957" lon="6.25538">
        <ele>484.5</ele>
        <time>2019-12-21T12:17:33Z</time>
      </trkpt>
      <trkpt lat="46.17934" lon="6.25544">
        <ele>484.16</ele>
        <time>2019-12-21T12:17:37Z</time>
      </trkpt>
      <trkpt lat="46.17907" lon="6.2555">
        <ele>483.96</ele>
        <time>2019-12-21T12:17:41Z</time>
      </trkpt>
      <trkpt lat="46.17876" lon="6.2555">
        <ele>482.52</ele>
        <time>2019-12-21T12:17:45Z</time>
      </trkpt>
      <trkpt lat="46.17843" lon="6.25546">
        <ele>480.22</ele>
        <time>2019-12-21T12:17:49Z</time>
      </trkpt>
      <trkpt lat="46.1781" lon="6.25546">
        <ele>479.18</ele>
        <time>2019-12-21T12:17:53Z</time>
      </trkpt>
      <trkpt lat="46.17777" lon="6.25548">
        <ele>478.99</ele>
        <time>2019-12-21T12:17:57Z</time>
      </trkpt>
      <trkpt lat="46.17746" lon="6.25558">
        <ele>479.26</ele>
        <time>2019-12-21T12:18:01Z</time>
      </trkpt>
      <trkpt lat="46.17718" lon="6.25573">
        <ele>479.42</ele>
        <time>2019-12-21T12:18:05Z</time>
      </trkpt>
      <trkpt lat="46.17693" lon="6.25586">
        <ele>479.74</ele>
        <time>2019-12-21T12:18:09Z</time>
      </trkpt>
      <trkpt lat="46.17669" lon="6.25598">
        <ele>479.96</ele>
        <time>2019-12-21T12:18:13Z</time>
      </trkpt>
      <trkpt lat="46.17646" lon="6.25611">
        <ele>480.43</ele>
        <time>2019-12-21T12:18:17Z</time>
      </trkpt>
      <trkpt lat="46.17623" lon="6.25624">
        <ele>480.96</ele>
        <time>2019-12-21T12:18:21Z</time>
      </trkpt>
      <trkpt lat="46.17601" lon="6.25635">
        <ele>481.25</ele>
        <time>2019-12-21T12:18:25Z</time>
      </trkpt>
      <trkpt lat="46.1758" lon="6.25647">
        <ele>482.06</ele>
        <time>2019-12-21T12:18:29Z</time>
      </trkpt>
      <trkpt lat="46.1756" lon="6.25659">
        <ele>482.65</ele>
        <time>2019-12-21T12:18:33Z</time>
      </trkpt>
      <trkpt lat="46.17542" lon="6.25674">
        <ele>483.53</ele>
        <time>2019-12-21T12:18:37Z</time>
      </trkpt>
      <trkpt lat="46.17526" lon="6.25688">
        <ele>484.52</ele>
        <time>2019-12-21T12:18:41Z</time>
      </trkpt>
      <trkpt lat="46.17505" lon="6.25708">
        <ele>486.26</ele>
        <time>2019-12-21T12:18:47Z</time>
      </trkpt>
      <trkpt lat="46.17485" lon="6.25725">
        <ele>487.98</ele>
        <time>2019-12-21T12:18:53Z</time>
      </trkpt>
      <trkpt lat="46.17463" lon="6.25743">
        <ele>489.58</ele>
        <time>2019-12-21T12:18:59Z</time>
      </trkpt>
      <trkpt lat="46.17445" lon="6.25761">
        <ele>491.07</ele>
        <time>2019-12-21T12:19:05Z</time>
      </trkpt>
      <trkpt lat="46.1743" lon="6.2578">
        <ele>491.36</ele>
        <time>2019-12-21T12:19:11Z</time>
      </trkpt>
      <trkpt lat="46.1742" lon="6.25803">
        <ele>491.65</ele>
        <time>2019-12-21T12:19:17Z</time>
      </trkpt>
      <trkpt lat="46.17417" lon="6.25836">
        <ele>491.6</ele>
        <time>2019-12-21T12:19:23Z</time>
      </trkpt>
      <trkpt lat="46.17426" lon="6.2587">
        <ele>491.94</ele>
        <time>2019-12-21T12:19:29Z</time>
      </trkpt>
      <trkpt lat="46.17426" lon="6.259">
        <ele>491.81</ele>
        <time>2019-12-21T12:19:33Z</time>
      </trkpt>
      <trkpt lat="46.17426" lon="6.25932">
        <ele>492.76</ele>
        <time>2019-12-21T12:19:37Z</time>
      </trkpt>
      <trkpt lat="46.17427" lon="6.25966">
        <ele>492.89</ele>
        <time>2019-12-21T12:19:41Z</time>
      </trkpt>
      <trkpt lat="46.17427" lon="6.25999">
        <ele>493.24</ele>
        <time>2019-12-21T12:19:45Z</time>
      </trkpt>
      <trkpt lat="46.17427" lon="6.26029">
        <ele>493.5</ele>
        <time>2019-12-21T12:19:49Z</time>
      </trkpt>
      <trkpt lat="46.17425" lon="6.26059">
        <ele>494.3</ele>
        <time>2019-12-21T12:19:53Z</time>
      </trkpt>
      <trkpt lat="46.17423" lon="6.26087">
        <ele>494.63</ele>
        <time>2019-12-21T12:19:57Z</time>
      </trkpt>
      <trkpt lat="46.1742" lon="6.26115">
        <ele>494.52</ele>
        <time>2019-12-21T12:20:01Z</time>
      </trkpt>
      <trkpt lat="46.17421" lon="6.26146">
        <ele>494.63</ele>
        <time>2019-12-21T12:20:05Z</time>
      </trkpt>
      <trkpt lat="46.1742" lon="6.26178">
        <ele>494.69</ele>
        <time>2019-12-21T12:20:09Z</time>
      </trkpt>
      <trkpt lat="46.17417" lon="6.26208">
        <ele>494.77</ele>
        <time>2019-12-21T12:20:13Z</time>
      </trkpt>
      <trkpt lat="46.17414" lon="6.26237">
        <ele>494.86</ele>
        <time>2019-12-21T12:20:17Z</time>
      </trkpt>
      <trkpt lat="46.17414" lon="6.26269">
        <ele>495</ele>
        <time>2019-12-21T12:20:21Z</time>
      </trkpt>
      <trkpt lat="46.17406" lon="6.26298">
        <ele>495.41</ele>
        <time>2019-12-21T12:20:25Z</time>
      </trkpt>
      <trkpt lat="46.17398" lon="6.26331">
        <ele>495.05</ele>
        <time>2019-12-21T12:20:29Z</time>
      </trkpt>
      <trkpt lat="46.17389" lon="6.26366">
        <ele>494.84</ele>
        <time>2019-12-21T12:20:33Z</time>
      </trkpt>
      <trkpt lat="46.17378" lon="6.26403">
        <ele>493.93</ele>
        <time>2019-12-21T12:20:37Z</time>
      </trkpt>
      <trkpt lat="46.17368" lon="6.26443">
        <ele>492.81</ele>
        <time>2019-12-21T12:20:41Z</time>
      </trkpt>
      <trkpt lat="46.17357" lon="6.26483">
        <ele>492.12</ele>
        <time>2019-12-21T12:20:45Z</time>
      </trkpt>
      <trkpt lat="46.17347" lon="6.2652">
        <ele>492.03</ele>
        <time>2019-12-21T12:20:49Z</time>
      </trkpt>
      <trkpt lat="46.17339" lon="6.26555">
        <ele>491.78</ele>
        <time>2019-12-21T12:20:53Z</time>
      </trkpt>
      <trkpt lat="46.17334" lon="6.26588">
        <ele>492.59</ele>
        <time>2019-12-21T12:20:57Z</time>
      </trkpt>
      <trkpt lat="46.17329" lon="6.2662">
        <ele>493.72</ele>
        <time>2019-12-21T12:21:01Z</time>
      </trkpt>
      <trkpt lat="46.17323" lon="6.26651">
        <ele>494.87</ele>
        <time>2019-12-21T12:21:05Z</time>
      </trkpt>
      <trkpt lat="46.17318" lon="6.26679">
        <ele>495.59</ele>
        <time>2019-12-21T12:21:09Z</time>
      </trkpt>
      <trkpt lat="46.17311" lon="6.26707">
        <ele>496.05</ele>
        <time>2019-12-21T12:21:15Z</time>
      </trkpt>
      <trkpt lat="46.17299" lon="6.26681">
        <ele>496.99</ele>
        <time>2019-12-21T12:22:07Z</time>
      </trkpt>
      <trkpt lat="46.1729" lon="6.26657">
        <ele>496.46</ele>
        <time>2019-12-21T12:22:11Z</time>
      </trkpt>
      <trkpt lat="46.1728" lon="6.26632">
        <ele>495.92</ele>
        <time>2019-12-21T12:22:15Z</time>
      </trkpt>
      <trkpt lat="46.17269" lon="6.26603">
        <ele>496.28</ele>
        <time>2019-12-21T12:22:19Z</time>
      </trkpt>
      <trkpt lat="46.17257" lon="6.26569">
        <ele>496.5</ele>
        <time>2019-12-21T12:22:23Z</time>
      </trkpt>
      <trkpt lat="46.17246" lon="6.26534">
        <ele>495.77</ele>
        <time>2019-12-21T12:22:27Z</time>
      </trkpt>
      <trkpt lat="46.17235" lon="6.265">
        <ele>495.13</ele>
        <time>2019-12-21T12:22:31Z</time>
      </trkpt>
      <trkpt lat="46.17224" lon="6.26468">
        <ele>494.79</ele>
        <time>2019-12-21T12:22:35Z</time>
      </trkpt>
      <trkpt lat="46.17215" lon="6.26438">
        <ele>493.8</ele>
        <time>2019-12-21T12:22:39Z</time>
      </trkpt>
      <trkpt lat="46.17207" lon="6.2641">
        <ele>492.88</ele>
        <time>2019-12-21T12:22:43Z</time>
      </trkpt>
      <trkpt lat="46.17204" lon="6.2638">
        <ele>492.71</ele>
        <time>2019-12-21T12:22:47Z</time>
      </trkpt>
      <trkpt lat="46.17203" lon="6.26346">
        <ele>492.16</ele>
        <time>2019-12-21T12:22:51Z</time>
      </trkpt>
      <trkpt lat="46.17205" lon="6.26313">
        <ele>491.99</ele>
        <time>2019-12-21T12:22:55Z</time>
      </trkpt>
      <trkpt lat="46.17209" lon="6.26276">
        <ele>492.59</ele>
        <time>2019-12-21T12:22:59Z</time>
      </trkpt>
      <trkpt lat="46.17215" lon="6.26241">
        <ele>493.76</ele>
        <time>2019-12-21T12:23:03Z</time>
      </trkpt>
      <trkpt lat="46.17217" lon="6.26212">
        <ele>494.87</ele>
        <time>2019-12-21T12:23:07Z</time>
      </trkpt>
      <trkpt lat="46.17223" lon="6.26179">
        <ele>494.82</ele>
        <time>2019-12-21T12:23:13Z</time>
      </trkpt>
      <trkpt lat="46.17237" lon="6.26155">
        <ele>494.87</ele>
        <time>2019-12-21T12:23:17Z</time>
      </trkpt>
      <trkpt lat="46.17252" lon="6.26127">
        <ele>494.26</ele>
        <time>2019-12-21T12:23:21Z</time>
      </trkpt>
      <trkpt lat="46.17263" lon="6.26101">
        <ele>493.5</ele>
        <time>2019-12-21T12:23:25Z</time>
      </trkpt>
      <trkpt lat="46.17284" lon="6.26124">
        <ele>490.62</ele>
        <time>2019-12-21T12:23:35Z</time>
      </trkpt>
      <trkpt lat="46.17301" lon="6.26151">
        <ele>490.72</ele>
        <time>2019-12-21T12:23:39Z</time>
      </trkpt>
      <trkpt lat="46.17324" lon="6.26168">
        <ele>491.2</ele>
        <time>2019-12-21T12:23:43Z</time>
      </trkpt>
      <trkpt lat="46.17349" lon="6.26179">
        <ele>491.61</ele>
        <time>2019-12-21T12:23:47Z</time>
      </trkpt>
      <trkpt lat="46.17372" lon="6.26193">
        <ele>492.49</ele>
        <time>2019-12-21T12:23:51Z</time>
      </trkpt>
      <trkpt lat="46.17392" lon="6.2621">
        <ele>493.45</ele>
        <time>2019-12-21T12:23:55Z</time>
      </trkpt>
      <trkpt lat="46.1741" lon="6.26226">
        <ele>494.4</ele>
        <time>2019-12-21T12:24:01Z</time>
      </trkpt>
      <trkpt lat="46.1742" lon="6.26193">
        <ele>494.45</ele>
        <time>2019-12-21T12:24:09Z</time>
      </trkpt>
      <trkpt lat="46.17423" lon="6.26163">
        <ele>494.14</ele>
        <time>2019-12-21T12:24:13Z</time>
      </trkpt>
      <trkpt lat="46.17424" lon="6.26132">
        <ele>494.39</ele>
        <time>2019-12-21T12:24:17Z</time>
      </trkpt>
      <trkpt lat="46.17425" lon="6.26099">
        <ele>494.55</ele>
        <time>2019-12-21T12:24:21Z</time>
      </trkpt>
      <trkpt lat="46.17425" lon="6.26066">
        <ele>494.29</ele>
        <time>2019-12-21T12:24:25Z</time>
      </trkpt>
      <trkpt lat="46.17426" lon="6.26029">
        <ele>494.15</ele>
        <time>2019-12-21T12:24:29Z</time>
      </trkpt>
      <trkpt lat="46.17426" lon="6.25991">
        <ele>493.95</ele>
        <time>2019-12-21T12:24:33Z</time>
      </trkpt>
      <trkpt lat="46.17425" lon="6.25951">
        <ele>493.67</ele>
        <time>2019-12-21T12:24:37Z</time>
      </trkpt>
      <trkpt lat="46.17423" lon="6.25917">
        <ele>493.47</ele>
        <time>2019-12-21T12:24:41Z</time>
      </trkpt>
      <trkpt lat="46.17425" lon="6.25884">
        <ele>493.15</ele>
        <time>2019-12-21T12:24:45Z</time>
      </trkpt>
      <trkpt lat="46.17438" lon="6.25861">
        <ele>492.99</ele>
        <time>2019-12-21T12:24:53Z</time>
      </trkpt>
      <trkpt lat="46.17436" lon="6.25834">
        <ele>495.63</ele>
        <time>2019-12-21T12:25:17Z</time>
      </trkpt>
      <trkpt lat="46.17418" lon="6.25837">
        <ele>497.43</ele>
        <time>2019-12-21T12:37:07Z</time>
      </trkpt>
      <trkpt lat="46.17398" lon="6.25849">
        <ele>496.15</ele>
        <time>2019-12-21T12:37:19Z</time>
      </trkpt>
      <trkpt lat="46.1738" lon="6.2587">
        <ele>495.15</ele>
        <time>2019-12-21T12:37:23Z</time>
      </trkpt>
      <trkpt lat="46.17363" lon="6.25899">
        <ele>493.82</ele>
        <time>2019-12-21T12:37:27Z</time>
      </trkpt>
      <trkpt lat="46.17349" lon="6.25934">
        <ele>492.99</ele>
        <time>2019-12-21T12:37:31Z</time>
      </trkpt>
      <trkpt lat="46.17334" lon="6.25968">
        <ele>492.33</ele>
        <time>2019-12-21T12:37:35Z</time>
      </trkpt>
      <trkpt lat="46.17319" lon="6.25997">
        <ele>491.99</ele>
        <time>2019-12-21T12:37:39Z</time>
      </trkpt>
      <trkpt lat="46.17302" lon="6.26028">
        <ele>491.28</ele>
        <time>2019-12-21T12:37:43Z</time>
      </trkpt>
      <trkpt lat="46.17287" lon="6.26055">
        <ele>491.91</ele>
        <time>2019-12-21T12:37:47Z</time>
      </trkpt>
      <trkpt lat="46.17275" lon="6.26077">
        <ele>492.76</ele>
        <time>2019-12-21T12:37:51Z</time>
      </trkpt>
      <trkpt lat="46.17259" lon="6.26104">
        <ele>494.33</ele>
        <time>2019-12-21T12:37:57Z</time>
      </trkpt>
      <trkpt lat="46.17247" lon="6.26133">
        <ele>495.97</ele>
        <time>2019-12-21T12:38:03Z</time>
      </trkpt>
      <trkpt lat="46.17232" lon="6.26161">
        <ele>497.27</ele>
        <time>2019-12-21T12:38:09Z</time>
      </trkpt>
      <trkpt lat="46.17219" lon="6.26181">
        <ele>497.25</ele>
        <time>2019-12-21T12:38:15Z</time>
      </trkpt>
      <trkpt lat="46.17216" lon="6.26214">
        <ele>496.88</ele>
        <time>2019-12-21T12:38:21Z</time>
      </trkpt>
      <trkpt lat="46.17212" lon="6.26246">
        <ele>495.83</ele>
        <time>2019-12-21T12:38:25Z</time>
      </trkpt>
      <trkpt lat="46.17206" lon="6.26284">
        <ele>494.96</ele>
        <time>2019-12-21T12:38:29Z</time>
      </trkpt>
      <trkpt lat="46.17202" lon="6.26321">
        <ele>495.04</ele>
        <time>2019-12-21T12:38:33Z</time>
      </trkpt>
      <trkpt lat="46.17199" lon="6.26349">
        <ele>495.19</ele>
        <time>2019-12-21T12:38:41Z</time>
      </trkpt>
      <trkpt lat="46.17205" lon="6.26315">
        <ele>495.87</ele>
        <time>2019-12-21T12:39:33Z</time>
      </trkpt>
      <trkpt lat="46.1721" lon="6.26277">
        <ele>496.02</ele>
        <time>2019-12-21T12:39:39Z</time>
      </trkpt>
      <trkpt lat="46.17214" lon="6.2625">
        <ele>496.58</ele>
        <time>2019-12-21T12:39:43Z</time>
      </trkpt>
      <trkpt lat="46.17216" lon="6.26218">
        <ele>497.54</ele>
        <time>2019-12-21T12:39:49Z</time>
      </trkpt>
      <trkpt lat="46.17197" lon="6.26224">
        <ele>497.46</ele>
        <time>2019-12-21T12:40:11Z</time>
      </trkpt>
      <trkpt lat="46.17182" lon="6.26253">
        <ele>497.99</ele>
        <time>2019-12-21T12:40:17Z</time>
      </trkpt>
      <trkpt lat="46.17165" lon="6.26278">
        <ele>498.19</ele>
        <time>2019-12-21T12:40:21Z</time>
      </trkpt>
      <trkpt lat="46.17149" lon="6.26307">
        <ele>498.78</ele>
        <time>2019-12-21T12:40:25Z</time>
      </trkpt>
      <trkpt lat="46.17131" lon="6.26336">
        <ele>498.9</ele>
        <time>2019-12-21T12:40:29Z</time>
      </trkpt>
      <trkpt lat="46.17115" lon="6.26363">
        <ele>498.96</ele>
        <time>2019-12-21T12:40:33Z</time>
      </trkpt>
      <trkpt lat="46.17101" lon="6.26387">
        <ele>498.55</ele>
        <time>2019-12-21T12:40:37Z</time>
      </trkpt>
      <trkpt lat="46.17086" lon="6.26405">
        <ele>498.07</ele>
        <time>2019-12-21T12:40:41Z</time>
      </trkpt>
      <trkpt lat="46.17069" lon="6.26433">
        <ele>496.6</ele>
        <time>2019-12-21T12:40:45Z</time>
      </trkpt>
      <trkpt lat="46.1705" lon="6.26465">
        <ele>496.31</ele>
        <time>2019-12-21T12:40:49Z</time>
      </trkpt>
      <trkpt lat="46.17027" lon="6.26503">
        <ele>494.58</ele>
        <time>2019-12-21T12:40:53Z</time>
      </trkpt>
      <trkpt lat="46.17012" lon="6.26527">
        <ele>492.95</ele>
        <time>2019-12-21T12:40:55Z</time>
      </trkpt>
      <trkpt lat="46.16996" lon="6.26552">
        <ele>491.19</ele>
        <time>2019-12-21T12:40:57Z</time>
      </trkpt>
      <trkpt lat="46.16981" lon="6.26577">
        <ele>489.49</ele>
        <time>2019-12-21T12:40:59Z</time>
      </trkpt>
      <trkpt lat="46.16967" lon="6.26602">
        <ele>488.37</ele>
        <time>2019-12-21T12:41:01Z</time>
      </trkpt>
      <trkpt lat="46.16953" lon="6.26626">
        <ele>487.8</ele>
        <time>2019-12-21T12:41:03Z</time>
      </trkpt>
      <trkpt lat="46.16939" lon="6.26648">
        <ele>487.46</ele>
        <time>2019-12-21T12:41:05Z</time>
      </trkpt>
      <trkpt lat="46.16926" lon="6.26669">
        <ele>487.34</ele>
        <time>2019-12-21T12:41:07Z</time>
      </trkpt>
      <trkpt lat="46.16917" lon="6.26692">
        <ele>486.99</ele>
        <time>2019-12-21T12:41:09Z</time>
      </trkpt>
      <trkpt lat="46.16906" lon="6.26739">
        <ele>486.56</ele>
        <time>2019-12-21T12:41:13Z</time>
      </trkpt>
      <trkpt lat="46.16902" lon="6.26788">
        <ele>485.45</ele>
        <time>2019-12-21T12:41:17Z</time>
      </trkpt>
      <trkpt lat="46.16887" lon="6.26835">
        <ele>484.46</ele>
        <time>2019-12-21T12:41:21Z</time>
      </trkpt>
      <trkpt lat="46.16875" lon="6.26856">
        <ele>483.68</ele>
        <time>2019-12-21T12:41:23Z</time>
      </trkpt>
      <trkpt lat="46.1686" lon="6.26876">
        <ele>482.7</ele>
        <time>2019-12-21T12:41:25Z</time>
      </trkpt>
      <trkpt lat="46.16843" lon="6.26892">
        <ele>481.7</ele>
        <time>2019-12-21T12:41:27Z</time>
      </trkpt>
      <trkpt lat="46.16825" lon="6.26906">
        <ele>480.94</ele>
        <time>2019-12-21T12:41:29Z</time>
      </trkpt>
      <trkpt lat="46.16804" lon="6.26918">
        <ele>480.92</ele>
        <time>2019-12-21T12:41:31Z</time>
      </trkpt>
      <trkpt lat="46.16783" lon="6.2693">
        <ele>480.23</ele>
        <time>2019-12-21T12:41:33Z</time>
      </trkpt>
      <trkpt lat="46.16766" lon="6.26945">
        <ele>478.56</ele>
        <time>2019-12-21T12:41:35Z</time>
      </trkpt>
      <trkpt lat="46.16749" lon="6.26961">
        <ele>477.29</ele>
        <time>2019-12-21T12:41:37Z</time>
      </trkpt>
      <trkpt lat="46.16733" lon="6.26977">
        <ele>475.5</ele>
        <time>2019-12-21T12:41:39Z</time>
      </trkpt>
      <trkpt lat="46.16722" lon="6.26998">
        <ele>473.1</ele>
        <time>2019-12-21T12:41:41Z</time>
      </trkpt>
      <trkpt lat="46.16719" lon="6.27041">
        <ele>471.49</ele>
        <time>2019-12-21T12:41:45Z</time>
      </trkpt>
      <trkpt lat="46.1673" lon="6.27062">
        <ele>470.05</ele>
        <time>2019-12-21T12:41:47Z</time>
      </trkpt>
      <trkpt lat="46.16747" lon="6.27094">
        <ele>469.51</ele>
        <time>2019-12-21T12:41:51Z</time>
      </trkpt>
      <trkpt lat="46.16773" lon="6.27122">
        <ele>464.65</ele>
        <time>2019-12-21T12:41:55Z</time>
      </trkpt>
      <trkpt lat="46.16796" lon="6.27134">
        <ele>463.91</ele>
        <time>2019-12-21T12:41:59Z</time>
      </trkpt>
      <trkpt lat="46.16814" lon="6.27142">
        <ele>461.58</ele>
        <time>2019-12-21T12:42:05Z</time>
      </trkpt>
      <trkpt lat="46.16837" lon="6.27153">
        <ele>460.38</ele>
        <time>2019-12-21T12:42:09Z</time>
      </trkpt>
      <trkpt lat="46.16844" lon="6.27191">
        <ele>460.54</ele>
        <time>2019-12-21T12:42:15Z</time>
      </trkpt>
      <trkpt lat="46.16841" lon="6.27233">
        <ele>459.92</ele>
        <time>2019-12-21T12:42:19Z</time>
      </trkpt>
      <trkpt lat="46.16837" lon="6.27274">
        <ele>459.65</ele>
        <time>2019-12-21T12:42:23Z</time>
      </trkpt>
      <trkpt lat="46.16831" lon="6.27315">
        <ele>459.57</ele>
        <time>2019-12-21T12:42:27Z</time>
      </trkpt>
      <trkpt lat="46.16816" lon="6.27344">
        <ele>459.94</ele>
        <time>2019-12-21T12:42:31Z</time>
      </trkpt>
      <trkpt lat="46.16797" lon="6.27361">
        <ele>460.81</ele>
        <time>2019-12-21T12:42:35Z</time>
      </trkpt>
      <trkpt lat="46.16776" lon="6.27366">
        <ele>461.53</ele>
        <time>2019-12-21T12:42:39Z</time>
      </trkpt>
      <trkpt lat="46.16755" lon="6.27364">
        <ele>462.51</ele>
        <time>2019-12-21T12:42:43Z</time>
      </trkpt>
      <trkpt lat="46.16735" lon="6.2736">
        <ele>463.45</ele>
        <time>2019-12-21T12:42:47Z</time>
      </trkpt>
      <trkpt lat="46.16714" lon="6.27357">
        <ele>464.2</ele>
        <time>2019-12-21T12:42:51Z</time>
      </trkpt>
      <trkpt lat="46.16694" lon="6.27352">
        <ele>464.8</ele>
        <time>2019-12-21T12:42:55Z</time>
      </trkpt>
      <trkpt lat="46.16675" lon="6.27348">
        <ele>465.7</ele>
        <time>2019-12-21T12:42:59Z</time>
      </trkpt>
      <trkpt lat="46.16651" lon="6.2734">
        <ele>467.01</ele>
        <time>2019-12-21T12:43:05Z</time>
      </trkpt>
      <trkpt lat="46.1663" lon="6.2733">
        <ele>468.45</ele>
        <time>2019-12-21T12:43:11Z</time>
      </trkpt>
      <trkpt lat="46.16605" lon="6.27313">
        <ele>471.98</ele>
        <time>2019-12-21T12:43:17Z</time>
      </trkpt>
      <trkpt lat="46.16587" lon="6.27296">
        <ele>472.59</ele>
        <time>2019-12-21T12:43:21Z</time>
      </trkpt>
      <trkpt lat="46.1657" lon="6.27282">
        <ele>474.35</ele>
        <time>2019-12-21T12:43:25Z</time>
      </trkpt>
      <trkpt lat="46.16553" lon="6.27269">
        <ele>474.82</ele>
        <time>2019-12-21T12:43:29Z</time>
      </trkpt>
      <trkpt lat="46.16526" lon="6.27257">
        <ele>474.91</ele>
        <time>2019-12-21T12:43:35Z</time>
      </trkpt>
      <trkpt lat="46.16505" lon="6.27251">
        <ele>474.39</ele>
        <time>2019-12-21T12:43:39Z</time>
      </trkpt>
      <trkpt lat="46.16487" lon="6.27243">
        <ele>474.63</ele>
        <time>2019-12-21T12:43:43Z</time>
      </trkpt>
      <trkpt lat="46.16468" lon="6.27236">
        <ele>475.5</ele>
        <time>2019-12-21T12:43:47Z</time>
      </trkpt>
      <trkpt lat="46.1645" lon="6.27231">
        <ele>476.86</ele>
        <time>2019-12-21T12:43:51Z</time>
      </trkpt>
      <trkpt lat="46.16423" lon="6.27224">
        <ele>478.74</ele>
        <time>2019-12-21T12:43:57Z</time>
      </trkpt>
      <trkpt lat="46.16404" lon="6.27228">
        <ele>478.92</ele>
        <time>2019-12-21T12:44:01Z</time>
      </trkpt>
      <trkpt lat="46.16386" lon="6.27237">
        <ele>479.81</ele>
        <time>2019-12-21T12:44:05Z</time>
      </trkpt>
      <trkpt lat="46.1637" lon="6.2725">
        <ele>480.96</ele>
        <time>2019-12-21T12:44:09Z</time>
      </trkpt>
      <trkpt lat="46.16355" lon="6.27269">
        <ele>481.64</ele>
        <time>2019-12-21T12:44:13Z</time>
      </trkpt>
      <trkpt lat="46.16343" lon="6.27294">
        <ele>481.72</ele>
        <time>2019-12-21T12:44:17Z</time>
      </trkpt>
      <trkpt lat="46.16332" lon="6.27323">
        <ele>481.59</ele>
        <time>2019-12-21T12:44:21Z</time>
      </trkpt>
      <trkpt lat="46.1632" lon="6.27356">
        <ele>481.74</ele>
        <time>2019-12-21T12:44:25Z</time>
      </trkpt>
      <trkpt lat="46.16307" lon="6.27389">
        <ele>481.87</ele>
        <time>2019-12-21T12:44:29Z</time>
      </trkpt>
      <trkpt lat="46.16295" lon="6.27423">
        <ele>481.64</ele>
        <time>2019-12-21T12:44:33Z</time>
      </trkpt>
      <trkpt lat="46.16282" lon="6.27457">
        <ele>481.65</ele>
        <time>2019-12-21T12:44:37Z</time>
      </trkpt>
      <trkpt lat="46.16268" lon="6.27492">
        <ele>481.72</ele>
        <time>2019-12-21T12:44:41Z</time>
      </trkpt>
      <trkpt lat="46.16254" lon="6.27527">
        <ele>481.74</ele>
        <time>2019-12-21T12:44:45Z</time>
      </trkpt>
      <trkpt lat="46.1624" lon="6.27562">
        <ele>481.86</ele>
        <time>2019-12-21T12:44:49Z</time>
      </trkpt>
      <trkpt lat="46.16221" lon="6.27592">
        <ele>481.35</ele>
        <time>2019-12-21T12:44:53Z</time>
      </trkpt>
      <trkpt lat="46.16206" lon="6.27626">
        <ele>481.14</ele>
        <time>2019-12-21T12:44:57Z</time>
      </trkpt>
      <trkpt lat="46.16198" lon="6.27666">
        <ele>481.22</ele>
        <time>2019-12-21T12:45:01Z</time>
      </trkpt>
      <trkpt lat="46.16184" lon="6.27705">
        <ele>481.28</ele>
        <time>2019-12-21T12:45:05Z</time>
      </trkpt>
      <trkpt lat="46.16169" lon="6.27742">
        <ele>481.28</ele>
        <time>2019-12-21T12:45:09Z</time>
      </trkpt>
      <trkpt lat="46.16155" lon="6.27781">
        <ele>481.13</ele>
        <time>2019-12-21T12:45:13Z</time>
      </trkpt>
      <trkpt lat="46.1614" lon="6.27819">
        <ele>480.94</ele>
        <time>2019-12-21T12:45:17Z</time>
      </trkpt>
      <trkpt lat="46.16125" lon="6.27858">
        <ele>480.78</ele>
        <time>2019-12-21T12:45:21Z</time>
      </trkpt>
      <trkpt lat="46.1611" lon="6.27898">
        <ele>480.59</ele>
        <time>2019-12-21T12:45:25Z</time>
      </trkpt>
      <trkpt lat="46.16094" lon="6.27939">
        <ele>480.41</ele>
        <time>2019-12-21T12:45:29Z</time>
      </trkpt>
      <trkpt lat="46.16078" lon="6.2798">
        <ele>480.28</ele>
        <time>2019-12-21T12:45:33Z</time>
      </trkpt>
      <trkpt lat="46.16063" lon="6.28019">
        <ele>480.35</ele>
        <time>2019-12-21T12:45:37Z</time>
      </trkpt>
      <trkpt lat="46.16048" lon="6.2806">
        <ele>480.25</ele>
        <time>2019-12-21T12:45:41Z</time>
      </trkpt>
      <trkpt lat="46.16033" lon="6.28101">
        <ele>479.99</ele>
        <time>2019-12-21T12:45:45Z</time>
      </trkpt>
      <trkpt lat="46.16017" lon="6.28142">
        <ele>479.69</ele>
        <time>2019-12-21T12:45:49Z</time>
      </trkpt>
      <trkpt lat="46.16001" lon="6.28183">
        <ele>479.36</ele>
        <time>2019-12-21T12:45:53Z</time>
      </trkpt>
      <trkpt lat="46.15983" lon="6.28223">
        <ele>479.39</ele>
        <time>2019-12-21T12:45:57Z</time>
      </trkpt>
      <trkpt lat="46.15963" lon="6.28263">
        <ele>479.8</ele>
        <time>2019-12-21T12:46:01Z</time>
      </trkpt>
      <trkpt lat="46.15942" lon="6.28304">
        <ele>479.59</ele>
        <time>2019-12-21T12:46:05Z</time>
      </trkpt>
      <trkpt lat="46.15931" lon="6.28325">
        <ele>479.03</ele>
        <time>2019-12-21T12:46:07Z</time>
      </trkpt>
      <trkpt lat="46.1591" lon="6.28366">
        <ele>478.66</ele>
        <time>2019-12-21T12:46:11Z</time>
      </trkpt>
      <trkpt lat="46.15892" lon="6.28409">
        <ele>478.07</ele>
        <time>2019-12-21T12:46:15Z</time>
      </trkpt>
      <trkpt lat="46.15883" lon="6.28432">
        <ele>477.63</ele>
        <time>2019-12-21T12:46:17Z</time>
      </trkpt>
      <trkpt lat="46.15876" lon="6.28457">
        <ele>477.09</ele>
        <time>2019-12-21T12:46:19Z</time>
      </trkpt>
      <trkpt lat="46.15871" lon="6.28483">
        <ele>476.63</ele>
        <time>2019-12-21T12:46:21Z</time>
      </trkpt>
      <trkpt lat="46.15875" lon="6.28528">
        <ele>476.14</ele>
        <time>2019-12-21T12:46:25Z</time>
      </trkpt>
      <trkpt lat="46.15898" lon="6.28563">
        <ele>476.01</ele>
        <time>2019-12-21T12:46:29Z</time>
      </trkpt>
      <trkpt lat="46.15921" lon="6.28596">
        <ele>476.02</ele>
        <time>2019-12-21T12:46:33Z</time>
      </trkpt>
      <trkpt lat="46.15942" lon="6.28627">
        <ele>476.59</ele>
        <time>2019-12-21T12:46:37Z</time>
      </trkpt>
      <trkpt lat="46.15958" lon="6.28653">
        <ele>477.63</ele>
        <time>2019-12-21T12:46:41Z</time>
      </trkpt>
      <trkpt lat="46.15969" lon="6.28676">
        <ele>478.19</ele>
        <time>2019-12-21T12:46:45Z</time>
      </trkpt>
      <trkpt lat="46.15982" lon="6.28697">
        <ele>479.39</ele>
        <time>2019-12-21T12:46:49Z</time>
      </trkpt>
      <trkpt lat="46.15995" lon="6.28719">
        <ele>480.63</ele>
        <time>2019-12-21T12:46:53Z</time>
      </trkpt>
      <trkpt lat="46.16008" lon="6.28742">
        <ele>481.81</ele>
        <time>2019-12-21T12:46:57Z</time>
      </trkpt>
      <trkpt lat="46.1602" lon="6.28766">
        <ele>482.84</ele>
        <time>2019-12-21T12:47:01Z</time>
      </trkpt>
      <trkpt lat="46.16031" lon="6.28791">
        <ele>483.25</ele>
        <time>2019-12-21T12:47:05Z</time>
      </trkpt>
      <trkpt lat="46.16043" lon="6.28819">
        <ele>483.36</ele>
        <time>2019-12-21T12:47:09Z</time>
      </trkpt>
      <trkpt lat="46.16055" lon="6.28851">
        <ele>483.2</ele>
        <time>2019-12-21T12:47:13Z</time>
      </trkpt>
      <trkpt lat="46.16065" lon="6.28884">
        <ele>483.29</ele>
        <time>2019-12-21T12:47:17Z</time>
      </trkpt>
      <trkpt lat="46.16074" lon="6.2892">
        <ele>483.12</ele>
        <time>2019-12-21T12:47:21Z</time>
      </trkpt>
      <trkpt lat="46.16084" lon="6.28955">
        <ele>482.94</ele>
        <time>2019-12-21T12:47:25Z</time>
      </trkpt>
      <trkpt lat="46.16094" lon="6.28991">
        <ele>483.25</ele>
        <time>2019-12-21T12:47:29Z</time>
      </trkpt>
      <trkpt lat="46.16104" lon="6.29023">
        <ele>483.52</ele>
        <time>2019-12-21T12:47:33Z</time>
      </trkpt>
      <trkpt lat="46.16113" lon="6.29058">
        <ele>483.91</ele>
        <time>2019-12-21T12:47:37Z</time>
      </trkpt>
      <trkpt lat="46.16122" lon="6.29088">
        <ele>484.67</ele>
        <time>2019-12-21T12:47:41Z</time>
      </trkpt>
      <trkpt lat="46.16129" lon="6.29116">
        <ele>485.58</ele>
        <time>2019-12-21T12:47:45Z</time>
      </trkpt>
      <trkpt lat="46.16136" lon="6.29144">
        <ele>486.12</ele>
        <time>2019-12-21T12:47:49Z</time>
      </trkpt>
      <trkpt lat="46.16144" lon="6.29173">
        <ele>486.72</ele>
        <time>2019-12-21T12:47:53Z</time>
      </trkpt>
      <trkpt lat="46.16152" lon="6.29202">
        <ele>487.36</ele>
        <time>2019-12-21T12:47:57Z</time>
      </trkpt>
      <trkpt lat="46.16159" lon="6.29231">
        <ele>487.95</ele>
        <time>2019-12-21T12:48:01Z</time>
      </trkpt>
      <trkpt lat="46.16166" lon="6.29258">
        <ele>488.68</ele>
        <time>2019-12-21T12:48:05Z</time>
      </trkpt>
      <trkpt lat="46.16173" lon="6.29285">
        <ele>489.29</ele>
        <time>2019-12-21T12:48:09Z</time>
      </trkpt>
      <trkpt lat="46.16181" lon="6.29312">
        <ele>490.08</ele>
        <time>2019-12-21T12:48:13Z</time>
      </trkpt>
      <trkpt lat="46.16188" lon="6.29339">
        <ele>490.64</ele>
        <time>2019-12-21T12:48:17Z</time>
      </trkpt>
      <trkpt lat="46.16196" lon="6.29367">
        <ele>491.51</ele>
        <time>2019-12-21T12:48:21Z</time>
      </trkpt>
      <trkpt lat="46.16203" lon="6.29394">
        <ele>492.34</ele>
        <time>2019-12-21T12:48:25Z</time>
      </trkpt>
      <trkpt lat="46.16208" lon="6.29422">
        <ele>493.04</ele>
        <time>2019-12-21T12:48:29Z</time>
      </trkpt>
      <trkpt lat="46.16211" lon="6.29451">
        <ele>493.75</ele>
        <time>2019-12-21T12:48:33Z</time>
      </trkpt>
      <trkpt lat="46.16212" lon="6.29481">
        <ele>493.96</ele>
        <time>2019-12-21T12:48:37Z</time>
      </trkpt>
      <trkpt lat="46.16215" lon="6.29514">
        <ele>493.57</ele>
        <time>2019-12-21T12:48:41Z</time>
      </trkpt>
      <trkpt lat="46.16217" lon="6.29548">
        <ele>493.57</ele>
        <time>2019-12-21T12:48:45Z</time>
      </trkpt>
      <trkpt lat="46.16217" lon="6.29583">
        <ele>493.66</ele>
        <time>2019-12-21T12:48:49Z</time>
      </trkpt>
      <trkpt lat="46.16214" lon="6.29618">
        <ele>494.33</ele>
        <time>2019-12-21T12:48:53Z</time>
      </trkpt>
      <trkpt lat="46.1621" lon="6.2965">
        <ele>494.45</ele>
        <time>2019-12-21T12:48:57Z</time>
      </trkpt>
      <trkpt lat="46.16206" lon="6.29683">
        <ele>494.66</ele>
        <time>2019-12-21T12:49:01Z</time>
      </trkpt>
      <trkpt lat="46.16207" lon="6.29715">
        <ele>495.03</ele>
        <time>2019-12-21T12:49:05Z</time>
      </trkpt>
      <trkpt lat="46.16212" lon="6.29748">
        <ele>496.13</ele>
        <time>2019-12-21T12:49:09Z</time>
      </trkpt>
      <trkpt lat="46.16222" lon="6.29782">
        <ele>496.6</ele>
        <time>2019-12-21T12:49:13Z</time>
      </trkpt>
      <trkpt lat="46.16231" lon="6.29816">
        <ele>496.51</ele>
        <time>2019-12-21T12:49:17Z</time>
      </trkpt>
      <trkpt lat="46.16241" lon="6.2985">
        <ele>496.49</ele>
        <time>2019-12-21T12:49:21Z</time>
      </trkpt>
      <trkpt lat="46.1625" lon="6.29884">
        <ele>496.46</ele>
        <time>2019-12-21T12:49:25Z</time>
      </trkpt>
      <trkpt lat="46.1626" lon="6.29915">
        <ele>496.61</ele>
        <time>2019-12-21T12:49:29Z</time>
      </trkpt>
      <trkpt lat="46.16272" lon="6.29942">
        <ele>497.24</ele>
        <time>2019-12-21T12:49:33Z</time>
      </trkpt>
      <trkpt lat="46.16287" lon="6.29972">
        <ele>499.4</ele>
        <time>2019-12-21T12:49:39Z</time>
      </trkpt>
      <trkpt lat="46.16306" lon="6.30007">
        <ele>500.38</ele>
        <time>2019-12-21T12:49:45Z</time>
      </trkpt>
      <trkpt lat="46.16319" lon="6.30036">
        <ele>500.78</ele>
        <time>2019-12-21T12:49:49Z</time>
      </trkpt>
      <trkpt lat="46.16335" lon="6.30062">
        <ele>501.07</ele>
        <time>2019-12-21T12:49:53Z</time>
      </trkpt>
      <trkpt lat="46.1635" lon="6.30087">
        <ele>501.46</ele>
        <time>2019-12-21T12:49:57Z</time>
      </trkpt>
      <trkpt lat="46.16365" lon="6.30111">
        <ele>501.92</ele>
        <time>2019-12-21T12:50:01Z</time>
      </trkpt>
      <trkpt lat="46.16379" lon="6.30134">
        <ele>502.64</ele>
        <time>2019-12-21T12:50:05Z</time>
      </trkpt>
      <trkpt lat="46.16395" lon="6.30158">
        <ele>503.16</ele>
        <time>2019-12-21T12:50:09Z</time>
      </trkpt>
      <trkpt lat="46.16409" lon="6.30184">
        <ele>503.43</ele>
        <time>2019-12-21T12:50:13Z</time>
      </trkpt>
      <trkpt lat="46.16426" lon="6.30209">
        <ele>503.39</ele>
        <time>2019-12-21T12:50:17Z</time>
      </trkpt>
      <trkpt lat="46.16443" lon="6.30236">
        <ele>503.6</ele>
        <time>2019-12-21T12:50:21Z</time>
      </trkpt>
      <trkpt lat="46.16457" lon="6.30261">
        <ele>503.96</ele>
        <time>2019-12-21T12:50:25Z</time>
      </trkpt>
      <trkpt lat="46.16472" lon="6.30286">
        <ele>504.69</ele>
        <time>2019-12-21T12:50:29Z</time>
      </trkpt>
      <trkpt lat="46.16485" lon="6.30311">
        <ele>505.54</ele>
        <time>2019-12-21T12:50:33Z</time>
      </trkpt>
      <trkpt lat="46.16498" lon="6.30334">
        <ele>506.24</ele>
        <time>2019-12-21T12:50:37Z</time>
      </trkpt>
      <trkpt lat="46.16511" lon="6.30358">
        <ele>506.78</ele>
        <time>2019-12-21T12:50:41Z</time>
      </trkpt>
      <trkpt lat="46.16524" lon="6.30381">
        <ele>507.06</ele>
        <time>2019-12-21T12:50:45Z</time>
      </trkpt>
      <trkpt lat="46.16537" lon="6.30403">
        <ele>508.71</ele>
        <time>2019-12-21T12:50:49Z</time>
      </trkpt>
      <trkpt lat="46.1655" lon="6.30424">
        <ele>510.77</ele>
        <time>2019-12-21T12:50:55Z</time>
      </trkpt>
      <trkpt lat="46.16563" lon="6.30449">
        <ele>515.6</ele>
        <time>2019-12-21T12:51:03Z</time>
      </trkpt>
      <trkpt lat="46.16581" lon="6.30467">
        <ele>514.54</ele>
        <time>2019-12-21T12:51:09Z</time>
      </trkpt>
      <trkpt lat="46.16601" lon="6.30482">
        <ele>518.1</ele>
        <time>2019-12-21T12:51:17Z</time>
      </trkpt>
      <trkpt lat="46.16616" lon="6.30499">
        <ele>520.1</ele>
        <time>2019-12-21T12:51:21Z</time>
      </trkpt>
      <trkpt lat="46.16627" lon="6.30523">
        <ele>520.92</ele>
        <time>2019-12-21T12:51:25Z</time>
      </trkpt>
      <trkpt lat="46.16635" lon="6.30553">
        <ele>521.06</ele>
        <time>2019-12-21T12:51:29Z</time>
      </trkpt>
      <trkpt lat="46.16631" lon="6.30587">
        <ele>520.46</ele>
        <time>2019-12-21T12:51:35Z</time>
      </trkpt>
      <trkpt lat="46.16622" lon="6.3062">
        <ele>520.81</ele>
        <time>2019-12-21T12:51:41Z</time>
      </trkpt>
      <trkpt lat="46.16611" lon="6.30651">
        <ele>521.24</ele>
        <time>2019-12-21T12:51:47Z</time>
      </trkpt>
      <trkpt lat="46.166" lon="6.30673">
        <ele>520.8</ele>
        <time>2019-12-21T12:51:51Z</time>
      </trkpt>
      <trkpt lat="46.16585" lon="6.30694">
        <ele>520.62</ele>
        <time>2019-12-21T12:51:55Z</time>
      </trkpt>
      <trkpt lat="46.16569" lon="6.30714">
        <ele>520.97</ele>
        <time>2019-12-21T12:51:59Z</time>
      </trkpt>
      <trkpt lat="46.16552" lon="6.30734">
        <ele>521</ele>
        <time>2019-12-21T12:52:03Z</time>
      </trkpt>
      <trkpt lat="46.16532" lon="6.30751">
        <ele>520.99</ele>
        <time>2019-12-21T12:52:07Z</time>
      </trkpt>
      <trkpt lat="46.16512" lon="6.30768">
        <ele>520.99</ele>
        <time>2019-12-21T12:52:11Z</time>
      </trkpt>
      <trkpt lat="46.16491" lon="6.30784">
        <ele>521.08</ele>
        <time>2019-12-21T12:52:15Z</time>
      </trkpt>
      <trkpt lat="46.16471" lon="6.30801">
        <ele>521.39</ele>
        <time>2019-12-21T12:52:19Z</time>
      </trkpt>
      <trkpt lat="46.16452" lon="6.30818">
        <ele>522.5</ele>
        <time>2019-12-21T12:52:23Z</time>
      </trkpt>
      <trkpt lat="46.16434" lon="6.30835">
        <ele>522.85</ele>
        <time>2019-12-21T12:52:27Z</time>
      </trkpt>
      <trkpt lat="46.16417" lon="6.30856">
        <ele>523.28</ele>
        <time>2019-12-21T12:52:31Z</time>
      </trkpt>
      <trkpt lat="46.16402" lon="6.30878">
        <ele>523</ele>
        <time>2019-12-21T12:52:35Z</time>
      </trkpt>
      <trkpt lat="46.16385" lon="6.30901">
        <ele>522.72</ele>
        <time>2019-12-21T12:52:39Z</time>
      </trkpt>
      <trkpt lat="46.16367" lon="6.30925">
        <ele>522.64</ele>
        <time>2019-12-21T12:52:43Z</time>
      </trkpt>
      <trkpt lat="46.16348" lon="6.30951">
        <ele>523.01</ele>
        <time>2019-12-21T12:52:47Z</time>
      </trkpt>
      <trkpt lat="46.16333" lon="6.30979">
        <ele>523.45</ele>
        <time>2019-12-21T12:52:51Z</time>
      </trkpt>
      <trkpt lat="46.16318" lon="6.31007">
        <ele>523.08</ele>
        <time>2019-12-21T12:52:55Z</time>
      </trkpt>
      <trkpt lat="46.16303" lon="6.31037">
        <ele>522.4</ele>
        <time>2019-12-21T12:52:59Z</time>
      </trkpt>
      <trkpt lat="46.16286" lon="6.31066">
        <ele>522.43</ele>
        <time>2019-12-21T12:53:03Z</time>
      </trkpt>
      <trkpt lat="46.16264" lon="6.31085">
        <ele>522.76</ele>
        <time>2019-12-21T12:53:07Z</time>
      </trkpt>
      <trkpt lat="46.16244" lon="6.31104">
        <ele>522.95</ele>
        <time>2019-12-21T12:53:11Z</time>
      </trkpt>
      <trkpt lat="46.16225" lon="6.31125">
        <ele>523.26</ele>
        <time>2019-12-21T12:53:15Z</time>
      </trkpt>
      <trkpt lat="46.16208" lon="6.31149">
        <ele>523.37</ele>
        <time>2019-12-21T12:53:19Z</time>
      </trkpt>
      <trkpt lat="46.16193" lon="6.31174">
        <ele>523.74</ele>
        <time>2019-12-21T12:53:23Z</time>
      </trkpt>
      <trkpt lat="46.1618" lon="6.31202">
        <ele>524.44</ele>
        <time>2019-12-21T12:53:27Z</time>
      </trkpt>
      <trkpt lat="46.1617" lon="6.31231">
        <ele>525.15</ele>
        <time>2019-12-21T12:53:31Z</time>
      </trkpt>
      <trkpt lat="46.1616" lon="6.3126">
        <ele>525.89</ele>
        <time>2019-12-21T12:53:35Z</time>
      </trkpt>
      <trkpt lat="46.1615" lon="6.31285">
        <ele>526.55</ele>
        <time>2019-12-21T12:53:39Z</time>
      </trkpt>
      <trkpt lat="46.16146" lon="6.31311">
        <ele>526.53</ele>
        <time>2019-12-21T12:53:43Z</time>
      </trkpt>
      <trkpt lat="46.16152" lon="6.31347">
        <ele>525.35</ele>
        <time>2019-12-21T12:53:47Z</time>
      </trkpt>
      <trkpt lat="46.16163" lon="6.31389">
        <ele>524.46</ele>
        <time>2019-12-21T12:53:51Z</time>
      </trkpt>
      <trkpt lat="46.16172" lon="6.3143">
        <ele>524.16</ele>
        <time>2019-12-21T12:53:55Z</time>
      </trkpt>
      <trkpt lat="46.16179" lon="6.3147">
        <ele>524.47</ele>
        <time>2019-12-21T12:53:59Z</time>
      </trkpt>
      <trkpt lat="46.16169" lon="6.31503">
        <ele>524.64</ele>
        <time>2019-12-21T12:54:03Z</time>
      </trkpt>
      <trkpt lat="46.16157" lon="6.31531">
        <ele>524.19</ele>
        <time>2019-12-21T12:54:07Z</time>
      </trkpt>
      <trkpt lat="46.16146" lon="6.31564">
        <ele>522.94</ele>
        <time>2019-12-21T12:54:13Z</time>
      </trkpt>
      <trkpt lat="46.16144" lon="6.31599">
        <ele>521.97</ele>
        <time>2019-12-21T12:54:17Z</time>
      </trkpt>
      <trkpt lat="46.16139" lon="6.31631">
        <ele>522.46</ele>
        <time>2019-12-21T12:54:21Z</time>
      </trkpt>
      <trkpt lat="46.16135" lon="6.31657">
        <ele>521.28</ele>
        <time>2019-12-21T12:54:27Z</time>
      </trkpt>
      <trkpt lat="46.16115" lon="6.31671">
        <ele>519.26</ele>
        <time>2019-12-21T12:54:31Z</time>
      </trkpt>
      <trkpt lat="46.16092" lon="6.31706">
        <ele>515.9</ele>
        <time>2019-12-21T12:54:35Z</time>
      </trkpt>
      <trkpt lat="46.16082" lon="6.31731">
        <ele>514.12</ele>
        <time>2019-12-21T12:54:37Z</time>
      </trkpt>
      <trkpt lat="46.16073" lon="6.31762">
        <ele>511.68</ele>
        <time>2019-12-21T12:54:39Z</time>
      </trkpt>
      <trkpt lat="46.16067" lon="6.31793">
        <ele>509.29</ele>
        <time>2019-12-21T12:54:41Z</time>
      </trkpt>
      <trkpt lat="46.16062" lon="6.31823">
        <ele>507.11</ele>
        <time>2019-12-21T12:54:43Z</time>
      </trkpt>
      <trkpt lat="46.16063" lon="6.31852">
        <ele>505.99</ele>
        <time>2019-12-21T12:54:45Z</time>
      </trkpt>
      <trkpt lat="46.16069" lon="6.31877">
        <ele>505.38</ele>
        <time>2019-12-21T12:54:47Z</time>
      </trkpt>
      <trkpt lat="46.16075" lon="6.31904">
        <ele>504.73</ele>
        <time>2019-12-21T12:54:49Z</time>
      </trkpt>
      <trkpt lat="46.16081" lon="6.3193">
        <ele>504.7</ele>
        <time>2019-12-21T12:54:51Z</time>
      </trkpt>
      <trkpt lat="46.16089" lon="6.31955">
        <ele>504.84</ele>
        <time>2019-12-21T12:54:53Z</time>
      </trkpt>
      <trkpt lat="46.16109" lon="6.31989">
        <ele>505.33</ele>
        <time>2019-12-21T12:54:57Z</time>
      </trkpt>
      <trkpt lat="46.16126" lon="6.31996">
        <ele>506.68</ele>
        <time>2019-12-21T12:55:01Z</time>
      </trkpt>
      <trkpt lat="46.16147" lon="6.31993">
        <ele>509.35</ele>
        <time>2019-12-21T12:55:07Z</time>
      </trkpt>
      <trkpt lat="46.16167" lon="6.31992">
        <ele>511.36</ele>
        <time>2019-12-21T12:55:13Z</time>
      </trkpt>
      <trkpt lat="46.16192" lon="6.31997">
        <ele>512.97</ele>
        <time>2019-12-21T12:55:19Z</time>
      </trkpt>
      <trkpt lat="46.16213" lon="6.32001">
        <ele>513.53</ele>
        <time>2019-12-21T12:55:25Z</time>
      </trkpt>
      <trkpt lat="46.16233" lon="6.32006">
        <ele>515.4</ele>
        <time>2019-12-21T12:55:31Z</time>
      </trkpt>
      <trkpt lat="46.16252" lon="6.32018">
        <ele>516.71</ele>
        <time>2019-12-21T12:55:37Z</time>
      </trkpt>
      <trkpt lat="46.16271" lon="6.32034">
        <ele>518.2</ele>
        <time>2019-12-21T12:55:43Z</time>
      </trkpt>
      <trkpt lat="46.16291" lon="6.32048">
        <ele>519.48</ele>
        <time>2019-12-21T12:55:49Z</time>
      </trkpt>
      <trkpt lat="46.1631" lon="6.32061">
        <ele>520.7</ele>
        <time>2019-12-21T12:55:55Z</time>
      </trkpt>
      <trkpt lat="46.16329" lon="6.32074">
        <ele>522.22</ele>
        <time>2019-12-21T12:56:01Z</time>
      </trkpt>
      <trkpt lat="46.16343" lon="6.32094">
        <ele>523.84</ele>
        <time>2019-12-21T12:56:07Z</time>
      </trkpt>
      <trkpt lat="46.16354" lon="6.32118">
        <ele>525.41</ele>
        <time>2019-12-21T12:56:13Z</time>
      </trkpt>
      <trkpt lat="46.16365" lon="6.32141">
        <ele>526.96</ele>
        <time>2019-12-21T12:56:19Z</time>
      </trkpt>
      <trkpt lat="46.16375" lon="6.32164">
        <ele>528.63</ele>
        <time>2019-12-21T12:56:25Z</time>
      </trkpt>
      <trkpt lat="46.16385" lon="6.32189">
        <ele>532.12</ele>
        <time>2019-12-21T12:56:35Z</time>
      </trkpt>
      <trkpt lat="46.16388" lon="6.3222">
        <ele>534.04</ele>
        <time>2019-12-21T12:56:41Z</time>
      </trkpt>
      <trkpt lat="46.16386" lon="6.32251">
        <ele>535.24</ele>
        <time>2019-12-21T12:56:47Z</time>
      </trkpt>
      <trkpt lat="46.16379" lon="6.3228">
        <ele>536.08</ele>
        <time>2019-12-21T12:56:53Z</time>
      </trkpt>
      <trkpt lat="46.16367" lon="6.32302">
        <ele>537.22</ele>
        <time>2019-12-21T12:56:59Z</time>
      </trkpt>
      <trkpt lat="46.16353" lon="6.32332">
        <ele>536.71</ele>
        <time>2019-12-21T12:57:05Z</time>
      </trkpt>
      <trkpt lat="46.16342" lon="6.32364">
        <ele>537.2</ele>
        <time>2019-12-21T12:57:11Z</time>
      </trkpt>
      <trkpt lat="46.16333" lon="6.32396">
        <ele>537.03</ele>
        <time>2019-12-21T12:57:19Z</time>
      </trkpt>
      <trkpt lat="46.16328" lon="6.32425">
        <ele>538.37</ele>
        <time>2019-12-21T12:59:15Z</time>
      </trkpt>
      <trkpt lat="46.16325" lon="6.32456">
        <ele>538.64</ele>
        <time>2019-12-21T12:59:27Z</time>
      </trkpt>
      <trkpt lat="46.16321" lon="6.32484">
        <ele>539.14</ele>
        <time>2019-12-21T12:59:31Z</time>
      </trkpt>
      <trkpt lat="46.16317" lon="6.3251">
        <ele>539.27</ele>
        <time>2019-12-21T12:59:35Z</time>
      </trkpt>
      <trkpt lat="46.16313" lon="6.32539">
        <ele>539.7</ele>
        <time>2019-12-21T12:59:38Z</time>
      </trkpt>
      <trkpt lat="46.1631" lon="6.32571">
        <ele>540.27</ele>
        <time>2019-12-21T12:59:42Z</time>
      </trkpt>
      <trkpt lat="46.16306" lon="6.32601">
        <ele>541.37</ele>
        <time>2019-12-21T12:59:46Z</time>
      </trkpt>
      <trkpt lat="46.16302" lon="6.32632">
        <ele>542.01</ele>
        <time>2019-12-21T12:59:50Z</time>
      </trkpt>
      <trkpt lat="46.16298" lon="6.32662">
        <ele>542.14</ele>
        <time>2019-12-21T12:59:54Z</time>
      </trkpt>
      <trkpt lat="46.16295" lon="6.3269">
        <ele>541.44</ele>
        <time>2019-12-21T12:59:58Z</time>
      </trkpt>
      <trkpt lat="46.1629" lon="6.32725">
        <ele>542.66</ele>
        <time>2019-12-21T13:00:02Z</time>
      </trkpt>
      <trkpt lat="46.16286" lon="6.32756">
        <ele>543.49</ele>
        <time>2019-12-21T13:00:06Z</time>
      </trkpt>
      <trkpt lat="46.16282" lon="6.32787">
        <ele>544.17</ele>
        <time>2019-12-21T13:00:10Z</time>
      </trkpt>
      <trkpt lat="46.16279" lon="6.3282">
        <ele>544.34</ele>
        <time>2019-12-21T13:00:14Z</time>
      </trkpt>
      <trkpt lat="46.16278" lon="6.32851">
        <ele>544.33</ele>
        <time>2019-12-21T13:00:18Z</time>
      </trkpt>
      <trkpt lat="46.16281" lon="6.32888">
        <ele>544.52</ele>
        <time>2019-12-21T13:00:22Z</time>
      </trkpt>
      <trkpt lat="46.16285" lon="6.32922">
        <ele>545.26</ele>
        <time>2019-12-21T13:00:26Z</time>
      </trkpt>
      <trkpt lat="46.16287" lon="6.32952">
        <ele>546.13</ele>
        <time>2019-12-21T13:00:30Z</time>
      </trkpt>
      <trkpt lat="46.16287" lon="6.3298">
        <ele>547.44</ele>
        <time>2019-12-21T13:00:34Z</time>
      </trkpt>
      <trkpt lat="46.16287" lon="6.33008">
        <ele>547.9</ele>
        <time>2019-12-21T13:00:38Z</time>
      </trkpt>
      <trkpt lat="46.16286" lon="6.33036">
        <ele>548.32</ele>
        <time>2019-12-21T13:00:42Z</time>
      </trkpt>
      <trkpt lat="46.16281" lon="6.33064">
        <ele>548.84</ele>
        <time>2019-12-21T13:00:46Z</time>
      </trkpt>
      <trkpt lat="46.16276" lon="6.33092">
        <ele>548.66</ele>
        <time>2019-12-21T13:00:50Z</time>
      </trkpt>
      <trkpt lat="46.16269" lon="6.33121">
        <ele>548.77</ele>
        <time>2019-12-21T13:00:54Z</time>
      </trkpt>
      <trkpt lat="46.1626" lon="6.3315">
        <ele>549</ele>
        <time>2019-12-21T13:00:58Z</time>
      </trkpt>
      <trkpt lat="46.16247" lon="6.33175">
        <ele>549.4</ele>
        <time>2019-12-21T13:01:02Z</time>
      </trkpt>
      <trkpt lat="46.16232" lon="6.332">
        <ele>549.32</ele>
        <time>2019-12-21T13:01:06Z</time>
      </trkpt>
      <trkpt lat="46.16217" lon="6.33225">
        <ele>549.75</ele>
        <time>2019-12-21T13:01:10Z</time>
      </trkpt>
      <trkpt lat="46.16203" lon="6.33249">
        <ele>550.25</ele>
        <time>2019-12-21T13:01:14Z</time>
      </trkpt>
      <trkpt lat="46.16189" lon="6.33271">
        <ele>550.51</ele>
        <time>2019-12-21T13:01:18Z</time>
      </trkpt>
      <trkpt lat="46.1617" lon="6.33291">
        <ele>550.41</ele>
        <time>2019-12-21T13:01:22Z</time>
      </trkpt>
      <trkpt lat="46.1615" lon="6.33306">
        <ele>550.56</ele>
        <time>2019-12-21T13:01:26Z</time>
      </trkpt>
      <trkpt lat="46.16128" lon="6.33319">
        <ele>550.55</ele>
        <time>2019-12-21T13:01:30Z</time>
      </trkpt>
      <trkpt lat="46.16106" lon="6.33333">
        <ele>550.72</ele>
        <time>2019-12-21T13:01:34Z</time>
      </trkpt>
      <trkpt lat="46.16087" lon="6.33355">
        <ele>551.05</ele>
        <time>2019-12-21T13:01:38Z</time>
      </trkpt>
      <trkpt lat="46.16073" lon="6.33384">
        <ele>551.53</ele>
        <time>2019-12-21T13:01:42Z</time>
      </trkpt>
      <trkpt lat="46.1606" lon="6.33413">
        <ele>552.21</ele>
        <time>2019-12-21T13:01:46Z</time>
      </trkpt>
      <trkpt lat="46.16048" lon="6.33438">
        <ele>552.64</ele>
        <time>2019-12-21T13:01:50Z</time>
      </trkpt>
      <trkpt lat="46.16035" lon="6.33465">
        <ele>552.85</ele>
        <time>2019-12-21T13:01:54Z</time>
      </trkpt>
      <trkpt lat="46.16022" lon="6.33492">
        <ele>553.28</ele>
        <time>2019-12-21T13:01:58Z</time>
      </trkpt>
      <trkpt lat="46.16008" lon="6.33519">
        <ele>553.67</ele>
        <time>2019-12-21T13:02:02Z</time>
      </trkpt>
      <trkpt lat="46.15994" lon="6.33547">
        <ele>554.05</ele>
        <time>2019-12-21T13:02:06Z</time>
      </trkpt>
      <trkpt lat="46.15981" lon="6.33575">
        <ele>554.32</ele>
        <time>2019-12-21T13:02:10Z</time>
      </trkpt>
      <trkpt lat="46.15967" lon="6.33603">
        <ele>554.68</ele>
        <time>2019-12-21T13:02:14Z</time>
      </trkpt>
      <trkpt lat="46.15954" lon="6.33631">
        <ele>554.81</ele>
        <time>2019-12-21T13:02:18Z</time>
      </trkpt>
      <trkpt lat="46.15941" lon="6.33656">
        <ele>554.97</ele>
        <time>2019-12-21T13:02:22Z</time>
      </trkpt>
      <trkpt lat="46.15924" lon="6.33682">
        <ele>555.23</ele>
        <time>2019-12-21T13:02:26Z</time>
      </trkpt>
      <trkpt lat="46.15907" lon="6.33706">
        <ele>555.58</ele>
        <time>2019-12-21T13:02:30Z</time>
      </trkpt>
      <trkpt lat="46.1589" lon="6.33727">
        <ele>555.96</ele>
        <time>2019-12-21T13:02:34Z</time>
      </trkpt>
      <trkpt lat="46.15873" lon="6.33749">
        <ele>556.47</ele>
        <time>2019-12-21T13:02:38Z</time>
      </trkpt>
      <trkpt lat="46.15854" lon="6.33769">
        <ele>557.12</ele>
        <time>2019-12-21T13:02:42Z</time>
      </trkpt>
      <trkpt lat="46.15834" lon="6.33786">
        <ele>557.72</ele>
        <time>2019-12-21T13:02:46Z</time>
      </trkpt>
      <trkpt lat="46.15815" lon="6.33803">
        <ele>558.25</ele>
        <time>2019-12-21T13:02:50Z</time>
      </trkpt>
      <trkpt lat="46.15794" lon="6.33821">
        <ele>558.95</ele>
        <time>2019-12-21T13:02:54Z</time>
      </trkpt>
      <trkpt lat="46.15777" lon="6.33839">
        <ele>559.76</ele>
        <time>2019-12-21T13:02:58Z</time>
      </trkpt>
      <trkpt lat="46.15763" lon="6.33867">
        <ele>560.21</ele>
        <time>2019-12-21T13:03:02Z</time>
      </trkpt>
      <trkpt lat="46.15755" lon="6.33896">
        <ele>560.55</ele>
        <time>2019-12-21T13:03:06Z</time>
      </trkpt>
      <trkpt lat="46.15748" lon="6.33921">
        <ele>560.66</ele>
        <time>2019-12-21T13:03:10Z</time>
      </trkpt>
      <trkpt lat="46.15745" lon="6.33949">
        <ele>558.6</ele>
        <time>2019-12-21T13:03:16Z</time>
      </trkpt>
      <trkpt lat="46.15759" lon="6.33968">
        <ele>560.25</ele>
        <time>2019-12-21T13:03:22Z</time>
      </trkpt>
      <trkpt lat="46.1577" lon="6.33988">
        <ele>562.34</ele>
        <time>2019-12-21T13:03:28Z</time>
      </trkpt>
      <trkpt lat="46.15781" lon="6.34018">
        <ele>566</ele>
        <time>2019-12-21T13:03:36Z</time>
      </trkpt>
      <trkpt lat="46.1579" lon="6.3404">
        <ele>568.58</ele>
        <time>2019-12-21T13:03:42Z</time>
      </trkpt>
      <trkpt lat="46.15798" lon="6.34065">
        <ele>570.14</ele>
        <time>2019-12-21T13:03:48Z</time>
      </trkpt>
      <trkpt lat="46.15804" lon="6.3409">
        <ele>571.95</ele>
        <time>2019-12-21T13:03:54Z</time>
      </trkpt>
      <trkpt lat="46.15808" lon="6.34121">
        <ele>572.6</ele>
        <time>2019-12-21T13:04:00Z</time>
      </trkpt>
      <trkpt lat="46.15815" lon="6.3415">
        <ele>573.95</ele>
        <time>2019-12-21T13:04:06Z</time>
      </trkpt>
      <trkpt lat="46.15832" lon="6.34173">
        <ele>574.72</ele>
        <time>2019-12-21T13:04:12Z</time>
      </trkpt>
      <trkpt lat="46.15852" lon="6.34198">
        <ele>575.25</ele>
        <time>2019-12-21T13:04:18Z</time>
      </trkpt>
      <trkpt lat="46.15868" lon="6.34216">
        <ele>575.27</ele>
        <time>2019-12-21T13:04:22Z</time>
      </trkpt>
      <trkpt lat="46.15884" lon="6.34235">
        <ele>575.36</ele>
        <time>2019-12-21T13:04:26Z</time>
      </trkpt>
      <trkpt lat="46.15898" lon="6.3426">
        <ele>575.69</ele>
        <time>2019-12-21T13:04:30Z</time>
      </trkpt>
      <trkpt lat="46.15912" lon="6.34285">
        <ele>575.92</ele>
        <time>2019-12-21T13:04:34Z</time>
      </trkpt>
      <trkpt lat="46.15926" lon="6.3431">
        <ele>576.67</ele>
        <time>2019-12-21T13:04:38Z</time>
      </trkpt>
      <trkpt lat="46.15941" lon="6.34334">
        <ele>577.14</ele>
        <time>2019-12-21T13:04:42Z</time>
      </trkpt>
      <trkpt lat="46.15957" lon="6.34358">
        <ele>577.23</ele>
        <time>2019-12-21T13:04:46Z</time>
      </trkpt>
      <trkpt lat="46.15976" lon="6.34377">
        <ele>577.52</ele>
        <time>2019-12-21T13:04:50Z</time>
      </trkpt>
      <trkpt lat="46.15993" lon="6.34397">
        <ele>577.27</ele>
        <time>2019-12-21T13:04:54Z</time>
      </trkpt>
      <trkpt lat="46.16014" lon="6.34417">
        <ele>576.95</ele>
        <time>2019-12-21T13:04:58Z</time>
      </trkpt>
      <trkpt lat="46.16035" lon="6.3444">
        <ele>576.96</ele>
        <time>2019-12-21T13:05:02Z</time>
      </trkpt>
      <trkpt lat="46.16054" lon="6.34464">
        <ele>577.04</ele>
        <time>2019-12-21T13:05:06Z</time>
      </trkpt>
      <trkpt lat="46.16072" lon="6.34488">
        <ele>577.14</ele>
        <time>2019-12-21T13:05:10Z</time>
      </trkpt>
      <trkpt lat="46.16083" lon="6.34523">
        <ele>576.17</ele>
        <time>2019-12-21T13:05:14Z</time>
      </trkpt>
      <trkpt lat="46.16091" lon="6.3456">
        <ele>576.33</ele>
        <time>2019-12-21T13:05:18Z</time>
      </trkpt>
      <trkpt lat="46.16098" lon="6.34596">
        <ele>576.1</ele>
        <time>2019-12-21T13:05:22Z</time>
      </trkpt>
      <trkpt lat="46.16106" lon="6.34634">
        <ele>575.76</ele>
        <time>2019-12-21T13:05:26Z</time>
      </trkpt>
      <trkpt lat="46.16111" lon="6.34675">
        <ele>576</ele>
        <time>2019-12-21T13:05:30Z</time>
      </trkpt>
      <trkpt lat="46.16121" lon="6.3472">
        <ele>575.16</ele>
        <time>2019-12-21T13:05:34Z</time>
      </trkpt>
      <trkpt lat="46.16144" lon="6.34762">
        <ele>574.91</ele>
        <time>2019-12-21T13:05:38Z</time>
      </trkpt>
      <trkpt lat="46.16156" lon="6.34785">
        <ele>574.49</ele>
        <time>2019-12-21T13:05:40Z</time>
      </trkpt>
      <trkpt lat="46.16164" lon="6.34815">
        <ele>573.42</ele>
        <time>2019-12-21T13:05:42Z</time>
      </trkpt>
      <trkpt lat="46.16169" lon="6.34847">
        <ele>572.91</ele>
        <time>2019-12-21T13:05:44Z</time>
      </trkpt>
      <trkpt lat="46.16166" lon="6.34881">
        <ele>571.85</ele>
        <time>2019-12-21T13:05:46Z</time>
      </trkpt>
      <trkpt lat="46.16161" lon="6.34915">
        <ele>570.84</ele>
        <time>2019-12-21T13:05:48Z</time>
      </trkpt>
      <trkpt lat="46.16154" lon="6.34946">
        <ele>569.43</ele>
        <time>2019-12-21T13:05:50Z</time>
      </trkpt>
      <trkpt lat="46.16145" lon="6.34975">
        <ele>568.3</ele>
        <time>2019-12-21T13:05:52Z</time>
      </trkpt>
      <trkpt lat="46.16133" lon="6.35">
        <ele>567.36</ele>
        <time>2019-12-21T13:05:54Z</time>
      </trkpt>
      <trkpt lat="46.16122" lon="6.35021">
        <ele>565.99</ele>
        <time>2019-12-21T13:05:56Z</time>
      </trkpt>
      <trkpt lat="46.1612" lon="6.35048">
        <ele>564.96</ele>
        <time>2019-12-21T13:05:58Z</time>
      </trkpt>
      <trkpt lat="46.16125" lon="6.35077">
        <ele>563.24</ele>
        <time>2019-12-21T13:06:00Z</time>
      </trkpt>
      <trkpt lat="46.16133" lon="6.35107">
        <ele>561.89</ele>
        <time>2019-12-21T13:06:02Z</time>
      </trkpt>
      <trkpt lat="46.1614" lon="6.35137">
        <ele>560.1</ele>
        <time>2019-12-21T13:06:04Z</time>
      </trkpt>
      <trkpt lat="46.16148" lon="6.35167">
        <ele>558.22</ele>
        <time>2019-12-21T13:06:06Z</time>
      </trkpt>
      <trkpt lat="46.16154" lon="6.35192">
        <ele>556.54</ele>
        <time>2019-12-21T13:06:08Z</time>
      </trkpt>
      <trkpt lat="46.16162" lon="6.35233">
        <ele>554.89</ele>
        <time>2019-12-21T13:06:12Z</time>
      </trkpt>
      <trkpt lat="46.16167" lon="6.35269">
        <ele>553.48</ele>
        <time>2019-12-21T13:06:16Z</time>
      </trkpt>
      <trkpt lat="46.16163" lon="6.35302">
        <ele>552.35</ele>
        <time>2019-12-21T13:06:22Z</time>
      </trkpt>
      <trkpt lat="46.16157" lon="6.35328">
        <ele>551.53</ele>
        <time>2019-12-21T13:06:26Z</time>
      </trkpt>
      <trkpt lat="46.16145" lon="6.35354">
        <ele>551.59</ele>
        <time>2019-12-21T13:06:30Z</time>
      </trkpt>
      <trkpt lat="46.16131" lon="6.35382">
        <ele>551.52</ele>
        <time>2019-12-21T13:06:34Z</time>
      </trkpt>
      <trkpt lat="46.16116" lon="6.3541">
        <ele>551.48</ele>
        <time>2019-12-21T13:06:38Z</time>
      </trkpt>
      <trkpt lat="46.16102" lon="6.35437">
        <ele>551.4</ele>
        <time>2019-12-21T13:06:42Z</time>
      </trkpt>
      <trkpt lat="46.16085" lon="6.35464">
        <ele>551.67</ele>
        <time>2019-12-21T13:06:46Z</time>
      </trkpt>
      <trkpt lat="46.16066" lon="6.35487">
        <ele>552.69</ele>
        <time>2019-12-21T13:06:50Z</time>
      </trkpt>
      <trkpt lat="46.16044" lon="6.35508">
        <ele>553.15</ele>
        <time>2019-12-21T13:06:54Z</time>
      </trkpt>
      <trkpt lat="46.16022" lon="6.35528">
        <ele>552.99</ele>
        <time>2019-12-21T13:06:58Z</time>
      </trkpt>
      <trkpt lat="46.16" lon="6.35549">
        <ele>553.21</ele>
        <time>2019-12-21T13:07:02Z</time>
      </trkpt>
      <trkpt lat="46.15979" lon="6.3557">
        <ele>553.58</ele>
        <time>2019-12-21T13:07:06Z</time>
      </trkpt>
      <trkpt lat="46.15959" lon="6.3559">
        <ele>554.73</ele>
        <time>2019-12-21T13:07:10Z</time>
      </trkpt>
      <trkpt lat="46.15939" lon="6.35615">
        <ele>553.97</ele>
        <time>2019-12-21T13:07:14Z</time>
      </trkpt>
      <trkpt lat="46.15922" lon="6.35645">
        <ele>553.95</ele>
        <time>2019-12-21T13:07:18Z</time>
      </trkpt>
      <trkpt lat="46.15912" lon="6.35676">
        <ele>553.58</ele>
        <time>2019-12-21T13:07:22Z</time>
      </trkpt>
      <trkpt lat="46.15907" lon="6.35709">
        <ele>553.21</ele>
        <time>2019-12-21T13:07:26Z</time>
      </trkpt>
      <trkpt lat="46.15905" lon="6.35746">
        <ele>553.39</ele>
        <time>2019-12-21T13:07:30Z</time>
      </trkpt>
      <trkpt lat="46.15905" lon="6.35781">
        <ele>553.71</ele>
        <time>2019-12-21T13:07:34Z</time>
      </trkpt>
      <trkpt lat="46.15911" lon="6.35822">
        <ele>553.45</ele>
        <time>2019-12-21T13:07:38Z</time>
      </trkpt>
      <trkpt lat="46.15923" lon="6.35858">
        <ele>552.59</ele>
        <time>2019-12-21T13:07:42Z</time>
      </trkpt>
      <trkpt lat="46.15934" lon="6.35887">
        <ele>552.86</ele>
        <time>2019-12-21T13:07:46Z</time>
      </trkpt>
      <trkpt lat="46.15945" lon="6.35918">
        <ele>554.39</ele>
        <time>2019-12-21T13:07:50Z</time>
      </trkpt>
      <trkpt lat="46.15955" lon="6.35945">
        <ele>555.09</ele>
        <time>2019-12-21T13:07:56Z</time>
      </trkpt>
      <trkpt lat="46.15966" lon="6.35972">
        <ele>556.07</ele>
        <time>2019-12-21T13:08:02Z</time>
      </trkpt>
      <trkpt lat="46.15977" lon="6.35997">
        <ele>557.82</ele>
        <time>2019-12-21T13:08:08Z</time>
      </trkpt>
      <trkpt lat="46.15987" lon="6.36022">
        <ele>560.03</ele>
        <time>2019-12-21T13:08:14Z</time>
      </trkpt>
      <trkpt lat="46.15997" lon="6.36046">
        <ele>561.73</ele>
        <time>2019-12-21T13:08:20Z</time>
      </trkpt>
      <trkpt lat="46.16007" lon="6.36069">
        <ele>563.44</ele>
        <time>2019-12-21T13:08:26Z</time>
      </trkpt>
      <trkpt lat="46.16017" lon="6.36093">
        <ele>564.66</ele>
        <time>2019-12-21T13:08:32Z</time>
      </trkpt>
      <trkpt lat="46.16027" lon="6.36119">
        <ele>566.6</ele>
        <time>2019-12-21T13:08:38Z</time>
      </trkpt>
      <trkpt lat="46.1604" lon="6.36148">
        <ele>567.23</ele>
        <time>2019-12-21T13:08:46Z</time>
      </trkpt>
      <trkpt lat="46.16049" lon="6.3617">
        <ele>569</ele>
        <time>2019-12-21T13:08:52Z</time>
      </trkpt>
      <trkpt lat="46.16059" lon="6.36196">
        <ele>570.64</ele>
        <time>2019-12-21T13:08:58Z</time>
      </trkpt>
      <trkpt lat="46.16065" lon="6.36223">
        <ele>572.59</ele>
        <time>2019-12-21T13:09:04Z</time>
      </trkpt>
      <trkpt lat="46.16067" lon="6.36249">
        <ele>574.18</ele>
        <time>2019-12-21T13:09:10Z</time>
      </trkpt>
      <trkpt lat="46.16066" lon="6.36276">
        <ele>575.87</ele>
        <time>2019-12-21T13:09:16Z</time>
      </trkpt>
      <trkpt lat="46.16065" lon="6.36304">
        <ele>577.19</ele>
        <time>2019-12-21T13:09:22Z</time>
      </trkpt>
      <trkpt lat="46.16064" lon="6.36332">
        <ele>578.53</ele>
        <time>2019-12-21T13:09:28Z</time>
      </trkpt>
      <trkpt lat="46.16062" lon="6.3636">
        <ele>580.03</ele>
        <time>2019-12-21T13:09:34Z</time>
      </trkpt>
      <trkpt lat="46.16061" lon="6.36388">
        <ele>581.51</ele>
        <time>2019-12-21T13:09:40Z</time>
      </trkpt>
      <trkpt lat="46.1606" lon="6.36415">
        <ele>583.13</ele>
        <time>2019-12-21T13:09:46Z</time>
      </trkpt>
      <trkpt lat="46.16059" lon="6.36444">
        <ele>584.8</ele>
        <time>2019-12-21T13:09:52Z</time>
      </trkpt>
      <trkpt lat="46.16062" lon="6.36473">
        <ele>586.35</ele>
        <time>2019-12-21T13:09:58Z</time>
      </trkpt>
      <trkpt lat="46.16067" lon="6.36501">
        <ele>588.29</ele>
        <time>2019-12-21T13:10:04Z</time>
      </trkpt>
      <trkpt lat="46.16073" lon="6.36531">
        <ele>589.74</ele>
        <time>2019-12-21T13:10:10Z</time>
      </trkpt>
      <trkpt lat="46.16079" lon="6.36562">
        <ele>590.94</ele>
        <time>2019-12-21T13:10:16Z</time>
      </trkpt>
      <trkpt lat="46.16086" lon="6.36593">
        <ele>592.03</ele>
        <time>2019-12-21T13:10:22Z</time>
      </trkpt>
      <trkpt lat="46.16093" lon="6.36625">
        <ele>593.04</ele>
        <time>2019-12-21T13:10:28Z</time>
      </trkpt>
      <trkpt lat="46.16101" lon="6.36659">
        <ele>593.66</ele>
        <time>2019-12-21T13:10:34Z</time>
      </trkpt>
      <trkpt lat="46.16107" lon="6.36693">
        <ele>594.15</ele>
        <time>2019-12-21T13:10:40Z</time>
      </trkpt>
      <trkpt lat="46.1611" lon="6.36727">
        <ele>594.89</ele>
        <time>2019-12-21T13:10:46Z</time>
      </trkpt>
      <trkpt lat="46.16108" lon="6.36762">
        <ele>595.71</ele>
        <time>2019-12-21T13:10:52Z</time>
      </trkpt>
      <trkpt lat="46.16101" lon="6.36794">
        <ele>596.8</ele>
        <time>2019-12-21T13:10:58Z</time>
      </trkpt>
      <trkpt lat="46.16093" lon="6.36825">
        <ele>598.06</ele>
        <time>2019-12-21T13:11:04Z</time>
      </trkpt>
      <trkpt lat="46.16088" lon="6.36858">
        <ele>599.19</ele>
        <time>2019-12-21T13:11:10Z</time>
      </trkpt>
      <trkpt lat="46.16086" lon="6.36892">
        <ele>600.1</ele>
        <time>2019-12-21T13:11:16Z</time>
      </trkpt>
      <trkpt lat="46.16085" lon="6.36925">
        <ele>601.35</ele>
        <time>2019-12-21T13:11:22Z</time>
      </trkpt>
      <trkpt lat="46.16087" lon="6.36957">
        <ele>602.27</ele>
        <time>2019-12-21T13:11:28Z</time>
      </trkpt>
      <trkpt lat="46.16093" lon="6.36989">
        <ele>603.73</ele>
        <time>2019-12-21T13:11:34Z</time>
      </trkpt>
      <trkpt lat="46.16106" lon="6.37019">
        <ele>604.78</ele>
        <time>2019-12-21T13:11:40Z</time>
      </trkpt>
      <trkpt lat="46.1612" lon="6.37051">
        <ele>605.6</ele>
        <time>2019-12-21T13:11:46Z</time>
      </trkpt>
      <trkpt lat="46.1613" lon="6.37073">
        <ele>605.99</ele>
        <time>2019-12-21T13:11:50Z</time>
      </trkpt>
      <trkpt lat="46.16139" lon="6.37096">
        <ele>606.42</ele>
        <time>2019-12-21T13:11:54Z</time>
      </trkpt>
      <trkpt lat="46.16151" lon="6.37128">
        <ele>607.82</ele>
        <time>2019-12-21T13:12:00Z</time>
      </trkpt>
      <trkpt lat="46.16162" lon="6.37156">
        <ele>609.88</ele>
        <time>2019-12-21T13:12:06Z</time>
      </trkpt>
      <trkpt lat="46.16179" lon="6.37177">
        <ele>611.82</ele>
        <time>2019-12-21T13:12:12Z</time>
      </trkpt>
      <trkpt lat="46.16199" lon="6.37189">
        <ele>613.26</ele>
        <time>2019-12-21T13:12:18Z</time>
      </trkpt>
      <trkpt lat="46.16216" lon="6.3721">
        <ele>613.94</ele>
        <time>2019-12-21T13:12:24Z</time>
      </trkpt>
      <trkpt lat="46.16216" lon="6.37242">
        <ele>614.99</ele>
        <time>2019-12-21T13:12:30Z</time>
      </trkpt>
      <trkpt lat="46.16197" lon="6.37262">
        <ele>615.16</ele>
        <time>2019-12-21T13:12:36Z</time>
      </trkpt>
      <trkpt lat="46.16172" lon="6.37256">
        <ele>615.65</ele>
        <time>2019-12-21T13:12:42Z</time>
      </trkpt>
      <trkpt lat="46.16148" lon="6.37245">
        <ele>615.84</ele>
        <time>2019-12-21T13:12:48Z</time>
      </trkpt>
      <trkpt lat="46.16124" lon="6.37236">
        <ele>616.35</ele>
        <time>2019-12-21T13:12:54Z</time>
      </trkpt>
      <trkpt lat="46.16099" lon="6.37235">
        <ele>616.95</ele>
        <time>2019-12-21T13:13:00Z</time>
      </trkpt>
      <trkpt lat="46.16081" lon="6.37235">
        <ele>617.69</ele>
        <time>2019-12-21T13:13:04Z</time>
      </trkpt>
      <trkpt lat="46.16063" lon="6.37237">
        <ele>618.87</ele>
        <time>2019-12-21T13:13:08Z</time>
      </trkpt>
      <trkpt lat="46.16038" lon="6.37242">
        <ele>620.6</ele>
        <time>2019-12-21T13:13:14Z</time>
      </trkpt>
      <trkpt lat="46.16014" lon="6.37251">
        <ele>622.07</ele>
        <time>2019-12-21T13:13:20Z</time>
      </trkpt>
      <trkpt lat="46.15992" lon="6.37263">
        <ele>623.8</ele>
        <time>2019-12-21T13:13:26Z</time>
      </trkpt>
      <trkpt lat="46.1597" lon="6.37278">
        <ele>625.55</ele>
        <time>2019-12-21T13:13:32Z</time>
      </trkpt>
      <trkpt lat="46.15947" lon="6.37292">
        <ele>626.97</ele>
        <time>2019-12-21T13:13:38Z</time>
      </trkpt>
      <trkpt lat="46.15926" lon="6.37306">
        <ele>627.9</ele>
        <time>2019-12-21T13:13:44Z</time>
      </trkpt>
      <trkpt lat="46.15904" lon="6.37319">
        <ele>629.42</ele>
        <time>2019-12-21T13:13:50Z</time>
      </trkpt>
      <trkpt lat="46.15885" lon="6.37332">
        <ele>631.15</ele>
        <time>2019-12-21T13:13:56Z</time>
      </trkpt>
      <trkpt lat="46.15865" lon="6.37344">
        <ele>632.37</ele>
        <time>2019-12-21T13:14:02Z</time>
      </trkpt>
      <trkpt lat="46.15845" lon="6.37358">
        <ele>633.58</ele>
        <time>2019-12-21T13:14:08Z</time>
      </trkpt>
      <trkpt lat="46.15828" lon="6.37375">
        <ele>634.89</ele>
        <time>2019-12-21T13:14:14Z</time>
      </trkpt>
      <trkpt lat="46.15813" lon="6.374">
        <ele>636.4</ele>
        <time>2019-12-21T13:14:20Z</time>
      </trkpt>
      <trkpt lat="46.158" lon="6.37424">
        <ele>639.2</ele>
        <time>2019-12-21T13:16:34Z</time>
      </trkpt>
      <trkpt lat="46.15786" lon="6.3745">
        <ele>640.16</ele>
        <time>2019-12-21T13:16:40Z</time>
      </trkpt>
      <trkpt lat="46.1577" lon="6.37474">
        <ele>641.25</ele>
        <time>2019-12-21T13:16:46Z</time>
      </trkpt>
      <trkpt lat="46.15753" lon="6.37499">
        <ele>642.51</ele>
        <time>2019-12-21T13:16:52Z</time>
      </trkpt>
      <trkpt lat="46.15736" lon="6.37524">
        <ele>643.64</ele>
        <time>2019-12-21T13:16:58Z</time>
      </trkpt>
      <trkpt lat="46.15714" lon="6.37545">
        <ele>644.36</ele>
        <time>2019-12-21T13:17:04Z</time>
      </trkpt>
      <trkpt lat="46.15692" lon="6.37562">
        <ele>645.06</ele>
        <time>2019-12-21T13:17:10Z</time>
      </trkpt>
      <trkpt lat="46.1567" lon="6.37577">
        <ele>646.05</ele>
        <time>2019-12-21T13:17:16Z</time>
      </trkpt>
      <trkpt lat="46.15649" lon="6.37594">
        <ele>647.24</ele>
        <time>2019-12-21T13:17:22Z</time>
      </trkpt>
      <trkpt lat="46.15629" lon="6.3761">
        <ele>648.26</ele>
        <time>2019-12-21T13:17:28Z</time>
      </trkpt>
      <trkpt lat="46.15612" lon="6.37629">
        <ele>649.73</ele>
        <time>2019-12-21T13:17:34Z</time>
      </trkpt>
      <trkpt lat="46.15597" lon="6.37647">
        <ele>651.18</ele>
        <time>2019-12-21T13:17:40Z</time>
      </trkpt>
      <trkpt lat="46.15581" lon="6.37668">
        <ele>652.99</ele>
        <time>2019-12-21T13:17:48Z</time>
      </trkpt>
      <trkpt lat="46.15565" lon="6.37691">
        <ele>655.05</ele>
        <time>2019-12-21T13:17:56Z</time>
      </trkpt>
      <trkpt lat="46.15551" lon="6.37715">
        <ele>657.6</ele>
        <time>2019-12-21T13:18:04Z</time>
      </trkpt>
      <trkpt lat="46.15534" lon="6.37736">
        <ele>659.01</ele>
        <time>2019-12-21T13:18:12Z</time>
      </trkpt>
      <trkpt lat="46.1552" lon="6.37752">
        <ele>660.33</ele>
        <time>2019-12-21T13:18:18Z</time>
      </trkpt>
      <trkpt lat="46.15501" lon="6.37772">
        <ele>662.01</ele>
        <time>2019-12-21T13:18:26Z</time>
      </trkpt>
      <trkpt lat="46.15484" lon="6.37795">
        <ele>663.87</ele>
        <time>2019-12-21T13:18:34Z</time>
      </trkpt>
      <trkpt lat="46.1547" lon="6.37813">
        <ele>664.83</ele>
        <time>2019-12-21T13:18:40Z</time>
      </trkpt>
      <trkpt lat="46.15455" lon="6.37832">
        <ele>665.61</ele>
        <time>2019-12-21T13:18:46Z</time>
      </trkpt>
      <trkpt lat="46.15442" lon="6.37855">
        <ele>666.69</ele>
        <time>2019-12-21T13:18:52Z</time>
      </trkpt>
      <trkpt lat="46.15432" lon="6.37879">
        <ele>667.53</ele>
        <time>2019-12-21T13:18:58Z</time>
      </trkpt>
      <trkpt lat="46.15422" lon="6.37902">
        <ele>668.72</ele>
        <time>2019-12-21T13:19:04Z</time>
      </trkpt>
      <trkpt lat="46.15413" lon="6.37925">
        <ele>670.45</ele>
        <time>2019-12-21T13:19:10Z</time>
      </trkpt>
      <trkpt lat="46.15406" lon="6.37952">
        <ele>671.93</ele>
        <time>2019-12-21T13:19:16Z</time>
      </trkpt>
      <trkpt lat="46.15399" lon="6.37977">
        <ele>669.78</ele>
        <time>2019-12-21T13:19:22Z</time>
      </trkpt>
      <trkpt lat="46.15388" lon="6.38003">
        <ele>674.33</ele>
        <time>2019-12-21T13:19:30Z</time>
      </trkpt>
      <trkpt lat="46.15374" lon="6.3803">
        <ele>677.6</ele>
        <time>2019-12-21T13:19:38Z</time>
      </trkpt>
      <trkpt lat="46.15363" lon="6.38054">
        <ele>679.77</ele>
        <time>2019-12-21T13:19:46Z</time>
      </trkpt>
      <trkpt lat="46.15351" lon="6.38079">
        <ele>681.22</ele>
        <time>2019-12-21T13:19:52Z</time>
      </trkpt>
      <trkpt lat="46.1534" lon="6.381">
        <ele>682.04</ele>
        <time>2019-12-21T13:19:58Z</time>
      </trkpt>
      <trkpt lat="46.15328" lon="6.3813">
        <ele>684</ele>
        <time>2019-12-21T13:20:06Z</time>
      </trkpt>
      <trkpt lat="46.15317" lon="6.38157">
        <ele>685.99</ele>
        <time>2019-12-21T13:20:14Z</time>
      </trkpt>
      <trkpt lat="46.15312" lon="6.38189">
        <ele>687.79</ele>
        <time>2019-12-21T13:20:22Z</time>
      </trkpt>
      <trkpt lat="46.15313" lon="6.38217">
        <ele>689.27</ele>
        <time>2019-12-21T13:20:28Z</time>
      </trkpt>
      <trkpt lat="46.15316" lon="6.38244">
        <ele>690.78</ele>
        <time>2019-12-21T13:20:34Z</time>
      </trkpt>
      <trkpt lat="46.15317" lon="6.38278">
        <ele>692.88</ele>
        <time>2019-12-21T13:20:42Z</time>
      </trkpt>
      <trkpt lat="46.15318" lon="6.38312">
        <ele>695.37</ele>
        <time>2019-12-21T13:20:50Z</time>
      </trkpt>
      <trkpt lat="46.15322" lon="6.38337">
        <ele>696.76</ele>
        <time>2019-12-21T13:20:56Z</time>
      </trkpt>
      <trkpt lat="46.15335" lon="6.38363">
        <ele>698.64</ele>
        <time>2019-12-21T13:21:04Z</time>
      </trkpt>
      <trkpt lat="46.15347" lon="6.38386">
        <ele>702.08</ele>
        <time>2019-12-21T13:21:12Z</time>
      </trkpt>
      <trkpt lat="46.15357" lon="6.3841">
        <ele>703.37</ele>
        <time>2019-12-21T13:21:18Z</time>
      </trkpt>
      <trkpt lat="46.15363" lon="6.38435">
        <ele>705.38</ele>
        <time>2019-12-21T13:21:24Z</time>
      </trkpt>
      <trkpt lat="46.15367" lon="6.3846">
        <ele>706.54</ele>
        <time>2019-12-21T13:21:30Z</time>
      </trkpt>
      <trkpt lat="46.15374" lon="6.38493">
        <ele>708.81</ele>
        <time>2019-12-21T13:21:38Z</time>
      </trkpt>
      <trkpt lat="46.15381" lon="6.38524">
        <ele>711</ele>
        <time>2019-12-21T13:21:46Z</time>
      </trkpt>
      <trkpt lat="46.15387" lon="6.38557">
        <ele>712.95</ele>
        <time>2019-12-21T13:21:54Z</time>
      </trkpt>
      <trkpt lat="46.15395" lon="6.38588">
        <ele>714.83</ele>
        <time>2019-12-21T13:22:02Z</time>
      </trkpt>
      <trkpt lat="46.15402" lon="6.3862">
        <ele>716.62</ele>
        <time>2019-12-21T13:22:10Z</time>
      </trkpt>
      <trkpt lat="46.15409" lon="6.38652">
        <ele>718.58</ele>
        <time>2019-12-21T13:22:18Z</time>
      </trkpt>
      <trkpt lat="46.15418" lon="6.38683">
        <ele>720.22</ele>
        <time>2019-12-21T13:22:26Z</time>
      </trkpt>
      <trkpt lat="46.15428" lon="6.38715">
        <ele>722.04</ele>
        <time>2019-12-21T13:22:34Z</time>
      </trkpt>
      <trkpt lat="46.15437" lon="6.38746">
        <ele>724.05</ele>
        <time>2019-12-21T13:22:42Z</time>
      </trkpt>
      <trkpt lat="46.15451" lon="6.38772">
        <ele>726.19</ele>
        <time>2019-12-21T13:22:50Z</time>
      </trkpt>
      <trkpt lat="46.15466" lon="6.38794">
        <ele>727.94</ele>
        <time>2019-12-21T13:22:58Z</time>
      </trkpt>
      <trkpt lat="46.15484" lon="6.38815">
        <ele>729.97</ele>
        <time>2019-12-21T13:23:06Z</time>
      </trkpt>
      <trkpt lat="46.15499" lon="6.38829">
        <ele>731.41</ele>
        <time>2019-12-21T13:23:12Z</time>
      </trkpt>
      <trkpt lat="46.15516" lon="6.38841">
        <ele>732.59</ele>
        <time>2019-12-21T13:23:18Z</time>
      </trkpt>
      <trkpt lat="46.15538" lon="6.38857">
        <ele>733.25</ele>
        <time>2019-12-21T13:23:26Z</time>
      </trkpt>
      <trkpt lat="46.15558" lon="6.38875">
        <ele>734.64</ele>
        <time>2019-12-21T13:23:34Z</time>
      </trkpt>
      <trkpt lat="46.15573" lon="6.3889">
        <ele>735.66</ele>
        <time>2019-12-21T13:23:40Z</time>
      </trkpt>
      <trkpt lat="46.15589" lon="6.38901">
        <ele>737.31</ele>
        <time>2019-12-21T13:23:46Z</time>
      </trkpt>
      <trkpt lat="46.15605" lon="6.38913">
        <ele>740.67</ele>
        <time>2019-12-21T13:23:52Z</time>
      </trkpt>
      <trkpt lat="46.15626" lon="6.38935">
        <ele>741.12</ele>
        <time>2019-12-21T13:23:58Z</time>
      </trkpt>
      <trkpt lat="46.15645" lon="6.38953">
        <ele>742.41</ele>
        <time>2019-12-21T13:24:04Z</time>
      </trkpt>
      <trkpt lat="46.15665" lon="6.38966">
        <ele>743.34</ele>
        <time>2019-12-21T13:24:10Z</time>
      </trkpt>
      <trkpt lat="46.15684" lon="6.38977">
        <ele>744.73</ele>
        <time>2019-12-21T13:24:16Z</time>
      </trkpt>
      <trkpt lat="46.15706" lon="6.38979">
        <ele>744.66</ele>
        <time>2019-12-21T13:24:22Z</time>
      </trkpt>
      <trkpt lat="46.15728" lon="6.38984">
        <ele>746.53</ele>
        <time>2019-12-21T13:24:28Z</time>
      </trkpt>
      <trkpt lat="46.15748" lon="6.39002">
        <ele>747.62</ele>
        <time>2019-12-21T13:24:34Z</time>
      </trkpt>
      <trkpt lat="46.15762" lon="6.39021">
        <ele>747.9</ele>
        <time>2019-12-21T13:24:38Z</time>
      </trkpt>
      <trkpt lat="46.15776" lon="6.39039">
        <ele>748.5</ele>
        <time>2019-12-21T13:24:42Z</time>
      </trkpt>
      <trkpt lat="46.1579" lon="6.39056">
        <ele>748.64</ele>
        <time>2019-12-21T13:24:46Z</time>
      </trkpt>
      <trkpt lat="46.15806" lon="6.39071">
        <ele>748.8</ele>
        <time>2019-12-21T13:24:50Z</time>
      </trkpt>
      <trkpt lat="46.15829" lon="6.39068">
        <ele>749.84</ele>
        <time>2019-12-21T13:24:56Z</time>
      </trkpt>
      <trkpt lat="46.15852" lon="6.39066">
        <ele>751.44</ele>
        <time>2019-12-21T13:25:04Z</time>
      </trkpt>
      <trkpt lat="46.15873" lon="6.39065">
        <ele>756.35</ele>
        <time>2019-12-21T13:25:12Z</time>
      </trkpt>
      <trkpt lat="46.15892" lon="6.39073">
        <ele>757.2</ele>
        <time>2019-12-21T13:25:20Z</time>
      </trkpt>
      <trkpt lat="46.15914" lon="6.39084">
        <ele>758.13</ele>
        <time>2019-12-21T13:25:28Z</time>
      </trkpt>
      <trkpt lat="46.15937" lon="6.39095">
        <ele>759.28</ele>
        <time>2019-12-21T13:25:36Z</time>
      </trkpt>
      <trkpt lat="46.15954" lon="6.39106">
        <ele>760.26</ele>
        <time>2019-12-21T13:25:42Z</time>
      </trkpt>
      <trkpt lat="46.15976" lon="6.39107">
        <ele>761.4</ele>
        <time>2019-12-21T13:25:50Z</time>
      </trkpt>
      <trkpt lat="46.15979" lon="6.39078">
        <ele>762.69</ele>
        <time>2019-12-21T13:26:00Z</time>
      </trkpt>
      <trkpt lat="46.15962" lon="6.39058">
        <ele>764.47</ele>
        <time>2019-12-21T13:26:08Z</time>
      </trkpt>
      <trkpt lat="46.15944" lon="6.3904">
        <ele>765.37</ele>
        <time>2019-12-21T13:26:16Z</time>
      </trkpt>
      <trkpt lat="46.15929" lon="6.39019">
        <ele>767.89</ele>
        <time>2019-12-21T13:26:24Z</time>
      </trkpt>
      <trkpt lat="46.15913" lon="6.38995">
        <ele>770.08</ele>
        <time>2019-12-21T13:26:32Z</time>
      </trkpt>
      <trkpt lat="46.159" lon="6.38973">
        <ele>771.09</ele>
        <time>2019-12-21T13:26:40Z</time>
      </trkpt>
      <trkpt lat="46.15887" lon="6.38946">
        <ele>772.99</ele>
        <time>2019-12-21T13:26:48Z</time>
      </trkpt>
      <trkpt lat="46.15874" lon="6.38918">
        <ele>774.72</ele>
        <time>2019-12-21T13:26:56Z</time>
      </trkpt>
      <trkpt lat="46.15862" lon="6.38892">
        <ele>776.63</ele>
        <time>2019-12-21T13:27:04Z</time>
      </trkpt>
      <trkpt lat="46.15853" lon="6.38865">
        <ele>778.01</ele>
        <time>2019-12-21T13:27:12Z</time>
      </trkpt>
      <trkpt lat="46.15857" lon="6.38835">
        <ele>780.35</ele>
        <time>2019-12-21T13:27:20Z</time>
      </trkpt>
      <trkpt lat="46.15875" lon="6.38818">
        <ele>781.94</ele>
        <time>2019-12-21T13:27:28Z</time>
      </trkpt>
      <trkpt lat="46.15896" lon="6.38809">
        <ele>784.11</ele>
        <time>2019-12-21T13:27:36Z</time>
      </trkpt>
      <trkpt lat="46.15918" lon="6.38809">
        <ele>786.93</ele>
        <time>2019-12-21T13:27:44Z</time>
      </trkpt>
      <trkpt lat="46.15936" lon="6.38822">
        <ele>789.29</ele>
        <time>2019-12-21T13:27:52Z</time>
      </trkpt>
      <trkpt lat="46.15954" lon="6.3884">
        <ele>791.11</ele>
        <time>2019-12-21T13:28:00Z</time>
      </trkpt>
      <trkpt lat="46.15973" lon="6.38857">
        <ele>792.84</ele>
        <time>2019-12-21T13:28:08Z</time>
      </trkpt>
      <trkpt lat="46.15992" lon="6.38874">
        <ele>794.6</ele>
        <time>2019-12-21T13:28:16Z</time>
      </trkpt>
      <trkpt lat="46.16011" lon="6.3889">
        <ele>796.66</ele>
        <time>2019-12-21T13:28:24Z</time>
      </trkpt>
      <trkpt lat="46.16032" lon="6.38904">
        <ele>798.33</ele>
        <time>2019-12-21T13:28:32Z</time>
      </trkpt>
      <trkpt lat="46.16053" lon="6.38917">
        <ele>799.92</ele>
        <time>2019-12-21T13:28:40Z</time>
      </trkpt>
      <trkpt lat="46.16074" lon="6.38926">
        <ele>801.57</ele>
        <time>2019-12-21T13:28:48Z</time>
      </trkpt>
      <trkpt lat="46.16096" lon="6.38931">
        <ele>803.5</ele>
        <time>2019-12-21T13:28:56Z</time>
      </trkpt>
      <trkpt lat="46.16114" lon="6.38936">
        <ele>805.6</ele>
        <time>2019-12-21T13:29:06Z</time>
      </trkpt>
      <trkpt lat="46.16134" lon="6.38938">
        <ele>807.92</ele>
        <time>2019-12-21T13:29:18Z</time>
      </trkpt>
      <trkpt lat="46.16155" lon="6.38942">
        <ele>811.49</ele>
        <time>2019-12-21T13:29:26Z</time>
      </trkpt>
      <trkpt lat="46.16174" lon="6.38947">
        <ele>813.82</ele>
        <time>2019-12-21T13:29:32Z</time>
      </trkpt>
      <trkpt lat="46.16195" lon="6.3896">
        <ele>815.11</ele>
        <time>2019-12-21T13:29:38Z</time>
      </trkpt>
      <trkpt lat="46.16216" lon="6.38967">
        <ele>816.6</ele>
        <time>2019-12-21T13:29:46Z</time>
      </trkpt>
      <trkpt lat="46.16236" lon="6.38967">
        <ele>816.68</ele>
        <time>2019-12-21T13:29:52Z</time>
      </trkpt>
      <trkpt lat="46.16256" lon="6.38973">
        <ele>818.75</ele>
        <time>2019-12-21T13:29:58Z</time>
      </trkpt>
      <trkpt lat="46.16274" lon="6.38982">
        <ele>819.96</ele>
        <time>2019-12-21T13:30:04Z</time>
      </trkpt>
      <trkpt lat="46.16292" lon="6.38989">
        <ele>820.39</ele>
        <time>2019-12-21T13:30:10Z</time>
      </trkpt>
      <trkpt lat="46.16314" lon="6.38998">
        <ele>821.52</ele>
        <time>2019-12-21T13:30:18Z</time>
      </trkpt>
      <trkpt lat="46.16335" lon="6.39001">
        <ele>822.96</ele>
        <time>2019-12-21T13:30:26Z</time>
      </trkpt>
      <trkpt lat="46.16354" lon="6.39">
        <ele>825.86</ele>
        <time>2019-12-21T13:30:34Z</time>
      </trkpt>
      <trkpt lat="46.16377" lon="6.39004">
        <ele>826.51</ele>
        <time>2019-12-21T13:30:40Z</time>
      </trkpt>
      <trkpt lat="46.16395" lon="6.39007">
        <ele>827.85</ele>
        <time>2019-12-21T13:30:46Z</time>
      </trkpt>
      <trkpt lat="46.16419" lon="6.39009">
        <ele>830.48</ele>
        <time>2019-12-21T13:30:54Z</time>
      </trkpt>
      <trkpt lat="46.16439" lon="6.3901">
        <ele>831.52</ele>
        <time>2019-12-21T13:31:02Z</time>
      </trkpt>
      <trkpt lat="46.16459" lon="6.39011">
        <ele>832.81</ele>
        <time>2019-12-21T13:31:08Z</time>
      </trkpt>
      <trkpt lat="46.16478" lon="6.3901">
        <ele>834.55</ele>
        <time>2019-12-21T13:31:14Z</time>
      </trkpt>
      <trkpt lat="46.16496" lon="6.39009">
        <ele>836.21</ele>
        <time>2019-12-21T13:31:20Z</time>
      </trkpt>
      <trkpt lat="46.16514" lon="6.39006">
        <ele>837.36</ele>
        <time>2019-12-21T13:31:26Z</time>
      </trkpt>
      <trkpt lat="46.16538" lon="6.39004">
        <ele>839.06</ele>
        <time>2019-12-21T13:31:34Z</time>
      </trkpt>
      <trkpt lat="46.16556" lon="6.39001">
        <ele>840.16</ele>
        <time>2019-12-21T13:31:40Z</time>
      </trkpt>
      <trkpt lat="46.1658" lon="6.38997">
        <ele>841.74</ele>
        <time>2019-12-21T13:31:48Z</time>
      </trkpt>
      <trkpt lat="46.16598" lon="6.38993">
        <ele>842.81</ele>
        <time>2019-12-21T13:31:54Z</time>
      </trkpt>
      <trkpt lat="46.16617" lon="6.38989">
        <ele>843.78</ele>
        <time>2019-12-21T13:32:00Z</time>
      </trkpt>
      <trkpt lat="46.16635" lon="6.38986">
        <ele>844.45</ele>
        <time>2019-12-21T13:32:06Z</time>
      </trkpt>
      <trkpt lat="46.16653" lon="6.38983">
        <ele>845.3</ele>
        <time>2019-12-21T13:32:12Z</time>
      </trkpt>
      <trkpt lat="46.16671" lon="6.38982">
        <ele>846.37</ele>
        <time>2019-12-21T13:32:18Z</time>
      </trkpt>
      <trkpt lat="46.16694" lon="6.38982">
        <ele>847.75</ele>
        <time>2019-12-21T13:32:26Z</time>
      </trkpt>
      <trkpt lat="46.16713" lon="6.38983">
        <ele>848.68</ele>
        <time>2019-12-21T13:32:32Z</time>
      </trkpt>
      <trkpt lat="46.16731" lon="6.38983">
        <ele>849.31</ele>
        <time>2019-12-21T13:32:38Z</time>
      </trkpt>
      <trkpt lat="46.16753" lon="6.38985">
        <ele>851</ele>
        <time>2019-12-21T13:32:46Z</time>
      </trkpt>
      <trkpt lat="46.16777" lon="6.38983">
        <ele>852.47</ele>
        <time>2019-12-21T13:32:54Z</time>
      </trkpt>
      <trkpt lat="46.16796" lon="6.38976">
        <ele>853.52</ele>
        <time>2019-12-21T13:33:02Z</time>
      </trkpt>
      <trkpt lat="46.16818" lon="6.38968">
        <ele>855.26</ele>
        <time>2019-12-21T13:33:10Z</time>
      </trkpt>
      <trkpt lat="46.16836" lon="6.38959">
        <ele>856.74</ele>
        <time>2019-12-21T13:33:18Z</time>
      </trkpt>
      <trkpt lat="46.16858" lon="6.38952">
        <ele>858.48</ele>
        <time>2019-12-21T13:33:26Z</time>
      </trkpt>
      <trkpt lat="46.16879" lon="6.38947">
        <ele>859.35</ele>
        <time>2019-12-21T13:33:34Z</time>
      </trkpt>
      <trkpt lat="46.16897" lon="6.38969">
        <ele>861.35</ele>
        <time>2019-12-21T13:33:42Z</time>
      </trkpt>
      <trkpt lat="46.16902" lon="6.39002">
        <ele>863.36</ele>
        <time>2019-12-21T13:33:50Z</time>
      </trkpt>
      <trkpt lat="46.16901" lon="6.39033">
        <ele>864.85</ele>
        <time>2019-12-21T13:33:58Z</time>
      </trkpt>
      <trkpt lat="46.16901" lon="6.39063">
        <ele>866.69</ele>
        <time>2019-12-21T13:34:06Z</time>
      </trkpt>
      <trkpt lat="46.16901" lon="6.3909">
        <ele>867.58</ele>
        <time>2019-12-21T13:34:12Z</time>
      </trkpt>
      <trkpt lat="46.169" lon="6.39117">
        <ele>868.34</ele>
        <time>2019-12-21T13:34:18Z</time>
      </trkpt>
      <trkpt lat="46.16897" lon="6.39145">
        <ele>869.1</ele>
        <time>2019-12-21T13:34:24Z</time>
      </trkpt>
      <trkpt lat="46.16893" lon="6.39177">
        <ele>870.61</ele>
        <time>2019-12-21T13:34:32Z</time>
      </trkpt>
      <trkpt lat="46.1689" lon="6.3921">
        <ele>872.43</ele>
        <time>2019-12-21T13:34:40Z</time>
      </trkpt>
      <trkpt lat="46.16886" lon="6.39242">
        <ele>874.21</ele>
        <time>2019-12-21T13:34:48Z</time>
      </trkpt>
      <trkpt lat="46.16882" lon="6.39274">
        <ele>875.87</ele>
        <time>2019-12-21T13:34:56Z</time>
      </trkpt>
      <trkpt lat="46.16882" lon="6.39307">
        <ele>877.65</ele>
        <time>2019-12-21T13:35:04Z</time>
      </trkpt>
      <trkpt lat="46.16887" lon="6.3934">
        <ele>879.25</ele>
        <time>2019-12-21T13:35:12Z</time>
      </trkpt>
      <trkpt lat="46.16895" lon="6.3937">
        <ele>880.91</ele>
        <time>2019-12-21T13:35:20Z</time>
      </trkpt>
      <trkpt lat="46.16908" lon="6.39398">
        <ele>882.53</ele>
        <time>2019-12-21T13:35:28Z</time>
      </trkpt>
      <trkpt lat="46.1692" lon="6.39426">
        <ele>883.94</ele>
        <time>2019-12-21T13:35:36Z</time>
      </trkpt>
      <trkpt lat="46.16934" lon="6.39448">
        <ele>885.11</ele>
        <time>2019-12-21T13:35:44Z</time>
      </trkpt>
      <trkpt lat="46.16952" lon="6.39468">
        <ele>886.07</ele>
        <time>2019-12-21T13:35:52Z</time>
      </trkpt>
      <trkpt lat="46.16966" lon="6.39492">
        <ele>887.44</ele>
        <time>2019-12-21T13:36:00Z</time>
      </trkpt>
      <trkpt lat="46.16974" lon="6.39519">
        <ele>888.37</ele>
        <time>2019-12-21T13:36:06Z</time>
      </trkpt>
      <trkpt lat="46.16979" lon="6.39546">
        <ele>889.58</ele>
        <time>2019-12-21T13:36:12Z</time>
      </trkpt>
      <trkpt lat="46.16987" lon="6.3957">
        <ele>890.52</ele>
        <time>2019-12-21T13:36:18Z</time>
      </trkpt>
      <trkpt lat="46.16998" lon="6.39591">
        <ele>891.74</ele>
        <time>2019-12-21T13:36:24Z</time>
      </trkpt>
      <trkpt lat="46.17012" lon="6.3962">
        <ele>893.46</ele>
        <time>2019-12-21T13:36:32Z</time>
      </trkpt>
      <trkpt lat="46.17017" lon="6.39649">
        <ele>894.35</ele>
        <time>2019-12-21T13:36:38Z</time>
      </trkpt>
      <trkpt lat="46.1702" lon="6.39682">
        <ele>897.52</ele>
        <time>2019-12-21T13:36:46Z</time>
      </trkpt>
      <trkpt lat="46.17038" lon="6.39702">
        <ele>899.83</ele>
        <time>2019-12-21T13:36:54Z</time>
      </trkpt>
      <trkpt lat="46.17058" lon="6.39718">
        <ele>901.3</ele>
        <time>2019-12-21T13:37:02Z</time>
      </trkpt>
      <trkpt lat="46.17077" lon="6.39734">
        <ele>902.41</ele>
        <time>2019-12-21T13:37:10Z</time>
      </trkpt>
      <trkpt lat="46.17097" lon="6.3975">
        <ele>903.73</ele>
        <time>2019-12-21T13:37:18Z</time>
      </trkpt>
      <trkpt lat="46.17117" lon="6.39767">
        <ele>905.02</ele>
        <time>2019-12-21T13:37:26Z</time>
      </trkpt>
      <trkpt lat="46.17136" lon="6.39783">
        <ele>906.41</ele>
        <time>2019-12-21T13:37:34Z</time>
      </trkpt>
      <trkpt lat="46.17156" lon="6.398">
        <ele>908.12</ele>
        <time>2019-12-21T13:37:42Z</time>
      </trkpt>
      <trkpt lat="46.17173" lon="6.39821">
        <ele>909.93</ele>
        <time>2019-12-21T13:37:50Z</time>
      </trkpt>
      <trkpt lat="46.17189" lon="6.39842">
        <ele>911.92</ele>
        <time>2019-12-21T13:37:58Z</time>
      </trkpt>
      <trkpt lat="46.17202" lon="6.39864">
        <ele>913.43</ele>
        <time>2019-12-21T13:38:06Z</time>
      </trkpt>
      <trkpt lat="46.17219" lon="6.39888">
        <ele>915.3</ele>
        <time>2019-12-21T13:38:14Z</time>
      </trkpt>
      <trkpt lat="46.17238" lon="6.39904">
        <ele>917.45</ele>
        <time>2019-12-21T13:38:22Z</time>
      </trkpt>
      <trkpt lat="46.17261" lon="6.39917">
        <ele>919.49</ele>
        <time>2019-12-21T13:38:30Z</time>
      </trkpt>
      <trkpt lat="46.17281" lon="6.3992">
        <ele>921.2</ele>
        <time>2019-12-21T13:38:37Z</time>
      </trkpt>
      <trkpt lat="46.17302" lon="6.39921">
        <ele>923.06</ele>
        <time>2019-12-21T13:38:45Z</time>
      </trkpt>
      <trkpt lat="46.17323" lon="6.39919">
        <ele>924.04</ele>
        <time>2019-12-21T13:38:53Z</time>
      </trkpt>
      <trkpt lat="46.17343" lon="6.39924">
        <ele>925.85</ele>
        <time>2019-12-21T13:39:01Z</time>
      </trkpt>
      <trkpt lat="46.17363" lon="6.39939">
        <ele>927.93</ele>
        <time>2019-12-21T13:39:09Z</time>
      </trkpt>
      <trkpt lat="46.17382" lon="6.39955">
        <ele>929.29</ele>
        <time>2019-12-21T13:39:17Z</time>
      </trkpt>
      <trkpt lat="46.17401" lon="6.39972">
        <ele>930.84</ele>
        <time>2019-12-21T13:39:25Z</time>
      </trkpt>
      <trkpt lat="46.1742" lon="6.39985">
        <ele>932.95</ele>
        <time>2019-12-21T13:39:33Z</time>
      </trkpt>
      <trkpt lat="46.17431" lon="6.39961">
        <ele>934.79</ele>
        <time>2019-12-21T13:39:41Z</time>
      </trkpt>
      <trkpt lat="46.17437" lon="6.39934">
        <ele>936.73</ele>
        <time>2019-12-21T13:39:49Z</time>
      </trkpt>
      <trkpt lat="46.17435" lon="6.39907">
        <ele>939.69</ele>
        <time>2019-12-21T13:39:57Z</time>
      </trkpt>
      <trkpt lat="46.17421" lon="6.39891">
        <ele>940.4</ele>
        <time>2019-12-21T13:40:05Z</time>
      </trkpt>
      <trkpt lat="46.17437" lon="6.39871">
        <ele>945.87</ele>
        <time>2019-12-21T13:40:19Z</time>
      </trkpt>
      <trkpt lat="46.17456" lon="6.3988">
        <ele>946.44</ele>
        <time>2019-12-21T13:40:27Z</time>
      </trkpt>
      <trkpt lat="46.17478" lon="6.39888">
        <ele>948.86</ele>
        <time>2019-12-21T13:40:35Z</time>
      </trkpt>
      <trkpt lat="46.175" lon="6.39889">
        <ele>949.17</ele>
        <time>2019-12-21T13:40:41Z</time>
      </trkpt>
      <trkpt lat="46.17519" lon="6.39895">
        <ele>949.8</ele>
        <time>2019-12-21T13:40:47Z</time>
      </trkpt>
      <trkpt lat="46.17543" lon="6.399">
        <ele>950.24</ele>
        <time>2019-12-21T13:40:53Z</time>
      </trkpt>
      <trkpt lat="46.17569" lon="6.39906">
        <ele>950.38</ele>
        <time>2019-12-21T13:40:59Z</time>
      </trkpt>
      <trkpt lat="46.17594" lon="6.39909">
        <ele>951.2</ele>
        <time>2019-12-21T13:41:05Z</time>
      </trkpt>
      <trkpt lat="46.17614" lon="6.39908">
        <ele>950.3</ele>
        <time>2019-12-21T13:41:11Z</time>
      </trkpt>
      <trkpt lat="46.17636" lon="6.39902">
        <ele>950.44</ele>
        <time>2019-12-21T13:42:23Z</time>
      </trkpt>
      <trkpt lat="46.17662" lon="6.39887">
        <ele>949.16</ele>
        <time>2019-12-21T13:42:29Z</time>
      </trkpt>
      <trkpt lat="46.1768" lon="6.39879">
        <ele>948</ele>
        <time>2019-12-21T13:42:33Z</time>
      </trkpt>
      <trkpt lat="46.17699" lon="6.3989">
        <ele>946.43</ele>
        <time>2019-12-21T13:42:37Z</time>
      </trkpt>
      <trkpt lat="46.17724" lon="6.39913">
        <ele>944.56</ele>
        <time>2019-12-21T13:42:41Z</time>
      </trkpt>
      <trkpt lat="46.17747" lon="6.39942">
        <ele>941.91</ele>
        <time>2019-12-21T13:42:45Z</time>
      </trkpt>
      <trkpt lat="46.1776" lon="6.3997">
        <ele>940.32</ele>
        <time>2019-12-21T13:42:49Z</time>
      </trkpt>
      <trkpt lat="46.17779" lon="6.39966">
        <ele>938.7</ele>
        <time>2019-12-21T13:42:53Z</time>
      </trkpt>
      <trkpt lat="46.1778" lon="6.39939">
        <ele>937.03</ele>
        <time>2019-12-21T13:42:57Z</time>
      </trkpt>
      <trkpt lat="46.17772" lon="6.39904">
        <ele>934.58</ele>
        <time>2019-12-21T13:43:01Z</time>
      </trkpt>
      <trkpt lat="46.17776" lon="6.39866">
        <ele>933.54</ele>
        <time>2019-12-21T13:43:05Z</time>
      </trkpt>
      <trkpt lat="46.17793" lon="6.3983">
        <ele>931.54</ele>
        <time>2019-12-21T13:43:09Z</time>
      </trkpt>
      <trkpt lat="46.1781" lon="6.39799">
        <ele>928.55</ele>
        <time>2019-12-21T13:43:13Z</time>
      </trkpt>
      <trkpt lat="46.17831" lon="6.39784">
        <ele>926.84</ele>
        <time>2019-12-21T13:43:17Z</time>
      </trkpt>
      <trkpt lat="46.17858" lon="6.39797">
        <ele>924.43</ele>
        <time>2019-12-21T13:43:21Z</time>
      </trkpt>
      <trkpt lat="46.17881" lon="6.39834">
        <ele>922.19</ele>
        <time>2019-12-21T13:43:25Z</time>
      </trkpt>
      <trkpt lat="46.17894" lon="6.39855">
        <ele>920.74</ele>
        <time>2019-12-21T13:43:27Z</time>
      </trkpt>
      <trkpt lat="46.17908" lon="6.39878">
        <ele>919.46</ele>
        <time>2019-12-21T13:43:29Z</time>
      </trkpt>
      <trkpt lat="46.17922" lon="6.39901">
        <ele>918.56</ele>
        <time>2019-12-21T13:43:31Z</time>
      </trkpt>
      <trkpt lat="46.17937" lon="6.39926">
        <ele>917.12</ele>
        <time>2019-12-21T13:43:33Z</time>
      </trkpt>
      <trkpt lat="46.17953" lon="6.39952">
        <ele>915.47</ele>
        <time>2019-12-21T13:43:35Z</time>
      </trkpt>
      <trkpt lat="46.17968" lon="6.39977">
        <ele>913.67</ele>
        <time>2019-12-21T13:43:37Z</time>
      </trkpt>
      <trkpt lat="46.17984" lon="6.40004">
        <ele>911.56</ele>
        <time>2019-12-21T13:43:39Z</time>
      </trkpt>
      <trkpt lat="46.18" lon="6.4003">
        <ele>909.38</ele>
        <time>2019-12-21T13:43:41Z</time>
      </trkpt>
      <trkpt lat="46.18015" lon="6.40055">
        <ele>907.29</ele>
        <time>2019-12-21T13:43:43Z</time>
      </trkpt>
      <trkpt lat="46.1803" lon="6.40076">
        <ele>905.3</ele>
        <time>2019-12-21T13:43:45Z</time>
      </trkpt>
      <trkpt lat="46.18048" lon="6.40092">
        <ele>903.48</ele>
        <time>2019-12-21T13:43:47Z</time>
      </trkpt>
      <trkpt lat="46.18069" lon="6.40102">
        <ele>901.78</ele>
        <time>2019-12-21T13:43:49Z</time>
      </trkpt>
      <trkpt lat="46.1809" lon="6.40113">
        <ele>900.09</ele>
        <time>2019-12-21T13:43:51Z</time>
      </trkpt>
      <trkpt lat="46.18109" lon="6.40123">
        <ele>899.12</ele>
        <time>2019-12-21T13:43:54Z</time>
      </trkpt>
      <trkpt lat="46.18128" lon="6.40133">
        <ele>897.84</ele>
        <time>2019-12-21T13:43:56Z</time>
      </trkpt>
      <trkpt lat="46.18147" lon="6.40144">
        <ele>896.29</ele>
        <time>2019-12-21T13:43:58Z</time>
      </trkpt>
      <trkpt lat="46.18167" lon="6.40154">
        <ele>895.16</ele>
        <time>2019-12-21T13:44:00Z</time>
      </trkpt>
      <trkpt lat="46.18185" lon="6.40166">
        <ele>894.16</ele>
        <time>2019-12-21T13:44:02Z</time>
      </trkpt>
      <trkpt lat="46.18204" lon="6.40178">
        <ele>893.03</ele>
        <time>2019-12-21T13:44:04Z</time>
      </trkpt>
      <trkpt lat="46.18224" lon="6.40193">
        <ele>891.52</ele>
        <time>2019-12-21T13:44:06Z</time>
      </trkpt>
      <trkpt lat="46.18242" lon="6.40207">
        <ele>889.21</ele>
        <time>2019-12-21T13:44:08Z</time>
      </trkpt>
      <trkpt lat="46.18262" lon="6.4022">
        <ele>888.22</ele>
        <time>2019-12-21T13:44:10Z</time>
      </trkpt>
      <trkpt lat="46.18281" lon="6.40234">
        <ele>887.74</ele>
        <time>2019-12-21T13:44:12Z</time>
      </trkpt>
      <trkpt lat="46.18298" lon="6.40246">
        <ele>887.52</ele>
        <time>2019-12-21T13:44:14Z</time>
      </trkpt>
      <trkpt lat="46.18315" lon="6.40258">
        <ele>886.86</ele>
        <time>2019-12-21T13:44:16Z</time>
      </trkpt>
      <trkpt lat="46.18347" lon="6.40278">
        <ele>884.61</ele>
        <time>2019-12-21T13:44:20Z</time>
      </trkpt>
      <trkpt lat="46.18365" lon="6.40287">
        <ele>883.27</ele>
        <time>2019-12-21T13:44:22Z</time>
      </trkpt>
      <trkpt lat="46.18384" lon="6.40296">
        <ele>882.58</ele>
        <time>2019-12-21T13:44:24Z</time>
      </trkpt>
      <trkpt lat="46.18403" lon="6.40306">
        <ele>880.54</ele>
        <time>2019-12-21T13:44:26Z</time>
      </trkpt>
      <trkpt lat="46.18428" lon="6.40314">
        <ele>875.35</ele>
        <time>2019-12-21T13:44:30Z</time>
      </trkpt>
      <trkpt lat="46.18436" lon="6.4029">
        <ele>870.83</ele>
        <time>2019-12-21T13:44:34Z</time>
      </trkpt>
      <trkpt lat="46.18417" lon="6.40264">
        <ele>869.11</ele>
        <time>2019-12-21T13:44:38Z</time>
      </trkpt>
      <trkpt lat="46.18393" lon="6.40239">
        <ele>868.62</ele>
        <time>2019-12-21T13:44:42Z</time>
      </trkpt>
      <trkpt lat="46.18367" lon="6.40216">
        <ele>867.29</ele>
        <time>2019-12-21T13:44:46Z</time>
      </trkpt>
      <trkpt lat="46.18346" lon="6.40193">
        <ele>864.28</ele>
        <time>2019-12-21T13:44:52Z</time>
      </trkpt>
      <trkpt lat="46.18372" lon="6.40196">
        <ele>861.91</ele>
        <time>2019-12-21T13:45:00Z</time>
      </trkpt>
      <trkpt lat="46.18413" lon="6.402">
        <ele>857.63</ele>
        <time>2019-12-21T13:45:04Z</time>
      </trkpt>
      <trkpt lat="46.1844" lon="6.40198">
        <ele>855.04</ele>
        <time>2019-12-21T13:45:06Z</time>
      </trkpt>
      <trkpt lat="46.18463" lon="6.40194">
        <ele>852.65</ele>
        <time>2019-12-21T13:45:08Z</time>
      </trkpt>
      <trkpt lat="46.18482" lon="6.40183">
        <ele>851.65</ele>
        <time>2019-12-21T13:45:10Z</time>
      </trkpt>
      <trkpt lat="46.18506" lon="6.40168">
        <ele>850.6</ele>
        <time>2019-12-21T13:45:12Z</time>
      </trkpt>
      <trkpt lat="46.18528" lon="6.40158">
        <ele>848.75</ele>
        <time>2019-12-21T13:45:14Z</time>
      </trkpt>
      <trkpt lat="46.18545" lon="6.40147">
        <ele>846.66</ele>
        <time>2019-12-21T13:45:16Z</time>
      </trkpt>
      <trkpt lat="46.18563" lon="6.40135">
        <ele>845.95</ele>
        <time>2019-12-21T13:45:18Z</time>
      </trkpt>
      <trkpt lat="46.1858" lon="6.40128">
        <ele>843.71</ele>
        <time>2019-12-21T13:45:20Z</time>
      </trkpt>
      <trkpt lat="46.18599" lon="6.40124">
        <ele>841.72</ele>
        <time>2019-12-21T13:45:22Z</time>
      </trkpt>
      <trkpt lat="46.1862" lon="6.40119">
        <ele>840.35</ele>
        <time>2019-12-21T13:45:24Z</time>
      </trkpt>
      <trkpt lat="46.18639" lon="6.40116">
        <ele>837.92</ele>
        <time>2019-12-21T13:45:26Z</time>
      </trkpt>
      <trkpt lat="46.18669" lon="6.4013">
        <ele>834.72</ele>
        <time>2019-12-21T13:45:30Z</time>
      </trkpt>
      <trkpt lat="46.18689" lon="6.40138">
        <ele>832.77</ele>
        <time>2019-12-21T13:45:34Z</time>
      </trkpt>
      <trkpt lat="46.18694" lon="6.40109">
        <ele>830.41</ele>
        <time>2019-12-21T13:45:38Z</time>
      </trkpt>
      <trkpt lat="46.18672" lon="6.40081">
        <ele>827.44</ele>
        <time>2019-12-21T13:45:42Z</time>
      </trkpt>
      <trkpt lat="46.18645" lon="6.40043">
        <ele>823.51</ele>
        <time>2019-12-21T13:45:46Z</time>
      </trkpt>
      <trkpt lat="46.18633" lon="6.40023">
        <ele>821.16</ele>
        <time>2019-12-21T13:45:48Z</time>
      </trkpt>
      <trkpt lat="46.18621" lon="6.40003">
        <ele>819.12</ele>
        <time>2019-12-21T13:45:50Z</time>
      </trkpt>
      <trkpt lat="46.18597" lon="6.39976">
        <ele>816.08</ele>
        <time>2019-12-21T13:45:54Z</time>
      </trkpt>
      <trkpt lat="46.18574" lon="6.39966">
        <ele>813.61</ele>
        <time>2019-12-21T13:45:58Z</time>
      </trkpt>
      <trkpt lat="46.18577" lon="6.3994">
        <ele>811.78</ele>
        <time>2019-12-21T13:46:02Z</time>
      </trkpt>
      <trkpt lat="46.18604" lon="6.39931">
        <ele>810.39</ele>
        <time>2019-12-21T13:46:06Z</time>
      </trkpt>
      <trkpt lat="46.1864" lon="6.39924">
        <ele>807.62</ele>
        <time>2019-12-21T13:46:10Z</time>
      </trkpt>
      <trkpt lat="46.18673" lon="6.39916">
        <ele>804.86</ele>
        <time>2019-12-21T13:46:14Z</time>
      </trkpt>
      <trkpt lat="46.18698" lon="6.39895">
        <ele>802.72</ele>
        <time>2019-12-21T13:46:18Z</time>
      </trkpt>
      <trkpt lat="46.18726" lon="6.39883">
        <ele>797.86</ele>
        <time>2019-12-21T13:46:22Z</time>
      </trkpt>
      <trkpt lat="46.18745" lon="6.39883">
        <ele>795.37</ele>
        <time>2019-12-21T13:46:24Z</time>
      </trkpt>
      <trkpt lat="46.18766" lon="6.39883">
        <ele>793.48</ele>
        <time>2019-12-21T13:46:26Z</time>
      </trkpt>
      <trkpt lat="46.18787" lon="6.39884">
        <ele>791.05</ele>
        <time>2019-12-21T13:46:28Z</time>
      </trkpt>
      <trkpt lat="46.18807" lon="6.39891">
        <ele>788.57</ele>
        <time>2019-12-21T13:46:30Z</time>
      </trkpt>
      <trkpt lat="46.18827" lon="6.39903">
        <ele>786.89</ele>
        <time>2019-12-21T13:46:32Z</time>
      </trkpt>
      <trkpt lat="46.18849" lon="6.39915">
        <ele>784.62</ele>
        <time>2019-12-21T13:46:34Z</time>
      </trkpt>
      <trkpt lat="46.18874" lon="6.39919">
        <ele>782.44</ele>
        <time>2019-12-21T13:46:36Z</time>
      </trkpt>
      <trkpt lat="46.18899" lon="6.39923">
        <ele>781.35</ele>
        <time>2019-12-21T13:46:38Z</time>
      </trkpt>
      <trkpt lat="46.18924" lon="6.39925">
        <ele>780.38</ele>
        <time>2019-12-21T13:46:40Z</time>
      </trkpt>
      <trkpt lat="46.18949" lon="6.39923">
        <ele>779.69</ele>
        <time>2019-12-21T13:46:42Z</time>
      </trkpt>
      <trkpt lat="46.18973" lon="6.39916">
        <ele>779.19</ele>
        <time>2019-12-21T13:46:44Z</time>
      </trkpt>
      <trkpt lat="46.18996" lon="6.39907">
        <ele>778.37</ele>
        <time>2019-12-21T13:46:46Z</time>
      </trkpt>
      <trkpt lat="46.19019" lon="6.39899">
        <ele>777.49</ele>
        <time>2019-12-21T13:46:48Z</time>
      </trkpt>
      <trkpt lat="46.19044" lon="6.39897">
        <ele>776.26</ele>
        <time>2019-12-21T13:46:50Z</time>
      </trkpt>
      <trkpt lat="46.19069" lon="6.399">
        <ele>774.94</ele>
        <time>2019-12-21T13:46:52Z</time>
      </trkpt>
      <trkpt lat="46.19094" lon="6.39909">
        <ele>773.97</ele>
        <time>2019-12-21T13:46:54Z</time>
      </trkpt>
      <trkpt lat="46.19117" lon="6.3992">
        <ele>773.46</ele>
        <time>2019-12-21T13:46:56Z</time>
      </trkpt>
      <trkpt lat="46.1914" lon="6.39933">
        <ele>773.07</ele>
        <time>2019-12-21T13:46:58Z</time>
      </trkpt>
      <trkpt lat="46.19161" lon="6.39944">
        <ele>772.38</ele>
        <time>2019-12-21T13:47:00Z</time>
      </trkpt>
      <trkpt lat="46.1918" lon="6.39956">
        <ele>770.97</ele>
        <time>2019-12-21T13:47:02Z</time>
      </trkpt>
      <trkpt lat="46.19204" lon="6.39981">
        <ele>769.51</ele>
        <time>2019-12-21T13:47:06Z</time>
      </trkpt>
      <trkpt lat="46.19231" lon="6.39988">
        <ele>766.44</ele>
        <time>2019-12-21T13:47:10Z</time>
      </trkpt>
      <trkpt lat="46.19261" lon="6.40008">
        <ele>765.93</ele>
        <time>2019-12-21T13:47:14Z</time>
      </trkpt>
      <trkpt lat="46.19292" lon="6.40028">
        <ele>764.85</ele>
        <time>2019-12-21T13:47:18Z</time>
      </trkpt>
      <trkpt lat="46.1931" lon="6.40036">
        <ele>764.09</ele>
        <time>2019-12-21T13:47:20Z</time>
      </trkpt>
      <trkpt lat="46.19328" lon="6.40044">
        <ele>763.76</ele>
        <time>2019-12-21T13:47:22Z</time>
      </trkpt>
      <trkpt lat="46.19347" lon="6.40054">
        <ele>763.51</ele>
        <time>2019-12-21T13:47:24Z</time>
      </trkpt>
      <trkpt lat="46.19365" lon="6.40067">
        <ele>763.17</ele>
        <time>2019-12-21T13:47:26Z</time>
      </trkpt>
      <trkpt lat="46.19382" lon="6.4008">
        <ele>762.85</ele>
        <time>2019-12-21T13:47:28Z</time>
      </trkpt>
      <trkpt lat="46.19399" lon="6.40093">
        <ele>762.37</ele>
        <time>2019-12-21T13:47:30Z</time>
      </trkpt>
      <trkpt lat="46.19417" lon="6.40102">
        <ele>761.76</ele>
        <time>2019-12-21T13:47:32Z</time>
      </trkpt>
      <trkpt lat="46.19452" lon="6.40112">
        <ele>759.42</ele>
        <time>2019-12-21T13:47:36Z</time>
      </trkpt>
      <trkpt lat="46.19471" lon="6.40117">
        <ele>758.56</ele>
        <time>2019-12-21T13:47:38Z</time>
      </trkpt>
      <trkpt lat="46.19491" lon="6.40123">
        <ele>757.9</ele>
        <time>2019-12-21T13:47:40Z</time>
      </trkpt>
      <trkpt lat="46.19511" lon="6.40129">
        <ele>757.51</ele>
        <time>2019-12-21T13:47:42Z</time>
      </trkpt>
      <trkpt lat="46.19531" lon="6.40136">
        <ele>757.16</ele>
        <time>2019-12-21T13:47:44Z</time>
      </trkpt>
      <trkpt lat="46.1955" lon="6.40143">
        <ele>756.97</ele>
        <time>2019-12-21T13:47:46Z</time>
      </trkpt>
      <trkpt lat="46.19569" lon="6.40152">
        <ele>756.99</ele>
        <time>2019-12-21T13:47:48Z</time>
      </trkpt>
      <trkpt lat="46.19587" lon="6.40162">
        <ele>756.93</ele>
        <time>2019-12-21T13:47:50Z</time>
      </trkpt>
      <trkpt lat="46.19605" lon="6.40171">
        <ele>757.34</ele>
        <time>2019-12-21T13:47:52Z</time>
      </trkpt>
      <trkpt lat="46.19635" lon="6.40192">
        <ele>758.09</ele>
        <time>2019-12-21T13:47:56Z</time>
      </trkpt>
      <trkpt lat="46.1966" lon="6.40214">
        <ele>757.6</ele>
        <time>2019-12-21T13:48:00Z</time>
      </trkpt>
      <trkpt lat="46.19689" lon="6.40235">
        <ele>757.95</ele>
        <time>2019-12-21T13:48:04Z</time>
      </trkpt>
      <trkpt lat="46.19721" lon="6.40252">
        <ele>757.59</ele>
        <time>2019-12-21T13:48:08Z</time>
      </trkpt>
      <trkpt lat="46.19754" lon="6.4027">
        <ele>757.7</ele>
        <time>2019-12-21T13:48:12Z</time>
      </trkpt>
      <trkpt lat="46.19785" lon="6.40286">
        <ele>757.82</ele>
        <time>2019-12-21T13:48:16Z</time>
      </trkpt>
      <trkpt lat="46.19816" lon="6.40306">
        <ele>757.86</ele>
        <time>2019-12-21T13:48:20Z</time>
      </trkpt>
      <trkpt lat="46.19845" lon="6.40328">
        <ele>757.59</ele>
        <time>2019-12-21T13:48:24Z</time>
      </trkpt>
      <trkpt lat="46.19878" lon="6.4034">
        <ele>756.57</ele>
        <time>2019-12-21T13:48:28Z</time>
      </trkpt>
      <trkpt lat="46.19896" lon="6.40339">
        <ele>755.89</ele>
        <time>2019-12-21T13:48:30Z</time>
      </trkpt>
      <trkpt lat="46.19914" lon="6.40336">
        <ele>755.33</ele>
        <time>2019-12-21T13:48:32Z</time>
      </trkpt>
      <trkpt lat="46.19933" lon="6.40336">
        <ele>754.77</ele>
        <time>2019-12-21T13:48:34Z</time>
      </trkpt>
      <trkpt lat="46.19952" lon="6.40341">
        <ele>754.49</ele>
        <time>2019-12-21T13:48:36Z</time>
      </trkpt>
      <trkpt lat="46.1997" lon="6.4035">
        <ele>754.17</ele>
        <time>2019-12-21T13:48:38Z</time>
      </trkpt>
      <trkpt lat="46.19988" lon="6.4036">
        <ele>753.97</ele>
        <time>2019-12-21T13:48:40Z</time>
      </trkpt>
      <trkpt lat="46.20005" lon="6.40373">
        <ele>753.76</ele>
        <time>2019-12-21T13:48:42Z</time>
      </trkpt>
      <trkpt lat="46.20022" lon="6.40388">
        <ele>753.79</ele>
        <time>2019-12-21T13:48:44Z</time>
      </trkpt>
      <trkpt lat="46.20037" lon="6.40404">
        <ele>754.07</ele>
        <time>2019-12-21T13:48:46Z</time>
      </trkpt>
      <trkpt lat="46.20069" lon="6.40426">
        <ele>753.84</ele>
        <time>2019-12-21T13:48:50Z</time>
      </trkpt>
      <trkpt lat="46.20086" lon="6.40435">
        <ele>753.59</ele>
        <time>2019-12-21T13:48:52Z</time>
      </trkpt>
      <trkpt lat="46.20103" lon="6.40445">
        <ele>753.31</ele>
        <time>2019-12-21T13:48:54Z</time>
      </trkpt>
      <trkpt lat="46.2012" lon="6.40453">
        <ele>753.24</ele>
        <time>2019-12-21T13:48:56Z</time>
      </trkpt>
      <trkpt lat="46.20152" lon="6.4047">
        <ele>753.47</ele>
        <time>2019-12-21T13:49:00Z</time>
      </trkpt>
      <trkpt lat="46.20183" lon="6.40487">
        <ele>754.05</ele>
        <time>2019-12-21T13:49:04Z</time>
      </trkpt>
      <trkpt lat="46.20213" lon="6.40508">
        <ele>753.89</ele>
        <time>2019-12-21T13:49:08Z</time>
      </trkpt>
      <trkpt lat="46.20244" lon="6.40524">
        <ele>753.62</ele>
        <time>2019-12-21T13:49:12Z</time>
      </trkpt>
      <trkpt lat="46.20277" lon="6.40539">
        <ele>753.32</ele>
        <time>2019-12-21T13:49:16Z</time>
      </trkpt>
      <trkpt lat="46.20308" lon="6.40555">
        <ele>753.37</ele>
        <time>2019-12-21T13:49:20Z</time>
      </trkpt>
      <trkpt lat="46.20338" lon="6.40569">
        <ele>753.66</ele>
        <time>2019-12-21T13:49:24Z</time>
      </trkpt>
      <trkpt lat="46.20367" lon="6.40587">
        <ele>753.89</ele>
        <time>2019-12-21T13:49:28Z</time>
      </trkpt>
      <trkpt lat="46.20396" lon="6.4061">
        <ele>754.09</ele>
        <time>2019-12-21T13:49:32Z</time>
      </trkpt>
      <trkpt lat="46.20424" lon="6.40633">
        <ele>754.68</ele>
        <time>2019-12-21T13:49:36Z</time>
      </trkpt>
      <trkpt lat="46.20452" lon="6.4065">
        <ele>755.2</ele>
        <time>2019-12-21T13:49:40Z</time>
      </trkpt>
      <trkpt lat="46.20485" lon="6.40659">
        <ele>754.35</ele>
        <time>2019-12-21T13:49:44Z</time>
      </trkpt>
      <trkpt lat="46.20502" lon="6.40667">
        <ele>753.77</ele>
        <time>2019-12-21T13:49:46Z</time>
      </trkpt>
      <trkpt lat="46.2052" lon="6.40679">
        <ele>752.71</ele>
        <time>2019-12-21T13:49:48Z</time>
      </trkpt>
      <trkpt lat="46.20539" lon="6.40692">
        <ele>752.48</ele>
        <time>2019-12-21T13:49:50Z</time>
      </trkpt>
      <trkpt lat="46.20559" lon="6.40704">
        <ele>751.55</ele>
        <time>2019-12-21T13:49:52Z</time>
      </trkpt>
      <trkpt lat="46.2058" lon="6.40716">
        <ele>750.68</ele>
        <time>2019-12-21T13:49:54Z</time>
      </trkpt>
      <trkpt lat="46.206" lon="6.40727">
        <ele>750.47</ele>
        <time>2019-12-21T13:49:56Z</time>
      </trkpt>
      <trkpt lat="46.2062" lon="6.40741">
        <ele>750.48</ele>
        <time>2019-12-21T13:49:58Z</time>
      </trkpt>
      <trkpt lat="46.20638" lon="6.40756">
        <ele>750.41</ele>
        <time>2019-12-21T13:50:00Z</time>
      </trkpt>
      <trkpt lat="46.20654" lon="6.40771">
        <ele>750.69</ele>
        <time>2019-12-21T13:50:02Z</time>
      </trkpt>
      <trkpt lat="46.20676" lon="6.40794">
        <ele>750.68</ele>
        <time>2019-12-21T13:50:06Z</time>
      </trkpt>
      <trkpt lat="46.20694" lon="6.40787">
        <ele>750.04</ele>
        <time>2019-12-21T13:50:12Z</time>
      </trkpt>
      <trkpt lat="46.20708" lon="6.40766">
        <ele>749.66</ele>
        <time>2019-12-21T13:50:16Z</time>
      </trkpt>
      <trkpt lat="46.20724" lon="6.40742">
        <ele>749.11</ele>
        <time>2019-12-21T13:50:20Z</time>
      </trkpt>
      <trkpt lat="46.20744" lon="6.40713">
        <ele>748.45</ele>
        <time>2019-12-21T13:50:24Z</time>
      </trkpt>
      <trkpt lat="46.20763" lon="6.40683">
        <ele>748.09</ele>
        <time>2019-12-21T13:50:28Z</time>
      </trkpt>
      <trkpt lat="46.20779" lon="6.40663">
        <ele>748.5</ele>
        <time>2019-12-21T13:50:32Z</time>
      </trkpt>
      <trkpt lat="46.20793" lon="6.4064">
        <ele>749.09</ele>
        <time>2019-12-21T13:50:38Z</time>
      </trkpt>
      <trkpt lat="46.20811" lon="6.40614">
        <ele>749.2</ele>
        <time>2019-12-21T13:50:44Z</time>
      </trkpt>
      <trkpt lat="46.20828" lon="6.40588">
        <ele>750.03</ele>
        <time>2019-12-21T13:50:50Z</time>
      </trkpt>
      <trkpt lat="46.20839" lon="6.40565">
        <ele>751.22</ele>
        <time>2019-12-21T13:51:44Z</time>
      </trkpt>
      <trkpt lat="46.20847" lon="6.40541">
        <ele>751.86</ele>
        <time>2019-12-21T13:51:50Z</time>
      </trkpt>
      <trkpt lat="46.20856" lon="6.40512">
        <ele>752.97</ele>
        <time>2019-12-21T13:51:56Z</time>
      </trkpt>
      <trkpt lat="46.20872" lon="6.40487">
        <ele>753.17</ele>
        <time>2019-12-21T13:52:02Z</time>
      </trkpt>
      <trkpt lat="46.20892" lon="6.40465">
        <ele>754.01</ele>
        <time>2019-12-21T13:52:08Z</time>
      </trkpt>
      <trkpt lat="46.20906" lon="6.40445">
        <ele>753.88</ele>
        <time>2019-12-21T13:52:12Z</time>
      </trkpt>
      <trkpt lat="46.20921" lon="6.40423">
        <ele>753.61</ele>
        <time>2019-12-21T13:52:16Z</time>
      </trkpt>
      <trkpt lat="46.20935" lon="6.40397">
        <ele>754.07</ele>
        <time>2019-12-21T13:52:20Z</time>
      </trkpt>
      <trkpt lat="46.20948" lon="6.40367">
        <ele>754.73</ele>
        <time>2019-12-21T13:52:24Z</time>
      </trkpt>
      <trkpt lat="46.20961" lon="6.40335">
        <ele>753.7</ele>
        <time>2019-12-21T13:52:28Z</time>
      </trkpt>
      <trkpt lat="46.20975" lon="6.40302">
        <ele>753.59</ele>
        <time>2019-12-21T13:52:32Z</time>
      </trkpt>
      <trkpt lat="46.20992" lon="6.40275">
        <ele>753.42</ele>
        <time>2019-12-21T13:52:36Z</time>
      </trkpt>
      <trkpt lat="46.21006" lon="6.40255">
        <ele>753.28</ele>
        <time>2019-12-21T13:52:39Z</time>
      </trkpt>
      <trkpt lat="46.21026" lon="6.40228">
        <ele>753</ele>
        <time>2019-12-21T13:52:43Z</time>
      </trkpt>
      <trkpt lat="46.21046" lon="6.40198">
        <ele>752.7</ele>
        <time>2019-12-21T13:52:47Z</time>
      </trkpt>
      <trkpt lat="46.21066" lon="6.40169">
        <ele>752.48</ele>
        <time>2019-12-21T13:52:51Z</time>
      </trkpt>
      <trkpt lat="46.21087" lon="6.40138">
        <ele>752.01</ele>
        <time>2019-12-21T13:52:55Z</time>
      </trkpt>
      <trkpt lat="46.21108" lon="6.40107">
        <ele>751.23</ele>
        <time>2019-12-21T13:52:59Z</time>
      </trkpt>
      <trkpt lat="46.21129" lon="6.40077">
        <ele>751.07</ele>
        <time>2019-12-21T13:53:03Z</time>
      </trkpt>
      <trkpt lat="46.21151" lon="6.40047">
        <ele>751.29</ele>
        <time>2019-12-21T13:53:07Z</time>
      </trkpt>
      <trkpt lat="46.21171" lon="6.40018">
        <ele>751.47</ele>
        <time>2019-12-21T13:53:11Z</time>
      </trkpt>
      <trkpt lat="46.2119" lon="6.3999">
        <ele>752.14</ele>
        <time>2019-12-21T13:53:15Z</time>
      </trkpt>
      <trkpt lat="46.21207" lon="6.39966">
        <ele>752.91</ele>
        <time>2019-12-21T13:53:19Z</time>
      </trkpt>
      <trkpt lat="46.21222" lon="6.39946">
        <ele>753.55</ele>
        <time>2019-12-21T13:53:23Z</time>
      </trkpt>
      <trkpt lat="46.21236" lon="6.39926">
        <ele>754.42</ele>
        <time>2019-12-21T13:53:27Z</time>
      </trkpt>
      <trkpt lat="46.21255" lon="6.39899">
        <ele>755.62</ele>
        <time>2019-12-21T13:53:33Z</time>
      </trkpt>
      <trkpt lat="46.21272" lon="6.39873">
        <ele>756.8</ele>
        <time>2019-12-21T13:53:39Z</time>
      </trkpt>
      <trkpt lat="46.21286" lon="6.39852">
        <ele>757.73</ele>
        <time>2019-12-21T13:53:47Z</time>
      </trkpt>
      <trkpt lat="46.21299" lon="6.39834">
        <ele>758.47</ele>
        <time>2019-12-21T13:53:53Z</time>
      </trkpt>
      <trkpt lat="46.21315" lon="6.39811">
        <ele>759.4</ele>
        <time>2019-12-21T13:53:59Z</time>
      </trkpt>
      <trkpt lat="46.21332" lon="6.39788">
        <ele>760.59</ele>
        <time>2019-12-21T13:54:05Z</time>
      </trkpt>
      <trkpt lat="46.21351" lon="6.39767">
        <ele>761.8</ele>
        <time>2019-12-21T13:54:11Z</time>
      </trkpt>
      <trkpt lat="46.21374" lon="6.39758">
        <ele>762.73</ele>
        <time>2019-12-21T13:54:17Z</time>
      </trkpt>
      <trkpt lat="46.21396" lon="6.39759">
        <ele>762.39</ele>
        <time>2019-12-21T13:54:23Z</time>
      </trkpt>
      <trkpt lat="46.21414" lon="6.39766">
        <ele>765.92</ele>
        <time>2019-12-21T13:54:29Z</time>
      </trkpt>
      <trkpt lat="46.21438" lon="6.39774">
        <ele>766.62</ele>
        <time>2019-12-21T13:54:35Z</time>
      </trkpt>
      <trkpt lat="46.21456" lon="6.39781">
        <ele>768.14</ele>
        <time>2019-12-21T13:54:39Z</time>
      </trkpt>
      <trkpt lat="46.21481" lon="6.39788">
        <ele>770.35</ele>
        <time>2019-12-21T13:54:45Z</time>
      </trkpt>
      <trkpt lat="46.21505" lon="6.39796">
        <ele>771.23</ele>
        <time>2019-12-21T13:54:51Z</time>
      </trkpt>
      <trkpt lat="46.2153" lon="6.39802">
        <ele>772.39</ele>
        <time>2019-12-21T13:54:57Z</time>
      </trkpt>
      <trkpt lat="46.21554" lon="6.39806">
        <ele>773.36</ele>
        <time>2019-12-21T13:55:03Z</time>
      </trkpt>
      <trkpt lat="46.21575" lon="6.39804">
        <ele>774.48</ele>
        <time>2019-12-21T13:55:09Z</time>
      </trkpt>
      <trkpt lat="46.21597" lon="6.39801">
        <ele>775.54</ele>
        <time>2019-12-21T13:55:15Z</time>
      </trkpt>
      <trkpt lat="46.21619" lon="6.39798">
        <ele>776.57</ele>
        <time>2019-12-21T13:55:21Z</time>
      </trkpt>
      <trkpt lat="46.21642" lon="6.39796">
        <ele>777.49</ele>
        <time>2019-12-21T13:55:27Z</time>
      </trkpt>
      <trkpt lat="46.21661" lon="6.39792">
        <ele>778.54</ele>
        <time>2019-12-21T13:55:33Z</time>
      </trkpt>
      <trkpt lat="46.21682" lon="6.39787">
        <ele>780.37</ele>
        <time>2019-12-21T13:55:39Z</time>
      </trkpt>
      <trkpt lat="46.21701" lon="6.39776">
        <ele>781.32</ele>
        <time>2019-12-21T13:55:45Z</time>
      </trkpt>
      <trkpt lat="46.2172" lon="6.39761">
        <ele>782.6</ele>
        <time>2019-12-21T13:55:51Z</time>
      </trkpt>
      <trkpt lat="46.2174" lon="6.39741">
        <ele>783.37</ele>
        <time>2019-12-21T13:55:59Z</time>
      </trkpt>
      <trkpt lat="46.21758" lon="6.39723">
        <ele>784.38</ele>
        <time>2019-12-21T13:56:05Z</time>
      </trkpt>
      <trkpt lat="46.21774" lon="6.39705">
        <ele>786.65</ele>
        <time>2019-12-21T13:56:11Z</time>
      </trkpt>
      <trkpt lat="46.2179" lon="6.39688">
        <ele>786.7</ele>
        <time>2019-12-21T13:56:15Z</time>
      </trkpt>
      <trkpt lat="46.21811" lon="6.3967">
        <ele>788.14</ele>
        <time>2019-12-21T13:56:21Z</time>
      </trkpt>
      <trkpt lat="46.21832" lon="6.39657">
        <ele>789.82</ele>
        <time>2019-12-21T13:56:27Z</time>
      </trkpt>
      <trkpt lat="46.21855" lon="6.39644">
        <ele>791.3</ele>
        <time>2019-12-21T13:56:33Z</time>
      </trkpt>
      <trkpt lat="46.21878" lon="6.3963">
        <ele>792.54</ele>
        <time>2019-12-21T13:56:39Z</time>
      </trkpt>
      <trkpt lat="46.21901" lon="6.39616">
        <ele>793.93</ele>
        <time>2019-12-21T13:56:45Z</time>
      </trkpt>
      <trkpt lat="46.21923" lon="6.39603">
        <ele>795.2</ele>
        <time>2019-12-21T13:56:51Z</time>
      </trkpt>
      <trkpt lat="46.21941" lon="6.39592">
        <ele>796.79</ele>
        <time>2019-12-21T13:56:57Z</time>
      </trkpt>
      <trkpt lat="46.21959" lon="6.3958">
        <ele>798.95</ele>
        <time>2019-12-21T13:57:03Z</time>
      </trkpt>
      <trkpt lat="46.21982" lon="6.39566">
        <ele>799.14</ele>
        <time>2019-12-21T13:57:09Z</time>
      </trkpt>
      <trkpt lat="46.22006" lon="6.39556">
        <ele>800.19</ele>
        <time>2019-12-21T13:57:15Z</time>
      </trkpt>
      <trkpt lat="46.22026" lon="6.39552">
        <ele>801.34</ele>
        <time>2019-12-21T13:57:21Z</time>
      </trkpt>
      <trkpt lat="46.22051" lon="6.39554">
        <ele>802.1</ele>
        <time>2019-12-21T13:57:27Z</time>
      </trkpt>
      <trkpt lat="46.22078" lon="6.39555">
        <ele>803.17</ele>
        <time>2019-12-21T13:57:33Z</time>
      </trkpt>
      <trkpt lat="46.22096" lon="6.39548">
        <ele>805.17</ele>
        <time>2019-12-21T13:57:37Z</time>
      </trkpt>
      <trkpt lat="46.2212" lon="6.39535">
        <ele>807.64</ele>
        <time>2019-12-21T13:57:43Z</time>
      </trkpt>
      <trkpt lat="46.22145" lon="6.39531">
        <ele>808.97</ele>
        <time>2019-12-21T13:57:49Z</time>
      </trkpt>
      <trkpt lat="46.2217" lon="6.39533">
        <ele>810.23</ele>
        <time>2019-12-21T13:57:55Z</time>
      </trkpt>
      <trkpt lat="46.22194" lon="6.39536">
        <ele>810.6</ele>
        <time>2019-12-21T13:58:01Z</time>
      </trkpt>
      <trkpt lat="46.22217" lon="6.39537">
        <ele>811.52</ele>
        <time>2019-12-21T13:58:07Z</time>
      </trkpt>
      <trkpt lat="46.22241" lon="6.3954">
        <ele>812.8</ele>
        <time>2019-12-21T13:58:13Z</time>
      </trkpt>
      <trkpt lat="46.22265" lon="6.39542">
        <ele>814.16</ele>
        <time>2019-12-21T13:58:19Z</time>
      </trkpt>
      <trkpt lat="46.22289" lon="6.39544">
        <ele>815.65</ele>
        <time>2019-12-21T13:58:25Z</time>
      </trkpt>
      <trkpt lat="46.22312" lon="6.39547">
        <ele>817.56</ele>
        <time>2019-12-21T13:58:31Z</time>
      </trkpt>
      <trkpt lat="46.22335" lon="6.3955">
        <ele>822.92</ele>
        <time>2019-12-21T13:58:37Z</time>
      </trkpt>
      <trkpt lat="46.22358" lon="6.39546">
        <ele>824.22</ele>
        <time>2019-12-21T13:58:43Z</time>
      </trkpt>
      <trkpt lat="46.22381" lon="6.39539">
        <ele>825.02</ele>
        <time>2019-12-21T13:58:49Z</time>
      </trkpt>
      <trkpt lat="46.22403" lon="6.39531">
        <ele>826.33</ele>
        <time>2019-12-21T13:58:55Z</time>
      </trkpt>
      <trkpt lat="46.22425" lon="6.39523">
        <ele>827.14</ele>
        <time>2019-12-21T13:59:01Z</time>
      </trkpt>
      <trkpt lat="46.22449" lon="6.39514">
        <ele>827.84</ele>
        <time>2019-12-21T13:59:07Z</time>
      </trkpt>
      <trkpt lat="46.22472" lon="6.39506">
        <ele>828.92</ele>
        <time>2019-12-21T13:59:13Z</time>
      </trkpt>
      <trkpt lat="46.22495" lon="6.39498">
        <ele>831.12</ele>
        <time>2019-12-21T13:59:19Z</time>
      </trkpt>
      <trkpt lat="46.22518" lon="6.3949">
        <ele>833.85</ele>
        <time>2019-12-21T13:59:25Z</time>
      </trkpt>
      <trkpt lat="46.22541" lon="6.39488">
        <ele>835.41</ele>
        <time>2019-12-21T13:59:31Z</time>
      </trkpt>
      <trkpt lat="46.22562" lon="6.39495">
        <ele>837.86</ele>
        <time>2019-12-21T13:59:37Z</time>
      </trkpt>
      <trkpt lat="46.22584" lon="6.3949">
        <ele>833.72</ele>
        <time>2019-12-21T13:59:43Z</time>
      </trkpt>
      <trkpt lat="46.22605" lon="6.39471">
        <ele>834.36</ele>
        <time>2019-12-21T13:59:49Z</time>
      </trkpt>
      <trkpt lat="46.22628" lon="6.39458">
        <ele>836.05</ele>
        <time>2019-12-21T13:59:55Z</time>
      </trkpt>
      <trkpt lat="46.22652" lon="6.39455">
        <ele>837.68</ele>
        <time>2019-12-21T14:00:01Z</time>
      </trkpt>
      <trkpt lat="46.22678" lon="6.39454">
        <ele>838.82</ele>
        <time>2019-12-21T14:00:07Z</time>
      </trkpt>
      <trkpt lat="46.22703" lon="6.39454">
        <ele>839.75</ele>
        <time>2019-12-21T14:00:13Z</time>
      </trkpt>
      <trkpt lat="46.22725" lon="6.39453">
        <ele>841.28</ele>
        <time>2019-12-21T14:00:19Z</time>
      </trkpt>
      <trkpt lat="46.22746" lon="6.39452">
        <ele>841.65</ele>
        <time>2019-12-21T14:00:25Z</time>
      </trkpt>
      <trkpt lat="46.22771" lon="6.39451">
        <ele>843.24</ele>
        <time>2019-12-21T14:00:31Z</time>
      </trkpt>
      <trkpt lat="46.22795" lon="6.39451">
        <ele>845.33</ele>
        <time>2019-12-21T14:00:37Z</time>
      </trkpt>
      <trkpt lat="46.22818" lon="6.39451">
        <ele>846.22</ele>
        <time>2019-12-21T14:00:43Z</time>
      </trkpt>
      <trkpt lat="46.22841" lon="6.39452">
        <ele>846.95</ele>
        <time>2019-12-21T14:00:49Z</time>
      </trkpt>
      <trkpt lat="46.22863" lon="6.39456">
        <ele>848.35</ele>
        <time>2019-12-21T14:00:55Z</time>
      </trkpt>
      <trkpt lat="46.22883" lon="6.39462">
        <ele>849.49</ele>
        <time>2019-12-21T14:01:01Z</time>
      </trkpt>
      <trkpt lat="46.22907" lon="6.39471">
        <ele>851.98</ele>
        <time>2019-12-21T14:01:07Z</time>
      </trkpt>
      <trkpt lat="46.22931" lon="6.39482">
        <ele>853.73</ele>
        <time>2019-12-21T14:01:13Z</time>
      </trkpt>
      <trkpt lat="46.22953" lon="6.3949">
        <ele>855.76</ele>
        <time>2019-12-21T14:01:19Z</time>
      </trkpt>
      <trkpt lat="46.22979" lon="6.39498">
        <ele>856.65</ele>
        <time>2019-12-21T14:01:25Z</time>
      </trkpt>
      <trkpt lat="46.23006" lon="6.39501">
        <ele>857.2</ele>
        <time>2019-12-21T14:01:31Z</time>
      </trkpt>
      <trkpt lat="46.23029" lon="6.39502">
        <ele>857.73</ele>
        <time>2019-12-21T14:01:37Z</time>
      </trkpt>
      <trkpt lat="46.23053" lon="6.39515">
        <ele>859.24</ele>
        <time>2019-12-21T14:01:43Z</time>
      </trkpt>
      <trkpt lat="46.23075" lon="6.39527">
        <ele>860.87</ele>
        <time>2019-12-21T14:01:49Z</time>
      </trkpt>
      <trkpt lat="46.23099" lon="6.39517">
        <ele>862.23</ele>
        <time>2019-12-21T14:01:55Z</time>
      </trkpt>
      <trkpt lat="46.23119" lon="6.39499">
        <ele>863.59</ele>
        <time>2019-12-21T14:02:01Z</time>
      </trkpt>
      <trkpt lat="46.23139" lon="6.39481">
        <ele>865.05</ele>
        <time>2019-12-21T14:02:07Z</time>
      </trkpt>
      <trkpt lat="46.23159" lon="6.39463">
        <ele>866.11</ele>
        <time>2019-12-21T14:02:13Z</time>
      </trkpt>
      <trkpt lat="46.23178" lon="6.39446">
        <ele>867.13</ele>
        <time>2019-12-21T14:02:19Z</time>
      </trkpt>
      <trkpt lat="46.232" lon="6.39431">
        <ele>867.88</ele>
        <time>2019-12-21T14:02:25Z</time>
      </trkpt>
      <trkpt lat="46.23225" lon="6.3943">
        <ele>869.12</ele>
        <time>2019-12-21T14:02:31Z</time>
      </trkpt>
      <trkpt lat="46.23249" lon="6.39436">
        <ele>870.15</ele>
        <time>2019-12-21T14:02:37Z</time>
      </trkpt>
      <trkpt lat="46.23272" lon="6.39443">
        <ele>871.21</ele>
        <time>2019-12-21T14:02:43Z</time>
      </trkpt>
      <trkpt lat="46.23294" lon="6.39456">
        <ele>872.54</ele>
        <time>2019-12-21T14:02:49Z</time>
      </trkpt>
      <trkpt lat="46.23311" lon="6.3948">
        <ele>873.49</ele>
        <time>2019-12-21T14:02:55Z</time>
      </trkpt>
      <trkpt lat="46.2333" lon="6.39503">
        <ele>873.67</ele>
        <time>2019-12-21T14:03:01Z</time>
      </trkpt>
      <trkpt lat="46.23352" lon="6.39519">
        <ele>874.62</ele>
        <time>2019-12-21T14:03:07Z</time>
      </trkpt>
      <trkpt lat="46.23377" lon="6.39527">
        <ele>875.72</ele>
        <time>2019-12-21T14:03:13Z</time>
      </trkpt>
      <trkpt lat="46.23402" lon="6.39533">
        <ele>876.97</ele>
        <time>2019-12-21T14:03:19Z</time>
      </trkpt>
      <trkpt lat="46.23426" lon="6.39534">
        <ele>878.46</ele>
        <time>2019-12-21T14:03:25Z</time>
      </trkpt>
      <trkpt lat="46.2345" lon="6.39534">
        <ele>880.4</ele>
        <time>2019-12-21T14:03:31Z</time>
      </trkpt>
      <trkpt lat="46.23474" lon="6.39534">
        <ele>882.65</ele>
        <time>2019-12-21T14:03:37Z</time>
      </trkpt>
      <trkpt lat="46.23497" lon="6.3953">
        <ele>883.48</ele>
        <time>2019-12-21T14:03:43Z</time>
      </trkpt>
      <trkpt lat="46.23517" lon="6.3951">
        <ele>883.68</ele>
        <time>2019-12-21T14:03:49Z</time>
      </trkpt>
      <trkpt lat="46.23526" lon="6.39483">
        <ele>883.65</ele>
        <time>2019-12-21T14:03:55Z</time>
      </trkpt>
      <trkpt lat="46.23548" lon="6.39464">
        <ele>885.77</ele>
        <time>2019-12-21T14:04:01Z</time>
      </trkpt>
      <trkpt lat="46.23573" lon="6.39462">
        <ele>887.68</ele>
        <time>2019-12-21T14:04:07Z</time>
      </trkpt>
      <trkpt lat="46.23597" lon="6.39471">
        <ele>889.44</ele>
        <time>2019-12-21T14:04:13Z</time>
      </trkpt>
      <trkpt lat="46.2362" lon="6.3948">
        <ele>891.44</ele>
        <time>2019-12-21T14:04:19Z</time>
      </trkpt>
      <trkpt lat="46.23642" lon="6.39486">
        <ele>892.75</ele>
        <time>2019-12-21T14:04:25Z</time>
      </trkpt>
      <trkpt lat="46.23666" lon="6.39487">
        <ele>894.25</ele>
        <time>2019-12-21T14:04:31Z</time>
      </trkpt>
      <trkpt lat="46.23689" lon="6.3948">
        <ele>895.89</ele>
        <time>2019-12-21T14:04:37Z</time>
      </trkpt>
      <trkpt lat="46.23713" lon="6.39474">
        <ele>897.21</ele>
        <time>2019-12-21T14:04:43Z</time>
      </trkpt>
      <trkpt lat="46.23736" lon="6.39466">
        <ele>898.52</ele>
        <time>2019-12-21T14:04:49Z</time>
      </trkpt>
      <trkpt lat="46.23759" lon="6.3946">
        <ele>899.75</ele>
        <time>2019-12-21T14:04:55Z</time>
      </trkpt>
      <trkpt lat="46.23781" lon="6.39453">
        <ele>900.77</ele>
        <time>2019-12-21T14:05:01Z</time>
      </trkpt>
      <trkpt lat="46.23803" lon="6.39446">
        <ele>902.15</ele>
        <time>2019-12-21T14:05:07Z</time>
      </trkpt>
      <trkpt lat="46.23826" lon="6.3944">
        <ele>903.61</ele>
        <time>2019-12-21T14:05:13Z</time>
      </trkpt>
      <trkpt lat="46.23849" lon="6.39442">
        <ele>904.95</ele>
        <time>2019-12-21T14:05:19Z</time>
      </trkpt>
      <trkpt lat="46.23871" lon="6.39454">
        <ele>906.07</ele>
        <time>2019-12-21T14:05:25Z</time>
      </trkpt>
      <trkpt lat="46.23892" lon="6.39471">
        <ele>907.16</ele>
        <time>2019-12-21T14:05:31Z</time>
      </trkpt>
      <trkpt lat="46.23912" lon="6.39488">
        <ele>908.44</ele>
        <time>2019-12-21T14:05:37Z</time>
      </trkpt>
      <trkpt lat="46.23931" lon="6.39509">
        <ele>910.05</ele>
        <time>2019-12-21T14:05:43Z</time>
      </trkpt>
      <trkpt lat="46.23943" lon="6.39539">
        <ele>911.44</ele>
        <time>2019-12-21T14:05:49Z</time>
      </trkpt>
      <trkpt lat="46.23951" lon="6.39577">
        <ele>911.29</ele>
        <time>2019-12-21T14:05:55Z</time>
      </trkpt>
      <trkpt lat="46.23966" lon="6.39601">
        <ele>912.26</ele>
        <time>2019-12-21T14:06:01Z</time>
      </trkpt>
      <trkpt lat="46.23988" lon="6.39611">
        <ele>914.22</ele>
        <time>2019-12-21T14:06:07Z</time>
      </trkpt>
      <trkpt lat="46.24011" lon="6.39619">
        <ele>916.16</ele>
        <time>2019-12-21T14:06:13Z</time>
      </trkpt>
      <trkpt lat="46.24035" lon="6.39625">
        <ele>917.62</ele>
        <time>2019-12-21T14:06:19Z</time>
      </trkpt>
      <trkpt lat="46.24059" lon="6.39633">
        <ele>918.95</ele>
        <time>2019-12-21T14:06:25Z</time>
      </trkpt>
      <trkpt lat="46.24082" lon="6.3964">
        <ele>920.55</ele>
        <time>2019-12-21T14:06:31Z</time>
      </trkpt>
      <trkpt lat="46.24106" lon="6.39648">
        <ele>921.92</ele>
        <time>2019-12-21T14:06:37Z</time>
      </trkpt>
      <trkpt lat="46.24129" lon="6.39655">
        <ele>923.13</ele>
        <time>2019-12-21T14:06:43Z</time>
      </trkpt>
      <trkpt lat="46.24152" lon="6.39663">
        <ele>924.3</ele>
        <time>2019-12-21T14:06:49Z</time>
      </trkpt>
      <trkpt lat="46.24174" lon="6.39673">
        <ele>925.52</ele>
        <time>2019-12-21T14:06:55Z</time>
      </trkpt>
      <trkpt lat="46.24195" lon="6.39687">
        <ele>926.87</ele>
        <time>2019-12-21T14:07:01Z</time>
      </trkpt>
      <trkpt lat="46.24216" lon="6.39701">
        <ele>928.2</ele>
        <time>2019-12-21T14:07:07Z</time>
      </trkpt>
      <trkpt lat="46.24239" lon="6.39705">
        <ele>929.42</ele>
        <time>2019-12-21T14:07:13Z</time>
      </trkpt>
      <trkpt lat="46.24259" lon="6.39694">
        <ele>930.58</ele>
        <time>2019-12-21T14:07:19Z</time>
      </trkpt>
      <trkpt lat="46.24277" lon="6.39675">
        <ele>932.08</ele>
        <time>2019-12-21T14:07:25Z</time>
      </trkpt>
      <trkpt lat="46.24298" lon="6.39663">
        <ele>933.33</ele>
        <time>2019-12-21T14:07:31Z</time>
      </trkpt>
      <trkpt lat="46.24321" lon="6.39663">
        <ele>934.14</ele>
        <time>2019-12-21T14:07:37Z</time>
      </trkpt>
      <trkpt lat="46.2434" lon="6.39667">
        <ele>935.01</ele>
        <time>2019-12-21T14:07:43Z</time>
      </trkpt>
      <trkpt lat="46.24364" lon="6.39672">
        <ele>938.94</ele>
        <time>2019-12-21T14:07:51Z</time>
      </trkpt>
      <trkpt lat="46.2439" lon="6.39674">
        <ele>939.02</ele>
        <time>2019-12-21T14:07:57Z</time>
      </trkpt>
      <trkpt lat="46.24415" lon="6.39678">
        <ele>940.39</ele>
        <time>2019-12-21T14:08:03Z</time>
      </trkpt>
      <trkpt lat="46.24439" lon="6.39682">
        <ele>941.83</ele>
        <time>2019-12-21T14:08:09Z</time>
      </trkpt>
      <trkpt lat="46.24462" lon="6.39687">
        <ele>942.99</ele>
        <time>2019-12-21T14:08:15Z</time>
      </trkpt>
      <trkpt lat="46.24485" lon="6.39694">
        <ele>944.05</ele>
        <time>2019-12-21T14:08:21Z</time>
      </trkpt>
      <trkpt lat="46.24508" lon="6.39702">
        <ele>945.21</ele>
        <time>2019-12-21T14:08:27Z</time>
      </trkpt>
      <trkpt lat="46.2453" lon="6.39709">
        <ele>946.58</ele>
        <time>2019-12-21T14:08:33Z</time>
      </trkpt>
      <trkpt lat="46.24551" lon="6.39715">
        <ele>947.37</ele>
        <time>2019-12-21T14:08:39Z</time>
      </trkpt>
      <trkpt lat="46.2456" lon="6.39738">
        <ele>949.26</ele>
        <time>2019-12-21T14:08:45Z</time>
      </trkpt>
      <trkpt lat="46.24547" lon="6.39763">
        <ele>949.75</ele>
        <time>2019-12-21T14:08:51Z</time>
      </trkpt>
      <trkpt lat="46.24529" lon="6.39777">
        <ele>949.61</ele>
        <time>2019-12-21T14:08:55Z</time>
      </trkpt>
      <trkpt lat="46.24506" lon="6.39778">
        <ele>951.49</ele>
        <time>2019-12-21T14:09:01Z</time>
      </trkpt>
      <trkpt lat="46.24485" lon="6.39773">
        <ele>952.42</ele>
        <time>2019-12-21T14:09:07Z</time>
      </trkpt>
      <trkpt lat="46.2446" lon="6.39767">
        <ele>952.81</ele>
        <time>2019-12-21T14:09:13Z</time>
      </trkpt>
      <trkpt lat="46.24442" lon="6.39762">
        <ele>952.87</ele>
        <time>2019-12-21T14:09:17Z</time>
      </trkpt>
      <trkpt lat="46.24421" lon="6.3976">
        <ele>952.66</ele>
        <time>2019-12-21T14:09:21Z</time>
      </trkpt>
      <trkpt lat="46.24398" lon="6.3976">
        <ele>952.13</ele>
        <time>2019-12-21T14:09:25Z</time>
      </trkpt>
      <trkpt lat="46.24372" lon="6.39757">
        <ele>951.3</ele>
        <time>2019-12-21T14:09:29Z</time>
      </trkpt>
      <trkpt lat="46.24342" lon="6.39751">
        <ele>950.23</ele>
        <time>2019-12-21T14:09:33Z</time>
      </trkpt>
      <trkpt lat="46.24311" lon="6.39749">
        <ele>950.06</ele>
        <time>2019-12-21T14:09:37Z</time>
      </trkpt>
      <trkpt lat="46.24283" lon="6.39766">
        <ele>949.48</ele>
        <time>2019-12-21T14:09:41Z</time>
      </trkpt>
      <trkpt lat="46.24256" lon="6.39787">
        <ele>949.11</ele>
        <time>2019-12-21T14:09:45Z</time>
      </trkpt>
      <trkpt lat="46.24231" lon="6.39789">
        <ele>950.13</ele>
        <time>2019-12-21T14:09:49Z</time>
      </trkpt>
      <trkpt lat="46.24212" lon="6.3979">
        <ele>951.25</ele>
        <time>2019-12-21T14:09:53Z</time>
      </trkpt>
      <trkpt lat="46.2419" lon="6.3979">
        <ele>952.48</ele>
        <time>2019-12-21T14:09:59Z</time>
      </trkpt>
      <trkpt lat="46.24168" lon="6.39792">
        <ele>954.03</ele>
        <time>2019-12-21T14:10:05Z</time>
      </trkpt>
      <trkpt lat="46.24149" lon="6.39797">
        <ele>955.36</ele>
        <time>2019-12-21T14:10:11Z</time>
      </trkpt>
      <trkpt lat="46.24131" lon="6.39808">
        <ele>956.75</ele>
        <time>2019-12-21T14:10:17Z</time>
      </trkpt>
      <trkpt lat="46.24115" lon="6.3982">
        <ele>957.95</ele>
        <time>2019-12-21T14:10:23Z</time>
      </trkpt>
      <trkpt lat="46.24094" lon="6.39837">
        <ele>959.79</ele>
        <time>2019-12-21T14:10:31Z</time>
      </trkpt>
      <trkpt lat="46.24076" lon="6.39857">
        <ele>961.22</ele>
        <time>2019-12-21T14:10:39Z</time>
      </trkpt>
      <trkpt lat="46.24058" lon="6.39878">
        <ele>963.01</ele>
        <time>2019-12-21T14:10:47Z</time>
      </trkpt>
      <trkpt lat="46.2404" lon="6.39897">
        <ele>964.89</ele>
        <time>2019-12-21T14:10:55Z</time>
      </trkpt>
      <trkpt lat="46.2402" lon="6.39911">
        <ele>966.71</ele>
        <time>2019-12-21T14:11:03Z</time>
      </trkpt>
      <trkpt lat="46.24004" lon="6.39931">
        <ele>968.69</ele>
        <time>2019-12-21T14:11:11Z</time>
      </trkpt>
      <trkpt lat="46.23991" lon="6.3995">
        <ele>970.15</ele>
        <time>2019-12-21T14:11:23Z</time>
      </trkpt>
      <trkpt lat="46.23976" lon="6.39969">
        <ele>971.83</ele>
        <time>2019-12-21T14:11:31Z</time>
      </trkpt>
      <trkpt lat="46.23958" lon="6.39976">
        <ele>973.2</ele>
        <time>2019-12-21T14:11:37Z</time>
      </trkpt>
      <trkpt lat="46.23938" lon="6.3997">
        <ele>974.47</ele>
        <time>2019-12-21T14:11:43Z</time>
      </trkpt>
      <trkpt lat="46.2392" lon="6.39965">
        <ele>976.17</ele>
        <time>2019-12-21T14:11:49Z</time>
      </trkpt>
      <trkpt lat="46.23903" lon="6.39955">
        <ele>979.06</ele>
        <time>2019-12-21T14:11:55Z</time>
      </trkpt>
      <trkpt lat="46.23884" lon="6.39939">
        <ele>979.07</ele>
        <time>2019-12-21T14:12:03Z</time>
      </trkpt>
      <trkpt lat="46.23866" lon="6.39925">
        <ele>981.39</ele>
        <time>2019-12-21T14:12:11Z</time>
      </trkpt>
      <trkpt lat="46.23844" lon="6.39918">
        <ele>983.83</ele>
        <time>2019-12-21T14:12:19Z</time>
      </trkpt>
      <trkpt lat="46.23826" lon="6.39934">
        <ele>984.73</ele>
        <time>2019-12-21T14:12:27Z</time>
      </trkpt>
      <trkpt lat="46.23827" lon="6.39964">
        <ele>985.25</ele>
        <time>2019-12-21T14:12:35Z</time>
      </trkpt>
      <trkpt lat="46.23841" lon="6.3999">
        <ele>985.95</ele>
        <time>2019-12-21T14:12:43Z</time>
      </trkpt>
      <trkpt lat="46.23855" lon="6.40007">
        <ele>987.04</ele>
        <time>2019-12-21T14:12:51Z</time>
      </trkpt>
      <trkpt lat="46.23873" lon="6.40022">
        <ele>987.79</ele>
        <time>2019-12-21T14:12:59Z</time>
      </trkpt>
      <trkpt lat="46.23891" lon="6.40038">
        <ele>989.57</ele>
        <time>2019-12-21T14:13:07Z</time>
      </trkpt>
      <trkpt lat="46.23913" lon="6.40043">
        <ele>991.18</ele>
        <time>2019-12-21T14:13:13Z</time>
      </trkpt>
      <trkpt lat="46.23931" lon="6.40054">
        <ele>992.11</ele>
        <time>2019-12-21T14:13:21Z</time>
      </trkpt>
      <trkpt lat="46.23915" lon="6.40069">
        <ele>994.79</ele>
        <time>2019-12-21T14:13:31Z</time>
      </trkpt>
      <trkpt lat="46.23897" lon="6.40082">
        <ele>996.25</ele>
        <time>2019-12-21T14:13:39Z</time>
      </trkpt>
      <trkpt lat="46.23888" lon="6.4011">
        <ele>998.11</ele>
        <time>2019-12-21T14:13:51Z</time>
      </trkpt>
      <trkpt lat="46.23879" lon="6.40139">
        <ele>1000.82</ele>
        <time>2019-12-21T14:13:59Z</time>
      </trkpt>
      <trkpt lat="46.23873" lon="6.40172">
        <ele>1002.29</ele>
        <time>2019-12-21T14:14:07Z</time>
      </trkpt>
      <trkpt lat="46.23876" lon="6.40202">
        <ele>1004.41</ele>
        <time>2019-12-21T14:14:15Z</time>
      </trkpt>
      <trkpt lat="46.23886" lon="6.40174">
        <ele>1006.99</ele>
        <time>2019-12-21T14:14:29Z</time>
      </trkpt>
      <trkpt lat="46.23896" lon="6.40141">
        <ele>1009.82</ele>
        <time>2019-12-21T14:14:43Z</time>
      </trkpt>
      <trkpt lat="46.23912" lon="6.40129">
        <ele>1010.74</ele>
        <time>2019-12-21T14:14:47Z</time>
      </trkpt>
      <trkpt lat="46.23931" lon="6.40131">
        <ele>1012.36</ele>
        <time>2019-12-21T14:14:53Z</time>
      </trkpt>
      <trkpt lat="46.23951" lon="6.40139">
        <ele>1014.18</ele>
        <time>2019-12-21T14:15:01Z</time>
      </trkpt>
      <trkpt lat="46.23971" lon="6.40142">
        <ele>1015.76</ele>
        <time>2019-12-21T14:15:09Z</time>
      </trkpt>
      <trkpt lat="46.23993" lon="6.40144">
        <ele>1017.86</ele>
        <time>2019-12-21T14:15:17Z</time>
      </trkpt>
      <trkpt lat="46.24013" lon="6.40152">
        <ele>1019.06</ele>
        <time>2019-12-21T14:15:25Z</time>
      </trkpt>
      <trkpt lat="46.24036" lon="6.40151">
        <ele>1020.7</ele>
        <time>2019-12-21T14:15:31Z</time>
      </trkpt>
      <trkpt lat="46.24055" lon="6.40149">
        <ele>1022.47</ele>
        <time>2019-12-21T14:15:37Z</time>
      </trkpt>
      <trkpt lat="46.24074" lon="6.4014">
        <ele>1024.38</ele>
        <time>2019-12-21T14:15:45Z</time>
      </trkpt>
      <trkpt lat="46.24094" lon="6.40125">
        <ele>1025.78</ele>
        <time>2019-12-21T14:15:53Z</time>
      </trkpt>
      <trkpt lat="46.24116" lon="6.40121">
        <ele>1028.86</ele>
        <time>2019-12-21T14:16:01Z</time>
      </trkpt>
      <trkpt lat="46.24137" lon="6.40123">
        <ele>1030.8</ele>
        <time>2019-12-21T14:16:11Z</time>
      </trkpt>
      <trkpt lat="46.24156" lon="6.40127">
        <ele>1033.33</ele>
        <time>2019-12-21T14:16:17Z</time>
      </trkpt>
      <trkpt lat="46.24179" lon="6.40133">
        <ele>1034.02</ele>
        <time>2019-12-21T14:16:25Z</time>
      </trkpt>
      <trkpt lat="46.24201" lon="6.40143">
        <ele>1035.4</ele>
        <time>2019-12-21T14:16:33Z</time>
      </trkpt>
      <trkpt lat="46.24216" lon="6.40157">
        <ele>1038.06</ele>
        <time>2019-12-21T14:16:39Z</time>
      </trkpt>
      <trkpt lat="46.24226" lon="6.40181">
        <ele>1038.38</ele>
        <time>2019-12-21T14:16:45Z</time>
      </trkpt>
      <trkpt lat="46.24232" lon="6.40208">
        <ele>1039.03</ele>
        <time>2019-12-21T14:16:51Z</time>
      </trkpt>
      <trkpt lat="46.24241" lon="6.40239">
        <ele>1040.22</ele>
        <time>2019-12-21T14:16:59Z</time>
      </trkpt>
      <trkpt lat="46.24257" lon="6.40255">
        <ele>1043.59</ele>
        <time>2019-12-21T14:17:13Z</time>
      </trkpt>
      <trkpt lat="46.24276" lon="6.40269">
        <ele>1045.83</ele>
        <time>2019-12-21T14:17:25Z</time>
      </trkpt>
      <trkpt lat="46.24296" lon="6.40281">
        <ele>1049.44</ele>
        <time>2019-12-21T14:17:33Z</time>
      </trkpt>
      <trkpt lat="46.24316" lon="6.40294">
        <ele>1049.18</ele>
        <time>2019-12-21T14:17:39Z</time>
      </trkpt>
      <trkpt lat="46.24333" lon="6.4031">
        <ele>1050.14</ele>
        <time>2019-12-21T14:17:45Z</time>
      </trkpt>
      <trkpt lat="46.24354" lon="6.4033">
        <ele>1052</ele>
        <time>2019-12-21T14:17:53Z</time>
      </trkpt>
      <trkpt lat="46.24373" lon="6.40339">
        <ele>1053.51</ele>
        <time>2019-12-21T14:17:59Z</time>
      </trkpt>
      <trkpt lat="46.24393" lon="6.40348">
        <ele>1053.85</ele>
        <time>2019-12-21T14:18:05Z</time>
      </trkpt>
      <trkpt lat="46.24411" lon="6.40358">
        <ele>1054.1</ele>
        <time>2019-12-21T14:18:11Z</time>
      </trkpt>
      <trkpt lat="46.24432" lon="6.40372">
        <ele>1057.09</ele>
        <time>2019-12-21T14:18:19Z</time>
      </trkpt>
      <trkpt lat="46.2445" lon="6.40376">
        <ele>1058.86</ele>
        <time>2019-12-21T14:18:25Z</time>
      </trkpt>
      <trkpt lat="46.2447" lon="6.40376">
        <ele>1058.96</ele>
        <time>2019-12-21T14:18:33Z</time>
      </trkpt>
      <trkpt lat="46.24491" lon="6.40383">
        <ele>1059.24</ele>
        <time>2019-12-21T14:18:41Z</time>
      </trkpt>
      <trkpt lat="46.24508" lon="6.40396">
        <ele>1060.69</ele>
        <time>2019-12-21T14:18:47Z</time>
      </trkpt>
      <trkpt lat="46.24523" lon="6.40411">
        <ele>1064.41</ele>
        <time>2019-12-21T14:18:55Z</time>
      </trkpt>
      <trkpt lat="46.24542" lon="6.40428">
        <ele>1066.38</ele>
        <time>2019-12-21T14:19:01Z</time>
      </trkpt>
      <trkpt lat="46.24562" lon="6.40432">
        <ele>1065.27</ele>
        <time>2019-12-21T14:19:05Z</time>
      </trkpt>
      <trkpt lat="46.24584" lon="6.4044">
        <ele>1066.71</ele>
        <time>2019-12-21T14:19:11Z</time>
      </trkpt>
      <trkpt lat="46.24603" lon="6.40449">
        <ele>1067.92</ele>
        <time>2019-12-21T14:19:17Z</time>
      </trkpt>
      <trkpt lat="46.24623" lon="6.40458">
        <ele>1069.87</ele>
        <time>2019-12-21T14:19:23Z</time>
      </trkpt>
      <trkpt lat="46.2464" lon="6.40469">
        <ele>1070.9</ele>
        <time>2019-12-21T14:19:29Z</time>
      </trkpt>
      <trkpt lat="46.24658" lon="6.40481">
        <ele>1071.26</ele>
        <time>2019-12-21T14:19:35Z</time>
      </trkpt>
      <trkpt lat="46.24678" lon="6.4049">
        <ele>1072.06</ele>
        <time>2019-12-21T14:19:41Z</time>
      </trkpt>
      <trkpt lat="46.24697" lon="6.405">
        <ele>1073.43</ele>
        <time>2019-12-21T14:19:47Z</time>
      </trkpt>
      <trkpt lat="46.24718" lon="6.4051">
        <ele>1074.36</ele>
        <time>2019-12-21T14:19:53Z</time>
      </trkpt>
      <trkpt lat="46.24738" lon="6.4052">
        <ele>1075.08</ele>
        <time>2019-12-21T14:19:59Z</time>
      </trkpt>
      <trkpt lat="46.24756" lon="6.40532">
        <ele>1075.53</ele>
        <time>2019-12-21T14:20:05Z</time>
      </trkpt>
      <trkpt lat="46.24771" lon="6.40547">
        <ele>1076.16</ele>
        <time>2019-12-21T14:20:11Z</time>
      </trkpt>
      <trkpt lat="46.24787" lon="6.40567">
        <ele>1077.26</ele>
        <time>2019-12-21T14:20:19Z</time>
      </trkpt>
      <trkpt lat="46.24802" lon="6.40582">
        <ele>1081.14</ele>
        <time>2019-12-21T14:20:25Z</time>
      </trkpt>
      <trkpt lat="46.24818" lon="6.406">
        <ele>1084.27</ele>
        <time>2019-12-21T14:20:31Z</time>
      </trkpt>
      <trkpt lat="46.24838" lon="6.40625">
        <ele>1083.57</ele>
        <time>2019-12-21T14:20:37Z</time>
      </trkpt>
      <trkpt lat="46.24852" lon="6.40646">
        <ele>1085.05</ele>
        <time>2019-12-21T14:20:43Z</time>
      </trkpt>
      <trkpt lat="46.2487" lon="6.40674">
        <ele>1086.25</ele>
        <time>2019-12-21T14:20:49Z</time>
      </trkpt>
      <trkpt lat="46.24887" lon="6.40704">
        <ele>1084.49</ele>
        <time>2019-12-21T14:20:53Z</time>
      </trkpt>
      <trkpt lat="46.24884" lon="6.40732">
        <ele>1084.52</ele>
        <time>2019-12-21T14:20:59Z</time>
      </trkpt>
      <trkpt lat="46.24867" lon="6.40714">
        <ele>1087</ele>
        <time>2019-12-21T14:21:07Z</time>
      </trkpt>
      <trkpt lat="46.24848" lon="6.40697">
        <ele>1088.82</ele>
        <time>2019-12-21T14:21:15Z</time>
      </trkpt>
      <trkpt lat="46.24832" lon="6.40686">
        <ele>1090.32</ele>
        <time>2019-12-21T14:21:21Z</time>
      </trkpt>
      <trkpt lat="46.24812" lon="6.40678">
        <ele>1092.79</ele>
        <time>2019-12-21T14:21:31Z</time>
      </trkpt>
      <trkpt lat="46.24794" lon="6.40672">
        <ele>1095.56</ele>
        <time>2019-12-21T14:21:41Z</time>
      </trkpt>
      <trkpt lat="46.24771" lon="6.40669">
        <ele>1095.03</ele>
        <time>2019-12-21T14:21:47Z</time>
      </trkpt>
      <trkpt lat="46.24748" lon="6.40664">
        <ele>1097.32</ele>
        <time>2019-12-21T14:21:55Z</time>
      </trkpt>
      <trkpt lat="46.24729" lon="6.40657">
        <ele>1098.84</ele>
        <time>2019-12-21T14:22:03Z</time>
      </trkpt>
      <trkpt lat="46.24724" lon="6.40682">
        <ele>1100.74</ele>
        <time>2019-12-21T14:22:13Z</time>
      </trkpt>
      <trkpt lat="46.24743" lon="6.40691">
        <ele>1102.36</ele>
        <time>2019-12-21T14:22:21Z</time>
      </trkpt>
      <trkpt lat="46.24761" lon="6.40705">
        <ele>1104.06</ele>
        <time>2019-12-21T14:22:29Z</time>
      </trkpt>
      <trkpt lat="46.24779" lon="6.40728">
        <ele>1106.63</ele>
        <time>2019-12-21T14:22:41Z</time>
      </trkpt>
      <trkpt lat="46.24795" lon="6.40745">
        <ele>1109.21</ele>
        <time>2019-12-21T14:22:49Z</time>
      </trkpt>
      <trkpt lat="46.24808" lon="6.40765">
        <ele>1109.77</ele>
        <time>2019-12-21T14:22:55Z</time>
      </trkpt>
      <trkpt lat="46.24821" lon="6.40784">
        <ele>1112</ele>
        <time>2019-12-21T14:23:01Z</time>
      </trkpt>
      <trkpt lat="46.24838" lon="6.40809">
        <ele>1112.5</ele>
        <time>2019-12-21T14:23:09Z</time>
      </trkpt>
      <trkpt lat="46.24834" lon="6.40837">
        <ele>1113.55</ele>
        <time>2019-12-21T14:23:15Z</time>
      </trkpt>
      <trkpt lat="46.2483" lon="6.40865">
        <ele>1113.91</ele>
        <time>2019-12-21T14:23:25Z</time>
      </trkpt>
      <trkpt lat="46.24842" lon="6.40886">
        <ele>1113.52</ele>
        <time>2019-12-21T14:24:31Z</time>
      </trkpt>
      <trkpt lat="46.24851" lon="6.40909">
        <ele>1113.63</ele>
        <time>2019-12-21T14:26:11Z</time>
      </trkpt>
      <trkpt lat="46.24862" lon="6.40931">
        <ele>1113.09</ele>
        <time>2019-12-21T14:26:17Z</time>
      </trkpt>
      <trkpt lat="46.24875" lon="6.4095">
        <ele>1112.94</ele>
        <time>2019-12-21T14:26:21Z</time>
      </trkpt>
      <trkpt lat="46.24886" lon="6.40979">
        <ele>1112.72</ele>
        <time>2019-12-21T14:26:25Z</time>
      </trkpt>
      <trkpt lat="46.24887" lon="6.41014">
        <ele>1113.14</ele>
        <time>2019-12-21T14:26:29Z</time>
      </trkpt>
      <trkpt lat="46.2488" lon="6.41044">
        <ele>1113.49</ele>
        <time>2019-12-21T14:26:33Z</time>
      </trkpt>
      <trkpt lat="46.24872" lon="6.41074">
        <ele>1114.51</ele>
        <time>2019-12-21T14:26:37Z</time>
      </trkpt>
      <trkpt lat="46.24866" lon="6.41107">
        <ele>1114.24</ele>
        <time>2019-12-21T14:26:41Z</time>
      </trkpt>
      <trkpt lat="46.24864" lon="6.41137">
        <ele>1115.19</ele>
        <time>2019-12-21T14:26:47Z</time>
      </trkpt>
      <trkpt lat="46.24863" lon="6.41172">
        <ele>1116.18</ele>
        <time>2019-12-21T14:26:53Z</time>
      </trkpt>
      <trkpt lat="46.2486" lon="6.412">
        <ele>1117.54</ele>
        <time>2019-12-21T14:26:57Z</time>
      </trkpt>
      <trkpt lat="46.2485" lon="6.41229">
        <ele>1116.75</ele>
        <time>2019-12-21T14:27:01Z</time>
      </trkpt>
      <trkpt lat="46.24836" lon="6.41253">
        <ele>1116.43</ele>
        <time>2019-12-21T14:27:04Z</time>
      </trkpt>
      <trkpt lat="46.24821" lon="6.41274">
        <ele>1117.17</ele>
        <time>2019-12-21T14:27:08Z</time>
      </trkpt>
      <trkpt lat="46.24805" lon="6.41302">
        <ele>1117.22</ele>
        <time>2019-12-21T14:27:12Z</time>
      </trkpt>
      <trkpt lat="46.24798" lon="6.41333">
        <ele>1116.81</ele>
        <time>2019-12-21T14:27:16Z</time>
      </trkpt>
      <trkpt lat="46.24806" lon="6.41373">
        <ele>1116.85</ele>
        <time>2019-12-21T14:27:20Z</time>
      </trkpt>
      <trkpt lat="46.24816" lon="6.41405">
        <ele>1115.81</ele>
        <time>2019-12-21T14:27:24Z</time>
      </trkpt>
      <trkpt lat="46.24822" lon="6.4143">
        <ele>1115.61</ele>
        <time>2019-12-21T14:27:28Z</time>
      </trkpt>
      <trkpt lat="46.24827" lon="6.41462">
        <ele>1112.88</ele>
        <time>2019-12-21T14:27:32Z</time>
      </trkpt>
      <trkpt lat="46.24842" lon="6.41496">
        <ele>1113.52</ele>
        <time>2019-12-21T14:27:36Z</time>
      </trkpt>
      <trkpt lat="46.24857" lon="6.41523">
        <ele>1112.93</ele>
        <time>2019-12-21T14:27:40Z</time>
      </trkpt>
      <trkpt lat="46.24878" lon="6.41537">
        <ele>1113.1</ele>
        <time>2019-12-21T14:27:44Z</time>
      </trkpt>
      <trkpt lat="46.249" lon="6.4154">
        <ele>1112.57</ele>
        <time>2019-12-21T14:27:48Z</time>
      </trkpt>
      <trkpt lat="46.24927" lon="6.41545">
        <ele>1110.86</ele>
        <time>2019-12-21T14:27:52Z</time>
      </trkpt>
      <trkpt lat="46.24954" lon="6.41551">
        <ele>1110.13</ele>
        <time>2019-12-21T14:27:56Z</time>
      </trkpt>
      <trkpt lat="46.24979" lon="6.41557">
        <ele>1110.24</ele>
        <time>2019-12-21T14:28:00Z</time>
      </trkpt>
      <trkpt lat="46.25" lon="6.41575">
        <ele>1110.64</ele>
        <time>2019-12-21T14:28:04Z</time>
      </trkpt>
      <trkpt lat="46.25016" lon="6.416">
        <ele>1111.98</ele>
        <time>2019-12-21T14:28:08Z</time>
      </trkpt>
      <trkpt lat="46.25031" lon="6.41621">
        <ele>1113.03</ele>
        <time>2019-12-21T14:28:12Z</time>
      </trkpt>
      <trkpt lat="46.25047" lon="6.41638">
        <ele>1113.08</ele>
        <time>2019-12-21T14:28:16Z</time>
      </trkpt>
      <trkpt lat="46.25069" lon="6.41655">
        <ele>1111.78</ele>
        <time>2019-12-21T14:28:20Z</time>
      </trkpt>
      <trkpt lat="46.25098" lon="6.4167">
        <ele>1110.16</ele>
        <time>2019-12-21T14:28:24Z</time>
      </trkpt>
      <trkpt lat="46.25123" lon="6.41682">
        <ele>1109.47</ele>
        <time>2019-12-21T14:28:28Z</time>
      </trkpt>
      <trkpt lat="46.2515" lon="6.41697">
        <ele>1108.58</ele>
        <time>2019-12-21T14:28:34Z</time>
      </trkpt>
      <trkpt lat="46.25174" lon="6.41711">
        <ele>1107.48</ele>
        <time>2019-12-21T14:28:38Z</time>
      </trkpt>
      <trkpt lat="46.25201" lon="6.41725">
        <ele>1107.18</ele>
        <time>2019-12-21T14:28:42Z</time>
      </trkpt>
      <trkpt lat="46.25227" lon="6.41739">
        <ele>1106.91</ele>
        <time>2019-12-21T14:28:46Z</time>
      </trkpt>
      <trkpt lat="46.25253" lon="6.41753">
        <ele>1107.6</ele>
        <time>2019-12-21T14:28:50Z</time>
      </trkpt>
      <trkpt lat="46.25279" lon="6.41766">
        <ele>1107.22</ele>
        <time>2019-12-21T14:28:54Z</time>
      </trkpt>
      <trkpt lat="46.25304" lon="6.41778">
        <ele>1106.82</ele>
        <time>2019-12-21T14:28:58Z</time>
      </trkpt>
      <trkpt lat="46.25333" lon="6.4179">
        <ele>1105.56</ele>
        <time>2019-12-21T14:29:02Z</time>
      </trkpt>
      <trkpt lat="46.25365" lon="6.41794">
        <ele>1104.07</ele>
        <time>2019-12-21T14:29:06Z</time>
      </trkpt>
      <trkpt lat="46.25396" lon="6.41802">
        <ele>1104.29</ele>
        <time>2019-12-21T14:29:10Z</time>
      </trkpt>
      <trkpt lat="46.25423" lon="6.418">
        <ele>1103.81</ele>
        <time>2019-12-21T14:29:14Z</time>
      </trkpt>
      <trkpt lat="46.25447" lon="6.4179">
        <ele>1102.06</ele>
        <time>2019-12-21T14:29:18Z</time>
      </trkpt>
      <trkpt lat="46.25471" lon="6.41791">
        <ele>1100.6</ele>
        <time>2019-12-21T14:29:22Z</time>
      </trkpt>
      <trkpt lat="46.25494" lon="6.41792">
        <ele>1099.97</ele>
        <time>2019-12-21T14:29:28Z</time>
      </trkpt>
      <trkpt lat="46.25511" lon="6.41774">
        <ele>1097.55</ele>
        <time>2019-12-21T14:29:36Z</time>
      </trkpt>
      <trkpt lat="46.25497" lon="6.41748">
        <ele>1094.95</ele>
        <time>2019-12-21T14:29:42Z</time>
      </trkpt>
      <trkpt lat="46.2547" lon="6.41746">
        <ele>1092.94</ele>
        <time>2019-12-21T14:29:46Z</time>
      </trkpt>
      <trkpt lat="46.25439" lon="6.41743">
        <ele>1090.15</ele>
        <time>2019-12-21T14:29:50Z</time>
      </trkpt>
      <trkpt lat="46.25409" lon="6.41729">
        <ele>1086.29</ele>
        <time>2019-12-21T14:29:54Z</time>
      </trkpt>
      <trkpt lat="46.25379" lon="6.41705">
        <ele>1082.55</ele>
        <time>2019-12-21T14:29:58Z</time>
      </trkpt>
      <trkpt lat="46.25349" lon="6.41679">
        <ele>1078.76</ele>
        <time>2019-12-21T14:30:02Z</time>
      </trkpt>
      <trkpt lat="46.25333" lon="6.41664">
        <ele>1076.83</ele>
        <time>2019-12-21T14:30:04Z</time>
      </trkpt>
      <trkpt lat="46.25319" lon="6.41645">
        <ele>1074.98</ele>
        <time>2019-12-21T14:30:06Z</time>
      </trkpt>
      <trkpt lat="46.25306" lon="6.41623">
        <ele>1072.89</ele>
        <time>2019-12-21T14:30:08Z</time>
      </trkpt>
      <trkpt lat="46.25294" lon="6.41602">
        <ele>1070.91</ele>
        <time>2019-12-21T14:30:10Z</time>
      </trkpt>
      <trkpt lat="46.25279" lon="6.4158">
        <ele>1068.98</ele>
        <time>2019-12-21T14:30:12Z</time>
      </trkpt>
      <trkpt lat="46.25263" lon="6.41561">
        <ele>1067.2</ele>
        <time>2019-12-21T14:30:14Z</time>
      </trkpt>
      <trkpt lat="46.25238" lon="6.41524">
        <ele>1063.58</ele>
        <time>2019-12-21T14:30:18Z</time>
      </trkpt>
      <trkpt lat="46.25216" lon="6.41492">
        <ele>1061.32</ele>
        <time>2019-12-21T14:30:22Z</time>
      </trkpt>
      <trkpt lat="46.25208" lon="6.41468">
        <ele>1058.57</ele>
        <time>2019-12-21T14:30:26Z</time>
      </trkpt>
      <trkpt lat="46.25238" lon="6.4147">
        <ele>1055.58</ele>
        <time>2019-12-21T14:30:32Z</time>
      </trkpt>
      <trkpt lat="46.25264" lon="6.41496">
        <ele>1053.04</ele>
        <time>2019-12-21T14:30:36Z</time>
      </trkpt>
      <trkpt lat="46.25281" lon="6.41506">
        <ele>1051.37</ele>
        <time>2019-12-21T14:30:38Z</time>
      </trkpt>
      <trkpt lat="46.25301" lon="6.41509">
        <ele>1049.66</ele>
        <time>2019-12-21T14:30:40Z</time>
      </trkpt>
      <trkpt lat="46.2532" lon="6.4151">
        <ele>1047.78</ele>
        <time>2019-12-21T14:30:42Z</time>
      </trkpt>
      <trkpt lat="46.25338" lon="6.4151">
        <ele>1045.73</ele>
        <time>2019-12-21T14:30:44Z</time>
      </trkpt>
      <trkpt lat="46.25375" lon="6.4153">
        <ele>1042.42</ele>
        <time>2019-12-21T14:30:48Z</time>
      </trkpt>
      <trkpt lat="46.25394" lon="6.41541">
        <ele>1040.66</ele>
        <time>2019-12-21T14:30:50Z</time>
      </trkpt>
      <trkpt lat="46.25415" lon="6.41547">
        <ele>1038.45</ele>
        <time>2019-12-21T14:30:52Z</time>
      </trkpt>
      <trkpt lat="46.25437" lon="6.41547">
        <ele>1036.23</ele>
        <time>2019-12-21T14:30:54Z</time>
      </trkpt>
      <trkpt lat="46.2546" lon="6.41542">
        <ele>1033.78</ele>
        <time>2019-12-21T14:30:56Z</time>
      </trkpt>
      <trkpt lat="46.25482" lon="6.41533">
        <ele>1031.48</ele>
        <time>2019-12-21T14:30:58Z</time>
      </trkpt>
      <trkpt lat="46.25503" lon="6.41523">
        <ele>1030.64</ele>
        <time>2019-12-21T14:31:00Z</time>
      </trkpt>
      <trkpt lat="46.25521" lon="6.41515">
        <ele>1030.27</ele>
        <time>2019-12-21T14:31:02Z</time>
      </trkpt>
      <trkpt lat="46.2554" lon="6.41505">
        <ele>1029.63</ele>
        <time>2019-12-21T14:31:04Z</time>
      </trkpt>
      <trkpt lat="46.2556" lon="6.41494">
        <ele>1028.31</ele>
        <time>2019-12-21T14:31:06Z</time>
      </trkpt>
      <trkpt lat="46.25578" lon="6.41487">
        <ele>1026.91</ele>
        <time>2019-12-21T14:31:08Z</time>
      </trkpt>
      <trkpt lat="46.25613" lon="6.41475">
        <ele>1023.71</ele>
        <time>2019-12-21T14:31:12Z</time>
      </trkpt>
      <trkpt lat="46.25634" lon="6.41462">
        <ele>1020.85</ele>
        <time>2019-12-21T14:31:16Z</time>
      </trkpt>
      <trkpt lat="46.25606" lon="6.4145">
        <ele>1015.49</ele>
        <time>2019-12-21T14:31:22Z</time>
      </trkpt>
      <trkpt lat="46.25572" lon="6.41455">
        <ele>1012.65</ele>
        <time>2019-12-21T14:31:26Z</time>
      </trkpt>
      <trkpt lat="46.25554" lon="6.41452">
        <ele>1011.05</ele>
        <time>2019-12-21T14:31:28Z</time>
      </trkpt>
      <trkpt lat="46.2552" lon="6.41445">
        <ele>1008.22</ele>
        <time>2019-12-21T14:31:32Z</time>
      </trkpt>
      <trkpt lat="46.25492" lon="6.4143">
        <ele>1005.45</ele>
        <time>2019-12-21T14:31:36Z</time>
      </trkpt>
      <trkpt lat="46.25467" lon="6.41393">
        <ele>1001.05</ele>
        <time>2019-12-21T14:31:40Z</time>
      </trkpt>
      <trkpt lat="46.25444" lon="6.41359">
        <ele>996.25</ele>
        <time>2019-12-21T14:31:44Z</time>
      </trkpt>
      <trkpt lat="46.25413" lon="6.41337">
        <ele>993.33</ele>
        <time>2019-12-21T14:31:48Z</time>
      </trkpt>
      <trkpt lat="46.25387" lon="6.41329">
        <ele>992.44</ele>
        <time>2019-12-21T14:31:52Z</time>
      </trkpt>
      <trkpt lat="46.25369" lon="6.41309">
        <ele>988.99</ele>
        <time>2019-12-21T14:31:56Z</time>
      </trkpt>
      <trkpt lat="46.25374" lon="6.41273">
        <ele>986.32</ele>
        <time>2019-12-21T14:32:00Z</time>
      </trkpt>
      <trkpt lat="46.25357" lon="6.41231">
        <ele>983.7</ele>
        <time>2019-12-21T14:32:04Z</time>
      </trkpt>
      <trkpt lat="46.25347" lon="6.41209">
        <ele>982.32</ele>
        <time>2019-12-21T14:32:06Z</time>
      </trkpt>
      <trkpt lat="46.25336" lon="6.41181">
        <ele>980.63</ele>
        <time>2019-12-21T14:32:08Z</time>
      </trkpt>
      <trkpt lat="46.25328" lon="6.41151">
        <ele>978.48</ele>
        <time>2019-12-21T14:32:10Z</time>
      </trkpt>
      <trkpt lat="46.25321" lon="6.41124">
        <ele>976.84</ele>
        <time>2019-12-21T14:32:12Z</time>
      </trkpt>
      <trkpt lat="46.25316" lon="6.41097">
        <ele>975.1</ele>
        <time>2019-12-21T14:32:14Z</time>
      </trkpt>
      <trkpt lat="46.25322" lon="6.41067">
        <ele>972.97</ele>
        <time>2019-12-21T14:32:16Z</time>
      </trkpt>
      <trkpt lat="46.25331" lon="6.41041">
        <ele>970.58</ele>
        <time>2019-12-21T14:32:18Z</time>
      </trkpt>
      <trkpt lat="46.2534" lon="6.41">
        <ele>967.01</ele>
        <time>2019-12-21T14:32:22Z</time>
      </trkpt>
      <trkpt lat="46.25331" lon="6.40976">
        <ele>965.36</ele>
        <time>2019-12-21T14:32:26Z</time>
      </trkpt>
      <trkpt lat="46.2531" lon="6.40969">
        <ele>964.75</ele>
        <time>2019-12-21T14:32:30Z</time>
      </trkpt>
      <trkpt lat="46.25291" lon="6.40965">
        <ele>964.69</ele>
        <time>2019-12-21T14:32:34Z</time>
      </trkpt>
      <trkpt lat="46.25265" lon="6.40956">
        <ele>966.17</ele>
        <time>2019-12-21T14:32:40Z</time>
      </trkpt>
      <trkpt lat="46.25267" lon="6.40924">
        <ele>966.18</ele>
        <time>2019-12-21T14:32:46Z</time>
      </trkpt>
      <trkpt lat="46.25284" lon="6.40912">
        <ele>967.6</ele>
        <time>2019-12-21T14:32:50Z</time>
      </trkpt>
      <trkpt lat="46.25299" lon="6.40895">
        <ele>966.13</ele>
        <time>2019-12-21T14:32:52Z</time>
      </trkpt>
      <trkpt lat="46.25303" lon="6.40852">
        <ele>964.94</ele>
        <time>2019-12-21T14:32:56Z</time>
      </trkpt>
      <trkpt lat="46.25304" lon="6.40813">
        <ele>962.07</ele>
        <time>2019-12-21T14:33:00Z</time>
      </trkpt>
      <trkpt lat="46.25319" lon="6.40783">
        <ele>959.47</ele>
        <time>2019-12-21T14:33:04Z</time>
      </trkpt>
      <trkpt lat="46.25322" lon="6.40741">
        <ele>957.4</ele>
        <time>2019-12-21T14:33:08Z</time>
      </trkpt>
      <trkpt lat="46.25331" lon="6.40697">
        <ele>952.67</ele>
        <time>2019-12-21T14:33:12Z</time>
      </trkpt>
      <trkpt lat="46.25326" lon="6.4065">
        <ele>948.82</ele>
        <time>2019-12-21T14:33:16Z</time>
      </trkpt>
      <trkpt lat="46.25325" lon="6.40612">
        <ele>945.82</ele>
        <time>2019-12-21T14:33:20Z</time>
      </trkpt>
      <trkpt lat="46.25351" lon="6.40581">
        <ele>942.33</ele>
        <time>2019-12-21T14:33:24Z</time>
      </trkpt>
      <trkpt lat="46.25366" lon="6.40564">
        <ele>940.28</ele>
        <time>2019-12-21T14:33:26Z</time>
      </trkpt>
      <trkpt lat="46.25386" lon="6.40536">
        <ele>935.91</ele>
        <time>2019-12-21T14:33:30Z</time>
      </trkpt>
      <trkpt lat="46.25401" lon="6.40517">
        <ele>932.91</ele>
        <time>2019-12-21T14:33:34Z</time>
      </trkpt>
      <trkpt lat="46.25424" lon="6.40499">
        <ele>930.58</ele>
        <time>2019-12-21T14:33:38Z</time>
      </trkpt>
      <trkpt lat="46.25421" lon="6.40457">
        <ele>928.51</ele>
        <time>2019-12-21T14:33:42Z</time>
      </trkpt>
      <trkpt lat="46.254" lon="6.40417">
        <ele>926.64</ele>
        <time>2019-12-21T14:33:46Z</time>
      </trkpt>
      <trkpt lat="46.25389" lon="6.40396">
        <ele>925.73</ele>
        <time>2019-12-21T14:33:48Z</time>
      </trkpt>
      <trkpt lat="46.25381" lon="6.40371">
        <ele>924.73</ele>
        <time>2019-12-21T14:33:50Z</time>
      </trkpt>
      <trkpt lat="46.25376" lon="6.40344">
        <ele>924.58</ele>
        <time>2019-12-21T14:33:52Z</time>
      </trkpt>
      <trkpt lat="46.25378" lon="6.40314">
        <ele>923.93</ele>
        <time>2019-12-21T14:33:54Z</time>
      </trkpt>
      <trkpt lat="46.25375" lon="6.40283">
        <ele>922.88</ele>
        <time>2019-12-21T14:33:56Z</time>
      </trkpt>
      <trkpt lat="46.25362" lon="6.40261">
        <ele>921.87</ele>
        <time>2019-12-21T14:33:58Z</time>
      </trkpt>
      <trkpt lat="46.25352" lon="6.40235">
        <ele>920.78</ele>
        <time>2019-12-21T14:34:00Z</time>
      </trkpt>
      <trkpt lat="46.25342" lon="6.40208">
        <ele>919.62</ele>
        <time>2019-12-21T14:34:02Z</time>
      </trkpt>
      <trkpt lat="46.25334" lon="6.40179">
        <ele>918.62</ele>
        <time>2019-12-21T14:34:04Z</time>
      </trkpt>
      <trkpt lat="46.25326" lon="6.40151">
        <ele>918</ele>
        <time>2019-12-21T14:34:06Z</time>
      </trkpt>
      <trkpt lat="46.25323" lon="6.40103">
        <ele>916.23</ele>
        <time>2019-12-21T14:34:10Z</time>
      </trkpt>
      <trkpt lat="46.25336" lon="6.40084">
        <ele>915.68</ele>
        <time>2019-12-21T14:34:12Z</time>
      </trkpt>
      <trkpt lat="46.25343" lon="6.40035">
        <ele>913.35</ele>
        <time>2019-12-21T14:34:16Z</time>
      </trkpt>
      <trkpt lat="46.25338" lon="6.40008">
        <ele>912.19</ele>
        <time>2019-12-21T14:34:18Z</time>
      </trkpt>
      <trkpt lat="46.25336" lon="6.39979">
        <ele>911.26</ele>
        <time>2019-12-21T14:34:20Z</time>
      </trkpt>
      <trkpt lat="46.25337" lon="6.39951">
        <ele>910.48</ele>
        <time>2019-12-21T14:34:22Z</time>
      </trkpt>
      <trkpt lat="46.25343" lon="6.39923">
        <ele>909.76</ele>
        <time>2019-12-21T14:34:24Z</time>
      </trkpt>
      <trkpt lat="46.25349" lon="6.39892">
        <ele>908.54</ele>
        <time>2019-12-21T14:34:26Z</time>
      </trkpt>
      <trkpt lat="46.25352" lon="6.39862">
        <ele>907.99</ele>
        <time>2019-12-21T14:34:28Z</time>
      </trkpt>
      <trkpt lat="46.25349" lon="6.3983">
        <ele>907.81</ele>
        <time>2019-12-21T14:34:30Z</time>
      </trkpt>
      <trkpt lat="46.25343" lon="6.39796">
        <ele>906.08</ele>
        <time>2019-12-21T14:34:32Z</time>
      </trkpt>
      <trkpt lat="46.25336" lon="6.39764">
        <ele>904.7</ele>
        <time>2019-12-21T14:34:34Z</time>
      </trkpt>
      <trkpt lat="46.25326" lon="6.39732">
        <ele>903.16</ele>
        <time>2019-12-21T14:34:36Z</time>
      </trkpt>
      <trkpt lat="46.25314" lon="6.39703">
        <ele>902.51</ele>
        <time>2019-12-21T14:34:38Z</time>
      </trkpt>
      <trkpt lat="46.253" lon="6.39668">
        <ele>901.14</ele>
        <time>2019-12-21T14:34:40Z</time>
      </trkpt>
      <trkpt lat="46.25286" lon="6.39641">
        <ele>900.45</ele>
        <time>2019-12-21T14:34:42Z</time>
      </trkpt>
      <trkpt lat="46.25269" lon="6.39616">
        <ele>898.64</ele>
        <time>2019-12-21T14:34:44Z</time>
      </trkpt>
      <trkpt lat="46.25254" lon="6.39595">
        <ele>897.31</ele>
        <time>2019-12-21T14:34:46Z</time>
      </trkpt>
      <trkpt lat="46.25244" lon="6.39569">
        <ele>895.48</ele>
        <time>2019-12-21T14:34:48Z</time>
      </trkpt>
      <trkpt lat="46.25243" lon="6.39538">
        <ele>893.77</ele>
        <time>2019-12-21T14:34:50Z</time>
      </trkpt>
      <trkpt lat="46.25247" lon="6.39508">
        <ele>893</ele>
        <time>2019-12-21T14:34:52Z</time>
      </trkpt>
      <trkpt lat="46.25249" lon="6.39477">
        <ele>892.08</ele>
        <time>2019-12-21T14:34:54Z</time>
      </trkpt>
      <trkpt lat="46.25248" lon="6.39445">
        <ele>890.84</ele>
        <time>2019-12-21T14:34:56Z</time>
      </trkpt>
      <trkpt lat="46.25243" lon="6.39413">
        <ele>889.67</ele>
        <time>2019-12-21T14:34:58Z</time>
      </trkpt>
      <trkpt lat="46.25238" lon="6.39382">
        <ele>889.07</ele>
        <time>2019-12-21T14:35:00Z</time>
      </trkpt>
      <trkpt lat="46.25238" lon="6.3935">
        <ele>888.58</ele>
        <time>2019-12-21T14:35:02Z</time>
      </trkpt>
      <trkpt lat="46.25244" lon="6.39316">
        <ele>887.48</ele>
        <time>2019-12-21T14:35:04Z</time>
      </trkpt>
      <trkpt lat="46.25246" lon="6.39284">
        <ele>886.81</ele>
        <time>2019-12-21T14:35:06Z</time>
      </trkpt>
      <trkpt lat="46.25247" lon="6.3925">
        <ele>886.99</ele>
        <time>2019-12-21T14:35:08Z</time>
      </trkpt>
      <trkpt lat="46.25245" lon="6.39212">
        <ele>885.27</ele>
        <time>2019-12-21T14:35:10Z</time>
      </trkpt>
      <trkpt lat="46.2524" lon="6.3918">
        <ele>883.6</ele>
        <time>2019-12-21T14:35:12Z</time>
      </trkpt>
      <trkpt lat="46.25239" lon="6.39148">
        <ele>882.24</ele>
        <time>2019-12-21T14:35:14Z</time>
      </trkpt>
      <trkpt lat="46.25237" lon="6.39117">
        <ele>880.83</ele>
        <time>2019-12-21T14:35:16Z</time>
      </trkpt>
      <trkpt lat="46.25245" lon="6.39088">
        <ele>879.1</ele>
        <time>2019-12-21T14:35:18Z</time>
      </trkpt>
      <trkpt lat="46.25249" lon="6.39059">
        <ele>877.16</ele>
        <time>2019-12-21T14:35:20Z</time>
      </trkpt>
      <trkpt lat="46.25247" lon="6.3903">
        <ele>875.53</ele>
        <time>2019-12-21T14:35:22Z</time>
      </trkpt>
      <trkpt lat="46.25241" lon="6.39002">
        <ele>874.07</ele>
        <time>2019-12-21T14:35:24Z</time>
      </trkpt>
      <trkpt lat="46.25234" lon="6.38971">
        <ele>872.52</ele>
        <time>2019-12-21T14:35:26Z</time>
      </trkpt>
      <trkpt lat="46.25223" lon="6.38943">
        <ele>871.2</ele>
        <time>2019-12-21T14:35:28Z</time>
      </trkpt>
      <trkpt lat="46.2521" lon="6.38918">
        <ele>870.12</ele>
        <time>2019-12-21T14:35:30Z</time>
      </trkpt>
      <trkpt lat="46.252" lon="6.38888">
        <ele>868.93</ele>
        <time>2019-12-21T14:35:32Z</time>
      </trkpt>
      <trkpt lat="46.25189" lon="6.38858">
        <ele>867.69</ele>
        <time>2019-12-21T14:35:34Z</time>
      </trkpt>
      <trkpt lat="46.25176" lon="6.3883">
        <ele>866.45</ele>
        <time>2019-12-21T14:35:36Z</time>
      </trkpt>
      <trkpt lat="46.25161" lon="6.38804">
        <ele>865.34</ele>
        <time>2019-12-21T14:35:38Z</time>
      </trkpt>
      <trkpt lat="46.25145" lon="6.38776">
        <ele>864.07</ele>
        <time>2019-12-21T14:35:40Z</time>
      </trkpt>
      <trkpt lat="46.2513" lon="6.38749">
        <ele>862.64</ele>
        <time>2019-12-21T14:35:42Z</time>
      </trkpt>
      <trkpt lat="46.25115" lon="6.38721">
        <ele>861.52</ele>
        <time>2019-12-21T14:35:44Z</time>
      </trkpt>
      <trkpt lat="46.25099" lon="6.38693">
        <ele>860.37</ele>
        <time>2019-12-21T14:35:46Z</time>
      </trkpt>
      <trkpt lat="46.25085" lon="6.38665">
        <ele>859.09</ele>
        <time>2019-12-21T14:35:48Z</time>
      </trkpt>
      <trkpt lat="46.25073" lon="6.38633">
        <ele>857.64</ele>
        <time>2019-12-21T14:35:50Z</time>
      </trkpt>
      <trkpt lat="46.25061" lon="6.38601">
        <ele>856.09</ele>
        <time>2019-12-21T14:35:52Z</time>
      </trkpt>
      <trkpt lat="46.25049" lon="6.38568">
        <ele>854.63</ele>
        <time>2019-12-21T14:35:54Z</time>
      </trkpt>
      <trkpt lat="46.25038" lon="6.38538">
        <ele>853.4</ele>
        <time>2019-12-21T14:35:56Z</time>
      </trkpt>
      <trkpt lat="46.25027" lon="6.38513">
        <ele>852.2</ele>
        <time>2019-12-21T14:35:58Z</time>
      </trkpt>
      <trkpt lat="46.25012" lon="6.38495">
        <ele>851.16</ele>
        <time>2019-12-21T14:36:00Z</time>
      </trkpt>
      <trkpt lat="46.24994" lon="6.38483">
        <ele>850.01</ele>
        <time>2019-12-21T14:36:02Z</time>
      </trkpt>
      <trkpt lat="46.24977" lon="6.38474">
        <ele>849.12</ele>
        <time>2019-12-21T14:36:04Z</time>
      </trkpt>
      <trkpt lat="46.24959" lon="6.38453">
        <ele>847.35</ele>
        <time>2019-12-21T14:36:06Z</time>
      </trkpt>
      <trkpt lat="46.24951" lon="6.38429">
        <ele>845.99</ele>
        <time>2019-12-21T14:36:08Z</time>
      </trkpt>
      <trkpt lat="46.24946" lon="6.38402">
        <ele>844.8</ele>
        <time>2019-12-21T14:36:10Z</time>
      </trkpt>
      <trkpt lat="46.24938" lon="6.38374">
        <ele>843.36</ele>
        <time>2019-12-21T14:36:12Z</time>
      </trkpt>
      <trkpt lat="46.24928" lon="6.38347">
        <ele>842.02</ele>
        <time>2019-12-21T14:36:14Z</time>
      </trkpt>
      <trkpt lat="46.24918" lon="6.38319">
        <ele>840.96</ele>
        <time>2019-12-21T14:36:16Z</time>
      </trkpt>
      <trkpt lat="46.24909" lon="6.38293">
        <ele>840.5</ele>
        <time>2019-12-21T14:36:18Z</time>
      </trkpt>
      <trkpt lat="46.249" lon="6.38264">
        <ele>840.22</ele>
        <time>2019-12-21T14:36:20Z</time>
      </trkpt>
      <trkpt lat="46.24889" lon="6.38237">
        <ele>839.01</ele>
        <time>2019-12-21T14:36:22Z</time>
      </trkpt>
      <trkpt lat="46.24876" lon="6.38216">
        <ele>837.46</ele>
        <time>2019-12-21T14:36:24Z</time>
      </trkpt>
      <trkpt lat="46.24857" lon="6.38185">
        <ele>835.35</ele>
        <time>2019-12-21T14:36:28Z</time>
      </trkpt>
      <trkpt lat="46.24868" lon="6.38137">
        <ele>833.95</ele>
        <time>2019-12-21T14:36:32Z</time>
      </trkpt>
      <trkpt lat="46.24869" lon="6.3811">
        <ele>832.77</ele>
        <time>2019-12-21T14:36:34Z</time>
      </trkpt>
      <trkpt lat="46.24864" lon="6.38084">
        <ele>831.98</ele>
        <time>2019-12-21T14:36:36Z</time>
      </trkpt>
      <trkpt lat="46.24853" lon="6.3806">
        <ele>831.02</ele>
        <time>2019-12-21T14:36:38Z</time>
      </trkpt>
      <trkpt lat="46.24837" lon="6.38041">
        <ele>830.11</ele>
        <time>2019-12-21T14:36:40Z</time>
      </trkpt>
      <trkpt lat="46.24821" lon="6.38024">
        <ele>829.42</ele>
        <time>2019-12-21T14:36:42Z</time>
      </trkpt>
      <trkpt lat="46.24803" lon="6.38003">
        <ele>826.55</ele>
        <time>2019-12-21T14:36:44Z</time>
      </trkpt>
      <trkpt lat="46.24791" lon="6.37977">
        <ele>825.68</ele>
        <time>2019-12-21T14:36:46Z</time>
      </trkpt>
      <trkpt lat="46.24787" lon="6.37943">
        <ele>824.86</ele>
        <time>2019-12-21T14:36:48Z</time>
      </trkpt>
      <trkpt lat="46.24781" lon="6.37911">
        <ele>823.72</ele>
        <time>2019-12-21T14:36:50Z</time>
      </trkpt>
      <trkpt lat="46.24773" lon="6.37884">
        <ele>822.59</ele>
        <time>2019-12-21T14:36:52Z</time>
      </trkpt>
      <trkpt lat="46.24763" lon="6.37862">
        <ele>821.9</ele>
        <time>2019-12-21T14:36:54Z</time>
      </trkpt>
      <trkpt lat="46.24745" lon="6.3782">
        <ele>820.4</ele>
        <time>2019-12-21T14:36:58Z</time>
      </trkpt>
      <trkpt lat="46.24766" lon="6.37773">
        <ele>819.76</ele>
        <time>2019-12-21T14:37:02Z</time>
      </trkpt>
      <trkpt lat="46.24786" lon="6.37751">
        <ele>819.54</ele>
        <time>2019-12-21T14:37:04Z</time>
      </trkpt>
      <trkpt lat="46.24802" lon="6.37731">
        <ele>817.96</ele>
        <time>2019-12-21T14:37:06Z</time>
      </trkpt>
      <trkpt lat="46.24819" lon="6.37716">
        <ele>816.45</ele>
        <time>2019-12-21T14:37:08Z</time>
      </trkpt>
      <trkpt lat="46.24834" lon="6.37696">
        <ele>815.78</ele>
        <time>2019-12-21T14:37:10Z</time>
      </trkpt>
      <trkpt lat="46.24844" lon="6.3767">
        <ele>814.4</ele>
        <time>2019-12-21T14:37:12Z</time>
      </trkpt>
      <trkpt lat="46.24849" lon="6.37638">
        <ele>813.64</ele>
        <time>2019-12-21T14:37:14Z</time>
      </trkpt>
      <trkpt lat="46.24856" lon="6.37605">
        <ele>812.81</ele>
        <time>2019-12-21T14:37:16Z</time>
      </trkpt>
      <trkpt lat="46.24858" lon="6.37574">
        <ele>811.73</ele>
        <time>2019-12-21T14:37:18Z</time>
      </trkpt>
      <trkpt lat="46.24852" lon="6.37545">
        <ele>810.26</ele>
        <time>2019-12-21T14:37:20Z</time>
      </trkpt>
      <trkpt lat="46.24841" lon="6.37519">
        <ele>808.89</ele>
        <time>2019-12-21T14:37:22Z</time>
      </trkpt>
      <trkpt lat="46.24828" lon="6.37496">
        <ele>808.1</ele>
        <time>2019-12-21T14:37:24Z</time>
      </trkpt>
      <trkpt lat="46.24821" lon="6.3747">
        <ele>807.04</ele>
        <time>2019-12-21T14:37:26Z</time>
      </trkpt>
      <trkpt lat="46.2482" lon="6.37441">
        <ele>806.03</ele>
        <time>2019-12-21T14:37:28Z</time>
      </trkpt>
      <trkpt lat="46.24823" lon="6.37413">
        <ele>805.26</ele>
        <time>2019-12-21T14:37:30Z</time>
      </trkpt>
      <trkpt lat="46.24834" lon="6.37388">
        <ele>804.29</ele>
        <time>2019-12-21T14:37:32Z</time>
      </trkpt>
      <trkpt lat="46.24843" lon="6.37362">
        <ele>803.34</ele>
        <time>2019-12-21T14:37:34Z</time>
      </trkpt>
      <trkpt lat="46.24846" lon="6.37335">
        <ele>801.34</ele>
        <time>2019-12-21T14:37:36Z</time>
      </trkpt>
      <trkpt lat="46.24842" lon="6.37308">
        <ele>799.79</ele>
        <time>2019-12-21T14:37:38Z</time>
      </trkpt>
      <trkpt lat="46.24838" lon="6.37282">
        <ele>798.49</ele>
        <time>2019-12-21T14:37:40Z</time>
      </trkpt>
      <trkpt lat="46.24843" lon="6.37234">
        <ele>796.74</ele>
        <time>2019-12-21T14:37:44Z</time>
      </trkpt>
      <trkpt lat="46.24869" lon="6.37225">
        <ele>794.07</ele>
        <time>2019-12-21T14:37:48Z</time>
      </trkpt>
      <trkpt lat="46.24888" lon="6.37236">
        <ele>792.87</ele>
        <time>2019-12-21T14:37:50Z</time>
      </trkpt>
      <trkpt lat="46.24907" lon="6.37245">
        <ele>791.59</ele>
        <time>2019-12-21T14:37:52Z</time>
      </trkpt>
      <trkpt lat="46.24925" lon="6.37244">
        <ele>790.22</ele>
        <time>2019-12-21T14:37:54Z</time>
      </trkpt>
      <trkpt lat="46.24943" lon="6.37231">
        <ele>788.73</ele>
        <time>2019-12-21T14:37:56Z</time>
      </trkpt>
      <trkpt lat="46.24959" lon="6.37208">
        <ele>787.22</ele>
        <time>2019-12-21T14:37:58Z</time>
      </trkpt>
      <trkpt lat="46.24973" lon="6.37181">
        <ele>785.76</ele>
        <time>2019-12-21T14:38:00Z</time>
      </trkpt>
      <trkpt lat="46.24982" lon="6.3715">
        <ele>784.21</ele>
        <time>2019-12-21T14:38:02Z</time>
      </trkpt>
      <trkpt lat="46.24993" lon="6.37119">
        <ele>782.69</ele>
        <time>2019-12-21T14:38:04Z</time>
      </trkpt>
      <trkpt lat="46.25003" lon="6.37087">
        <ele>781.45</ele>
        <time>2019-12-21T14:38:06Z</time>
      </trkpt>
      <trkpt lat="46.25013" lon="6.37055">
        <ele>779.97</ele>
        <time>2019-12-21T14:38:08Z</time>
      </trkpt>
      <trkpt lat="46.25024" lon="6.37024">
        <ele>778.48</ele>
        <time>2019-12-21T14:38:10Z</time>
      </trkpt>
      <trkpt lat="46.2504" lon="6.36996">
        <ele>777.21</ele>
        <time>2019-12-21T14:38:12Z</time>
      </trkpt>
      <trkpt lat="46.25058" lon="6.36971">
        <ele>776.27</ele>
        <time>2019-12-21T14:38:14Z</time>
      </trkpt>
      <trkpt lat="46.25077" lon="6.36947">
        <ele>774.82</ele>
        <time>2019-12-21T14:38:16Z</time>
      </trkpt>
      <trkpt lat="46.25097" lon="6.36923">
        <ele>773.2</ele>
        <time>2019-12-21T14:38:18Z</time>
      </trkpt>
      <trkpt lat="46.25116" lon="6.369">
        <ele>771.84</ele>
        <time>2019-12-21T14:38:20Z</time>
      </trkpt>
      <trkpt lat="46.25134" lon="6.36878">
        <ele>770.56</ele>
        <time>2019-12-21T14:38:22Z</time>
      </trkpt>
      <trkpt lat="46.25148" lon="6.36852">
        <ele>769.19</ele>
        <time>2019-12-21T14:38:24Z</time>
      </trkpt>
      <trkpt lat="46.25157" lon="6.36823">
        <ele>768.23</ele>
        <time>2019-12-21T14:38:26Z</time>
      </trkpt>
      <trkpt lat="46.25159" lon="6.3679">
        <ele>766.87</ele>
        <time>2019-12-21T14:38:28Z</time>
      </trkpt>
      <trkpt lat="46.25159" lon="6.36759">
        <ele>765.52</ele>
        <time>2019-12-21T14:38:30Z</time>
      </trkpt>
      <trkpt lat="46.25159" lon="6.36733">
        <ele>764.21</ele>
        <time>2019-12-21T14:38:32Z</time>
      </trkpt>
      <trkpt lat="46.25179" lon="6.36697">
        <ele>762.04</ele>
        <time>2019-12-21T14:38:36Z</time>
      </trkpt>
      <trkpt lat="46.25211" lon="6.36707">
        <ele>759.6</ele>
        <time>2019-12-21T14:38:40Z</time>
      </trkpt>
      <trkpt lat="46.25219" lon="6.36732">
        <ele>758.39</ele>
        <time>2019-12-21T14:38:42Z</time>
      </trkpt>
      <trkpt lat="46.25221" lon="6.36761">
        <ele>757.19</ele>
        <time>2019-12-21T14:38:44Z</time>
      </trkpt>
      <trkpt lat="46.25223" lon="6.36791">
        <ele>755.83</ele>
        <time>2019-12-21T14:38:46Z</time>
      </trkpt>
      <trkpt lat="46.25223" lon="6.36822">
        <ele>754.39</ele>
        <time>2019-12-21T14:38:48Z</time>
      </trkpt>
      <trkpt lat="46.25225" lon="6.36855">
        <ele>752.9</ele>
        <time>2019-12-21T14:38:50Z</time>
      </trkpt>
      <trkpt lat="46.25226" lon="6.36889">
        <ele>751.45</ele>
        <time>2019-12-21T14:38:52Z</time>
      </trkpt>
      <trkpt lat="46.25228" lon="6.36923">
        <ele>749.91</ele>
        <time>2019-12-21T14:38:54Z</time>
      </trkpt>
      <trkpt lat="46.25229" lon="6.36959">
        <ele>748.34</ele>
        <time>2019-12-21T14:38:56Z</time>
      </trkpt>
      <trkpt lat="46.2523" lon="6.36996">
        <ele>746.68</ele>
        <time>2019-12-21T14:38:58Z</time>
      </trkpt>
      <trkpt lat="46.2523" lon="6.37033">
        <ele>745.01</ele>
        <time>2019-12-21T14:39:00Z</time>
      </trkpt>
      <trkpt lat="46.25227" lon="6.37071">
        <ele>743.49</ele>
        <time>2019-12-21T14:39:02Z</time>
      </trkpt>
      <trkpt lat="46.2522" lon="6.37108">
        <ele>742.03</ele>
        <time>2019-12-21T14:39:04Z</time>
      </trkpt>
      <trkpt lat="46.25212" lon="6.37145">
        <ele>740.56</ele>
        <time>2019-12-21T14:39:06Z</time>
      </trkpt>
      <trkpt lat="46.25203" lon="6.37182">
        <ele>739.01</ele>
        <time>2019-12-21T14:39:08Z</time>
      </trkpt>
      <trkpt lat="46.25194" lon="6.37219">
        <ele>737.33</ele>
        <time>2019-12-21T14:39:10Z</time>
      </trkpt>
      <trkpt lat="46.25185" lon="6.37257">
        <ele>735.55</ele>
        <time>2019-12-21T14:39:12Z</time>
      </trkpt>
      <trkpt lat="46.25176" lon="6.37295">
        <ele>733.87</ele>
        <time>2019-12-21T14:39:14Z</time>
      </trkpt>
      <trkpt lat="46.25167" lon="6.37333">
        <ele>732.35</ele>
        <time>2019-12-21T14:39:16Z</time>
      </trkpt>
      <trkpt lat="46.25158" lon="6.37371">
        <ele>730.82</ele>
        <time>2019-12-21T14:39:18Z</time>
      </trkpt>
      <trkpt lat="46.2515" lon="6.37408">
        <ele>729.34</ele>
        <time>2019-12-21T14:39:20Z</time>
      </trkpt>
      <trkpt lat="46.25141" lon="6.37442">
        <ele>728.2</ele>
        <time>2019-12-21T14:39:22Z</time>
      </trkpt>
      <trkpt lat="46.25134" lon="6.3747">
        <ele>727.01</ele>
        <time>2019-12-21T14:39:24Z</time>
      </trkpt>
      <trkpt lat="46.25124" lon="6.37511">
        <ele>725.28</ele>
        <time>2019-12-21T14:39:28Z</time>
      </trkpt>
      <trkpt lat="46.25129" lon="6.3756">
        <ele>723.86</ele>
        <time>2019-12-21T14:39:32Z</time>
      </trkpt>
      <trkpt lat="46.25131" lon="6.37587">
        <ele>723.13</ele>
        <time>2019-12-21T14:39:34Z</time>
      </trkpt>
      <trkpt lat="46.25133" lon="6.37615">
        <ele>722.19</ele>
        <time>2019-12-21T14:39:36Z</time>
      </trkpt>
      <trkpt lat="46.25135" lon="6.37643">
        <ele>721.14</ele>
        <time>2019-12-21T14:39:38Z</time>
      </trkpt>
      <trkpt lat="46.25138" lon="6.37673">
        <ele>719.96</ele>
        <time>2019-12-21T14:39:40Z</time>
      </trkpt>
      <trkpt lat="46.25141" lon="6.37704">
        <ele>718.64</ele>
        <time>2019-12-21T14:39:42Z</time>
      </trkpt>
      <trkpt lat="46.25143" lon="6.37736">
        <ele>717.32</ele>
        <time>2019-12-21T14:39:44Z</time>
      </trkpt>
      <trkpt lat="46.25148" lon="6.37769">
        <ele>716.08</ele>
        <time>2019-12-21T14:39:46Z</time>
      </trkpt>
      <trkpt lat="46.25157" lon="6.37802">
        <ele>715.09</ele>
        <time>2019-12-21T14:39:48Z</time>
      </trkpt>
      <trkpt lat="46.25167" lon="6.37834">
        <ele>713.66</ele>
        <time>2019-12-21T14:39:50Z</time>
      </trkpt>
      <trkpt lat="46.25177" lon="6.37866">
        <ele>712.06</ele>
        <time>2019-12-21T14:39:52Z</time>
      </trkpt>
      <trkpt lat="46.25188" lon="6.37898">
        <ele>710.35</ele>
        <time>2019-12-21T14:39:54Z</time>
      </trkpt>
      <trkpt lat="46.25199" lon="6.37931">
        <ele>708.72</ele>
        <time>2019-12-21T14:39:56Z</time>
      </trkpt>
      <trkpt lat="46.25211" lon="6.37964">
        <ele>707.5</ele>
        <time>2019-12-21T14:39:58Z</time>
      </trkpt>
      <trkpt lat="46.25221" lon="6.37996">
        <ele>706.1</ele>
        <time>2019-12-21T14:40:00Z</time>
      </trkpt>
      <trkpt lat="46.25232" lon="6.38029">
        <ele>704.59</ele>
        <time>2019-12-21T14:40:02Z</time>
      </trkpt>
      <trkpt lat="46.25238" lon="6.38062">
        <ele>703.22</ele>
        <time>2019-12-21T14:40:04Z</time>
      </trkpt>
      <trkpt lat="46.25239" lon="6.38095">
        <ele>702.87</ele>
        <time>2019-12-21T14:40:06Z</time>
      </trkpt>
      <trkpt lat="46.25238" lon="6.38125">
        <ele>701.64</ele>
        <time>2019-12-21T14:40:08Z</time>
      </trkpt>
      <trkpt lat="46.25243" lon="6.38153">
        <ele>700.63</ele>
        <time>2019-12-21T14:40:10Z</time>
      </trkpt>
      <trkpt lat="46.25256" lon="6.38177">
        <ele>698.64</ele>
        <time>2019-12-21T14:40:12Z</time>
      </trkpt>
      <trkpt lat="46.25272" lon="6.38197">
        <ele>697.04</ele>
        <time>2019-12-21T14:40:14Z</time>
      </trkpt>
      <trkpt lat="46.25291" lon="6.38212">
        <ele>695.46</ele>
        <time>2019-12-21T14:40:16Z</time>
      </trkpt>
      <trkpt lat="46.25311" lon="6.3823">
        <ele>694.01</ele>
        <time>2019-12-21T14:40:18Z</time>
      </trkpt>
      <trkpt lat="46.2533" lon="6.38251">
        <ele>693.21</ele>
        <time>2019-12-21T14:40:20Z</time>
      </trkpt>
      <trkpt lat="46.25344" lon="6.3828">
        <ele>692.43</ele>
        <time>2019-12-21T14:40:22Z</time>
      </trkpt>
      <trkpt lat="46.25354" lon="6.38313">
        <ele>692.04</ele>
        <time>2019-12-21T14:40:24Z</time>
      </trkpt>
      <trkpt lat="46.25365" lon="6.38347">
        <ele>691.12</ele>
        <time>2019-12-21T14:40:26Z</time>
      </trkpt>
      <trkpt lat="46.25379" lon="6.38377">
        <ele>689.96</ele>
        <time>2019-12-21T14:40:28Z</time>
      </trkpt>
      <trkpt lat="46.25394" lon="6.38405">
        <ele>688.83</ele>
        <time>2019-12-21T14:40:30Z</time>
      </trkpt>
      <trkpt lat="46.2541" lon="6.38432">
        <ele>687.92</ele>
        <time>2019-12-21T14:40:32Z</time>
      </trkpt>
      <trkpt lat="46.25425" lon="6.3846">
        <ele>687.01</ele>
        <time>2019-12-21T14:40:34Z</time>
      </trkpt>
      <trkpt lat="46.25438" lon="6.38487">
        <ele>687.43</ele>
        <time>2019-12-21T14:40:36Z</time>
      </trkpt>
      <trkpt lat="46.25451" lon="6.38516">
        <ele>686.89</ele>
        <time>2019-12-21T14:40:38Z</time>
      </trkpt>
      <trkpt lat="46.25464" lon="6.38541">
        <ele>685.93</ele>
        <time>2019-12-21T14:40:40Z</time>
      </trkpt>
      <trkpt lat="46.25473" lon="6.38568">
        <ele>684.05</ele>
        <time>2019-12-21T14:40:42Z</time>
      </trkpt>
      <trkpt lat="46.25483" lon="6.38594">
        <ele>683.12</ele>
        <time>2019-12-21T14:40:44Z</time>
      </trkpt>
      <trkpt lat="46.25507" lon="6.38623">
        <ele>681.92</ele>
        <time>2019-12-21T14:40:48Z</time>
      </trkpt>
      <trkpt lat="46.25537" lon="6.38618">
        <ele>679.88</ele>
        <time>2019-12-21T14:40:53Z</time>
      </trkpt>
      <trkpt lat="46.25546" lon="6.38569">
        <ele>676.79</ele>
        <time>2019-12-21T14:40:57Z</time>
      </trkpt>
      <trkpt lat="46.25542" lon="6.38539">
        <ele>674.53</ele>
        <time>2019-12-21T14:40:59Z</time>
      </trkpt>
      <trkpt lat="46.25536" lon="6.38509">
        <ele>671.98</ele>
        <time>2019-12-21T14:41:01Z</time>
      </trkpt>
      <trkpt lat="46.25533" lon="6.38479">
        <ele>669.79</ele>
        <time>2019-12-21T14:41:03Z</time>
      </trkpt>
      <trkpt lat="46.2553" lon="6.38447">
        <ele>668.01</ele>
        <time>2019-12-21T14:41:05Z</time>
      </trkpt>
      <trkpt lat="46.25528" lon="6.38416">
        <ele>666.66</ele>
        <time>2019-12-21T14:41:07Z</time>
      </trkpt>
      <trkpt lat="46.25525" lon="6.38383">
        <ele>665.81</ele>
        <time>2019-12-21T14:41:09Z</time>
      </trkpt>
      <trkpt lat="46.25522" lon="6.3835">
        <ele>664.88</ele>
        <time>2019-12-21T14:41:11Z</time>
      </trkpt>
      <trkpt lat="46.2552" lon="6.38316">
        <ele>663.82</ele>
        <time>2019-12-21T14:41:13Z</time>
      </trkpt>
      <trkpt lat="46.25519" lon="6.38281">
        <ele>662.51</ele>
        <time>2019-12-21T14:41:15Z</time>
      </trkpt>
      <trkpt lat="46.25517" lon="6.38246">
        <ele>661.13</ele>
        <time>2019-12-21T14:41:17Z</time>
      </trkpt>
      <trkpt lat="46.25515" lon="6.38211">
        <ele>660.57</ele>
        <time>2019-12-21T14:41:19Z</time>
      </trkpt>
      <trkpt lat="46.25512" lon="6.38175">
        <ele>660.76</ele>
        <time>2019-12-21T14:41:21Z</time>
      </trkpt>
      <trkpt lat="46.25518" lon="6.38138">
        <ele>659.91</ele>
        <time>2019-12-21T14:41:23Z</time>
      </trkpt>
      <trkpt lat="46.25528" lon="6.38104">
        <ele>658.97</ele>
        <time>2019-12-21T14:41:25Z</time>
      </trkpt>
      <trkpt lat="46.25544" lon="6.38076">
        <ele>657.33</ele>
        <time>2019-12-21T14:41:27Z</time>
      </trkpt>
      <trkpt lat="46.25561" lon="6.38044">
        <ele>655.38</ele>
        <time>2019-12-21T14:41:29Z</time>
      </trkpt>
      <trkpt lat="46.25577" lon="6.38012">
        <ele>653.23</ele>
        <time>2019-12-21T14:41:31Z</time>
      </trkpt>
      <trkpt lat="46.25593" lon="6.3798">
        <ele>651.18</ele>
        <time>2019-12-21T14:41:33Z</time>
      </trkpt>
      <trkpt lat="46.25609" lon="6.37947">
        <ele>649.1</ele>
        <time>2019-12-21T14:41:35Z</time>
      </trkpt>
      <trkpt lat="46.25626" lon="6.37914">
        <ele>647.08</ele>
        <time>2019-12-21T14:41:37Z</time>
      </trkpt>
      <trkpt lat="46.25642" lon="6.37881">
        <ele>645.28</ele>
        <time>2019-12-21T14:41:39Z</time>
      </trkpt>
      <trkpt lat="46.25658" lon="6.37847">
        <ele>643.72</ele>
        <time>2019-12-21T14:41:41Z</time>
      </trkpt>
      <trkpt lat="46.25675" lon="6.37814">
        <ele>641.91</ele>
        <time>2019-12-21T14:41:43Z</time>
      </trkpt>
      <trkpt lat="46.25692" lon="6.37781">
        <ele>640.21</ele>
        <time>2019-12-21T14:41:45Z</time>
      </trkpt>
      <trkpt lat="46.25708" lon="6.37748">
        <ele>638.67</ele>
        <time>2019-12-21T14:41:47Z</time>
      </trkpt>
      <trkpt lat="46.25724" lon="6.37715">
        <ele>637.15</ele>
        <time>2019-12-21T14:41:49Z</time>
      </trkpt>
      <trkpt lat="46.25741" lon="6.37682">
        <ele>635.76</ele>
        <time>2019-12-21T14:41:51Z</time>
      </trkpt>
      <trkpt lat="46.25756" lon="6.3765">
        <ele>634.46</ele>
        <time>2019-12-21T14:41:53Z</time>
      </trkpt>
      <trkpt lat="46.25772" lon="6.37619">
        <ele>633.11</ele>
        <time>2019-12-21T14:41:55Z</time>
      </trkpt>
      <trkpt lat="46.25787" lon="6.37588">
        <ele>632.09</ele>
        <time>2019-12-21T14:41:57Z</time>
      </trkpt>
      <trkpt lat="46.25803" lon="6.37557">
        <ele>630.78</ele>
        <time>2019-12-21T14:41:59Z</time>
      </trkpt>
      <trkpt lat="46.25818" lon="6.37528">
        <ele>629.41</ele>
        <time>2019-12-21T14:42:01Z</time>
      </trkpt>
      <trkpt lat="46.25831" lon="6.37503">
        <ele>628.27</ele>
        <time>2019-12-21T14:42:03Z</time>
      </trkpt>
      <trkpt lat="46.25848" lon="6.37482">
        <ele>627.12</ele>
        <time>2019-12-21T14:42:05Z</time>
      </trkpt>
      <trkpt lat="46.25869" lon="6.37468">
        <ele>625.86</ele>
        <time>2019-12-21T14:42:07Z</time>
      </trkpt>
      <trkpt lat="46.25892" lon="6.37466">
        <ele>624.86</ele>
        <time>2019-12-21T14:42:09Z</time>
      </trkpt>
      <trkpt lat="46.25915" lon="6.37468">
        <ele>623.58</ele>
        <time>2019-12-21T14:42:11Z</time>
      </trkpt>
      <trkpt lat="46.25938" lon="6.3747">
        <ele>622.32</ele>
        <time>2019-12-21T14:42:13Z</time>
      </trkpt>
      <trkpt lat="46.25962" lon="6.3747">
        <ele>621.21</ele>
        <time>2019-12-21T14:42:15Z</time>
      </trkpt>
      <trkpt lat="46.25985" lon="6.37462">
        <ele>620.15</ele>
        <time>2019-12-21T14:42:17Z</time>
      </trkpt>
      <trkpt lat="46.26007" lon="6.37449">
        <ele>619.03</ele>
        <time>2019-12-21T14:42:19Z</time>
      </trkpt>
      <trkpt lat="46.26029" lon="6.37436">
        <ele>617.93</ele>
        <time>2019-12-21T14:42:21Z</time>
      </trkpt>
      <trkpt lat="46.2605" lon="6.37422">
        <ele>616.84</ele>
        <time>2019-12-21T14:42:23Z</time>
      </trkpt>
      <trkpt lat="46.2607" lon="6.37408">
        <ele>615.85</ele>
        <time>2019-12-21T14:42:25Z</time>
      </trkpt>
      <trkpt lat="46.26087" lon="6.3739">
        <ele>614.72</ele>
        <time>2019-12-21T14:42:27Z</time>
      </trkpt>
      <trkpt lat="46.26102" lon="6.37366">
        <ele>613.39</ele>
        <time>2019-12-21T14:42:29Z</time>
      </trkpt>
      <trkpt lat="46.26115" lon="6.37341">
        <ele>612.24</ele>
        <time>2019-12-21T14:42:31Z</time>
      </trkpt>
      <trkpt lat="46.26124" lon="6.37315">
        <ele>611.11</ele>
        <time>2019-12-21T14:42:33Z</time>
      </trkpt>
      <trkpt lat="46.26127" lon="6.37283">
        <ele>609.96</ele>
        <time>2019-12-21T14:42:35Z</time>
      </trkpt>
      <trkpt lat="46.26125" lon="6.37251">
        <ele>608.59</ele>
        <time>2019-12-21T14:42:37Z</time>
      </trkpt>
      <trkpt lat="46.26123" lon="6.37219">
        <ele>607.25</ele>
        <time>2019-12-21T14:42:39Z</time>
      </trkpt>
      <trkpt lat="46.2612" lon="6.37185">
        <ele>605.89</ele>
        <time>2019-12-21T14:42:41Z</time>
      </trkpt>
      <trkpt lat="46.26117" lon="6.37151">
        <ele>604.58</ele>
        <time>2019-12-21T14:42:43Z</time>
      </trkpt>
      <trkpt lat="46.26114" lon="6.37117">
        <ele>603.57</ele>
        <time>2019-12-21T14:42:45Z</time>
      </trkpt>
      <trkpt lat="46.26112" lon="6.37088">
        <ele>602.37</ele>
        <time>2019-12-21T14:42:47Z</time>
      </trkpt>
      <trkpt lat="46.26117" lon="6.37039">
        <ele>600.12</ele>
        <time>2019-12-21T14:42:51Z</time>
      </trkpt>
      <trkpt lat="46.26147" lon="6.37015">
        <ele>597.89</ele>
        <time>2019-12-21T14:42:55Z</time>
      </trkpt>
      <trkpt lat="46.26165" lon="6.37021">
        <ele>596.94</ele>
        <time>2019-12-21T14:42:57Z</time>
      </trkpt>
      <trkpt lat="46.26179" lon="6.37042">
        <ele>595.62</ele>
        <time>2019-12-21T14:42:59Z</time>
      </trkpt>
      <trkpt lat="46.26191" lon="6.37067">
        <ele>594.27</ele>
        <time>2019-12-21T14:43:01Z</time>
      </trkpt>
      <trkpt lat="46.26202" lon="6.37089">
        <ele>592.78</ele>
        <time>2019-12-21T14:43:03Z</time>
      </trkpt>
      <trkpt lat="46.26217" lon="6.37106">
        <ele>591.13</ele>
        <time>2019-12-21T14:43:05Z</time>
      </trkpt>
      <trkpt lat="46.26234" lon="6.37116">
        <ele>589.65</ele>
        <time>2019-12-21T14:43:07Z</time>
      </trkpt>
      <trkpt lat="46.2627" lon="6.37115">
        <ele>587.37</ele>
        <time>2019-12-21T14:43:11Z</time>
      </trkpt>
      <trkpt lat="46.2629" lon="6.37113">
        <ele>586.68</ele>
        <time>2019-12-21T14:43:13Z</time>
      </trkpt>
      <trkpt lat="46.26309" lon="6.37112">
        <ele>586.06</ele>
        <time>2019-12-21T14:43:15Z</time>
      </trkpt>
      <trkpt lat="46.26329" lon="6.3711">
        <ele>585.48</ele>
        <time>2019-12-21T14:43:17Z</time>
      </trkpt>
      <trkpt lat="46.26349" lon="6.37108">
        <ele>584.88</ele>
        <time>2019-12-21T14:43:19Z</time>
      </trkpt>
      <trkpt lat="46.26368" lon="6.37106">
        <ele>584.25</ele>
        <time>2019-12-21T14:43:21Z</time>
      </trkpt>
      <trkpt lat="46.26387" lon="6.37104">
        <ele>584.24</ele>
        <time>2019-12-21T14:43:23Z</time>
      </trkpt>
      <trkpt lat="46.26419" lon="6.37102">
        <ele>584.34</ele>
        <time>2019-12-21T14:43:27Z</time>
      </trkpt>
      <trkpt lat="46.26439" lon="6.37097">
        <ele>583.5</ele>
        <time>2019-12-21T14:43:31Z</time>
      </trkpt>
      <trkpt lat="46.26457" lon="6.3708">
        <ele>584.26</ele>
        <time>2019-12-21T14:43:43Z</time>
      </trkpt>
      <trkpt lat="46.26479" lon="6.37069">
        <ele>583.55</ele>
        <time>2019-12-21T14:43:49Z</time>
      </trkpt>
      <trkpt lat="46.26503" lon="6.37059">
        <ele>581.6</ele>
        <time>2019-12-21T14:43:53Z</time>
      </trkpt>
      <trkpt lat="46.26529" lon="6.37042">
        <ele>579.59</ele>
        <time>2019-12-21T14:43:57Z</time>
      </trkpt>
      <trkpt lat="46.26555" lon="6.37012">
        <ele>577.39</ele>
        <time>2019-12-21T14:44:01Z</time>
      </trkpt>
      <trkpt lat="46.26558" lon="6.36962">
        <ele>575.49</ele>
        <time>2019-12-21T14:44:05Z</time>
      </trkpt>
      <trkpt lat="46.26555" lon="6.36935">
        <ele>574.64</ele>
        <time>2019-12-21T14:44:07Z</time>
      </trkpt>
      <trkpt lat="46.26554" lon="6.36906">
        <ele>573.42</ele>
        <time>2019-12-21T14:44:09Z</time>
      </trkpt>
      <trkpt lat="46.26559" lon="6.36876">
        <ele>571.81</ele>
        <time>2019-12-21T14:44:11Z</time>
      </trkpt>
      <trkpt lat="46.26569" lon="6.36853">
        <ele>570.6</ele>
        <time>2019-12-21T14:44:13Z</time>
      </trkpt>
      <trkpt lat="46.26585" lon="6.3684">
        <ele>569.88</ele>
        <time>2019-12-21T14:44:17Z</time>
      </trkpt>
      <trkpt lat="46.26603" lon="6.36829">
        <ele>569.58</ele>
        <time>2019-12-21T14:44:23Z</time>
      </trkpt>
      <trkpt lat="46.26621" lon="6.36811">
        <ele>568.99</ele>
        <time>2019-12-21T14:44:27Z</time>
      </trkpt>
      <trkpt lat="46.26647" lon="6.36793">
        <ele>568.09</ele>
        <time>2019-12-21T14:44:31Z</time>
      </trkpt>
      <trkpt lat="46.26679" lon="6.36789">
        <ele>567.21</ele>
        <time>2019-12-21T14:44:35Z</time>
      </trkpt>
      <trkpt lat="46.26711" lon="6.36798">
        <ele>566.66</ele>
        <time>2019-12-21T14:44:39Z</time>
      </trkpt>
      <trkpt lat="46.26744" lon="6.36799">
        <ele>565.98</ele>
        <time>2019-12-21T14:44:43Z</time>
      </trkpt>
      <trkpt lat="46.26777" lon="6.36792">
        <ele>565.38</ele>
        <time>2019-12-21T14:44:47Z</time>
      </trkpt>
      <trkpt lat="46.26807" lon="6.36775">
        <ele>564.88</ele>
        <time>2019-12-21T14:44:51Z</time>
      </trkpt>
      <trkpt lat="46.26834" lon="6.36749">
        <ele>564.71</ele>
        <time>2019-12-21T14:44:55Z</time>
      </trkpt>
      <trkpt lat="46.26861" lon="6.36722">
        <ele>564.93</ele>
        <time>2019-12-21T14:44:59Z</time>
      </trkpt>
      <trkpt lat="46.26888" lon="6.36693">
        <ele>565.02</ele>
        <time>2019-12-21T14:45:03Z</time>
      </trkpt>
      <trkpt lat="46.2691" lon="6.36655">
        <ele>564.71</ele>
        <time>2019-12-21T14:45:07Z</time>
      </trkpt>
      <trkpt lat="46.26929" lon="6.36616">
        <ele>564.84</ele>
        <time>2019-12-21T14:45:11Z</time>
      </trkpt>
      <trkpt lat="46.26948" lon="6.36576">
        <ele>564.63</ele>
        <time>2019-12-21T14:45:15Z</time>
      </trkpt>
      <trkpt lat="46.26966" lon="6.36536">
        <ele>564.1</ele>
        <time>2019-12-21T14:45:19Z</time>
      </trkpt>
      <trkpt lat="46.26982" lon="6.36495">
        <ele>563.97</ele>
        <time>2019-12-21T14:45:23Z</time>
      </trkpt>
      <trkpt lat="46.26999" lon="6.36454">
        <ele>563.44</ele>
        <time>2019-12-21T14:45:27Z</time>
      </trkpt>
      <trkpt lat="46.27016" lon="6.36413">
        <ele>563.2</ele>
        <time>2019-12-21T14:45:31Z</time>
      </trkpt>
      <trkpt lat="46.27033" lon="6.36373">
        <ele>562.95</ele>
        <time>2019-12-21T14:45:35Z</time>
      </trkpt>
      <trkpt lat="46.2705" lon="6.36333">
        <ele>562.18</ele>
        <time>2019-12-21T14:45:39Z</time>
      </trkpt>
      <trkpt lat="46.27066" lon="6.36293">
        <ele>562.26</ele>
        <time>2019-12-21T14:45:43Z</time>
      </trkpt>
      <trkpt lat="46.27083" lon="6.36255">
        <ele>562.53</ele>
        <time>2019-12-21T14:45:47Z</time>
      </trkpt>
      <trkpt lat="46.27104" lon="6.36225">
        <ele>562.1</ele>
        <time>2019-12-21T14:45:51Z</time>
      </trkpt>
      <trkpt lat="46.2713" lon="6.36203">
        <ele>561.65</ele>
        <time>2019-12-21T14:45:55Z</time>
      </trkpt>
      <trkpt lat="46.27154" lon="6.36182">
        <ele>561.76</ele>
        <time>2019-12-21T14:45:59Z</time>
      </trkpt>
      <trkpt lat="46.27178" lon="6.36159">
        <ele>561.58</ele>
        <time>2019-12-21T14:46:03Z</time>
      </trkpt>
      <trkpt lat="46.27206" lon="6.36139">
        <ele>561.39</ele>
        <time>2019-12-21T14:46:07Z</time>
      </trkpt>
      <trkpt lat="46.27234" lon="6.36119">
        <ele>561.21</ele>
        <time>2019-12-21T14:46:11Z</time>
      </trkpt>
      <trkpt lat="46.27264" lon="6.36111">
        <ele>560.87</ele>
        <time>2019-12-21T14:46:15Z</time>
      </trkpt>
      <trkpt lat="46.27297" lon="6.36116">
        <ele>560.62</ele>
        <time>2019-12-21T14:46:19Z</time>
      </trkpt>
      <trkpt lat="46.27329" lon="6.36123">
        <ele>560.61</ele>
        <time>2019-12-21T14:46:23Z</time>
      </trkpt>
      <trkpt lat="46.27363" lon="6.36129">
        <ele>560.22</ele>
        <time>2019-12-21T14:46:27Z</time>
      </trkpt>
      <trkpt lat="46.27395" lon="6.36139">
        <ele>560.61</ele>
        <time>2019-12-21T14:46:31Z</time>
      </trkpt>
      <trkpt lat="46.27428" lon="6.36148">
        <ele>560.93</ele>
        <time>2019-12-21T14:46:35Z</time>
      </trkpt>
      <trkpt lat="46.27461" lon="6.36157">
        <ele>560.84</ele>
        <time>2019-12-21T14:46:39Z</time>
      </trkpt>
      <trkpt lat="46.27496" lon="6.36163">
        <ele>560.73</ele>
        <time>2019-12-21T14:46:43Z</time>
      </trkpt>
      <trkpt lat="46.2753" lon="6.36162">
        <ele>560.31</ele>
        <time>2019-12-21T14:46:47Z</time>
      </trkpt>
      <trkpt lat="46.2756" lon="6.36142">
        <ele>560.2</ele>
        <time>2019-12-21T14:46:51Z</time>
      </trkpt>
      <trkpt lat="46.27585" lon="6.36122">
        <ele>559.79</ele>
        <time>2019-12-21T14:46:55Z</time>
      </trkpt>
      <trkpt lat="46.27611" lon="6.36101">
        <ele>559.75</ele>
        <time>2019-12-21T14:46:59Z</time>
      </trkpt>
      <trkpt lat="46.27636" lon="6.36077">
        <ele>559.84</ele>
        <time>2019-12-21T14:47:03Z</time>
      </trkpt>
      <trkpt lat="46.27663" lon="6.36055">
        <ele>559.75</ele>
        <time>2019-12-21T14:47:07Z</time>
      </trkpt>
      <trkpt lat="46.27691" lon="6.36036">
        <ele>559.54</ele>
        <time>2019-12-21T14:47:11Z</time>
      </trkpt>
      <trkpt lat="46.27717" lon="6.36014">
        <ele>559.35</ele>
        <time>2019-12-21T14:47:15Z</time>
      </trkpt>
      <trkpt lat="46.27742" lon="6.35987">
        <ele>559.32</ele>
        <time>2019-12-21T14:47:19Z</time>
      </trkpt>
      <trkpt lat="46.27762" lon="6.35954">
        <ele>559.49</ele>
        <time>2019-12-21T14:47:23Z</time>
      </trkpt>
      <trkpt lat="46.27778" lon="6.35917">
        <ele>559.56</ele>
        <time>2019-12-21T14:47:27Z</time>
      </trkpt>
      <trkpt lat="46.27795" lon="6.3588">
        <ele>559.77</ele>
        <time>2019-12-21T14:47:31Z</time>
      </trkpt>
      <trkpt lat="46.27813" lon="6.35841">
        <ele>559.38</ele>
        <time>2019-12-21T14:47:35Z</time>
      </trkpt>
      <trkpt lat="46.27828" lon="6.35806">
        <ele>558.78</ele>
        <time>2019-12-21T14:47:39Z</time>
      </trkpt>
      <trkpt lat="46.2784" lon="6.35777">
        <ele>558.44</ele>
        <time>2019-12-21T14:47:43Z</time>
      </trkpt>
      <trkpt lat="46.27856" lon="6.35741">
        <ele>558.3</ele>
        <time>2019-12-21T14:47:47Z</time>
      </trkpt>
      <trkpt lat="46.27873" lon="6.35701">
        <ele>557.72</ele>
        <time>2019-12-21T14:47:51Z</time>
      </trkpt>
      <trkpt lat="46.27892" lon="6.35658">
        <ele>557.09</ele>
        <time>2019-12-21T14:47:55Z</time>
      </trkpt>
      <trkpt lat="46.27903" lon="6.35635">
        <ele>556.64</ele>
        <time>2019-12-21T14:47:57Z</time>
      </trkpt>
      <trkpt lat="46.27913" lon="6.3561">
        <ele>556.05</ele>
        <time>2019-12-21T14:47:59Z</time>
      </trkpt>
      <trkpt lat="46.27924" lon="6.35586">
        <ele>555.67</ele>
        <time>2019-12-21T14:48:01Z</time>
      </trkpt>
      <trkpt lat="46.27935" lon="6.35562">
        <ele>555.19</ele>
        <time>2019-12-21T14:48:03Z</time>
      </trkpt>
      <trkpt lat="46.27946" lon="6.35538">
        <ele>554.75</ele>
        <time>2019-12-21T14:48:05Z</time>
      </trkpt>
      <trkpt lat="46.27957" lon="6.35515">
        <ele>554.5</ele>
        <time>2019-12-21T14:48:07Z</time>
      </trkpt>
      <trkpt lat="46.27969" lon="6.35492">
        <ele>553.87</ele>
        <time>2019-12-21T14:48:09Z</time>
      </trkpt>
      <trkpt lat="46.27983" lon="6.35471">
        <ele>553.25</ele>
        <time>2019-12-21T14:48:11Z</time>
      </trkpt>
      <trkpt lat="46.27998" lon="6.35449">
        <ele>552.62</ele>
        <time>2019-12-21T14:48:13Z</time>
      </trkpt>
      <trkpt lat="46.28012" lon="6.35427">
        <ele>552.01</ele>
        <time>2019-12-21T14:48:15Z</time>
      </trkpt>
      <trkpt lat="46.28025" lon="6.35402">
        <ele>551.2</ele>
        <time>2019-12-21T14:48:17Z</time>
      </trkpt>
      <trkpt lat="46.28035" lon="6.35375">
        <ele>550.28</ele>
        <time>2019-12-21T14:48:19Z</time>
      </trkpt>
      <trkpt lat="46.28045" lon="6.35347">
        <ele>549.43</ele>
        <time>2019-12-21T14:48:21Z</time>
      </trkpt>
      <trkpt lat="46.28054" lon="6.35319">
        <ele>548.56</ele>
        <time>2019-12-21T14:48:23Z</time>
      </trkpt>
      <trkpt lat="46.28062" lon="6.35291">
        <ele>547.84</ele>
        <time>2019-12-21T14:48:25Z</time>
      </trkpt>
      <trkpt lat="46.28071" lon="6.35263">
        <ele>547.11</ele>
        <time>2019-12-21T14:48:27Z</time>
      </trkpt>
      <trkpt lat="46.28079" lon="6.35237">
        <ele>546.66</ele>
        <time>2019-12-21T14:48:29Z</time>
      </trkpt>
      <trkpt lat="46.28093" lon="6.35196">
        <ele>545.92</ele>
        <time>2019-12-21T14:48:33Z</time>
      </trkpt>
      <trkpt lat="46.28107" lon="6.35156">
        <ele>545.71</ele>
        <time>2019-12-21T14:48:37Z</time>
      </trkpt>
      <trkpt lat="46.28124" lon="6.35118">
        <ele>545.92</ele>
        <time>2019-12-21T14:48:41Z</time>
      </trkpt>
      <trkpt lat="46.28147" lon="6.35088">
        <ele>546.34</ele>
        <time>2019-12-21T14:48:45Z</time>
      </trkpt>
      <trkpt lat="46.28171" lon="6.3506">
        <ele>546.85</ele>
        <time>2019-12-21T14:48:49Z</time>
      </trkpt>
      <trkpt lat="46.28194" lon="6.35033">
        <ele>547.43</ele>
        <time>2019-12-21T14:48:53Z</time>
      </trkpt>
      <trkpt lat="46.28215" lon="6.35006">
        <ele>548.35</ele>
        <time>2019-12-21T14:48:57Z</time>
      </trkpt>
      <trkpt lat="46.28232" lon="6.34978">
        <ele>549.49</ele>
        <time>2019-12-21T14:49:01Z</time>
      </trkpt>
      <trkpt lat="46.28244" lon="6.34949">
        <ele>551.01</ele>
        <time>2019-12-21T14:49:05Z</time>
      </trkpt>
      <trkpt lat="46.28252" lon="6.34916">
        <ele>552.87</ele>
        <time>2019-12-21T14:49:09Z</time>
      </trkpt>
      <trkpt lat="46.28257" lon="6.34881">
        <ele>554.46</ele>
        <time>2019-12-21T14:49:13Z</time>
      </trkpt>
      <trkpt lat="46.28262" lon="6.34849">
        <ele>555.33</ele>
        <time>2019-12-21T14:49:17Z</time>
      </trkpt>
      <trkpt lat="46.2827" lon="6.34815">
        <ele>556.43</ele>
        <time>2019-12-21T14:49:21Z</time>
      </trkpt>
      <trkpt lat="46.28282" lon="6.34786">
        <ele>557.46</ele>
        <time>2019-12-21T14:49:25Z</time>
      </trkpt>
      <trkpt lat="46.28295" lon="6.34757">
        <ele>558.45</ele>
        <time>2019-12-21T14:49:29Z</time>
      </trkpt>
      <trkpt lat="46.28308" lon="6.34726">
        <ele>558.18</ele>
        <time>2019-12-21T14:49:33Z</time>
      </trkpt>
      <trkpt lat="46.28324" lon="6.34697">
        <ele>558.41</ele>
        <time>2019-12-21T14:49:37Z</time>
      </trkpt>
      <trkpt lat="46.28348" lon="6.34688">
        <ele>557.98</ele>
        <time>2019-12-21T14:49:41Z</time>
      </trkpt>
      <trkpt lat="46.28371" lon="6.34692">
        <ele>557.83</ele>
        <time>2019-12-21T14:49:45Z</time>
      </trkpt>
      <trkpt lat="46.28393" lon="6.34696">
        <ele>558.32</ele>
        <time>2019-12-21T14:49:49Z</time>
      </trkpt>
      <trkpt lat="46.28417" lon="6.347">
        <ele>558.09</ele>
        <time>2019-12-21T14:49:53Z</time>
      </trkpt>
      <trkpt lat="46.28438" lon="6.347">
        <ele>559.49</ele>
        <time>2019-12-21T14:49:57Z</time>
      </trkpt>
      <trkpt lat="46.28456" lon="6.34707">
        <ele>562.09</ele>
        <time>2019-12-21T14:50:01Z</time>
      </trkpt>
      <trkpt lat="46.28477" lon="6.34707">
        <ele>563.5</ele>
        <time>2019-12-21T14:50:05Z</time>
      </trkpt>
      <trkpt lat="46.28502" lon="6.34713">
        <ele>562.74</ele>
        <time>2019-12-21T14:50:09Z</time>
      </trkpt>
      <trkpt lat="46.28524" lon="6.3472">
        <ele>562.73</ele>
        <time>2019-12-21T14:50:13Z</time>
      </trkpt>
      <trkpt lat="46.28544" lon="6.34724">
        <ele>563.23</ele>
        <time>2019-12-21T14:50:17Z</time>
      </trkpt>
      <trkpt lat="46.28562" lon="6.34729">
        <ele>564.4</ele>
        <time>2019-12-21T14:50:21Z</time>
      </trkpt>
      <trkpt lat="46.28582" lon="6.34734">
        <ele>565.67</ele>
        <time>2019-12-21T14:50:25Z</time>
      </trkpt>
      <trkpt lat="46.28606" lon="6.34739">
        <ele>568.43</ele>
        <time>2019-12-21T14:50:31Z</time>
      </trkpt>
      <trkpt lat="46.28624" lon="6.34744">
        <ele>568.53</ele>
        <time>2019-12-21T14:50:35Z</time>
      </trkpt>
      <trkpt lat="46.28645" lon="6.34743">
        <ele>569.41</ele>
        <time>2019-12-21T14:50:39Z</time>
      </trkpt>
      <trkpt lat="46.28668" lon="6.34746">
        <ele>570.5</ele>
        <time>2019-12-21T14:50:43Z</time>
      </trkpt>
      <trkpt lat="46.28689" lon="6.3475">
        <ele>570.68</ele>
        <time>2019-12-21T14:50:47Z</time>
      </trkpt>
      <trkpt lat="46.28707" lon="6.34753">
        <ele>570.75</ele>
        <time>2019-12-21T14:50:51Z</time>
      </trkpt>
      <trkpt lat="46.28733" lon="6.34757">
        <ele>571.38</ele>
        <time>2019-12-21T14:50:57Z</time>
      </trkpt>
      <trkpt lat="46.28757" lon="6.34762">
        <ele>572.47</ele>
        <time>2019-12-21T14:51:03Z</time>
      </trkpt>
      <trkpt lat="46.2878" lon="6.34766">
        <ele>572.88</ele>
        <time>2019-12-21T14:51:09Z</time>
      </trkpt>
      <trkpt lat="46.28803" lon="6.34769">
        <ele>574.25</ele>
        <time>2019-12-21T14:51:15Z</time>
      </trkpt>
      <trkpt lat="46.28821" lon="6.34775">
        <ele>574.37</ele>
        <time>2019-12-21T14:51:19Z</time>
      </trkpt>
      <trkpt lat="46.28847" lon="6.34782">
        <ele>574.19</ele>
        <time>2019-12-21T14:51:25Z</time>
      </trkpt>
      <trkpt lat="46.28871" lon="6.34787">
        <ele>575.37</ele>
        <time>2019-12-21T14:51:31Z</time>
      </trkpt>
      <trkpt lat="46.28896" lon="6.34792">
        <ele>576.15</ele>
        <time>2019-12-21T14:51:37Z</time>
      </trkpt>
      <trkpt lat="46.28923" lon="6.34796">
        <ele>577.12</ele>
        <time>2019-12-21T14:51:43Z</time>
      </trkpt>
      <trkpt lat="46.28947" lon="6.34798">
        <ele>576.1</ele>
        <time>2019-12-21T14:51:49Z</time>
      </trkpt>
      <trkpt lat="46.28969" lon="6.34802">
        <ele>576.45</ele>
        <time>2019-12-21T14:51:55Z</time>
      </trkpt>
      <trkpt lat="46.28991" lon="6.34808">
        <ele>577.58</ele>
        <time>2019-12-21T14:52:01Z</time>
      </trkpt>
      <trkpt lat="46.29012" lon="6.34816">
        <ele>578.82</ele>
        <time>2019-12-21T14:52:07Z</time>
      </trkpt>
      <trkpt lat="46.29032" lon="6.34827">
        <ele>579.91</ele>
        <time>2019-12-21T14:52:13Z</time>
      </trkpt>
      <trkpt lat="46.29051" lon="6.34842">
        <ele>580.89</ele>
        <time>2019-12-21T14:52:19Z</time>
      </trkpt>
      <trkpt lat="46.2907" lon="6.34858">
        <ele>581.7</ele>
        <time>2019-12-21T14:52:25Z</time>
      </trkpt>
      <trkpt lat="46.29089" lon="6.34875">
        <ele>582.73</ele>
        <time>2019-12-21T14:52:31Z</time>
      </trkpt>
      <trkpt lat="46.29107" lon="6.34892">
        <ele>584.02</ele>
        <time>2019-12-21T14:52:37Z</time>
      </trkpt>
      <trkpt lat="46.29125" lon="6.34909">
        <ele>585.08</ele>
        <time>2019-12-21T14:52:43Z</time>
      </trkpt>
      <trkpt lat="46.29144" lon="6.34926">
        <ele>586.28</ele>
        <time>2019-12-21T14:52:49Z</time>
      </trkpt>
      <trkpt lat="46.29162" lon="6.34943">
        <ele>587.52</ele>
        <time>2019-12-21T14:52:55Z</time>
      </trkpt>
      <trkpt lat="46.29181" lon="6.34961">
        <ele>588.83</ele>
        <time>2019-12-21T14:53:01Z</time>
      </trkpt>
      <trkpt lat="46.292" lon="6.34977">
        <ele>590.03</ele>
        <time>2019-12-21T14:53:07Z</time>
      </trkpt>
      <trkpt lat="46.29219" lon="6.34993">
        <ele>591.53</ele>
        <time>2019-12-21T14:53:13Z</time>
      </trkpt>
      <trkpt lat="46.29239" lon="6.35008">
        <ele>592.97</ele>
        <time>2019-12-21T14:53:19Z</time>
      </trkpt>
      <trkpt lat="46.2926" lon="6.35021">
        <ele>594.16</ele>
        <time>2019-12-21T14:53:25Z</time>
      </trkpt>
      <trkpt lat="46.2928" lon="6.35035">
        <ele>595.14</ele>
        <time>2019-12-21T14:53:31Z</time>
      </trkpt>
      <trkpt lat="46.29301" lon="6.35049">
        <ele>595.99</ele>
        <time>2019-12-21T14:53:37Z</time>
      </trkpt>
      <trkpt lat="46.29322" lon="6.35063">
        <ele>596.77</ele>
        <time>2019-12-21T14:53:43Z</time>
      </trkpt>
      <trkpt lat="46.29343" lon="6.35077">
        <ele>597.78</ele>
        <time>2019-12-21T14:53:49Z</time>
      </trkpt>
      <trkpt lat="46.29363" lon="6.3509">
        <ele>599.19</ele>
        <time>2019-12-21T14:53:55Z</time>
      </trkpt>
      <trkpt lat="46.29384" lon="6.35103">
        <ele>600.83</ele>
        <time>2019-12-21T14:54:01Z</time>
      </trkpt>
      <trkpt lat="46.29405" lon="6.35117">
        <ele>602.42</ele>
        <time>2019-12-21T14:54:07Z</time>
      </trkpt>
      <trkpt lat="46.29425" lon="6.3513">
        <ele>603.91</ele>
        <time>2019-12-21T14:54:13Z</time>
      </trkpt>
      <trkpt lat="46.29443" lon="6.35146">
        <ele>605.23</ele>
        <time>2019-12-21T14:54:19Z</time>
      </trkpt>
      <trkpt lat="46.2946" lon="6.35166">
        <ele>606.01</ele>
        <time>2019-12-21T14:54:25Z</time>
      </trkpt>
      <trkpt lat="46.29477" lon="6.35188">
        <ele>606.57</ele>
        <time>2019-12-21T14:54:31Z</time>
      </trkpt>
      <trkpt lat="46.29493" lon="6.35211">
        <ele>607.48</ele>
        <time>2019-12-21T14:54:37Z</time>
      </trkpt>
      <trkpt lat="46.29509" lon="6.35233">
        <ele>608.69</ele>
        <time>2019-12-21T14:54:43Z</time>
      </trkpt>
      <trkpt lat="46.29526" lon="6.35252">
        <ele>610.09</ele>
        <time>2019-12-21T14:54:49Z</time>
      </trkpt>
      <trkpt lat="46.29543" lon="6.35269">
        <ele>611.35</ele>
        <time>2019-12-21T14:54:55Z</time>
      </trkpt>
      <trkpt lat="46.2956" lon="6.35284">
        <ele>612.45</ele>
        <time>2019-12-21T14:55:01Z</time>
      </trkpt>
      <trkpt lat="46.29576" lon="6.35298">
        <ele>614.54</ele>
        <time>2019-12-21T14:55:07Z</time>
      </trkpt>
      <trkpt lat="46.29578" lon="6.35267">
        <ele>616.91</ele>
        <time>2019-12-21T14:55:15Z</time>
      </trkpt>
      <trkpt lat="46.29574" lon="6.35236">
        <ele>617.98</ele>
        <time>2019-12-21T14:55:21Z</time>
      </trkpt>
      <trkpt lat="46.29571" lon="6.35206">
        <ele>618.89</ele>
        <time>2019-12-21T14:55:27Z</time>
      </trkpt>
      <trkpt lat="46.29568" lon="6.35175">
        <ele>619.95</ele>
        <time>2019-12-21T14:55:33Z</time>
      </trkpt>
      <trkpt lat="46.29565" lon="6.35145">
        <ele>620.85</ele>
        <time>2019-12-21T14:55:39Z</time>
      </trkpt>
      <trkpt lat="46.29564" lon="6.35117">
        <ele>621.98</ele>
        <time>2019-12-21T14:55:45Z</time>
      </trkpt>
      <trkpt lat="46.29566" lon="6.35088">
        <ele>623.03</ele>
        <time>2019-12-21T14:55:51Z</time>
      </trkpt>
      <trkpt lat="46.29569" lon="6.35059">
        <ele>624.24</ele>
        <time>2019-12-21T14:55:57Z</time>
      </trkpt>
      <trkpt lat="46.29571" lon="6.35028">
        <ele>625.3</ele>
        <time>2019-12-21T14:56:03Z</time>
      </trkpt>
      <trkpt lat="46.29576" lon="6.34998">
        <ele>626.43</ele>
        <time>2019-12-21T14:56:09Z</time>
      </trkpt>
      <trkpt lat="46.2958" lon="6.34967">
        <ele>627.55</ele>
        <time>2019-12-21T14:56:15Z</time>
      </trkpt>
      <trkpt lat="46.29582" lon="6.34934">
        <ele>628.3</ele>
        <time>2019-12-21T14:56:21Z</time>
      </trkpt>
      <trkpt lat="46.29579" lon="6.34902">
        <ele>629.39</ele>
        <time>2019-12-21T14:56:27Z</time>
      </trkpt>
      <trkpt lat="46.2957" lon="6.3487">
        <ele>630.24</ele>
        <time>2019-12-21T14:56:33Z</time>
      </trkpt>
      <trkpt lat="46.2956" lon="6.34832">
        <ele>630.33</ele>
        <time>2019-12-21T14:56:39Z</time>
      </trkpt>
      <trkpt lat="46.29554" lon="6.34805">
        <ele>630.84</ele>
        <time>2019-12-21T14:56:43Z</time>
      </trkpt>
      <trkpt lat="46.29547" lon="6.34776">
        <ele>631.62</ele>
        <time>2019-12-21T14:56:47Z</time>
      </trkpt>
      <trkpt lat="46.29542" lon="6.34747">
        <ele>631.55</ele>
        <time>2019-12-21T14:56:51Z</time>
      </trkpt>
      <trkpt lat="46.29537" lon="6.34717">
        <ele>631.56</ele>
        <time>2019-12-21T14:56:55Z</time>
      </trkpt>
      <trkpt lat="46.29532" lon="6.34687">
        <ele>631.56</ele>
        <time>2019-12-21T14:56:59Z</time>
      </trkpt>
      <trkpt lat="46.29528" lon="6.34656">
        <ele>631.58</ele>
        <time>2019-12-21T14:57:03Z</time>
      </trkpt>
      <trkpt lat="46.29522" lon="6.34624">
        <ele>631.67</ele>
        <time>2019-12-21T14:57:07Z</time>
      </trkpt>
      <trkpt lat="46.29516" lon="6.34591">
        <ele>631.58</ele>
        <time>2019-12-21T14:57:11Z</time>
      </trkpt>
      <trkpt lat="46.29508" lon="6.34558">
        <ele>631.01</ele>
        <time>2019-12-21T14:57:15Z</time>
      </trkpt>
      <trkpt lat="46.295" lon="6.34524">
        <ele>630.5</ele>
        <time>2019-12-21T14:57:19Z</time>
      </trkpt>
      <trkpt lat="46.29492" lon="6.34488">
        <ele>630.16</ele>
        <time>2019-12-21T14:57:23Z</time>
      </trkpt>
      <trkpt lat="46.29487" lon="6.34454">
        <ele>630.44</ele>
        <time>2019-12-21T14:57:27Z</time>
      </trkpt>
      <trkpt lat="46.29485" lon="6.34423">
        <ele>631.1</ele>
        <time>2019-12-21T14:57:31Z</time>
      </trkpt>
      <trkpt lat="46.29483" lon="6.34396">
        <ele>631.81</ele>
        <time>2019-12-21T14:57:35Z</time>
      </trkpt>
      <trkpt lat="46.2948" lon="6.34358">
        <ele>633.02</ele>
        <time>2019-12-21T14:57:41Z</time>
      </trkpt>
      <trkpt lat="46.29476" lon="6.3432">
        <ele>634.49</ele>
        <time>2019-12-21T14:57:47Z</time>
      </trkpt>
      <trkpt lat="46.29471" lon="6.34282">
        <ele>635.73</ele>
        <time>2019-12-21T14:57:53Z</time>
      </trkpt>
      <trkpt lat="46.29466" lon="6.34257">
        <ele>636.29</ele>
        <time>2019-12-21T14:57:57Z</time>
      </trkpt>
      <trkpt lat="46.29461" lon="6.34231">
        <ele>636.6</ele>
        <time>2019-12-21T14:58:01Z</time>
      </trkpt>
      <trkpt lat="46.29455" lon="6.34205">
        <ele>636.8</ele>
        <time>2019-12-21T14:58:05Z</time>
      </trkpt>
      <trkpt lat="46.29446" lon="6.34181">
        <ele>637.1</ele>
        <time>2019-12-21T14:58:09Z</time>
      </trkpt>
      <trkpt lat="46.29438" lon="6.34158">
        <ele>637.49</ele>
        <time>2019-12-21T14:58:13Z</time>
      </trkpt>
      <trkpt lat="46.2943" lon="6.34134">
        <ele>637.98</ele>
        <time>2019-12-21T14:58:17Z</time>
      </trkpt>
      <trkpt lat="46.29424" lon="6.3411">
        <ele>638.67</ele>
        <time>2019-12-21T14:58:21Z</time>
      </trkpt>
      <trkpt lat="46.29418" lon="6.34083">
        <ele>638.61</ele>
        <time>2019-12-21T14:58:25Z</time>
      </trkpt>
      <trkpt lat="46.29413" lon="6.34055">
        <ele>638.66</ele>
        <time>2019-12-21T14:58:29Z</time>
      </trkpt>
      <trkpt lat="46.29407" lon="6.34026">
        <ele>638.45</ele>
        <time>2019-12-21T14:58:33Z</time>
      </trkpt>
      <trkpt lat="46.294" lon="6.33994">
        <ele>637.96</ele>
        <time>2019-12-21T14:58:37Z</time>
      </trkpt>
      <trkpt lat="46.29393" lon="6.33959">
        <ele>637.46</ele>
        <time>2019-12-21T14:58:41Z</time>
      </trkpt>
      <trkpt lat="46.29386" lon="6.33921">
        <ele>636.8</ele>
        <time>2019-12-21T14:58:45Z</time>
      </trkpt>
      <trkpt lat="46.29379" lon="6.33881">
        <ele>636.1</ele>
        <time>2019-12-21T14:58:49Z</time>
      </trkpt>
      <trkpt lat="46.29372" lon="6.33839">
        <ele>635.5</ele>
        <time>2019-12-21T14:58:53Z</time>
      </trkpt>
      <trkpt lat="46.29369" lon="6.33794">
        <ele>634.75</ele>
        <time>2019-12-21T14:58:57Z</time>
      </trkpt>
      <trkpt lat="46.29367" lon="6.33749">
        <ele>633.98</ele>
        <time>2019-12-21T14:59:01Z</time>
      </trkpt>
      <trkpt lat="46.29364" lon="6.33702">
        <ele>632.84</ele>
        <time>2019-12-21T14:59:05Z</time>
      </trkpt>
      <trkpt lat="46.29362" lon="6.33655">
        <ele>631.75</ele>
        <time>2019-12-21T14:59:09Z</time>
      </trkpt>
      <trkpt lat="46.29367" lon="6.33607">
        <ele>630.91</ele>
        <time>2019-12-21T14:59:13Z</time>
      </trkpt>
      <trkpt lat="46.29379" lon="6.33561">
        <ele>630.16</ele>
        <time>2019-12-21T14:59:17Z</time>
      </trkpt>
      <trkpt lat="46.29393" lon="6.33515">
        <ele>629.34</ele>
        <time>2019-12-21T14:59:21Z</time>
      </trkpt>
      <trkpt lat="46.29406" lon="6.33467">
        <ele>628.01</ele>
        <time>2019-12-21T14:59:25Z</time>
      </trkpt>
      <trkpt lat="46.29412" lon="6.33442">
        <ele>626.99</ele>
        <time>2019-12-21T14:59:27Z</time>
      </trkpt>
      <trkpt lat="46.29418" lon="6.33415">
        <ele>625.87</ele>
        <time>2019-12-21T14:59:29Z</time>
      </trkpt>
      <trkpt lat="46.29424" lon="6.33386">
        <ele>624.69</ele>
        <time>2019-12-21T14:59:31Z</time>
      </trkpt>
      <trkpt lat="46.29431" lon="6.33357">
        <ele>623.53</ele>
        <time>2019-12-21T14:59:33Z</time>
      </trkpt>
      <trkpt lat="46.29437" lon="6.33328">
        <ele>622.38</ele>
        <time>2019-12-21T14:59:35Z</time>
      </trkpt>
      <trkpt lat="46.29444" lon="6.33298">
        <ele>621.2</ele>
        <time>2019-12-21T14:59:37Z</time>
      </trkpt>
      <trkpt lat="46.2945" lon="6.33271">
        <ele>620.25</ele>
        <time>2019-12-21T14:59:39Z</time>
      </trkpt>
      <trkpt lat="46.29459" lon="6.33233">
        <ele>618.85</ele>
        <time>2019-12-21T14:59:43Z</time>
      </trkpt>
      <trkpt lat="46.2947" lon="6.33208">
        <ele>617.95</ele>
        <time>2019-12-21T14:59:47Z</time>
      </trkpt>
      <trkpt lat="46.29487" lon="6.33178">
        <ele>617.25</ele>
        <time>2019-12-21T14:59:51Z</time>
      </trkpt>
      <trkpt lat="46.29507" lon="6.33145">
        <ele>616.12</ele>
        <time>2019-12-21T14:59:55Z</time>
      </trkpt>
      <trkpt lat="46.29532" lon="6.33114">
        <ele>614.86</ele>
        <time>2019-12-21T14:59:59Z</time>
      </trkpt>
      <trkpt lat="46.29563" lon="6.33091">
        <ele>613.3</ele>
        <time>2019-12-21T15:00:03Z</time>
      </trkpt>
      <trkpt lat="46.29579" lon="6.3308">
        <ele>612.63</ele>
        <time>2019-12-21T15:00:05Z</time>
      </trkpt>
      <trkpt lat="46.29596" lon="6.33067">
        <ele>611.9</ele>
        <time>2019-12-21T15:00:07Z</time>
      </trkpt>
      <trkpt lat="46.29612" lon="6.33055">
        <ele>611.29</ele>
        <time>2019-12-21T15:00:09Z</time>
      </trkpt>
      <trkpt lat="46.2963" lon="6.33042">
        <ele>610.71</ele>
        <time>2019-12-21T15:00:11Z</time>
      </trkpt>
      <trkpt lat="46.29647" lon="6.33029">
        <ele>610.14</ele>
        <time>2019-12-21T15:00:13Z</time>
      </trkpt>
      <trkpt lat="46.29665" lon="6.33016">
        <ele>609.58</ele>
        <time>2019-12-21T15:00:15Z</time>
      </trkpt>
      <trkpt lat="46.29683" lon="6.33003">
        <ele>609.09</ele>
        <time>2019-12-21T15:00:17Z</time>
      </trkpt>
      <trkpt lat="46.297" lon="6.3299">
        <ele>608.91</ele>
        <time>2019-12-21T15:00:19Z</time>
      </trkpt>
      <trkpt lat="46.29718" lon="6.32978">
        <ele>608.42</ele>
        <time>2019-12-21T15:00:21Z</time>
      </trkpt>
      <trkpt lat="46.29735" lon="6.32965">
        <ele>607.97</ele>
        <time>2019-12-21T15:00:23Z</time>
      </trkpt>
      <trkpt lat="46.29754" lon="6.32952">
        <ele>607.57</ele>
        <time>2019-12-21T15:00:25Z</time>
      </trkpt>
      <trkpt lat="46.29772" lon="6.32939">
        <ele>607.4</ele>
        <time>2019-12-21T15:00:27Z</time>
      </trkpt>
      <trkpt lat="46.29789" lon="6.32926">
        <ele>607.21</ele>
        <time>2019-12-21T15:00:29Z</time>
      </trkpt>
      <trkpt lat="46.29806" lon="6.32913">
        <ele>606.88</ele>
        <time>2019-12-21T15:00:31Z</time>
      </trkpt>
      <trkpt lat="46.29836" lon="6.32892">
        <ele>606.82</ele>
        <time>2019-12-21T15:00:35Z</time>
      </trkpt>
      <trkpt lat="46.29859" lon="6.32867">
        <ele>606.49</ele>
        <time>2019-12-21T15:00:39Z</time>
      </trkpt>
      <trkpt lat="46.29872" lon="6.32842">
        <ele>606.06</ele>
        <time>2019-12-21T15:00:43Z</time>
      </trkpt>
      <trkpt lat="46.29872" lon="6.32808">
        <ele>604.88</ele>
        <time>2019-12-21T15:00:47Z</time>
      </trkpt>
      <trkpt lat="46.29873" lon="6.32767">
        <ele>603.22</ele>
        <time>2019-12-21T15:00:51Z</time>
      </trkpt>
      <trkpt lat="46.29881" lon="6.32723">
        <ele>601.91</ele>
        <time>2019-12-21T15:00:55Z</time>
      </trkpt>
      <trkpt lat="46.299" lon="6.32689">
        <ele>600.95</ele>
        <time>2019-12-21T15:00:59Z</time>
      </trkpt>
      <trkpt lat="46.29927" lon="6.32664">
        <ele>598.48</ele>
        <time>2019-12-21T15:01:03Z</time>
      </trkpt>
      <trkpt lat="46.29957" lon="6.32654">
        <ele>598.18</ele>
        <time>2019-12-21T15:01:07Z</time>
      </trkpt>
      <trkpt lat="46.29975" lon="6.3265">
        <ele>597.25</ele>
        <time>2019-12-21T15:01:09Z</time>
      </trkpt>
      <trkpt lat="46.29994" lon="6.32644">
        <ele>596.2</ele>
        <time>2019-12-21T15:01:11Z</time>
      </trkpt>
      <trkpt lat="46.30014" lon="6.32638">
        <ele>595.4</ele>
        <time>2019-12-21T15:01:13Z</time>
      </trkpt>
      <trkpt lat="46.30034" lon="6.32629">
        <ele>594.24</ele>
        <time>2019-12-21T15:01:15Z</time>
      </trkpt>
      <trkpt lat="46.30053" lon="6.32613">
        <ele>593.01</ele>
        <time>2019-12-21T15:01:17Z</time>
      </trkpt>
      <trkpt lat="46.30071" lon="6.32593">
        <ele>591.91</ele>
        <time>2019-12-21T15:01:19Z</time>
      </trkpt>
      <trkpt lat="46.30087" lon="6.3257">
        <ele>590.79</ele>
        <time>2019-12-21T15:01:21Z</time>
      </trkpt>
      <trkpt lat="46.30101" lon="6.32547">
        <ele>589.83</ele>
        <time>2019-12-21T15:01:23Z</time>
      </trkpt>
      <trkpt lat="46.30111" lon="6.32522">
        <ele>589.02</ele>
        <time>2019-12-21T15:01:25Z</time>
      </trkpt>
      <trkpt lat="46.30112" lon="6.32493">
        <ele>587.84</ele>
        <time>2019-12-21T15:01:27Z</time>
      </trkpt>
      <trkpt lat="46.30104" lon="6.32464">
        <ele>586.22</ele>
        <time>2019-12-21T15:01:29Z</time>
      </trkpt>
      <trkpt lat="46.30092" lon="6.32442">
        <ele>584.85</ele>
        <time>2019-12-21T15:01:31Z</time>
      </trkpt>
      <trkpt lat="46.30071" lon="6.32434">
        <ele>583.21</ele>
        <time>2019-12-21T15:01:33Z</time>
      </trkpt>
      <trkpt lat="46.30048" lon="6.32433">
        <ele>581.75</ele>
        <time>2019-12-21T15:01:35Z</time>
      </trkpt>
      <trkpt lat="46.30026" lon="6.32432">
        <ele>581.1</ele>
        <time>2019-12-21T15:01:37Z</time>
      </trkpt>
      <trkpt lat="46.30004" lon="6.32424">
        <ele>579.67</ele>
        <time>2019-12-21T15:01:39Z</time>
      </trkpt>
      <trkpt lat="46.29985" lon="6.32406">
        <ele>578.26</ele>
        <time>2019-12-21T15:01:41Z</time>
      </trkpt>
      <trkpt lat="46.2997" lon="6.3238">
        <ele>576.7</ele>
        <time>2019-12-21T15:01:43Z</time>
      </trkpt>
      <trkpt lat="46.29957" lon="6.32352">
        <ele>575.35</ele>
        <time>2019-12-21T15:01:45Z</time>
      </trkpt>
      <trkpt lat="46.29944" lon="6.32324">
        <ele>574.24</ele>
        <time>2019-12-21T15:01:47Z</time>
      </trkpt>
      <trkpt lat="46.29931" lon="6.32297">
        <ele>573.26</ele>
        <time>2019-12-21T15:01:49Z</time>
      </trkpt>
      <trkpt lat="46.29915" lon="6.32271">
        <ele>571.93</ele>
        <time>2019-12-21T15:01:51Z</time>
      </trkpt>
      <trkpt lat="46.29897" lon="6.32252">
        <ele>570.58</ele>
        <time>2019-12-21T15:01:53Z</time>
      </trkpt>
      <trkpt lat="46.29875" lon="6.32237">
        <ele>569.14</ele>
        <time>2019-12-21T15:01:55Z</time>
      </trkpt>
      <trkpt lat="46.29853" lon="6.32221">
        <ele>567.23</ele>
        <time>2019-12-21T15:01:57Z</time>
      </trkpt>
      <trkpt lat="46.29831" lon="6.32206">
        <ele>565.78</ele>
        <time>2019-12-21T15:01:59Z</time>
      </trkpt>
      <trkpt lat="46.29808" lon="6.32192">
        <ele>564.42</ele>
        <time>2019-12-21T15:02:01Z</time>
      </trkpt>
      <trkpt lat="46.29785" lon="6.32176">
        <ele>563.12</ele>
        <time>2019-12-21T15:02:03Z</time>
      </trkpt>
      <trkpt lat="46.29763" lon="6.32161">
        <ele>561.88</ele>
        <time>2019-12-21T15:02:05Z</time>
      </trkpt>
      <trkpt lat="46.2974" lon="6.32146">
        <ele>561.04</ele>
        <time>2019-12-21T15:02:07Z</time>
      </trkpt>
      <trkpt lat="46.29719" lon="6.3213">
        <ele>560</ele>
        <time>2019-12-21T15:02:09Z</time>
      </trkpt>
      <trkpt lat="46.29697" lon="6.32115">
        <ele>559.02</ele>
        <time>2019-12-21T15:02:11Z</time>
      </trkpt>
      <trkpt lat="46.29675" lon="6.321">
        <ele>558.41</ele>
        <time>2019-12-21T15:02:13Z</time>
      </trkpt>
      <trkpt lat="46.29653" lon="6.32085">
        <ele>557.62</ele>
        <time>2019-12-21T15:02:15Z</time>
      </trkpt>
      <trkpt lat="46.2963" lon="6.32071">
        <ele>555.99</ele>
        <time>2019-12-21T15:02:17Z</time>
      </trkpt>
      <trkpt lat="46.29607" lon="6.32056">
        <ele>554.5</ele>
        <time>2019-12-21T15:02:19Z</time>
      </trkpt>
      <trkpt lat="46.29584" lon="6.32041">
        <ele>553.04</ele>
        <time>2019-12-21T15:02:21Z</time>
      </trkpt>
      <trkpt lat="46.2956" lon="6.32025">
        <ele>551.58</ele>
        <time>2019-12-21T15:02:23Z</time>
      </trkpt>
      <trkpt lat="46.29536" lon="6.32007">
        <ele>550.16</ele>
        <time>2019-12-21T15:02:25Z</time>
      </trkpt>
      <trkpt lat="46.29514" lon="6.31987">
        <ele>548.39</ele>
        <time>2019-12-21T15:02:27Z</time>
      </trkpt>
      <trkpt lat="46.29492" lon="6.31964">
        <ele>546.6</ele>
        <time>2019-12-21T15:02:29Z</time>
      </trkpt>
      <trkpt lat="46.2947" lon="6.31941">
        <ele>545</ele>
        <time>2019-12-21T15:02:31Z</time>
      </trkpt>
      <trkpt lat="46.29447" lon="6.31918">
        <ele>543.49</ele>
        <time>2019-12-21T15:02:33Z</time>
      </trkpt>
      <trkpt lat="46.29425" lon="6.31894">
        <ele>542.01</ele>
        <time>2019-12-21T15:02:35Z</time>
      </trkpt>
      <trkpt lat="46.29403" lon="6.31871">
        <ele>540.5</ele>
        <time>2019-12-21T15:02:37Z</time>
      </trkpt>
      <trkpt lat="46.29381" lon="6.31846">
        <ele>538.93</ele>
        <time>2019-12-21T15:02:39Z</time>
      </trkpt>
      <trkpt lat="46.29359" lon="6.31822">
        <ele>537.34</ele>
        <time>2019-12-21T15:02:41Z</time>
      </trkpt>
      <trkpt lat="46.29336" lon="6.31804">
        <ele>536.02</ele>
        <time>2019-12-21T15:02:43Z</time>
      </trkpt>
      <trkpt lat="46.2931" lon="6.31795">
        <ele>534.53</ele>
        <time>2019-12-21T15:02:45Z</time>
      </trkpt>
      <trkpt lat="46.29283" lon="6.31791">
        <ele>532.97</ele>
        <time>2019-12-21T15:02:47Z</time>
      </trkpt>
      <trkpt lat="46.29258" lon="6.31781">
        <ele>531.97</ele>
        <time>2019-12-21T15:02:49Z</time>
      </trkpt>
      <trkpt lat="46.29235" lon="6.3176">
        <ele>530.99</ele>
        <time>2019-12-21T15:02:51Z</time>
      </trkpt>
      <trkpt lat="46.29219" lon="6.31727">
        <ele>529.73</ele>
        <time>2019-12-21T15:02:53Z</time>
      </trkpt>
      <trkpt lat="46.29203" lon="6.31697">
        <ele>528.21</ele>
        <time>2019-12-21T15:02:55Z</time>
      </trkpt>
      <trkpt lat="46.29181" lon="6.31677">
        <ele>526.79</ele>
        <time>2019-12-21T15:02:57Z</time>
      </trkpt>
      <trkpt lat="46.29158" lon="6.3166">
        <ele>525.19</ele>
        <time>2019-12-21T15:02:59Z</time>
      </trkpt>
      <trkpt lat="46.29136" lon="6.31641">
        <ele>523.69</ele>
        <time>2019-12-21T15:03:01Z</time>
      </trkpt>
      <trkpt lat="46.29115" lon="6.31617">
        <ele>522.15</ele>
        <time>2019-12-21T15:03:03Z</time>
      </trkpt>
      <trkpt lat="46.29095" lon="6.31592">
        <ele>520.7</ele>
        <time>2019-12-21T15:03:05Z</time>
      </trkpt>
      <trkpt lat="46.29076" lon="6.31566">
        <ele>519.42</ele>
        <time>2019-12-21T15:03:07Z</time>
      </trkpt>
      <trkpt lat="46.29056" lon="6.3154">
        <ele>517.91</ele>
        <time>2019-12-21T15:03:09Z</time>
      </trkpt>
      <trkpt lat="46.29037" lon="6.31514">
        <ele>516.43</ele>
        <time>2019-12-21T15:03:11Z</time>
      </trkpt>
      <trkpt lat="46.29017" lon="6.31488">
        <ele>515</ele>
        <time>2019-12-21T15:03:13Z</time>
      </trkpt>
      <trkpt lat="46.28997" lon="6.31462">
        <ele>513.59</ele>
        <time>2019-12-21T15:03:15Z</time>
      </trkpt>
      <trkpt lat="46.28976" lon="6.31439">
        <ele>512.12</ele>
        <time>2019-12-21T15:03:17Z</time>
      </trkpt>
      <trkpt lat="46.28953" lon="6.31419">
        <ele>510.82</ele>
        <time>2019-12-21T15:03:19Z</time>
      </trkpt>
      <trkpt lat="46.2893" lon="6.31399">
        <ele>509.45</ele>
        <time>2019-12-21T15:03:21Z</time>
      </trkpt>
      <trkpt lat="46.28908" lon="6.31379">
        <ele>508.1</ele>
        <time>2019-12-21T15:03:23Z</time>
      </trkpt>
      <trkpt lat="46.28887" lon="6.31357">
        <ele>506.73</ele>
        <time>2019-12-21T15:03:25Z</time>
      </trkpt>
      <trkpt lat="46.28869" lon="6.3133">
        <ele>505.46</ele>
        <time>2019-12-21T15:03:27Z</time>
      </trkpt>
      <trkpt lat="46.28854" lon="6.31299">
        <ele>504.32</ele>
        <time>2019-12-21T15:03:29Z</time>
      </trkpt>
      <trkpt lat="46.28839" lon="6.31269">
        <ele>503.18</ele>
        <time>2019-12-21T15:03:31Z</time>
      </trkpt>
      <trkpt lat="46.28825" lon="6.31238">
        <ele>501.95</ele>
        <time>2019-12-21T15:03:33Z</time>
      </trkpt>
      <trkpt lat="46.28811" lon="6.31208">
        <ele>500.75</ele>
        <time>2019-12-21T15:03:35Z</time>
      </trkpt>
      <trkpt lat="46.28796" lon="6.31177">
        <ele>499.23</ele>
        <time>2019-12-21T15:03:37Z</time>
      </trkpt>
      <trkpt lat="46.28781" lon="6.31147">
        <ele>497.85</ele>
        <time>2019-12-21T15:03:39Z</time>
      </trkpt>
      <trkpt lat="46.28768" lon="6.31119">
        <ele>496.49</ele>
        <time>2019-12-21T15:03:41Z</time>
      </trkpt>
      <trkpt lat="46.28762" lon="6.31091">
        <ele>495.16</ele>
        <time>2019-12-21T15:03:43Z</time>
      </trkpt>
      <trkpt lat="46.28763" lon="6.3106">
        <ele>493.85</ele>
        <time>2019-12-21T15:03:45Z</time>
      </trkpt>
      <trkpt lat="46.28771" lon="6.31032">
        <ele>492.57</ele>
        <time>2019-12-21T15:03:47Z</time>
      </trkpt>
      <trkpt lat="46.28781" lon="6.3101">
        <ele>491.72</ele>
        <time>2019-12-21T15:03:49Z</time>
      </trkpt>
      <trkpt lat="46.28794" lon="6.30983">
        <ele>490.57</ele>
        <time>2019-12-21T15:03:53Z</time>
      </trkpt>
      <trkpt lat="46.2881" lon="6.30967">
        <ele>489.52</ele>
        <time>2019-12-21T15:03:57Z</time>
      </trkpt>
      <trkpt lat="46.28832" lon="6.30967">
        <ele>488.99</ele>
        <time>2019-12-21T15:04:01Z</time>
      </trkpt>
      <trkpt lat="46.2886" lon="6.3097">
        <ele>488.83</ele>
        <time>2019-12-21T15:04:05Z</time>
      </trkpt>
      <trkpt lat="46.28892" lon="6.30967">
        <ele>488.46</ele>
        <time>2019-12-21T15:04:09Z</time>
      </trkpt>
      <trkpt lat="46.28925" lon="6.30961">
        <ele>487.95</ele>
        <time>2019-12-21T15:04:13Z</time>
      </trkpt>
      <trkpt lat="46.28959" lon="6.30956">
        <ele>487.49</ele>
        <time>2019-12-21T15:04:17Z</time>
      </trkpt>
      <trkpt lat="46.28977" lon="6.30951">
        <ele>487.66</ele>
        <time>2019-12-21T15:04:19Z</time>
      </trkpt>
      <trkpt lat="46.28995" lon="6.30948">
        <ele>487.58</ele>
        <time>2019-12-21T15:04:21Z</time>
      </trkpt>
      <trkpt lat="46.29014" lon="6.30944">
        <ele>487.22</ele>
        <time>2019-12-21T15:04:23Z</time>
      </trkpt>
      <trkpt lat="46.29033" lon="6.3094">
        <ele>486.49</ele>
        <time>2019-12-21T15:04:25Z</time>
      </trkpt>
      <trkpt lat="46.29052" lon="6.30937">
        <ele>485.81</ele>
        <time>2019-12-21T15:04:27Z</time>
      </trkpt>
      <trkpt lat="46.29072" lon="6.30933">
        <ele>485.06</ele>
        <time>2019-12-21T15:04:29Z</time>
      </trkpt>
      <trkpt lat="46.29093" lon="6.30929">
        <ele>484.18</ele>
        <time>2019-12-21T15:04:31Z</time>
      </trkpt>
      <trkpt lat="46.29114" lon="6.30925">
        <ele>483.18</ele>
        <time>2019-12-21T15:04:33Z</time>
      </trkpt>
      <trkpt lat="46.29135" lon="6.30924">
        <ele>482.01</ele>
        <time>2019-12-21T15:04:35Z</time>
      </trkpt>
      <trkpt lat="46.29155" lon="6.30928">
        <ele>480.78</ele>
        <time>2019-12-21T15:04:37Z</time>
      </trkpt>
      <trkpt lat="46.29175" lon="6.30937">
        <ele>479.89</ele>
        <time>2019-12-21T15:04:39Z</time>
      </trkpt>
      <trkpt lat="46.29191" lon="6.30952">
        <ele>480.07</ele>
        <time>2019-12-21T15:04:41Z</time>
      </trkpt>
      <trkpt lat="46.29206" lon="6.30966">
        <ele>480.46</ele>
        <time>2019-12-21T15:04:43Z</time>
      </trkpt>
      <trkpt lat="46.29224" lon="6.30976">
        <ele>480.65</ele>
        <time>2019-12-21T15:04:45Z</time>
      </trkpt>
      <trkpt lat="46.29259" lon="6.30977">
        <ele>479.21</ele>
        <time>2019-12-21T15:04:49Z</time>
      </trkpt>
      <trkpt lat="46.29276" lon="6.30968">
        <ele>478.23</ele>
        <time>2019-12-21T15:04:51Z</time>
      </trkpt>
      <trkpt lat="46.29294" lon="6.30957">
        <ele>477.26</ele>
        <time>2019-12-21T15:04:53Z</time>
      </trkpt>
      <trkpt lat="46.29313" lon="6.30946">
        <ele>476.42</ele>
        <time>2019-12-21T15:04:55Z</time>
      </trkpt>
      <trkpt lat="46.29333" lon="6.30934">
        <ele>475.63</ele>
        <time>2019-12-21T15:04:57Z</time>
      </trkpt>
      <trkpt lat="46.29353" lon="6.30923">
        <ele>474.63</ele>
        <time>2019-12-21T15:04:59Z</time>
      </trkpt>
      <trkpt lat="46.29374" lon="6.30911">
        <ele>473.54</ele>
        <time>2019-12-21T15:05:01Z</time>
      </trkpt>
      <trkpt lat="46.29395" lon="6.30898">
        <ele>472.45</ele>
        <time>2019-12-21T15:05:03Z</time>
      </trkpt>
      <trkpt lat="46.29416" lon="6.30886">
        <ele>471.51</ele>
        <time>2019-12-21T15:05:05Z</time>
      </trkpt>
      <trkpt lat="46.29437" lon="6.30872">
        <ele>470.49</ele>
        <time>2019-12-21T15:05:07Z</time>
      </trkpt>
      <trkpt lat="46.29458" lon="6.30857">
        <ele>469.52</ele>
        <time>2019-12-21T15:05:09Z</time>
      </trkpt>
      <trkpt lat="46.29478" lon="6.30839">
        <ele>468.54</ele>
        <time>2019-12-21T15:05:11Z</time>
      </trkpt>
      <trkpt lat="46.29497" lon="6.30817">
        <ele>467.36</ele>
        <time>2019-12-21T15:05:13Z</time>
      </trkpt>
      <trkpt lat="46.29515" lon="6.30793">
        <ele>466.09</ele>
        <time>2019-12-21T15:05:15Z</time>
      </trkpt>
      <trkpt lat="46.29532" lon="6.30769">
        <ele>465.08</ele>
        <time>2019-12-21T15:05:17Z</time>
      </trkpt>
      <trkpt lat="46.2955" lon="6.30744">
        <ele>464.03</ele>
        <time>2019-12-21T15:05:19Z</time>
      </trkpt>
      <trkpt lat="46.29568" lon="6.30718">
        <ele>463.07</ele>
        <time>2019-12-21T15:05:21Z</time>
      </trkpt>
      <trkpt lat="46.29585" lon="6.30694">
        <ele>462.32</ele>
        <time>2019-12-21T15:05:23Z</time>
      </trkpt>
      <trkpt lat="46.29603" lon="6.30676">
        <ele>461.71</ele>
        <time>2019-12-21T15:05:25Z</time>
      </trkpt>
      <trkpt lat="46.29635" lon="6.30658">
        <ele>460.59</ele>
        <time>2019-12-21T15:05:29Z</time>
      </trkpt>
      <trkpt lat="46.29664" lon="6.30628">
        <ele>459.86</ele>
        <time>2019-12-21T15:05:33Z</time>
      </trkpt>
      <trkpt lat="46.29681" lon="6.30617">
        <ele>459.5</ele>
        <time>2019-12-21T15:05:35Z</time>
      </trkpt>
      <trkpt lat="46.29699" lon="6.30608">
        <ele>459.27</ele>
        <time>2019-12-21T15:05:37Z</time>
      </trkpt>
      <trkpt lat="46.29717" lon="6.30599">
        <ele>459.16</ele>
        <time>2019-12-21T15:05:39Z</time>
      </trkpt>
      <trkpt lat="46.29734" lon="6.30589">
        <ele>458.72</ele>
        <time>2019-12-21T15:05:41Z</time>
      </trkpt>
      <trkpt lat="46.29752" lon="6.30579">
        <ele>458.27</ele>
        <time>2019-12-21T15:05:43Z</time>
      </trkpt>
      <trkpt lat="46.29769" lon="6.3057">
        <ele>457.97</ele>
        <time>2019-12-21T15:05:45Z</time>
      </trkpt>
      <trkpt lat="46.29787" lon="6.30561">
        <ele>457.77</ele>
        <time>2019-12-21T15:05:47Z</time>
      </trkpt>
      <trkpt lat="46.29805" lon="6.30552">
        <ele>457.47</ele>
        <time>2019-12-21T15:05:49Z</time>
      </trkpt>
      <trkpt lat="46.29824" lon="6.30542">
        <ele>457.01</ele>
        <time>2019-12-21T15:05:51Z</time>
      </trkpt>
      <trkpt lat="46.29844" lon="6.30533">
        <ele>456.24</ele>
        <time>2019-12-21T15:05:53Z</time>
      </trkpt>
      <trkpt lat="46.29864" lon="6.30525">
        <ele>455.45</ele>
        <time>2019-12-21T15:05:55Z</time>
      </trkpt>
      <trkpt lat="46.29884" lon="6.30516">
        <ele>454.85</ele>
        <time>2019-12-21T15:05:57Z</time>
      </trkpt>
      <trkpt lat="46.29905" lon="6.30505">
        <ele>454.06</ele>
        <time>2019-12-21T15:05:59Z</time>
      </trkpt>
      <trkpt lat="46.29926" lon="6.30493">
        <ele>453.17</ele>
        <time>2019-12-21T15:06:01Z</time>
      </trkpt>
      <trkpt lat="46.29947" lon="6.30481">
        <ele>452.05</ele>
        <time>2019-12-21T15:06:03Z</time>
      </trkpt>
      <trkpt lat="46.29968" lon="6.30469">
        <ele>451.18</ele>
        <time>2019-12-21T15:06:05Z</time>
      </trkpt>
      <trkpt lat="46.29989" lon="6.30456">
        <ele>450.48</ele>
        <time>2019-12-21T15:06:07Z</time>
      </trkpt>
      <trkpt lat="46.30011" lon="6.30444">
        <ele>449.81</ele>
        <time>2019-12-21T15:06:09Z</time>
      </trkpt>
      <trkpt lat="46.30032" lon="6.30432">
        <ele>449.27</ele>
        <time>2019-12-21T15:06:11Z</time>
      </trkpt>
      <trkpt lat="46.30053" lon="6.3042">
        <ele>448.88</ele>
        <time>2019-12-21T15:06:13Z</time>
      </trkpt>
      <trkpt lat="46.30074" lon="6.3041">
        <ele>448.61</ele>
        <time>2019-12-21T15:06:15Z</time>
      </trkpt>
      <trkpt lat="46.30094" lon="6.30399">
        <ele>448.5</ele>
        <time>2019-12-21T15:06:17Z</time>
      </trkpt>
      <trkpt lat="46.30114" lon="6.30389">
        <ele>448.35</ele>
        <time>2019-12-21T15:06:19Z</time>
      </trkpt>
      <trkpt lat="46.30134" lon="6.30379">
        <ele>448.09</ele>
        <time>2019-12-21T15:06:21Z</time>
      </trkpt>
      <trkpt lat="46.30153" lon="6.30368">
        <ele>447.95</ele>
        <time>2019-12-21T15:06:23Z</time>
      </trkpt>
      <trkpt lat="46.30172" lon="6.30359">
        <ele>448.05</ele>
        <time>2019-12-21T15:06:25Z</time>
      </trkpt>
      <trkpt lat="46.30191" lon="6.30349">
        <ele>447.96</ele>
        <time>2019-12-21T15:06:27Z</time>
      </trkpt>
      <trkpt lat="46.30209" lon="6.30339">
        <ele>447.66</ele>
        <time>2019-12-21T15:06:29Z</time>
      </trkpt>
      <trkpt lat="46.30227" lon="6.3033">
        <ele>447.49</ele>
        <time>2019-12-21T15:06:31Z</time>
      </trkpt>
      <trkpt lat="46.30244" lon="6.30321">
        <ele>447.34</ele>
        <time>2019-12-21T15:06:33Z</time>
      </trkpt>
      <trkpt lat="46.30262" lon="6.30312">
        <ele>447.24</ele>
        <time>2019-12-21T15:06:35Z</time>
      </trkpt>
      <trkpt lat="46.30279" lon="6.30303">
        <ele>447.07</ele>
        <time>2019-12-21T15:06:37Z</time>
      </trkpt>
      <trkpt lat="46.30296" lon="6.30294">
        <ele>446.9</ele>
        <time>2019-12-21T15:06:39Z</time>
      </trkpt>
      <trkpt lat="46.30313" lon="6.30285">
        <ele>446.72</ele>
        <time>2019-12-21T15:06:41Z</time>
      </trkpt>
      <trkpt lat="46.3033" lon="6.30276">
        <ele>446.21</ele>
        <time>2019-12-21T15:06:43Z</time>
      </trkpt>
      <trkpt lat="46.30364" lon="6.30258">
        <ele>446.12</ele>
        <time>2019-12-21T15:06:47Z</time>
      </trkpt>
      <trkpt lat="46.30382" lon="6.30249">
        <ele>446.16</ele>
        <time>2019-12-21T15:06:49Z</time>
      </trkpt>
      <trkpt lat="46.30415" lon="6.30232">
        <ele>446.11</ele>
        <time>2019-12-21T15:06:53Z</time>
      </trkpt>
      <trkpt lat="46.30447" lon="6.30214">
        <ele>445.9</ele>
        <time>2019-12-21T15:06:57Z</time>
      </trkpt>
      <trkpt lat="46.30479" lon="6.30195">
        <ele>445.73</ele>
        <time>2019-12-21T15:07:01Z</time>
      </trkpt>
      <trkpt lat="46.30506" lon="6.30178">
        <ele>445.25</ele>
        <time>2019-12-21T15:07:05Z</time>
      </trkpt>
      <trkpt lat="46.30527" lon="6.30168">
        <ele>445.18</ele>
        <time>2019-12-21T15:07:09Z</time>
      </trkpt>
      <trkpt lat="46.30543" lon="6.30158">
        <ele>444.9</ele>
        <time>2019-12-21T15:07:17Z</time>
      </trkpt>
      <trkpt lat="46.30563" lon="6.30145">
        <ele>445.41</ele>
        <time>2019-12-21T15:08:22Z</time>
      </trkpt>
      <trkpt lat="46.30577" lon="6.30121">
        <ele>445.07</ele>
        <time>2019-12-21T15:08:28Z</time>
      </trkpt>
      <trkpt lat="46.30582" lon="6.30095">
        <ele>444.85</ele>
        <time>2019-12-21T15:08:32Z</time>
      </trkpt>
      <trkpt lat="46.30586" lon="6.30063">
        <ele>444.64</ele>
        <time>2019-12-21T15:08:36Z</time>
      </trkpt>
      <trkpt lat="46.30591" lon="6.30028">
        <ele>444.55</ele>
        <time>2019-12-21T15:08:40Z</time>
      </trkpt>
      <trkpt lat="46.30599" lon="6.29996">
        <ele>444.55</ele>
        <time>2019-12-21T15:08:44Z</time>
      </trkpt>
      <trkpt lat="46.30604" lon="6.29965">
        <ele>444.35</ele>
        <time>2019-12-21T15:08:48Z</time>
      </trkpt>
      <trkpt lat="46.30607" lon="6.29928">
        <ele>443.5</ele>
        <time>2019-12-21T15:08:52Z</time>
      </trkpt>
      <trkpt lat="46.30611" lon="6.29892">
        <ele>443.73</ele>
        <time>2019-12-21T15:08:56Z</time>
      </trkpt>
      <trkpt lat="46.30619" lon="6.29857">
        <ele>444.4</ele>
        <time>2019-12-21T15:09:00Z</time>
      </trkpt>
      <trkpt lat="46.30634" lon="6.29826">
        <ele>444.98</ele>
        <time>2019-12-21T15:09:04Z</time>
      </trkpt>
      <trkpt lat="46.30651" lon="6.29794">
        <ele>444.8</ele>
        <time>2019-12-21T15:09:08Z</time>
      </trkpt>
      <trkpt lat="46.30667" lon="6.29763">
        <ele>444.84</ele>
        <time>2019-12-21T15:09:12Z</time>
      </trkpt>
      <trkpt lat="46.30675" lon="6.29726">
        <ele>444.94</ele>
        <time>2019-12-21T15:09:16Z</time>
      </trkpt>
      <trkpt lat="46.3068" lon="6.29684">
        <ele>444.08</ele>
        <time>2019-12-21T15:09:20Z</time>
      </trkpt>
      <trkpt lat="46.30681" lon="6.29642">
        <ele>443.68</ele>
        <time>2019-12-21T15:09:24Z</time>
      </trkpt>
      <trkpt lat="46.30684" lon="6.296">
        <ele>443.38</ele>
        <time>2019-12-21T15:09:28Z</time>
      </trkpt>
      <trkpt lat="46.30688" lon="6.29559">
        <ele>443.15</ele>
        <time>2019-12-21T15:09:32Z</time>
      </trkpt>
      <trkpt lat="46.30694" lon="6.29517">
        <ele>442.72</ele>
        <time>2019-12-21T15:09:36Z</time>
      </trkpt>
      <trkpt lat="46.307" lon="6.29475">
        <ele>442.45</ele>
        <time>2019-12-21T15:09:40Z</time>
      </trkpt>
      <trkpt lat="46.30706" lon="6.29432">
        <ele>442.22</ele>
        <time>2019-12-21T15:09:44Z</time>
      </trkpt>
      <trkpt lat="46.30712" lon="6.29394">
        <ele>442.08</ele>
        <time>2019-12-21T15:09:48Z</time>
      </trkpt>
      <trkpt lat="46.30718" lon="6.29357">
        <ele>441.64</ele>
        <time>2019-12-21T15:09:52Z</time>
      </trkpt>
      <trkpt lat="46.30727" lon="6.29316">
        <ele>441</ele>
        <time>2019-12-21T15:09:56Z</time>
      </trkpt>
      <trkpt lat="46.30735" lon="6.29275">
        <ele>440.69</ele>
        <time>2019-12-21T15:10:00Z</time>
      </trkpt>
      <trkpt lat="46.30744" lon="6.29233">
        <ele>440.61</ele>
        <time>2019-12-21T15:10:04Z</time>
      </trkpt>
      <trkpt lat="46.30753" lon="6.29191">
        <ele>440.54</ele>
        <time>2019-12-21T15:10:08Z</time>
      </trkpt>
      <trkpt lat="46.30759" lon="6.29148">
        <ele>440.4</ele>
        <time>2019-12-21T15:10:12Z</time>
      </trkpt>
      <trkpt lat="46.30764" lon="6.29106">
        <ele>440.37</ele>
        <time>2019-12-21T15:10:16Z</time>
      </trkpt>
      <trkpt lat="46.3077" lon="6.29061">
        <ele>439.98</ele>
        <time>2019-12-21T15:10:20Z</time>
      </trkpt>
      <trkpt lat="46.30775" lon="6.29018">
        <ele>439.84</ele>
        <time>2019-12-21T15:10:24Z</time>
      </trkpt>
      <trkpt lat="46.30781" lon="6.28975">
        <ele>439.83</ele>
        <time>2019-12-21T15:10:28Z</time>
      </trkpt>
      <trkpt lat="46.3079" lon="6.28933">
        <ele>439.76</ele>
        <time>2019-12-21T15:10:32Z</time>
      </trkpt>
      <trkpt lat="46.30804" lon="6.28894">
        <ele>439.83</ele>
        <time>2019-12-21T15:10:36Z</time>
      </trkpt>
      <trkpt lat="46.30821" lon="6.28857">
        <ele>439.89</ele>
        <time>2019-12-21T15:10:40Z</time>
      </trkpt>
      <trkpt lat="46.30839" lon="6.28822">
        <ele>439.92</ele>
        <time>2019-12-21T15:10:44Z</time>
      </trkpt>
      <trkpt lat="46.3085" lon="6.28781">
        <ele>439.78</ele>
        <time>2019-12-21T15:10:48Z</time>
      </trkpt>
      <trkpt lat="46.30839" lon="6.28738">
        <ele>439.84</ele>
        <time>2019-12-21T15:10:52Z</time>
      </trkpt>
      <trkpt lat="46.30827" lon="6.28698">
        <ele>439.82</ele>
        <time>2019-12-21T15:10:56Z</time>
      </trkpt>
      <trkpt lat="46.30816" lon="6.28657">
        <ele>439.69</ele>
        <time>2019-12-21T15:11:00Z</time>
      </trkpt>
      <trkpt lat="46.30805" lon="6.28617">
        <ele>439.7</ele>
        <time>2019-12-21T15:11:04Z</time>
      </trkpt>
      <trkpt lat="46.30791" lon="6.28578">
        <ele>439.76</ele>
        <time>2019-12-21T15:11:08Z</time>
      </trkpt>
      <trkpt lat="46.30776" lon="6.28541">
        <ele>439.84</ele>
        <time>2019-12-21T15:11:12Z</time>
      </trkpt>
      <trkpt lat="46.30761" lon="6.28504">
        <ele>440.01</ele>
        <time>2019-12-21T15:11:16Z</time>
      </trkpt>
      <trkpt lat="46.30751" lon="6.28467">
        <ele>440.5</ele>
        <time>2019-12-21T15:11:20Z</time>
      </trkpt>
      <trkpt lat="46.3075" lon="6.28433">
        <ele>441.28</ele>
        <time>2019-12-21T15:11:24Z</time>
      </trkpt>
      <trkpt lat="46.30754" lon="6.28398">
        <ele>442.3</ele>
        <time>2019-12-21T15:11:28Z</time>
      </trkpt>
      <trkpt lat="46.30756" lon="6.28364">
        <ele>443.39</ele>
        <time>2019-12-21T15:11:32Z</time>
      </trkpt>
      <trkpt lat="46.30756" lon="6.28333">
        <ele>444.78</ele>
        <time>2019-12-21T15:11:36Z</time>
      </trkpt>
      <trkpt lat="46.30754" lon="6.28302">
        <ele>446.22</ele>
        <time>2019-12-21T15:11:40Z</time>
      </trkpt>
      <trkpt lat="46.3075" lon="6.28272">
        <ele>447.4</ele>
        <time>2019-12-21T15:11:44Z</time>
      </trkpt>
      <trkpt lat="46.30747" lon="6.28238">
        <ele>447.55</ele>
        <time>2019-12-21T15:11:48Z</time>
      </trkpt>
      <trkpt lat="46.30742" lon="6.28202">
        <ele>446.5</ele>
        <time>2019-12-21T15:11:52Z</time>
      </trkpt>
      <trkpt lat="46.30736" lon="6.2816">
        <ele>445.42</ele>
        <time>2019-12-21T15:11:56Z</time>
      </trkpt>
      <trkpt lat="46.30729" lon="6.28114">
        <ele>444.44</ele>
        <time>2019-12-21T15:12:00Z</time>
      </trkpt>
      <trkpt lat="46.30723" lon="6.2807">
        <ele>444.45</ele>
        <time>2019-12-21T15:12:04Z</time>
      </trkpt>
      <trkpt lat="46.30717" lon="6.28018">
        <ele>444.46</ele>
        <time>2019-12-21T15:12:08Z</time>
      </trkpt>
      <trkpt lat="46.3071" lon="6.27966">
        <ele>443.84</ele>
        <time>2019-12-21T15:12:12Z</time>
      </trkpt>
      <trkpt lat="46.30707" lon="6.2794">
        <ele>443.6</ele>
        <time>2019-12-21T15:12:14Z</time>
      </trkpt>
      <trkpt lat="46.307" lon="6.27893">
        <ele>442.52</ele>
        <time>2019-12-21T15:12:18Z</time>
      </trkpt>
      <trkpt lat="46.30692" lon="6.27845">
        <ele>441.96</ele>
        <time>2019-12-21T15:12:22Z</time>
      </trkpt>
      <trkpt lat="46.30687" lon="6.27797">
        <ele>442.2</ele>
        <time>2019-12-21T15:12:26Z</time>
      </trkpt>
      <trkpt lat="46.30681" lon="6.27752">
        <ele>441.57</ele>
        <time>2019-12-21T15:12:30Z</time>
      </trkpt>
      <trkpt lat="46.30678" lon="6.27724">
        <ele>440.85</ele>
        <time>2019-12-21T15:12:32Z</time>
      </trkpt>
      <trkpt lat="46.30675" lon="6.27675">
        <ele>440.45</ele>
        <time>2019-12-21T15:12:36Z</time>
      </trkpt>
      <trkpt lat="46.30673" lon="6.27629">
        <ele>440.55</ele>
        <time>2019-12-21T15:12:40Z</time>
      </trkpt>
      <trkpt lat="46.30673" lon="6.2758">
        <ele>440.3</ele>
        <time>2019-12-21T15:12:44Z</time>
      </trkpt>
      <trkpt lat="46.30669" lon="6.27534">
        <ele>440.19</ele>
        <time>2019-12-21T15:12:48Z</time>
      </trkpt>
      <trkpt lat="46.30657" lon="6.27491">
        <ele>440.27</ele>
        <time>2019-12-21T15:12:52Z</time>
      </trkpt>
      <trkpt lat="46.3065" lon="6.27445">
        <ele>439.63</ele>
        <time>2019-12-21T15:12:56Z</time>
      </trkpt>
      <trkpt lat="46.30654" lon="6.27398">
        <ele>439.12</ele>
        <time>2019-12-21T15:13:00Z</time>
      </trkpt>
      <trkpt lat="46.30658" lon="6.27353">
        <ele>438.94</ele>
        <time>2019-12-21T15:13:04Z</time>
      </trkpt>
      <trkpt lat="46.30663" lon="6.27308">
        <ele>438.87</ele>
        <time>2019-12-21T15:13:08Z</time>
      </trkpt>
      <trkpt lat="46.30665" lon="6.27263">
        <ele>438.43</ele>
        <time>2019-12-21T15:13:12Z</time>
      </trkpt>
      <trkpt lat="46.30667" lon="6.27216">
        <ele>437.93</ele>
        <time>2019-12-21T15:13:16Z</time>
      </trkpt>
      <trkpt lat="46.30669" lon="6.27171">
        <ele>437.64</ele>
        <time>2019-12-21T15:13:20Z</time>
      </trkpt>
      <trkpt lat="46.30677" lon="6.27127">
        <ele>437.47</ele>
        <time>2019-12-21T15:13:24Z</time>
      </trkpt>
      <trkpt lat="46.30686" lon="6.27083">
        <ele>437.47</ele>
        <time>2019-12-21T15:13:28Z</time>
      </trkpt>
      <trkpt lat="46.30697" lon="6.27039">
        <ele>438.46</ele>
        <time>2019-12-21T15:13:32Z</time>
      </trkpt>
      <trkpt lat="46.30707" lon="6.26994">
        <ele>438.69</ele>
        <time>2019-12-21T15:13:36Z</time>
      </trkpt>
      <trkpt lat="46.30718" lon="6.26947">
        <ele>438.26</ele>
        <time>2019-12-21T15:13:40Z</time>
      </trkpt>
      <trkpt lat="46.30729" lon="6.26899">
        <ele>437.8</ele>
        <time>2019-12-21T15:13:44Z</time>
      </trkpt>
      <trkpt lat="46.30737" lon="6.26851">
        <ele>437.65</ele>
        <time>2019-12-21T15:13:48Z</time>
      </trkpt>
      <trkpt lat="46.30736" lon="6.26801">
        <ele>437.3</ele>
        <time>2019-12-21T15:13:52Z</time>
      </trkpt>
      <trkpt lat="46.30725" lon="6.26755">
        <ele>437.08</ele>
        <time>2019-12-21T15:13:56Z</time>
      </trkpt>
      <trkpt lat="46.30718" lon="6.2671">
        <ele>437.21</ele>
        <time>2019-12-21T15:14:00Z</time>
      </trkpt>
      <trkpt lat="46.30721" lon="6.26665">
        <ele>437.3</ele>
        <time>2019-12-21T15:14:04Z</time>
      </trkpt>
      <trkpt lat="46.30727" lon="6.26623">
        <ele>437.44</ele>
        <time>2019-12-21T15:14:08Z</time>
      </trkpt>
      <trkpt lat="46.30733" lon="6.26582">
        <ele>437.61</ele>
        <time>2019-12-21T15:14:12Z</time>
      </trkpt>
      <trkpt lat="46.3074" lon="6.2654">
        <ele>437.58</ele>
        <time>2019-12-21T15:14:16Z</time>
      </trkpt>
      <trkpt lat="46.30748" lon="6.26498">
        <ele>437.59</ele>
        <time>2019-12-21T15:14:20Z</time>
      </trkpt>
      <trkpt lat="46.30754" lon="6.26455">
        <ele>437.56</ele>
        <time>2019-12-21T15:14:24Z</time>
      </trkpt>
      <trkpt lat="46.30756" lon="6.2641">
        <ele>437.45</ele>
        <time>2019-12-21T15:14:28Z</time>
      </trkpt>
      <trkpt lat="46.30754" lon="6.26366">
        <ele>437.44</ele>
        <time>2019-12-21T15:14:32Z</time>
      </trkpt>
      <trkpt lat="46.30748" lon="6.26322">
        <ele>437.16</ele>
        <time>2019-12-21T15:14:36Z</time>
      </trkpt>
      <trkpt lat="46.30743" lon="6.26278">
        <ele>436.93</ele>
        <time>2019-12-21T15:14:40Z</time>
      </trkpt>
      <trkpt lat="46.30741" lon="6.26232">
        <ele>436.67</ele>
        <time>2019-12-21T15:14:44Z</time>
      </trkpt>
      <trkpt lat="46.30742" lon="6.26187">
        <ele>436.49</ele>
        <time>2019-12-21T15:14:48Z</time>
      </trkpt>
      <trkpt lat="46.30747" lon="6.26144">
        <ele>436.31</ele>
        <time>2019-12-21T15:14:52Z</time>
      </trkpt>
      <trkpt lat="46.30758" lon="6.26102">
        <ele>436.31</ele>
        <time>2019-12-21T15:14:56Z</time>
      </trkpt>
      <trkpt lat="46.30769" lon="6.26062">
        <ele>436.21</ele>
        <time>2019-12-21T15:15:00Z</time>
      </trkpt>
      <trkpt lat="46.30781" lon="6.26021">
        <ele>436.21</ele>
        <time>2019-12-21T15:15:04Z</time>
      </trkpt>
      <trkpt lat="46.30795" lon="6.25982">
        <ele>436.43</ele>
        <time>2019-12-21T15:15:08Z</time>
      </trkpt>
      <trkpt lat="46.3081" lon="6.25943">
        <ele>436.12</ele>
        <time>2019-12-21T15:15:12Z</time>
      </trkpt>
      <trkpt lat="46.30825" lon="6.25904">
        <ele>435.99</ele>
        <time>2019-12-21T15:15:16Z</time>
      </trkpt>
      <trkpt lat="46.3084" lon="6.25866">
        <ele>435.98</ele>
        <time>2019-12-21T15:15:20Z</time>
      </trkpt>
      <trkpt lat="46.30853" lon="6.25829">
        <ele>435.95</ele>
        <time>2019-12-21T15:15:24Z</time>
      </trkpt>
      <trkpt lat="46.30861" lon="6.25805">
        <ele>436</ele>
        <time>2019-12-21T15:15:28Z</time>
      </trkpt>
      <trkpt lat="46.3086" lon="6.25773">
        <ele>435.68</ele>
        <time>2019-12-21T15:15:36Z</time>
      </trkpt>
      <trkpt lat="46.30848" lon="6.25752">
        <ele>435.46</ele>
        <time>2019-12-21T15:15:40Z</time>
      </trkpt>
      <trkpt lat="46.30834" lon="6.25733">
        <ele>435.4</ele>
        <time>2019-12-21T15:15:44Z</time>
      </trkpt>
      <trkpt lat="46.30818" lon="6.25712">
        <ele>434.94</ele>
        <time>2019-12-21T15:15:48Z</time>
      </trkpt>
      <trkpt lat="46.30797" lon="6.25692">
        <ele>434.68</ele>
        <time>2019-12-21T15:15:52Z</time>
      </trkpt>
      <trkpt lat="46.3077" lon="6.25669">
        <ele>433.46</ele>
        <time>2019-12-21T15:15:56Z</time>
      </trkpt>
      <trkpt lat="46.30741" lon="6.25644">
        <ele>431.83</ele>
        <time>2019-12-21T15:16:00Z</time>
      </trkpt>
      <trkpt lat="46.30725" lon="6.2563">
        <ele>431.04</ele>
        <time>2019-12-21T15:16:02Z</time>
      </trkpt>
      <trkpt lat="46.30709" lon="6.25614">
        <ele>430.3</ele>
        <time>2019-12-21T15:16:04Z</time>
      </trkpt>
      <trkpt lat="46.30693" lon="6.25596">
        <ele>429.45</ele>
        <time>2019-12-21T15:16:06Z</time>
      </trkpt>
      <trkpt lat="46.3068" lon="6.25575">
        <ele>428.7</ele>
        <time>2019-12-21T15:16:08Z</time>
      </trkpt>
      <trkpt lat="46.30668" lon="6.25551">
        <ele>428.08</ele>
        <time>2019-12-21T15:16:10Z</time>
      </trkpt>
      <trkpt lat="46.30658" lon="6.25527">
        <ele>427.45</ele>
        <time>2019-12-21T15:16:12Z</time>
      </trkpt>
      <trkpt lat="46.30649" lon="6.25501">
        <ele>426.53</ele>
        <time>2019-12-21T15:16:14Z</time>
      </trkpt>
      <trkpt lat="46.30639" lon="6.25474">
        <ele>425.65</ele>
        <time>2019-12-21T15:16:16Z</time>
      </trkpt>
      <trkpt lat="46.3063" lon="6.25447">
        <ele>424.7</ele>
        <time>2019-12-21T15:16:18Z</time>
      </trkpt>
      <trkpt lat="46.30621" lon="6.2542">
        <ele>423.84</ele>
        <time>2019-12-21T15:16:20Z</time>
      </trkpt>
      <trkpt lat="46.30614" lon="6.25392">
        <ele>423.07</ele>
        <time>2019-12-21T15:16:22Z</time>
      </trkpt>
      <trkpt lat="46.30612" lon="6.25362">
        <ele>422.09</ele>
        <time>2019-12-21T15:16:24Z</time>
      </trkpt>
      <trkpt lat="46.30613" lon="6.25332">
        <ele>421.33</ele>
        <time>2019-12-21T15:16:26Z</time>
      </trkpt>
      <trkpt lat="46.3062" lon="6.25303">
        <ele>421.02</ele>
        <time>2019-12-21T15:16:28Z</time>
      </trkpt>
      <trkpt lat="46.30628" lon="6.25275">
        <ele>420.3</ele>
        <time>2019-12-21T15:16:30Z</time>
      </trkpt>
      <trkpt lat="46.30636" lon="6.25247">
        <ele>419.6</ele>
        <time>2019-12-21T15:16:32Z</time>
      </trkpt>
      <trkpt lat="46.30641" lon="6.25217">
        <ele>418.78</ele>
        <time>2019-12-21T15:16:34Z</time>
      </trkpt>
      <trkpt lat="46.30643" lon="6.25185">
        <ele>417.49</ele>
        <time>2019-12-21T15:16:36Z</time>
      </trkpt>
      <trkpt lat="46.30639" lon="6.25154">
        <ele>416.38</ele>
        <time>2019-12-21T15:16:38Z</time>
      </trkpt>
      <trkpt lat="46.3063" lon="6.25126">
        <ele>415.42</ele>
        <time>2019-12-21T15:16:40Z</time>
      </trkpt>
      <trkpt lat="46.30618" lon="6.251">
        <ele>414.61</ele>
        <time>2019-12-21T15:16:42Z</time>
      </trkpt>
      <trkpt lat="46.30606" lon="6.25074">
        <ele>414.38</ele>
        <time>2019-12-21T15:16:44Z</time>
      </trkpt>
      <trkpt lat="46.30594" lon="6.25047">
        <ele>413.75</ele>
        <time>2019-12-21T15:16:46Z</time>
      </trkpt>
      <trkpt lat="46.30581" lon="6.2502">
        <ele>413.39</ele>
        <time>2019-12-21T15:16:48Z</time>
      </trkpt>
      <trkpt lat="46.30569" lon="6.24994">
        <ele>414</ele>
        <time>2019-12-21T15:16:50Z</time>
      </trkpt>
      <trkpt lat="46.30555" lon="6.2497">
        <ele>413.88</ele>
        <time>2019-12-21T15:16:52Z</time>
      </trkpt>
      <trkpt lat="46.30539" lon="6.24942">
        <ele>413.04</ele>
        <time>2019-12-21T15:16:54Z</time>
      </trkpt>
      <trkpt lat="46.30522" lon="6.2492">
        <ele>411.98</ele>
        <time>2019-12-21T15:16:56Z</time>
      </trkpt>
      <trkpt lat="46.30502" lon="6.24904">
        <ele>410.79</ele>
        <time>2019-12-21T15:16:58Z</time>
      </trkpt>
      <trkpt lat="46.30481" lon="6.24889">
        <ele>409.42</ele>
        <time>2019-12-21T15:17:00Z</time>
      </trkpt>
      <trkpt lat="46.3046" lon="6.24874">
        <ele>408.37</ele>
        <time>2019-12-21T15:17:02Z</time>
      </trkpt>
      <trkpt lat="46.30439" lon="6.24858">
        <ele>407.71</ele>
        <time>2019-12-21T15:17:04Z</time>
      </trkpt>
      <trkpt lat="46.30417" lon="6.24844">
        <ele>406.86</ele>
        <time>2019-12-21T15:17:06Z</time>
      </trkpt>
      <trkpt lat="46.30396" lon="6.24831">
        <ele>405.95</ele>
        <time>2019-12-21T15:17:08Z</time>
      </trkpt>
      <trkpt lat="46.30376" lon="6.24816">
        <ele>405.27</ele>
        <time>2019-12-21T15:17:10Z</time>
      </trkpt>
      <trkpt lat="46.30356" lon="6.24803">
        <ele>404.3</ele>
        <time>2019-12-21T15:17:12Z</time>
      </trkpt>
      <trkpt lat="46.30336" lon="6.2479">
        <ele>403.26</ele>
        <time>2019-12-21T15:17:14Z</time>
      </trkpt>
      <trkpt lat="46.30316" lon="6.24777">
        <ele>402.69</ele>
        <time>2019-12-21T15:17:16Z</time>
      </trkpt>
      <trkpt lat="46.30297" lon="6.24765">
        <ele>401.77</ele>
        <time>2019-12-21T15:17:18Z</time>
      </trkpt>
      <trkpt lat="46.30269" lon="6.24747">
        <ele>399.74</ele>
        <time>2019-12-21T15:17:22Z</time>
      </trkpt>
      <trkpt lat="46.30252" lon="6.2471">
        <ele>398.16</ele>
        <time>2019-12-21T15:17:26Z</time>
      </trkpt>
      <trkpt lat="46.30253" lon="6.24669">
        <ele>397.34</ele>
        <time>2019-12-21T15:17:30Z</time>
      </trkpt>
      <trkpt lat="46.30258" lon="6.24622">
        <ele>396.95</ele>
        <time>2019-12-21T15:17:34Z</time>
      </trkpt>
      <trkpt lat="46.30253" lon="6.24572">
        <ele>395.74</ele>
        <time>2019-12-21T15:17:38Z</time>
      </trkpt>
      <trkpt lat="46.30251" lon="6.24524">
        <ele>394.95</ele>
        <time>2019-12-21T15:17:42Z</time>
      </trkpt>
      <trkpt lat="46.30247" lon="6.24476">
        <ele>394.27</ele>
        <time>2019-12-21T15:17:46Z</time>
      </trkpt>
      <trkpt lat="46.30227" lon="6.24442">
        <ele>394.62</ele>
        <time>2019-12-21T15:17:50Z</time>
      </trkpt>
      <trkpt lat="46.30198" lon="6.24431">
        <ele>396.25</ele>
        <time>2019-12-21T15:17:54Z</time>
      </trkpt>
      <trkpt lat="46.3017" lon="6.24414">
        <ele>396.66</ele>
        <time>2019-12-21T15:17:58Z</time>
      </trkpt>
      <trkpt lat="46.30146" lon="6.24397">
        <ele>397.02</ele>
        <time>2019-12-21T15:18:02Z</time>
      </trkpt>
      <trkpt lat="46.30123" lon="6.24382">
        <ele>396.78</ele>
        <time>2019-12-21T15:18:06Z</time>
      </trkpt>
      <trkpt lat="46.30099" lon="6.24383">
        <ele>396.45</ele>
        <time>2019-12-21T15:18:10Z</time>
      </trkpt>
      <trkpt lat="46.30075" lon="6.24389">
        <ele>396.24</ele>
        <time>2019-12-21T15:18:14Z</time>
      </trkpt>
      <trkpt lat="46.30051" lon="6.24391">
        <ele>396.94</ele>
        <time>2019-12-21T15:18:18Z</time>
      </trkpt>
      <trkpt lat="46.30026" lon="6.24395">
        <ele>397.89</ele>
        <time>2019-12-21T15:18:22Z</time>
      </trkpt>
      <trkpt lat="46.30003" lon="6.24399">
        <ele>399.34</ele>
        <time>2019-12-21T15:18:26Z</time>
      </trkpt>
      <trkpt lat="46.29981" lon="6.24403">
        <ele>400.71</ele>
        <time>2019-12-21T15:18:30Z</time>
      </trkpt>
      <trkpt lat="46.29958" lon="6.24405">
        <ele>401.63</ele>
        <time>2019-12-21T15:18:34Z</time>
      </trkpt>
      <trkpt lat="46.29936" lon="6.24407">
        <ele>402.33</ele>
        <time>2019-12-21T15:18:38Z</time>
      </trkpt>
      <trkpt lat="46.29914" lon="6.24408">
        <ele>402.13</ele>
        <time>2019-12-21T15:18:42Z</time>
      </trkpt>
      <trkpt lat="46.29888" lon="6.24406">
        <ele>402.4</ele>
        <time>2019-12-21T15:18:46Z</time>
      </trkpt>
      <trkpt lat="46.29866" lon="6.24401">
        <ele>402.04</ele>
        <time>2019-12-21T15:18:50Z</time>
      </trkpt>
      <trkpt lat="46.29844" lon="6.24397">
        <ele>402.23</ele>
        <time>2019-12-21T15:18:54Z</time>
      </trkpt>
      <trkpt lat="46.29823" lon="6.24391">
        <ele>402.62</ele>
        <time>2019-12-21T15:18:58Z</time>
      </trkpt>
      <trkpt lat="46.29803" lon="6.24385">
        <ele>403.35</ele>
        <time>2019-12-21T15:19:02Z</time>
      </trkpt>
      <trkpt lat="46.29781" lon="6.24381">
        <ele>403.74</ele>
        <time>2019-12-21T15:19:06Z</time>
      </trkpt>
      <trkpt lat="46.2976" lon="6.24374">
        <ele>403.47</ele>
        <time>2019-12-21T15:19:10Z</time>
      </trkpt>
      <trkpt lat="46.29741" lon="6.24367">
        <ele>403.72</ele>
        <time>2019-12-21T15:19:14Z</time>
      </trkpt>
      <trkpt lat="46.29721" lon="6.2436">
        <ele>404.21</ele>
        <time>2019-12-21T15:19:18Z</time>
      </trkpt>
      <trkpt lat="46.297" lon="6.24352">
        <ele>404.72</ele>
        <time>2019-12-21T15:19:22Z</time>
      </trkpt>
      <trkpt lat="46.29679" lon="6.24346">
        <ele>405.96</ele>
        <time>2019-12-21T15:19:26Z</time>
      </trkpt>
      <trkpt lat="46.29657" lon="6.24337">
        <ele>406.09</ele>
        <time>2019-12-21T15:19:30Z</time>
      </trkpt>
      <trkpt lat="46.29638" lon="6.24329">
        <ele>406.04</ele>
        <time>2019-12-21T15:19:34Z</time>
      </trkpt>
      <trkpt lat="46.29617" lon="6.2432">
        <ele>406.66</ele>
        <time>2019-12-21T15:19:38Z</time>
      </trkpt>
      <trkpt lat="46.29597" lon="6.24314">
        <ele>407.09</ele>
        <time>2019-12-21T15:19:42Z</time>
      </trkpt>
      <trkpt lat="46.29577" lon="6.24305">
        <ele>407.73</ele>
        <time>2019-12-21T15:19:46Z</time>
      </trkpt>
      <trkpt lat="46.29557" lon="6.24297">
        <ele>407.7</ele>
        <time>2019-12-21T15:19:50Z</time>
      </trkpt>
      <trkpt lat="46.29537" lon="6.2429">
        <ele>408.35</ele>
        <time>2019-12-21T15:19:54Z</time>
      </trkpt>
      <trkpt lat="46.29519" lon="6.24282">
        <ele>409.21</ele>
        <time>2019-12-21T15:19:58Z</time>
      </trkpt>
      <trkpt lat="46.29493" lon="6.2427">
        <ele>410.93</ele>
        <time>2019-12-21T15:20:04Z</time>
      </trkpt>
      <trkpt lat="46.29474" lon="6.24262">
        <ele>411.32</ele>
        <time>2019-12-21T15:20:08Z</time>
      </trkpt>
      <trkpt lat="46.29456" lon="6.24249">
        <ele>411.28</ele>
        <time>2019-12-21T15:20:12Z</time>
      </trkpt>
      <trkpt lat="46.29437" lon="6.24257">
        <ele>412.48</ele>
        <time>2019-12-21T15:20:18Z</time>
      </trkpt>
      <trkpt lat="46.29426" lon="6.24231">
        <ele>415.12</ele>
        <time>2019-12-21T15:20:42Z</time>
      </trkpt>
      <trkpt lat="46.29404" lon="6.24212">
        <ele>415.26</ele>
        <time>2019-12-21T15:20:48Z</time>
      </trkpt>
      <trkpt lat="46.29385" lon="6.24195">
        <ele>415.03</ele>
        <time>2019-12-21T15:20:52Z</time>
      </trkpt>
      <trkpt lat="46.29365" lon="6.24176">
        <ele>414.73</ele>
        <time>2019-12-21T15:20:56Z</time>
      </trkpt>
      <trkpt lat="46.29345" lon="6.24156">
        <ele>414.51</ele>
        <time>2019-12-21T15:21:00Z</time>
      </trkpt>
      <trkpt lat="46.29326" lon="6.24134">
        <ele>414.39</ele>
        <time>2019-12-21T15:21:04Z</time>
      </trkpt>
      <trkpt lat="46.29307" lon="6.24111">
        <ele>414.23</ele>
        <time>2019-12-21T15:21:08Z</time>
      </trkpt>
      <trkpt lat="46.29287" lon="6.24088">
        <ele>414.51</ele>
        <time>2019-12-21T15:21:12Z</time>
      </trkpt>
      <trkpt lat="46.29266" lon="6.24064">
        <ele>414.64</ele>
        <time>2019-12-21T15:21:16Z</time>
      </trkpt>
      <trkpt lat="46.29245" lon="6.24042">
        <ele>414.53</ele>
        <time>2019-12-21T15:21:20Z</time>
      </trkpt>
      <trkpt lat="46.29223" lon="6.24021">
        <ele>414.48</ele>
        <time>2019-12-21T15:21:24Z</time>
      </trkpt>
      <trkpt lat="46.292" lon="6.24">
        <ele>414.47</ele>
        <time>2019-12-21T15:21:28Z</time>
      </trkpt>
      <trkpt lat="46.29177" lon="6.23978">
        <ele>414.58</ele>
        <time>2019-12-21T15:21:32Z</time>
      </trkpt>
      <trkpt lat="46.29155" lon="6.23958">
        <ele>414.84</ele>
        <time>2019-12-21T15:21:36Z</time>
      </trkpt>
      <trkpt lat="46.29132" lon="6.23936">
        <ele>414.77</ele>
        <time>2019-12-21T15:21:40Z</time>
      </trkpt>
      <trkpt lat="46.29108" lon="6.23915">
        <ele>414.54</ele>
        <time>2019-12-21T15:21:44Z</time>
      </trkpt>
      <trkpt lat="46.29084" lon="6.23892">
        <ele>414.37</ele>
        <time>2019-12-21T15:21:48Z</time>
      </trkpt>
      <trkpt lat="46.29059" lon="6.23868">
        <ele>414.15</ele>
        <time>2019-12-21T15:21:52Z</time>
      </trkpt>
      <trkpt lat="46.29034" lon="6.23844">
        <ele>413.84</ele>
        <time>2019-12-21T15:21:56Z</time>
      </trkpt>
      <trkpt lat="46.29008" lon="6.23821">
        <ele>413.36</ele>
        <time>2019-12-21T15:22:00Z</time>
      </trkpt>
      <trkpt lat="46.28982" lon="6.23795">
        <ele>412.76</ele>
        <time>2019-12-21T15:22:04Z</time>
      </trkpt>
      <trkpt lat="46.28954" lon="6.23768">
        <ele>411.89</ele>
        <time>2019-12-21T15:22:08Z</time>
      </trkpt>
      <trkpt lat="46.28925" lon="6.2374">
        <ele>411.13</ele>
        <time>2019-12-21T15:22:12Z</time>
      </trkpt>
      <trkpt lat="46.28896" lon="6.23715">
        <ele>411.69</ele>
        <time>2019-12-21T15:22:16Z</time>
      </trkpt>
      <trkpt lat="46.28867" lon="6.23686">
        <ele>411.51</ele>
        <time>2019-12-21T15:22:20Z</time>
      </trkpt>
      <trkpt lat="46.2884" lon="6.23658">
        <ele>411.84</ele>
        <time>2019-12-21T15:22:24Z</time>
      </trkpt>
      <trkpt lat="46.28813" lon="6.2363">
        <ele>411.73</ele>
        <time>2019-12-21T15:22:28Z</time>
      </trkpt>
      <trkpt lat="46.28788" lon="6.236">
        <ele>412.19</ele>
        <time>2019-12-21T15:22:32Z</time>
      </trkpt>
      <trkpt lat="46.28765" lon="6.23569">
        <ele>412.5</ele>
        <time>2019-12-21T15:22:36Z</time>
      </trkpt>
      <trkpt lat="46.28744" lon="6.23535">
        <ele>412.47</ele>
        <time>2019-12-21T15:22:40Z</time>
      </trkpt>
      <trkpt lat="46.28723" lon="6.23505">
        <ele>412.19</ele>
        <time>2019-12-21T15:22:44Z</time>
      </trkpt>
      <trkpt lat="46.28702" lon="6.23471">
        <ele>412.49</ele>
        <time>2019-12-21T15:22:48Z</time>
      </trkpt>
      <trkpt lat="46.28682" lon="6.2344">
        <ele>413.36</ele>
        <time>2019-12-21T15:22:52Z</time>
      </trkpt>
      <trkpt lat="46.28661" lon="6.23408">
        <ele>414.3</ele>
        <time>2019-12-21T15:22:56Z</time>
      </trkpt>
      <trkpt lat="46.28642" lon="6.2337">
        <ele>413.96</ele>
        <time>2019-12-21T15:23:00Z</time>
      </trkpt>
      <trkpt lat="46.28623" lon="6.23333">
        <ele>413.92</ele>
        <time>2019-12-21T15:23:04Z</time>
      </trkpt>
      <trkpt lat="46.28605" lon="6.23296">
        <ele>413.87</ele>
        <time>2019-12-21T15:23:08Z</time>
      </trkpt>
      <trkpt lat="46.28587" lon="6.23261">
        <ele>414.38</ele>
        <time>2019-12-21T15:23:12Z</time>
      </trkpt>
      <trkpt lat="46.28568" lon="6.23222">
        <ele>414.65</ele>
        <time>2019-12-21T15:23:16Z</time>
      </trkpt>
      <trkpt lat="46.28551" lon="6.23184">
        <ele>414.43</ele>
        <time>2019-12-21T15:23:20Z</time>
      </trkpt>
      <trkpt lat="46.28533" lon="6.23148">
        <ele>413.42</ele>
        <time>2019-12-21T15:23:24Z</time>
      </trkpt>
      <trkpt lat="46.28512" lon="6.23115">
        <ele>413.25</ele>
        <time>2019-12-21T15:23:28Z</time>
      </trkpt>
      <trkpt lat="46.28488" lon="6.23085">
        <ele>412.77</ele>
        <time>2019-12-21T15:23:32Z</time>
      </trkpt>
      <trkpt lat="46.2846" lon="6.23057">
        <ele>412.16</ele>
        <time>2019-12-21T15:23:36Z</time>
      </trkpt>
      <trkpt lat="46.28431" lon="6.23029">
        <ele>411.69</ele>
        <time>2019-12-21T15:23:40Z</time>
      </trkpt>
      <trkpt lat="46.28401" lon="6.23">
        <ele>411</ele>
        <time>2019-12-21T15:23:44Z</time>
      </trkpt>
      <trkpt lat="46.28371" lon="6.22976">
        <ele>410.7</ele>
        <time>2019-12-21T15:23:48Z</time>
      </trkpt>
      <trkpt lat="46.2834" lon="6.22951">
        <ele>411.08</ele>
        <time>2019-12-21T15:23:52Z</time>
      </trkpt>
      <trkpt lat="46.28309" lon="6.22925">
        <ele>411.27</ele>
        <time>2019-12-21T15:23:56Z</time>
      </trkpt>
      <trkpt lat="46.28279" lon="6.229">
        <ele>410.64</ele>
        <time>2019-12-21T15:24:00Z</time>
      </trkpt>
      <trkpt lat="46.2825" lon="6.22875">
        <ele>410.86</ele>
        <time>2019-12-21T15:24:04Z</time>
      </trkpt>
      <trkpt lat="46.28222" lon="6.22852">
        <ele>411.24</ele>
        <time>2019-12-21T15:24:08Z</time>
      </trkpt>
      <trkpt lat="46.28196" lon="6.22828">
        <ele>411.77</ele>
        <time>2019-12-21T15:24:12Z</time>
      </trkpt>
      <trkpt lat="46.28172" lon="6.22806">
        <ele>412.09</ele>
        <time>2019-12-21T15:24:16Z</time>
      </trkpt>
      <trkpt lat="46.28149" lon="6.22784">
        <ele>412.29</ele>
        <time>2019-12-21T15:24:20Z</time>
      </trkpt>
      <trkpt lat="46.28128" lon="6.22763">
        <ele>412.81</ele>
        <time>2019-12-21T15:24:24Z</time>
      </trkpt>
      <trkpt lat="46.28107" lon="6.22744">
        <ele>413.31</ele>
        <time>2019-12-21T15:24:28Z</time>
      </trkpt>
      <trkpt lat="46.28086" lon="6.22726">
        <ele>413.82</ele>
        <time>2019-12-21T15:24:32Z</time>
      </trkpt>
      <trkpt lat="46.28065" lon="6.22708">
        <ele>414.2</ele>
        <time>2019-12-21T15:24:36Z</time>
      </trkpt>
      <trkpt lat="46.28045" lon="6.2269">
        <ele>414.79</ele>
        <time>2019-12-21T15:24:40Z</time>
      </trkpt>
      <trkpt lat="46.28024" lon="6.2267">
        <ele>414.89</ele>
        <time>2019-12-21T15:24:44Z</time>
      </trkpt>
      <trkpt lat="46.28005" lon="6.22648">
        <ele>414.77</ele>
        <time>2019-12-21T15:24:48Z</time>
      </trkpt>
      <trkpt lat="46.27983" lon="6.22626">
        <ele>414.81</ele>
        <time>2019-12-21T15:24:52Z</time>
      </trkpt>
      <trkpt lat="46.27962" lon="6.22601">
        <ele>415.12</ele>
        <time>2019-12-21T15:24:56Z</time>
      </trkpt>
      <trkpt lat="46.27941" lon="6.22577">
        <ele>415.12</ele>
        <time>2019-12-21T15:25:00Z</time>
      </trkpt>
      <trkpt lat="46.27921" lon="6.22554">
        <ele>415.44</ele>
        <time>2019-12-21T15:25:04Z</time>
      </trkpt>
      <trkpt lat="46.27902" lon="6.22533">
        <ele>415.81</ele>
        <time>2019-12-21T15:25:08Z</time>
      </trkpt>
      <trkpt lat="46.27883" lon="6.22512">
        <ele>416.12</ele>
        <time>2019-12-21T15:25:12Z</time>
      </trkpt>
      <trkpt lat="46.27865" lon="6.22493">
        <ele>416.76</ele>
        <time>2019-12-21T15:25:16Z</time>
      </trkpt>
      <trkpt lat="46.27847" lon="6.22475">
        <ele>416.95</ele>
        <time>2019-12-21T15:25:20Z</time>
      </trkpt>
      <trkpt lat="46.2783" lon="6.22458">
        <ele>417.01</ele>
        <time>2019-12-21T15:25:24Z</time>
      </trkpt>
      <trkpt lat="46.27811" lon="6.22439">
        <ele>417.99</ele>
        <time>2019-12-21T15:25:28Z</time>
      </trkpt>
      <trkpt lat="46.27793" lon="6.22422">
        <ele>418.95</ele>
        <time>2019-12-21T15:25:32Z</time>
      </trkpt>
      <trkpt lat="46.27775" lon="6.22406">
        <ele>419.3</ele>
        <time>2019-12-21T15:25:36Z</time>
      </trkpt>
      <trkpt lat="46.27755" lon="6.22388">
        <ele>419.54</ele>
        <time>2019-12-21T15:25:40Z</time>
      </trkpt>
      <trkpt lat="46.27737" lon="6.22371">
        <ele>420.12</ele>
        <time>2019-12-21T15:25:44Z</time>
      </trkpt>
      <trkpt lat="46.27719" lon="6.22352">
        <ele>420.89</ele>
        <time>2019-12-21T15:25:48Z</time>
      </trkpt>
      <trkpt lat="46.277" lon="6.22334">
        <ele>421.4</ele>
        <time>2019-12-21T15:25:52Z</time>
      </trkpt>
      <trkpt lat="46.27682" lon="6.22315">
        <ele>422.05</ele>
        <time>2019-12-21T15:25:56Z</time>
      </trkpt>
      <trkpt lat="46.27663" lon="6.22295">
        <ele>422.39</ele>
        <time>2019-12-21T15:26:00Z</time>
      </trkpt>
      <trkpt lat="46.27644" lon="6.22278">
        <ele>422.63</ele>
        <time>2019-12-21T15:26:04Z</time>
      </trkpt>
      <trkpt lat="46.27621" lon="6.22259">
        <ele>422.75</ele>
        <time>2019-12-21T15:26:08Z</time>
      </trkpt>
      <trkpt lat="46.27595" lon="6.22244">
        <ele>421.86</ele>
        <time>2019-12-21T15:26:12Z</time>
      </trkpt>
      <trkpt lat="46.27565" lon="6.22231">
        <ele>421.35</ele>
        <time>2019-12-21T15:26:16Z</time>
      </trkpt>
      <trkpt lat="46.27533" lon="6.22216">
        <ele>420.21</ele>
        <time>2019-12-21T15:26:20Z</time>
      </trkpt>
      <trkpt lat="46.27501" lon="6.222">
        <ele>419.55</ele>
        <time>2019-12-21T15:26:24Z</time>
      </trkpt>
      <trkpt lat="46.27468" lon="6.22181">
        <ele>418.62</ele>
        <time>2019-12-21T15:26:28Z</time>
      </trkpt>
      <trkpt lat="46.27451" lon="6.22172">
        <ele>418.48</ele>
        <time>2019-12-21T15:26:30Z</time>
      </trkpt>
      <trkpt lat="46.27434" lon="6.22163">
        <ele>418.49</ele>
        <time>2019-12-21T15:26:32Z</time>
      </trkpt>
      <trkpt lat="46.27417" lon="6.22153">
        <ele>418.38</ele>
        <time>2019-12-21T15:26:34Z</time>
      </trkpt>
      <trkpt lat="46.274" lon="6.2214">
        <ele>417.64</ele>
        <time>2019-12-21T15:26:36Z</time>
      </trkpt>
      <trkpt lat="46.27384" lon="6.22127">
        <ele>417.04</ele>
        <time>2019-12-21T15:26:38Z</time>
      </trkpt>
      <trkpt lat="46.27368" lon="6.22114">
        <ele>416.92</ele>
        <time>2019-12-21T15:26:40Z</time>
      </trkpt>
      <trkpt lat="46.27352" lon="6.22101">
        <ele>416.65</ele>
        <time>2019-12-21T15:26:42Z</time>
      </trkpt>
      <trkpt lat="46.27335" lon="6.2209">
        <ele>416.31</ele>
        <time>2019-12-21T15:26:44Z</time>
      </trkpt>
      <trkpt lat="46.27318" lon="6.22081">
        <ele>415.94</ele>
        <time>2019-12-21T15:26:46Z</time>
      </trkpt>
      <trkpt lat="46.27286" lon="6.22068">
        <ele>416.21</ele>
        <time>2019-12-21T15:26:50Z</time>
      </trkpt>
      <trkpt lat="46.27269" lon="6.22058">
        <ele>415.78</ele>
        <time>2019-12-21T15:26:52Z</time>
      </trkpt>
      <trkpt lat="46.27252" lon="6.22048">
        <ele>415.3</ele>
        <time>2019-12-21T15:26:54Z</time>
      </trkpt>
      <trkpt lat="46.27235" lon="6.22038">
        <ele>415.02</ele>
        <time>2019-12-21T15:26:56Z</time>
      </trkpt>
      <trkpt lat="46.27219" lon="6.22025">
        <ele>414.5</ele>
        <time>2019-12-21T15:26:58Z</time>
      </trkpt>
      <trkpt lat="46.27202" lon="6.22012">
        <ele>414.15</ele>
        <time>2019-12-21T15:27:00Z</time>
      </trkpt>
      <trkpt lat="46.27186" lon="6.21997">
        <ele>413.61</ele>
        <time>2019-12-21T15:27:02Z</time>
      </trkpt>
      <trkpt lat="46.27169" lon="6.21984">
        <ele>413.12</ele>
        <time>2019-12-21T15:27:04Z</time>
      </trkpt>
      <trkpt lat="46.27153" lon="6.2197">
        <ele>412.45</ele>
        <time>2019-12-21T15:27:06Z</time>
      </trkpt>
      <trkpt lat="46.27136" lon="6.21955">
        <ele>411.92</ele>
        <time>2019-12-21T15:27:08Z</time>
      </trkpt>
      <trkpt lat="46.2712" lon="6.2194">
        <ele>411.38</ele>
        <time>2019-12-21T15:27:10Z</time>
      </trkpt>
      <trkpt lat="46.27103" lon="6.21925">
        <ele>411.02</ele>
        <time>2019-12-21T15:27:12Z</time>
      </trkpt>
      <trkpt lat="46.27086" lon="6.21911">
        <ele>410.78</ele>
        <time>2019-12-21T15:27:14Z</time>
      </trkpt>
      <trkpt lat="46.27068" lon="6.21898">
        <ele>410.53</ele>
        <time>2019-12-21T15:27:16Z</time>
      </trkpt>
      <trkpt lat="46.27052" lon="6.21883">
        <ele>410.4</ele>
        <time>2019-12-21T15:27:18Z</time>
      </trkpt>
      <trkpt lat="46.27036" lon="6.21869">
        <ele>410.17</ele>
        <time>2019-12-21T15:27:20Z</time>
      </trkpt>
      <trkpt lat="46.27005" lon="6.21843">
        <ele>410.01</ele>
        <time>2019-12-21T15:27:24Z</time>
      </trkpt>
      <trkpt lat="46.26989" lon="6.2183">
        <ele>409.84</ele>
        <time>2019-12-21T15:27:26Z</time>
      </trkpt>
      <trkpt lat="46.26972" lon="6.21819">
        <ele>409.6</ele>
        <time>2019-12-21T15:27:28Z</time>
      </trkpt>
      <trkpt lat="46.26954" lon="6.2181">
        <ele>409.08</ele>
        <time>2019-12-21T15:27:30Z</time>
      </trkpt>
      <trkpt lat="46.26921" lon="6.21797">
        <ele>408.74</ele>
        <time>2019-12-21T15:27:34Z</time>
      </trkpt>
      <trkpt lat="46.26891" lon="6.21782">
        <ele>408.53</ele>
        <time>2019-12-21T15:27:38Z</time>
      </trkpt>
      <trkpt lat="46.26862" lon="6.21768">
        <ele>407.61</ele>
        <time>2019-12-21T15:27:42Z</time>
      </trkpt>
      <trkpt lat="46.26833" lon="6.21753">
        <ele>407.37</ele>
        <time>2019-12-21T15:27:46Z</time>
      </trkpt>
      <trkpt lat="46.26805" lon="6.21739">
        <ele>407.61</ele>
        <time>2019-12-21T15:27:50Z</time>
      </trkpt>
      <trkpt lat="46.26778" lon="6.21725">
        <ele>408.04</ele>
        <time>2019-12-21T15:27:54Z</time>
      </trkpt>
      <trkpt lat="46.26751" lon="6.21712">
        <ele>408.58</ele>
        <time>2019-12-21T15:27:58Z</time>
      </trkpt>
      <trkpt lat="46.26727" lon="6.217">
        <ele>409.33</ele>
        <time>2019-12-21T15:28:02Z</time>
      </trkpt>
      <trkpt lat="46.26702" lon="6.21685">
        <ele>409.74</ele>
        <time>2019-12-21T15:28:06Z</time>
      </trkpt>
      <trkpt lat="46.2668" lon="6.21667">
        <ele>410.35</ele>
        <time>2019-12-21T15:28:10Z</time>
      </trkpt>
      <trkpt lat="46.26657" lon="6.21649">
        <ele>411.07</ele>
        <time>2019-12-21T15:28:14Z</time>
      </trkpt>
      <trkpt lat="46.26635" lon="6.21632">
        <ele>412.16</ele>
        <time>2019-12-21T15:28:18Z</time>
      </trkpt>
      <trkpt lat="46.26614" lon="6.21613">
        <ele>412.94</ele>
        <time>2019-12-21T15:28:22Z</time>
      </trkpt>
      <trkpt lat="46.26592" lon="6.21596">
        <ele>413.15</ele>
        <time>2019-12-21T15:28:26Z</time>
      </trkpt>
      <trkpt lat="46.26568" lon="6.21579">
        <ele>413.07</ele>
        <time>2019-12-21T15:28:30Z</time>
      </trkpt>
      <trkpt lat="46.26547" lon="6.21561">
        <ele>412.91</ele>
        <time>2019-12-21T15:28:34Z</time>
      </trkpt>
      <trkpt lat="46.26527" lon="6.2154">
        <ele>413.04</ele>
        <time>2019-12-21T15:28:38Z</time>
      </trkpt>
      <trkpt lat="46.26508" lon="6.21519">
        <ele>413.65</ele>
        <time>2019-12-21T15:28:42Z</time>
      </trkpt>
      <trkpt lat="46.2649" lon="6.21499">
        <ele>414.22</ele>
        <time>2019-12-21T15:28:46Z</time>
      </trkpt>
      <trkpt lat="46.26471" lon="6.21477">
        <ele>414.85</ele>
        <time>2019-12-21T15:28:50Z</time>
      </trkpt>
      <trkpt lat="46.26452" lon="6.21458">
        <ele>415.53</ele>
        <time>2019-12-21T15:28:54Z</time>
      </trkpt>
      <trkpt lat="46.26432" lon="6.21439">
        <ele>415.68</ele>
        <time>2019-12-21T15:28:58Z</time>
      </trkpt>
      <trkpt lat="46.26409" lon="6.21422">
        <ele>415.19</ele>
        <time>2019-12-21T15:29:02Z</time>
      </trkpt>
      <trkpt lat="46.26384" lon="6.21406">
        <ele>414.8</ele>
        <time>2019-12-21T15:29:06Z</time>
      </trkpt>
      <trkpt lat="46.26359" lon="6.21392">
        <ele>415.31</ele>
        <time>2019-12-21T15:29:10Z</time>
      </trkpt>
      <trkpt lat="46.26334" lon="6.21378">
        <ele>415.73</ele>
        <time>2019-12-21T15:29:14Z</time>
      </trkpt>
      <trkpt lat="46.26308" lon="6.21364">
        <ele>415.94</ele>
        <time>2019-12-21T15:29:18Z</time>
      </trkpt>
      <trkpt lat="46.26282" lon="6.21352">
        <ele>416.54</ele>
        <time>2019-12-21T15:29:22Z</time>
      </trkpt>
      <trkpt lat="46.26257" lon="6.2134">
        <ele>417.01</ele>
        <time>2019-12-21T15:29:26Z</time>
      </trkpt>
      <trkpt lat="46.26231" lon="6.2133">
        <ele>417.5</ele>
        <time>2019-12-21T15:29:30Z</time>
      </trkpt>
      <trkpt lat="46.26205" lon="6.21319">
        <ele>418.14</ele>
        <time>2019-12-21T15:29:34Z</time>
      </trkpt>
      <trkpt lat="46.2618" lon="6.21307">
        <ele>418.44</ele>
        <time>2019-12-21T15:29:38Z</time>
      </trkpt>
      <trkpt lat="46.26155" lon="6.21297">
        <ele>418.92</ele>
        <time>2019-12-21T15:29:42Z</time>
      </trkpt>
      <trkpt lat="46.26131" lon="6.21287">
        <ele>419.17</ele>
        <time>2019-12-21T15:29:46Z</time>
      </trkpt>
      <trkpt lat="46.26105" lon="6.21279">
        <ele>419.57</ele>
        <time>2019-12-21T15:29:50Z</time>
      </trkpt>
      <trkpt lat="46.2608" lon="6.21271">
        <ele>419.83</ele>
        <time>2019-12-21T15:29:54Z</time>
      </trkpt>
      <trkpt lat="46.26055" lon="6.21264">
        <ele>419.81</ele>
        <time>2019-12-21T15:29:58Z</time>
      </trkpt>
      <trkpt lat="46.2603" lon="6.21256">
        <ele>419.9</ele>
        <time>2019-12-21T15:30:02Z</time>
      </trkpt>
      <trkpt lat="46.26004" lon="6.21248">
        <ele>419.8</ele>
        <time>2019-12-21T15:30:06Z</time>
      </trkpt>
      <trkpt lat="46.25979" lon="6.21239">
        <ele>419.8</ele>
        <time>2019-12-21T15:30:10Z</time>
      </trkpt>
      <trkpt lat="46.25955" lon="6.21223">
        <ele>420.18</ele>
        <time>2019-12-21T15:30:14Z</time>
      </trkpt>
      <trkpt lat="46.25934" lon="6.21202">
        <ele>420.41</ele>
        <time>2019-12-21T15:30:18Z</time>
      </trkpt>
      <trkpt lat="46.25915" lon="6.21176">
        <ele>420.71</ele>
        <time>2019-12-21T15:30:22Z</time>
      </trkpt>
      <trkpt lat="46.259" lon="6.21146">
        <ele>421.1</ele>
        <time>2019-12-21T15:30:26Z</time>
      </trkpt>
      <trkpt lat="46.25889" lon="6.21113">
        <ele>421.53</ele>
        <time>2019-12-21T15:30:30Z</time>
      </trkpt>
      <trkpt lat="46.25879" lon="6.21078">
        <ele>421.93</ele>
        <time>2019-12-21T15:30:34Z</time>
      </trkpt>
      <trkpt lat="46.25869" lon="6.21043">
        <ele>422.2</ele>
        <time>2019-12-21T15:30:38Z</time>
      </trkpt>
      <trkpt lat="46.25857" lon="6.21011">
        <ele>422.59</ele>
        <time>2019-12-21T15:30:42Z</time>
      </trkpt>
      <trkpt lat="46.25842" lon="6.2098">
        <ele>423.45</ele>
        <time>2019-12-21T15:30:46Z</time>
      </trkpt>
      <trkpt lat="46.25825" lon="6.20952">
        <ele>423.75</ele>
        <time>2019-12-21T15:30:50Z</time>
      </trkpt>
      <trkpt lat="46.25806" lon="6.20925">
        <ele>423.51</ele>
        <time>2019-12-21T15:30:54Z</time>
      </trkpt>
      <trkpt lat="46.25785" lon="6.209">
        <ele>423.67</ele>
        <time>2019-12-21T15:30:58Z</time>
      </trkpt>
      <trkpt lat="46.25765" lon="6.20876">
        <ele>424.16</ele>
        <time>2019-12-21T15:31:02Z</time>
      </trkpt>
      <trkpt lat="46.25745" lon="6.20854">
        <ele>424.46</ele>
        <time>2019-12-21T15:31:06Z</time>
      </trkpt>
      <trkpt lat="46.25725" lon="6.20831">
        <ele>424.87</ele>
        <time>2019-12-21T15:31:10Z</time>
      </trkpt>
      <trkpt lat="46.25707" lon="6.2081">
        <ele>425.2</ele>
        <time>2019-12-21T15:31:14Z</time>
      </trkpt>
      <trkpt lat="46.25691" lon="6.20792">
        <ele>425.35</ele>
        <time>2019-12-21T15:31:18Z</time>
      </trkpt>
      <trkpt lat="46.25675" lon="6.20775">
        <ele>425.26</ele>
        <time>2019-12-21T15:31:22Z</time>
      </trkpt>
      <trkpt lat="46.25653" lon="6.20775">
        <ele>424.8</ele>
        <time>2019-12-21T15:31:28Z</time>
      </trkpt>
      <trkpt lat="46.25646" lon="6.20801">
        <ele>424.3</ele>
        <time>2019-12-21T15:31:32Z</time>
      </trkpt>
      <trkpt lat="46.25639" lon="6.20832">
        <ele>424.3</ele>
        <time>2019-12-21T15:31:36Z</time>
      </trkpt>
      <trkpt lat="46.25633" lon="6.20865">
        <ele>424.55</ele>
        <time>2019-12-21T15:31:40Z</time>
      </trkpt>
      <trkpt lat="46.25626" lon="6.20895">
        <ele>424.93</ele>
        <time>2019-12-21T15:31:44Z</time>
      </trkpt>
      <trkpt lat="46.25616" lon="6.20925">
        <ele>425.47</ele>
        <time>2019-12-21T15:31:48Z</time>
      </trkpt>
      <trkpt lat="46.25604" lon="6.20953">
        <ele>425.51</ele>
        <time>2019-12-21T15:31:52Z</time>
      </trkpt>
      <trkpt lat="46.25592" lon="6.20979">
        <ele>425.78</ele>
        <time>2019-12-21T15:31:56Z</time>
      </trkpt>
      <trkpt lat="46.2558" lon="6.21001">
        <ele>426.28</ele>
        <time>2019-12-21T15:32:00Z</time>
      </trkpt>
      <trkpt lat="46.25569" lon="6.21024">
        <ele>427.01</ele>
        <time>2019-12-21T15:32:04Z</time>
      </trkpt>
      <trkpt lat="46.25558" lon="6.21045">
        <ele>427.67</ele>
        <time>2019-12-21T15:32:08Z</time>
      </trkpt>
      <trkpt lat="46.25544" lon="6.21075">
        <ele>428.83</ele>
        <time>2019-12-21T15:32:14Z</time>
      </trkpt>
      <trkpt lat="46.25532" lon="6.21106">
        <ele>430.12</ele>
        <time>2019-12-21T15:32:20Z</time>
      </trkpt>
      <trkpt lat="46.25522" lon="6.21137">
        <ele>431.21</ele>
        <time>2019-12-21T15:32:26Z</time>
      </trkpt>
      <trkpt lat="46.25512" lon="6.21168">
        <ele>432.27</ele>
        <time>2019-12-21T15:32:32Z</time>
      </trkpt>
      <trkpt lat="46.25503" lon="6.21198">
        <ele>433.37</ele>
        <time>2019-12-21T15:32:38Z</time>
      </trkpt>
      <trkpt lat="46.25494" lon="6.21225">
        <ele>434.62</ele>
        <time>2019-12-21T15:32:44Z</time>
      </trkpt>
      <trkpt lat="46.25485" lon="6.21252">
        <ele>435.68</ele>
        <time>2019-12-21T15:32:50Z</time>
      </trkpt>
      <trkpt lat="46.25477" lon="6.2128">
        <ele>437.22</ele>
        <time>2019-12-21T15:32:56Z</time>
      </trkpt>
      <trkpt lat="46.2547" lon="6.21306">
        <ele>438.36</ele>
        <time>2019-12-21T15:33:02Z</time>
      </trkpt>
      <trkpt lat="46.25462" lon="6.21334">
        <ele>439.57</ele>
        <time>2019-12-21T15:33:08Z</time>
      </trkpt>
      <trkpt lat="46.25454" lon="6.21361">
        <ele>440.55</ele>
        <time>2019-12-21T15:33:14Z</time>
      </trkpt>
      <trkpt lat="46.25447" lon="6.21388">
        <ele>441.34</ele>
        <time>2019-12-21T15:33:20Z</time>
      </trkpt>
      <trkpt lat="46.25439" lon="6.21415">
        <ele>442.65</ele>
        <time>2019-12-21T15:33:26Z</time>
      </trkpt>
      <trkpt lat="46.25433" lon="6.21443">
        <ele>443.66</ele>
        <time>2019-12-21T15:33:32Z</time>
      </trkpt>
      <trkpt lat="46.25431" lon="6.2147">
        <ele>445.1</ele>
        <time>2019-12-21T15:33:38Z</time>
      </trkpt>
      <trkpt lat="46.25426" lon="6.21496">
        <ele>446.74</ele>
        <time>2019-12-21T15:33:44Z</time>
      </trkpt>
      <trkpt lat="46.25414" lon="6.21519">
        <ele>448.28</ele>
        <time>2019-12-21T15:33:50Z</time>
      </trkpt>
      <trkpt lat="46.25399" lon="6.21536">
        <ele>450.41</ele>
        <time>2019-12-21T15:33:56Z</time>
      </trkpt>
      <trkpt lat="46.2538" lon="6.21555">
        <ele>451.09</ele>
        <time>2019-12-21T15:34:02Z</time>
      </trkpt>
      <trkpt lat="46.25366" lon="6.21574">
        <ele>452.52</ele>
        <time>2019-12-21T15:34:08Z</time>
      </trkpt>
      <trkpt lat="46.25357" lon="6.21599">
        <ele>453.96</ele>
        <time>2019-12-21T15:34:14Z</time>
      </trkpt>
      <trkpt lat="46.2535" lon="6.21624">
        <ele>455.58</ele>
        <time>2019-12-21T15:34:20Z</time>
      </trkpt>
      <trkpt lat="46.25344" lon="6.21652">
        <ele>457.42</ele>
        <time>2019-12-21T15:34:26Z</time>
      </trkpt>
      <trkpt lat="46.25328" lon="6.21676">
        <ele>458.04</ele>
        <time>2019-12-21T15:34:32Z</time>
      </trkpt>
      <trkpt lat="46.25307" lon="6.21698">
        <ele>457.55</ele>
        <time>2019-12-21T15:34:38Z</time>
      </trkpt>
      <trkpt lat="46.2529" lon="6.21717">
        <ele>456.5</ele>
        <time>2019-12-21T15:34:42Z</time>
      </trkpt>
      <trkpt lat="46.25271" lon="6.21738">
        <ele>455.65</ele>
        <time>2019-12-21T15:34:46Z</time>
      </trkpt>
      <trkpt lat="46.2525" lon="6.21759">
        <ele>454.93</ele>
        <time>2019-12-21T15:34:50Z</time>
      </trkpt>
      <trkpt lat="46.25232" lon="6.21782">
        <ele>454.46</ele>
        <time>2019-12-21T15:34:54Z</time>
      </trkpt>
      <trkpt lat="46.25213" lon="6.21806">
        <ele>454.39</ele>
        <time>2019-12-21T15:34:58Z</time>
      </trkpt>
      <trkpt lat="46.25196" lon="6.2183">
        <ele>454.78</ele>
        <time>2019-12-21T15:35:02Z</time>
      </trkpt>
      <trkpt lat="46.25182" lon="6.21853">
        <ele>455.44</ele>
        <time>2019-12-21T15:35:06Z</time>
      </trkpt>
      <trkpt lat="46.25167" lon="6.21878">
        <ele>456.22</ele>
        <time>2019-12-21T15:35:10Z</time>
      </trkpt>
      <trkpt lat="46.25152" lon="6.21902">
        <ele>456.69</ele>
        <time>2019-12-21T15:35:14Z</time>
      </trkpt>
      <trkpt lat="46.25137" lon="6.21926">
        <ele>456.73</ele>
        <time>2019-12-21T15:35:18Z</time>
      </trkpt>
      <trkpt lat="46.25121" lon="6.2195">
        <ele>456.7</ele>
        <time>2019-12-21T15:35:22Z</time>
      </trkpt>
      <trkpt lat="46.25108" lon="6.21968">
        <ele>456.64</ele>
        <time>2019-12-21T15:35:26Z</time>
      </trkpt>
      <trkpt lat="46.25088" lon="6.21961">
        <ele>456.68</ele>
        <time>2019-12-21T15:35:32Z</time>
      </trkpt>
      <trkpt lat="46.2507" lon="6.21945">
        <ele>456.57</ele>
        <time>2019-12-21T15:35:36Z</time>
      </trkpt>
      <trkpt lat="46.2505" lon="6.2193">
        <ele>456.85</ele>
        <time>2019-12-21T15:35:40Z</time>
      </trkpt>
      <trkpt lat="46.25029" lon="6.21913">
        <ele>457.32</ele>
        <time>2019-12-21T15:35:44Z</time>
      </trkpt>
      <trkpt lat="46.25009" lon="6.21895">
        <ele>458.02</ele>
        <time>2019-12-21T15:35:48Z</time>
      </trkpt>
      <trkpt lat="46.24989" lon="6.21876">
        <ele>458.16</ele>
        <time>2019-12-21T15:35:52Z</time>
      </trkpt>
      <trkpt lat="46.2497" lon="6.21858">
        <ele>458.68</ele>
        <time>2019-12-21T15:35:56Z</time>
      </trkpt>
      <trkpt lat="46.24951" lon="6.21839">
        <ele>459.11</ele>
        <time>2019-12-21T15:36:00Z</time>
      </trkpt>
      <trkpt lat="46.24931" lon="6.21819">
        <ele>459.12</ele>
        <time>2019-12-21T15:36:04Z</time>
      </trkpt>
      <trkpt lat="46.24911" lon="6.21799">
        <ele>458.88</ele>
        <time>2019-12-21T15:36:08Z</time>
      </trkpt>
      <trkpt lat="46.24891" lon="6.21776">
        <ele>458.54</ele>
        <time>2019-12-21T15:36:12Z</time>
      </trkpt>
      <trkpt lat="46.2487" lon="6.21753">
        <ele>458.57</ele>
        <time>2019-12-21T15:36:16Z</time>
      </trkpt>
      <trkpt lat="46.2485" lon="6.21726">
        <ele>458.23</ele>
        <time>2019-12-21T15:36:20Z</time>
      </trkpt>
      <trkpt lat="46.24834" lon="6.21693">
        <ele>457.34</ele>
        <time>2019-12-21T15:36:24Z</time>
      </trkpt>
      <trkpt lat="46.24815" lon="6.21689">
        <ele>457.46</ele>
        <time>2019-12-21T15:36:28Z</time>
      </trkpt>
      <trkpt lat="46.2479" lon="6.21689">
        <ele>457.15</ele>
        <time>2019-12-21T15:36:34Z</time>
      </trkpt>
      <trkpt lat="46.2477" lon="6.21682">
        <ele>457</ele>
        <time>2019-12-21T15:36:38Z</time>
      </trkpt>
      <trkpt lat="46.24756" lon="6.21708">
        <ele>456.36</ele>
        <time>2019-12-21T15:36:42Z</time>
      </trkpt>
      <trkpt lat="46.24748" lon="6.2174">
        <ele>455.89</ele>
        <time>2019-12-21T15:36:46Z</time>
      </trkpt>
      <trkpt lat="46.24735" lon="6.21772">
        <ele>455.32</ele>
        <time>2019-12-21T15:36:50Z</time>
      </trkpt>
      <trkpt lat="46.24721" lon="6.21806">
        <ele>455.11</ele>
        <time>2019-12-21T15:36:54Z</time>
      </trkpt>
      <trkpt lat="46.24707" lon="6.21841">
        <ele>454.84</ele>
        <time>2019-12-21T15:36:58Z</time>
      </trkpt>
      <trkpt lat="46.24692" lon="6.21878">
        <ele>454.53</ele>
        <time>2019-12-21T15:37:02Z</time>
      </trkpt>
      <trkpt lat="46.24677" lon="6.21914">
        <ele>454.16</ele>
        <time>2019-12-21T15:37:06Z</time>
      </trkpt>
      <trkpt lat="46.24663" lon="6.21949">
        <ele>454.18</ele>
        <time>2019-12-21T15:37:10Z</time>
      </trkpt>
      <trkpt lat="46.24647" lon="6.21984">
        <ele>454.65</ele>
        <time>2019-12-21T15:37:14Z</time>
      </trkpt>
      <trkpt lat="46.24632" lon="6.22021">
        <ele>454.24</ele>
        <time>2019-12-21T15:37:18Z</time>
      </trkpt>
      <trkpt lat="46.24618" lon="6.22056">
        <ele>453.98</ele>
        <time>2019-12-21T15:37:22Z</time>
      </trkpt>
      <trkpt lat="46.24605" lon="6.22089">
        <ele>452.94</ele>
        <time>2019-12-21T15:37:26Z</time>
      </trkpt>
      <trkpt lat="46.24592" lon="6.2212">
        <ele>453.3</ele>
        <time>2019-12-21T15:37:30Z</time>
      </trkpt>
      <trkpt lat="46.24579" lon="6.22148">
        <ele>453.73</ele>
        <time>2019-12-21T15:37:34Z</time>
      </trkpt>
      <trkpt lat="46.24567" lon="6.22178">
        <ele>453.44</ele>
        <time>2019-12-21T15:37:38Z</time>
      </trkpt>
      <trkpt lat="46.24556" lon="6.22206">
        <ele>453.68</ele>
        <time>2019-12-21T15:37:42Z</time>
      </trkpt>
      <trkpt lat="46.24544" lon="6.22233">
        <ele>454.23</ele>
        <time>2019-12-21T15:37:46Z</time>
      </trkpt>
      <trkpt lat="46.24533" lon="6.22259">
        <ele>455.57</ele>
        <time>2019-12-21T15:37:50Z</time>
      </trkpt>
      <trkpt lat="46.24522" lon="6.22284">
        <ele>456.53</ele>
        <time>2019-12-21T15:37:54Z</time>
      </trkpt>
      <trkpt lat="46.24512" lon="6.22306">
        <ele>456.95</ele>
        <time>2019-12-21T15:37:58Z</time>
      </trkpt>
      <trkpt lat="46.24502" lon="6.22329">
        <ele>457.45</ele>
        <time>2019-12-21T15:38:02Z</time>
      </trkpt>
      <trkpt lat="46.24492" lon="6.22351">
        <ele>457.45</ele>
        <time>2019-12-21T15:38:06Z</time>
      </trkpt>
      <trkpt lat="46.24482" lon="6.22373">
        <ele>458.2</ele>
        <time>2019-12-21T15:38:10Z</time>
      </trkpt>
      <trkpt lat="46.2447" lon="6.22396">
        <ele>458.01</ele>
        <time>2019-12-21T15:38:14Z</time>
      </trkpt>
      <trkpt lat="46.24453" lon="6.22418">
        <ele>458.08</ele>
        <time>2019-12-21T15:38:18Z</time>
      </trkpt>
      <trkpt lat="46.24434" lon="6.22441">
        <ele>457.69</ele>
        <time>2019-12-21T15:38:22Z</time>
      </trkpt>
      <trkpt lat="46.24413" lon="6.22465">
        <ele>456.94</ele>
        <time>2019-12-21T15:38:26Z</time>
      </trkpt>
      <trkpt lat="46.24391" lon="6.22494">
        <ele>456.03</ele>
        <time>2019-12-21T15:38:30Z</time>
      </trkpt>
      <trkpt lat="46.24375" lon="6.2253">
        <ele>455.26</ele>
        <time>2019-12-21T15:38:34Z</time>
      </trkpt>
      <trkpt lat="46.24362" lon="6.22568">
        <ele>454.56</ele>
        <time>2019-12-21T15:38:38Z</time>
      </trkpt>
      <trkpt lat="46.24351" lon="6.22595">
        <ele>453.66</ele>
        <time>2019-12-21T15:38:42Z</time>
      </trkpt>
      <trkpt lat="46.24346" lon="6.22622">
        <ele>453.98</ele>
        <time>2019-12-21T15:38:52Z</time>
      </trkpt>
      <trkpt lat="46.24326" lon="6.22644">
        <ele>455.76</ele>
        <time>2019-12-21T15:39:02Z</time>
      </trkpt>
      <trkpt lat="46.24316" lon="6.22668">
        <ele>454.89</ele>
        <time>2019-12-21T15:39:06Z</time>
      </trkpt>
      <trkpt lat="46.24305" lon="6.22696">
        <ele>453.8</ele>
        <time>2019-12-21T15:39:10Z</time>
      </trkpt>
      <trkpt lat="46.24293" lon="6.22726">
        <ele>452.84</ele>
        <time>2019-12-21T15:39:14Z</time>
      </trkpt>
      <trkpt lat="46.24281" lon="6.22757">
        <ele>453.07</ele>
        <time>2019-12-21T15:39:18Z</time>
      </trkpt>
      <trkpt lat="46.24268" lon="6.2279">
        <ele>453.27</ele>
        <time>2019-12-21T15:39:22Z</time>
      </trkpt>
      <trkpt lat="46.24255" lon="6.22823">
        <ele>453.01</ele>
        <time>2019-12-21T15:39:26Z</time>
      </trkpt>
      <trkpt lat="46.24241" lon="6.22856">
        <ele>452.83</ele>
        <time>2019-12-21T15:39:30Z</time>
      </trkpt>
      <trkpt lat="46.24227" lon="6.2289">
        <ele>452.53</ele>
        <time>2019-12-21T15:39:34Z</time>
      </trkpt>
      <trkpt lat="46.24213" lon="6.22924">
        <ele>452.46</ele>
        <time>2019-12-21T15:39:38Z</time>
      </trkpt>
      <trkpt lat="46.24199" lon="6.22959">
        <ele>452.18</ele>
        <time>2019-12-21T15:39:42Z</time>
      </trkpt>
      <trkpt lat="46.24185" lon="6.22993">
        <ele>451.96</ele>
        <time>2019-12-21T15:39:46Z</time>
      </trkpt>
      <trkpt lat="46.24172" lon="6.23027">
        <ele>451.79</ele>
        <time>2019-12-21T15:39:50Z</time>
      </trkpt>
      <trkpt lat="46.24158" lon="6.23062">
        <ele>451.68</ele>
        <time>2019-12-21T15:39:54Z</time>
      </trkpt>
      <trkpt lat="46.24144" lon="6.23096">
        <ele>451.55</ele>
        <time>2019-12-21T15:39:58Z</time>
      </trkpt>
      <trkpt lat="46.24131" lon="6.23129">
        <ele>451.09</ele>
        <time>2019-12-21T15:40:02Z</time>
      </trkpt>
      <trkpt lat="46.24119" lon="6.23161">
        <ele>450.89</ele>
        <time>2019-12-21T15:40:06Z</time>
      </trkpt>
      <trkpt lat="46.24105" lon="6.23193">
        <ele>450.67</ele>
        <time>2019-12-21T15:40:10Z</time>
      </trkpt>
      <trkpt lat="46.24092" lon="6.23225">
        <ele>450.48</ele>
        <time>2019-12-21T15:40:14Z</time>
      </trkpt>
      <trkpt lat="46.24079" lon="6.23259">
        <ele>450.2</ele>
        <time>2019-12-21T15:40:18Z</time>
      </trkpt>
      <trkpt lat="46.24065" lon="6.23293">
        <ele>450.14</ele>
        <time>2019-12-21T15:40:22Z</time>
      </trkpt>
      <trkpt lat="46.24051" lon="6.23327">
        <ele>450.16</ele>
        <time>2019-12-21T15:40:26Z</time>
      </trkpt>
      <trkpt lat="46.24038" lon="6.23361">
        <ele>450.25</ele>
        <time>2019-12-21T15:40:30Z</time>
      </trkpt>
      <trkpt lat="46.24024" lon="6.23394">
        <ele>450.31</ele>
        <time>2019-12-21T15:40:34Z</time>
      </trkpt>
      <trkpt lat="46.24011" lon="6.23426">
        <ele>450.43</ele>
        <time>2019-12-21T15:40:38Z</time>
      </trkpt>
      <trkpt lat="46.23998" lon="6.23458">
        <ele>450.66</ele>
        <time>2019-12-21T15:40:42Z</time>
      </trkpt>
      <trkpt lat="46.23986" lon="6.23489">
        <ele>450.96</ele>
        <time>2019-12-21T15:40:46Z</time>
      </trkpt>
      <trkpt lat="46.23975" lon="6.23518">
        <ele>451.21</ele>
        <time>2019-12-21T15:40:50Z</time>
      </trkpt>
      <trkpt lat="46.23964" lon="6.23541">
        <ele>451.44</ele>
        <time>2019-12-21T15:40:54Z</time>
      </trkpt>
      <trkpt lat="46.23954" lon="6.23577">
        <ele>451.76</ele>
        <time>2019-12-21T15:41:00Z</time>
      </trkpt>
      <trkpt lat="46.23944" lon="6.23608">
        <ele>451.56</ele>
        <time>2019-12-21T15:41:04Z</time>
      </trkpt>
      <trkpt lat="46.23933" lon="6.23641">
        <ele>451.2</ele>
        <time>2019-12-21T15:41:08Z</time>
      </trkpt>
      <trkpt lat="46.23922" lon="6.23675">
        <ele>451.2</ele>
        <time>2019-12-21T15:41:12Z</time>
      </trkpt>
      <trkpt lat="46.2391" lon="6.23712">
        <ele>450.37</ele>
        <time>2019-12-21T15:41:16Z</time>
      </trkpt>
      <trkpt lat="46.23897" lon="6.23751">
        <ele>449.53</ele>
        <time>2019-12-21T15:41:20Z</time>
      </trkpt>
      <trkpt lat="46.23885" lon="6.23789">
        <ele>449.09</ele>
        <time>2019-12-21T15:41:24Z</time>
      </trkpt>
      <trkpt lat="46.23873" lon="6.23828">
        <ele>449</ele>
        <time>2019-12-21T15:41:28Z</time>
      </trkpt>
      <trkpt lat="46.23861" lon="6.23866">
        <ele>449.1</ele>
        <time>2019-12-21T15:41:32Z</time>
      </trkpt>
      <trkpt lat="46.23849" lon="6.23903">
        <ele>449.4</ele>
        <time>2019-12-21T15:41:36Z</time>
      </trkpt>
      <trkpt lat="46.23838" lon="6.23938">
        <ele>449.68</ele>
        <time>2019-12-21T15:41:40Z</time>
      </trkpt>
      <trkpt lat="46.23827" lon="6.23974">
        <ele>449.86</ele>
        <time>2019-12-21T15:41:44Z</time>
      </trkpt>
      <trkpt lat="46.23816" lon="6.24008">
        <ele>449.8</ele>
        <time>2019-12-21T15:41:48Z</time>
      </trkpt>
      <trkpt lat="46.23805" lon="6.24043">
        <ele>450.13</ele>
        <time>2019-12-21T15:41:52Z</time>
      </trkpt>
      <trkpt lat="46.23795" lon="6.24076">
        <ele>450.52</ele>
        <time>2019-12-21T15:41:56Z</time>
      </trkpt>
      <trkpt lat="46.23784" lon="6.24109">
        <ele>450.8</ele>
        <time>2019-12-21T15:42:00Z</time>
      </trkpt>
      <trkpt lat="46.23774" lon="6.24141">
        <ele>450.91</ele>
        <time>2019-12-21T15:42:04Z</time>
      </trkpt>
      <trkpt lat="46.23764" lon="6.24173">
        <ele>451.14</ele>
        <time>2019-12-21T15:42:08Z</time>
      </trkpt>
      <trkpt lat="46.23755" lon="6.24204">
        <ele>451.42</ele>
        <time>2019-12-21T15:42:12Z</time>
      </trkpt>
      <trkpt lat="46.23747" lon="6.2423">
        <ele>451.77</ele>
        <time>2019-12-21T15:42:16Z</time>
      </trkpt>
      <trkpt lat="46.23739" lon="6.2426">
        <ele>452.1</ele>
        <time>2019-12-21T15:42:22Z</time>
      </trkpt>
      <trkpt lat="46.23729" lon="6.24286">
        <ele>452.8</ele>
        <time>2019-12-21T15:42:28Z</time>
      </trkpt>
      <trkpt lat="46.23719" lon="6.24318">
        <ele>453.52</ele>
        <time>2019-12-21T15:42:34Z</time>
      </trkpt>
      <trkpt lat="46.23709" lon="6.24349">
        <ele>454.85</ele>
        <time>2019-12-21T15:42:40Z</time>
      </trkpt>
      <trkpt lat="46.237" lon="6.24378">
        <ele>456.11</ele>
        <time>2019-12-21T15:42:46Z</time>
      </trkpt>
      <trkpt lat="46.23691" lon="6.24406">
        <ele>457.56</ele>
        <time>2019-12-21T15:42:52Z</time>
      </trkpt>
      <trkpt lat="46.23684" lon="6.24434">
        <ele>459</ele>
        <time>2019-12-21T15:42:58Z</time>
      </trkpt>
      <trkpt lat="46.23679" lon="6.24463">
        <ele>460.03</ele>
        <time>2019-12-21T15:43:04Z</time>
      </trkpt>
      <trkpt lat="46.23675" lon="6.24493">
        <ele>461.81</ele>
        <time>2019-12-21T15:43:10Z</time>
      </trkpt>
      <trkpt lat="46.23671" lon="6.24524">
        <ele>463.3</ele>
        <time>2019-12-21T15:43:16Z</time>
      </trkpt>
      <trkpt lat="46.23668" lon="6.24554">
        <ele>464.79</ele>
        <time>2019-12-21T15:43:22Z</time>
      </trkpt>
      <trkpt lat="46.23663" lon="6.24584">
        <ele>466.48</ele>
        <time>2019-12-21T15:43:28Z</time>
      </trkpt>
      <trkpt lat="46.23658" lon="6.24615">
        <ele>467.72</ele>
        <time>2019-12-21T15:43:34Z</time>
      </trkpt>
      <trkpt lat="46.23649" lon="6.24645">
        <ele>468.98</ele>
        <time>2019-12-21T15:43:40Z</time>
      </trkpt>
      <trkpt lat="46.23638" lon="6.24674">
        <ele>469.8</ele>
        <time>2019-12-21T15:43:46Z</time>
      </trkpt>
      <trkpt lat="46.23626" lon="6.24701">
        <ele>470.4</ele>
        <time>2019-12-21T15:43:52Z</time>
      </trkpt>
      <trkpt lat="46.2361" lon="6.24729">
        <ele>470.89</ele>
        <time>2019-12-21T15:43:58Z</time>
      </trkpt>
      <trkpt lat="46.23596" lon="6.24748">
        <ele>471.18</ele>
        <time>2019-12-21T15:44:02Z</time>
      </trkpt>
      <trkpt lat="46.2358" lon="6.24767">
        <ele>471.28</ele>
        <time>2019-12-21T15:44:06Z</time>
      </trkpt>
      <trkpt lat="46.23562" lon="6.24785">
        <ele>471</ele>
        <time>2019-12-21T15:44:10Z</time>
      </trkpt>
      <trkpt lat="46.23542" lon="6.24802">
        <ele>470.34</ele>
        <time>2019-12-21T15:44:14Z</time>
      </trkpt>
      <trkpt lat="46.2352" lon="6.24823">
        <ele>469.54</ele>
        <time>2019-12-21T15:44:18Z</time>
      </trkpt>
      <trkpt lat="46.23501" lon="6.24845">
        <ele>469.09</ele>
        <time>2019-12-21T15:44:22Z</time>
      </trkpt>
      <trkpt lat="46.23484" lon="6.24871">
        <ele>468.75</ele>
        <time>2019-12-21T15:44:26Z</time>
      </trkpt>
      <trkpt lat="46.23469" lon="6.249">
        <ele>469.16</ele>
        <time>2019-12-21T15:44:30Z</time>
      </trkpt>
      <trkpt lat="46.23454" lon="6.24933">
        <ele>469.55</ele>
        <time>2019-12-21T15:44:34Z</time>
      </trkpt>
      <trkpt lat="46.2344" lon="6.24966">
        <ele>468.48</ele>
        <time>2019-12-21T15:44:38Z</time>
      </trkpt>
      <trkpt lat="46.23425" lon="6.25001">
        <ele>466.81</ele>
        <time>2019-12-21T15:44:42Z</time>
      </trkpt>
      <trkpt lat="46.23412" lon="6.25031">
        <ele>466.09</ele>
        <time>2019-12-21T15:44:46Z</time>
      </trkpt>
      <trkpt lat="46.23393" lon="6.25057">
        <ele>465.63</ele>
        <time>2019-12-21T15:44:52Z</time>
      </trkpt>
      <trkpt lat="46.23372" lon="6.25072">
        <ele>464.86</ele>
        <time>2019-12-21T15:44:56Z</time>
      </trkpt>
      <trkpt lat="46.23343" lon="6.25061">
        <ele>464.17</ele>
        <time>2019-12-21T15:45:00Z</time>
      </trkpt>
      <trkpt lat="46.23313" lon="6.25045">
        <ele>463.52</ele>
        <time>2019-12-21T15:45:04Z</time>
      </trkpt>
      <trkpt lat="46.23283" lon="6.25028">
        <ele>463.46</ele>
        <time>2019-12-21T15:45:08Z</time>
      </trkpt>
      <trkpt lat="46.23254" lon="6.25012">
        <ele>463.67</ele>
        <time>2019-12-21T15:45:12Z</time>
      </trkpt>
      <trkpt lat="46.23225" lon="6.24996">
        <ele>464.8</ele>
        <time>2019-12-21T15:45:16Z</time>
      </trkpt>
      <trkpt lat="46.23199" lon="6.2498">
        <ele>465.89</ele>
        <time>2019-12-21T15:45:20Z</time>
      </trkpt>
      <trkpt lat="46.23172" lon="6.24963">
        <ele>466.32</ele>
        <time>2019-12-21T15:45:24Z</time>
      </trkpt>
      <trkpt lat="46.23144" lon="6.24946">
        <ele>466.42</ele>
        <time>2019-12-21T15:45:28Z</time>
      </trkpt>
      <trkpt lat="46.23117" lon="6.24928">
        <ele>466.23</ele>
        <time>2019-12-21T15:45:32Z</time>
      </trkpt>
      <trkpt lat="46.2309" lon="6.24909">
        <ele>465.94</ele>
        <time>2019-12-21T15:45:36Z</time>
      </trkpt>
      <trkpt lat="46.23064" lon="6.24888">
        <ele>465.86</ele>
        <time>2019-12-21T15:45:40Z</time>
      </trkpt>
      <trkpt lat="46.23039" lon="6.2487">
        <ele>466.06</ele>
        <time>2019-12-21T15:45:44Z</time>
      </trkpt>
      <trkpt lat="46.23014" lon="6.24851">
        <ele>465.9</ele>
        <time>2019-12-21T15:45:48Z</time>
      </trkpt>
      <trkpt lat="46.22989" lon="6.24833">
        <ele>465.73</ele>
        <time>2019-12-21T15:45:52Z</time>
      </trkpt>
      <trkpt lat="46.22964" lon="6.24814">
        <ele>465.59</ele>
        <time>2019-12-21T15:45:56Z</time>
      </trkpt>
      <trkpt lat="46.22937" lon="6.24798">
        <ele>465.28</ele>
        <time>2019-12-21T15:46:00Z</time>
      </trkpt>
      <trkpt lat="46.22909" lon="6.24782">
        <ele>464.92</ele>
        <time>2019-12-21T15:46:04Z</time>
      </trkpt>
      <trkpt lat="46.22881" lon="6.24767">
        <ele>464.62</ele>
        <time>2019-12-21T15:46:08Z</time>
      </trkpt>
      <trkpt lat="46.22853" lon="6.24752">
        <ele>464.27</ele>
        <time>2019-12-21T15:46:12Z</time>
      </trkpt>
      <trkpt lat="46.22826" lon="6.24736">
        <ele>464.01</ele>
        <time>2019-12-21T15:46:16Z</time>
      </trkpt>
      <trkpt lat="46.22798" lon="6.24721">
        <ele>463.79</ele>
        <time>2019-12-21T15:46:20Z</time>
      </trkpt>
      <trkpt lat="46.22771" lon="6.24704">
        <ele>463.34</ele>
        <time>2019-12-21T15:46:24Z</time>
      </trkpt>
      <trkpt lat="46.22745" lon="6.24688">
        <ele>463.08</ele>
        <time>2019-12-21T15:46:28Z</time>
      </trkpt>
      <trkpt lat="46.22721" lon="6.24668">
        <ele>462.8</ele>
        <time>2019-12-21T15:46:32Z</time>
      </trkpt>
      <trkpt lat="46.227" lon="6.24655">
        <ele>462.46</ele>
        <time>2019-12-21T15:46:36Z</time>
      </trkpt>
      <trkpt lat="46.22693" lon="6.24684">
        <ele>462.43</ele>
        <time>2019-12-21T15:46:40Z</time>
      </trkpt>
      <trkpt lat="46.22684" lon="6.24715">
        <ele>462.43</ele>
        <time>2019-12-21T15:46:44Z</time>
      </trkpt>
      <trkpt lat="46.22672" lon="6.24744">
        <ele>462.68</ele>
        <time>2019-12-21T15:46:48Z</time>
      </trkpt>
      <trkpt lat="46.22661" lon="6.24773">
        <ele>463.06</ele>
        <time>2019-12-21T15:46:52Z</time>
      </trkpt>
      <trkpt lat="46.22649" lon="6.24801">
        <ele>463.59</ele>
        <time>2019-12-21T15:46:56Z</time>
      </trkpt>
      <trkpt lat="46.22637" lon="6.24828">
        <ele>464.23</ele>
        <time>2019-12-21T15:47:00Z</time>
      </trkpt>
      <trkpt lat="46.22622" lon="6.24853">
        <ele>464.57</ele>
        <time>2019-12-21T15:47:04Z</time>
      </trkpt>
      <trkpt lat="46.22605" lon="6.24875">
        <ele>464.79</ele>
        <time>2019-12-21T15:47:08Z</time>
      </trkpt>
      <trkpt lat="46.22586" lon="6.24894">
        <ele>465.17</ele>
        <time>2019-12-21T15:47:12Z</time>
      </trkpt>
      <trkpt lat="46.22565" lon="6.2491">
        <ele>465.26</ele>
        <time>2019-12-21T15:47:16Z</time>
      </trkpt>
      <trkpt lat="46.22543" lon="6.24924">
        <ele>464.81</ele>
        <time>2019-12-21T15:47:20Z</time>
      </trkpt>
      <trkpt lat="46.2252" lon="6.24939">
        <ele>465.06</ele>
        <time>2019-12-21T15:47:23Z</time>
      </trkpt>
      <trkpt lat="46.22497" lon="6.24954">
        <ele>465.32</ele>
        <time>2019-12-21T15:47:27Z</time>
      </trkpt>
      <trkpt lat="46.22473" lon="6.2497">
        <ele>465.52</ele>
        <time>2019-12-21T15:47:31Z</time>
      </trkpt>
      <trkpt lat="46.2245" lon="6.24986">
        <ele>465.61</ele>
        <time>2019-12-21T15:47:35Z</time>
      </trkpt>
      <trkpt lat="46.22427" lon="6.25001">
        <ele>465.03</ele>
        <time>2019-12-21T15:47:39Z</time>
      </trkpt>
      <trkpt lat="46.22404" lon="6.25017">
        <ele>464.72</ele>
        <time>2019-12-21T15:47:43Z</time>
      </trkpt>
      <trkpt lat="46.2238" lon="6.25034">
        <ele>464.79</ele>
        <time>2019-12-21T15:47:47Z</time>
      </trkpt>
      <trkpt lat="46.22357" lon="6.25049">
        <ele>464.77</ele>
        <time>2019-12-21T15:47:51Z</time>
      </trkpt>
      <trkpt lat="46.22334" lon="6.25064">
        <ele>465.02</ele>
        <time>2019-12-21T15:47:55Z</time>
      </trkpt>
      <trkpt lat="46.22311" lon="6.2508">
        <ele>465.16</ele>
        <time>2019-12-21T15:47:59Z</time>
      </trkpt>
      <trkpt lat="46.22289" lon="6.25096">
        <ele>465.09</ele>
        <time>2019-12-21T15:48:03Z</time>
      </trkpt>
      <trkpt lat="46.22266" lon="6.25112">
        <ele>465.23</ele>
        <time>2019-12-21T15:48:07Z</time>
      </trkpt>
      <trkpt lat="46.22243" lon="6.25127">
        <ele>465.23</ele>
        <time>2019-12-21T15:48:11Z</time>
      </trkpt>
      <trkpt lat="46.22219" lon="6.25142">
        <ele>465.36</ele>
        <time>2019-12-21T15:48:15Z</time>
      </trkpt>
      <trkpt lat="46.22196" lon="6.25157">
        <ele>465.35</ele>
        <time>2019-12-21T15:48:19Z</time>
      </trkpt>
      <trkpt lat="46.22173" lon="6.25174">
        <ele>465.42</ele>
        <time>2019-12-21T15:48:23Z</time>
      </trkpt>
      <trkpt lat="46.2215" lon="6.25189">
        <ele>465.55</ele>
        <time>2019-12-21T15:48:27Z</time>
      </trkpt>
      <trkpt lat="46.22128" lon="6.25204">
        <ele>465.97</ele>
        <time>2019-12-21T15:48:31Z</time>
      </trkpt>
      <trkpt lat="46.22107" lon="6.25218">
        <ele>466.58</ele>
        <time>2019-12-21T15:48:35Z</time>
      </trkpt>
      <trkpt lat="46.22085" lon="6.25232">
        <ele>467.14</ele>
        <time>2019-12-21T15:48:39Z</time>
      </trkpt>
      <trkpt lat="46.22065" lon="6.25246">
        <ele>467.92</ele>
        <time>2019-12-21T15:48:43Z</time>
      </trkpt>
      <trkpt lat="46.22046" lon="6.25259">
        <ele>468.57</ele>
        <time>2019-12-21T15:48:47Z</time>
      </trkpt>
      <trkpt lat="46.22028" lon="6.25271">
        <ele>469.32</ele>
        <time>2019-12-21T15:48:51Z</time>
      </trkpt>
      <trkpt lat="46.22011" lon="6.25283">
        <ele>470.25</ele>
        <time>2019-12-21T15:48:55Z</time>
      </trkpt>
      <trkpt lat="46.21993" lon="6.25294">
        <ele>470.87</ele>
        <time>2019-12-21T15:48:59Z</time>
      </trkpt>
      <trkpt lat="46.21974" lon="6.25305">
        <ele>471.5</ele>
        <time>2019-12-21T15:49:03Z</time>
      </trkpt>
      <trkpt lat="46.21957" lon="6.25317">
        <ele>472.02</ele>
        <time>2019-12-21T15:49:07Z</time>
      </trkpt>
      <trkpt lat="46.21938" lon="6.25329">
        <ele>472.26</ele>
        <time>2019-12-21T15:49:11Z</time>
      </trkpt>
      <trkpt lat="46.21918" lon="6.25339">
        <ele>472.21</ele>
        <time>2019-12-21T15:49:15Z</time>
      </trkpt>
      <trkpt lat="46.21897" lon="6.25347">
        <ele>472.37</ele>
        <time>2019-12-21T15:49:19Z</time>
      </trkpt>
      <trkpt lat="46.21876" lon="6.25351">
        <ele>472.2</ele>
        <time>2019-12-21T15:49:23Z</time>
      </trkpt>
      <trkpt lat="46.21855" lon="6.25346">
        <ele>471.91</ele>
        <time>2019-12-21T15:49:27Z</time>
      </trkpt>
      <trkpt lat="46.21834" lon="6.25339">
        <ele>471.88</ele>
        <time>2019-12-21T15:49:31Z</time>
      </trkpt>
      <trkpt lat="46.21809" lon="6.25331">
        <ele>472.2</ele>
        <time>2019-12-21T15:49:35Z</time>
      </trkpt>
      <trkpt lat="46.21783" lon="6.25323">
        <ele>472.64</ele>
        <time>2019-12-21T15:49:39Z</time>
      </trkpt>
      <trkpt lat="46.21757" lon="6.25313">
        <ele>472.25</ele>
        <time>2019-12-21T15:49:43Z</time>
      </trkpt>
      <trkpt lat="46.21731" lon="6.25296">
        <ele>472.17</ele>
        <time>2019-12-21T15:49:47Z</time>
      </trkpt>
      <trkpt lat="46.21704" lon="6.25276">
        <ele>472.05</ele>
        <time>2019-12-21T15:49:51Z</time>
      </trkpt>
      <trkpt lat="46.21679" lon="6.2525">
        <ele>471.57</ele>
        <time>2019-12-21T15:49:55Z</time>
      </trkpt>
      <trkpt lat="46.21657" lon="6.25219">
        <ele>470.3</ele>
        <time>2019-12-21T15:49:59Z</time>
      </trkpt>
      <trkpt lat="46.21634" lon="6.25187">
        <ele>470.05</ele>
        <time>2019-12-21T15:50:03Z</time>
      </trkpt>
      <trkpt lat="46.21611" lon="6.25157">
        <ele>470.15</ele>
        <time>2019-12-21T15:50:07Z</time>
      </trkpt>
      <trkpt lat="46.21584" lon="6.25129">
        <ele>469.76</ele>
        <time>2019-12-21T15:50:11Z</time>
      </trkpt>
      <trkpt lat="46.21557" lon="6.25105">
        <ele>469.46</ele>
        <time>2019-12-21T15:50:15Z</time>
      </trkpt>
      <trkpt lat="46.2153" lon="6.25081">
        <ele>468.53</ele>
        <time>2019-12-21T15:50:19Z</time>
      </trkpt>
      <trkpt lat="46.21506" lon="6.2506">
        <ele>467.94</ele>
        <time>2019-12-21T15:50:23Z</time>
      </trkpt>
      <trkpt lat="46.21485" lon="6.25059">
        <ele>467.56</ele>
        <time>2019-12-21T15:50:29Z</time>
      </trkpt>
      <trkpt lat="46.21472" lon="6.25087">
        <ele>467.99</ele>
        <time>2019-12-21T15:50:35Z</time>
      </trkpt>
      <trkpt lat="46.21461" lon="6.25115">
        <ele>468.32</ele>
        <time>2019-12-21T15:50:41Z</time>
      </trkpt>
      <trkpt lat="46.2145" lon="6.25149">
        <ele>470.36</ele>
        <time>2019-12-21T15:50:47Z</time>
      </trkpt>
      <trkpt lat="46.21441" lon="6.25179">
        <ele>471.28</ele>
        <time>2019-12-21T15:50:51Z</time>
      </trkpt>
      <trkpt lat="46.2143" lon="6.25202">
        <ele>471.88</ele>
        <time>2019-12-21T15:50:55Z</time>
      </trkpt>
      <trkpt lat="46.21414" lon="6.25215">
        <ele>472.71</ele>
        <time>2019-12-21T15:50:59Z</time>
      </trkpt>
      <trkpt lat="46.21389" lon="6.25213">
        <ele>474.77</ele>
        <time>2019-12-21T15:51:05Z</time>
      </trkpt>
      <trkpt lat="46.21366" lon="6.25207">
        <ele>474.28</ele>
        <time>2019-12-21T15:51:11Z</time>
      </trkpt>
      <trkpt lat="46.21344" lon="6.25202">
        <ele>475.51</ele>
        <time>2019-12-21T15:51:17Z</time>
      </trkpt>
      <trkpt lat="46.21326" lon="6.25199">
        <ele>476.24</ele>
        <time>2019-12-21T15:51:21Z</time>
      </trkpt>
      <trkpt lat="46.21303" lon="6.25197">
        <ele>475.74</ele>
        <time>2019-12-21T15:51:27Z</time>
      </trkpt>
      <trkpt lat="46.21275" lon="6.25202">
        <ele>477.39</ele>
        <time>2019-12-21T15:51:33Z</time>
      </trkpt>
      <trkpt lat="46.21254" lon="6.2522">
        <ele>478.28</ele>
        <time>2019-12-21T15:51:39Z</time>
      </trkpt>
      <trkpt lat="46.21245" lon="6.25246">
        <ele>480.19</ele>
        <time>2019-12-21T15:51:45Z</time>
      </trkpt>
      <trkpt lat="46.21236" lon="6.25271">
        <ele>482.09</ele>
        <time>2019-12-21T15:51:51Z</time>
      </trkpt>
      <trkpt lat="46.21224" lon="6.25295">
        <ele>483.94</ele>
        <time>2019-12-21T15:51:57Z</time>
      </trkpt>
      <trkpt lat="46.2121" lon="6.25316">
        <ele>485.9</ele>
        <time>2019-12-21T15:52:03Z</time>
      </trkpt>
      <trkpt lat="46.21195" lon="6.25333">
        <ele>487.44</ele>
        <time>2019-12-21T15:52:09Z</time>
      </trkpt>
      <trkpt lat="46.21172" lon="6.25341">
        <ele>487.08</ele>
        <time>2019-12-21T15:52:15Z</time>
      </trkpt>
      <trkpt lat="46.21154" lon="6.25345">
        <ele>488.23</ele>
        <time>2019-12-21T15:52:19Z</time>
      </trkpt>
      <trkpt lat="46.21131" lon="6.25348">
        <ele>487.91</ele>
        <time>2019-12-21T15:52:23Z</time>
      </trkpt>
      <trkpt lat="46.21107" lon="6.25354">
        <ele>485.25</ele>
        <time>2019-12-21T15:52:27Z</time>
      </trkpt>
      <trkpt lat="46.21082" lon="6.25356">
        <ele>484.7</ele>
        <time>2019-12-21T15:52:31Z</time>
      </trkpt>
      <trkpt lat="46.21057" lon="6.25356">
        <ele>485.4</ele>
        <time>2019-12-21T15:52:35Z</time>
      </trkpt>
      <trkpt lat="46.21032" lon="6.25367">
        <ele>485.18</ele>
        <time>2019-12-21T15:52:39Z</time>
      </trkpt>
      <trkpt lat="46.21006" lon="6.25381">
        <ele>484.84</ele>
        <time>2019-12-21T15:52:43Z</time>
      </trkpt>
      <trkpt lat="46.20981" lon="6.25384">
        <ele>484.27</ele>
        <time>2019-12-21T15:52:47Z</time>
      </trkpt>
      <trkpt lat="46.20954" lon="6.25367">
        <ele>483.62</ele>
        <time>2019-12-21T15:52:51Z</time>
      </trkpt>
      <trkpt lat="46.20929" lon="6.25345">
        <ele>482.66</ele>
        <time>2019-12-21T15:52:55Z</time>
      </trkpt>
      <trkpt lat="46.20907" lon="6.25323">
        <ele>482.33</ele>
        <time>2019-12-21T15:52:59Z</time>
      </trkpt>
      <trkpt lat="46.20891" lon="6.25309">
        <ele>480.68</ele>
        <time>2019-12-21T15:53:03Z</time>
      </trkpt>
      <trkpt lat="46.20874" lon="6.25289">
        <ele>478.69</ele>
        <time>2019-12-21T15:54:59Z</time>
      </trkpt>
      <trkpt lat="46.20859" lon="6.25275">
        <ele>477.7</ele>
        <time>2019-12-21T15:55:03Z</time>
      </trkpt>
      <trkpt lat="46.20841" lon="6.25258">
        <ele>476.57</ele>
        <time>2019-12-21T15:55:07Z</time>
      </trkpt>
      <trkpt lat="46.2082" lon="6.25237">
        <ele>475.36</ele>
        <time>2019-12-21T15:55:11Z</time>
      </trkpt>
      <trkpt lat="46.20797" lon="6.25213">
        <ele>473.95</ele>
        <time>2019-12-21T15:55:15Z</time>
      </trkpt>
      <trkpt lat="46.20776" lon="6.25184">
        <ele>472.88</ele>
        <time>2019-12-21T15:55:19Z</time>
      </trkpt>
      <trkpt lat="46.20756" lon="6.2515">
        <ele>472.43</ele>
        <time>2019-12-21T15:55:23Z</time>
      </trkpt>
      <trkpt lat="46.20739" lon="6.25114">
        <ele>472.11</ele>
        <time>2019-12-21T15:55:27Z</time>
      </trkpt>
      <trkpt lat="46.20723" lon="6.25079">
        <ele>471.57</ele>
        <time>2019-12-21T15:55:31Z</time>
      </trkpt>
      <trkpt lat="46.20712" lon="6.25049">
        <ele>471.2</ele>
        <time>2019-12-21T15:55:35Z</time>
      </trkpt>
      <trkpt lat="46.20698" lon="6.25024">
        <ele>470.78</ele>
        <time>2019-12-21T15:55:41Z</time>
      </trkpt>
      <trkpt lat="46.20678" lon="6.25016">
        <ele>470.81</ele>
        <time>2019-12-21T15:55:45Z</time>
      </trkpt>
      <trkpt lat="46.20657" lon="6.25009">
        <ele>470.74</ele>
        <time>2019-12-21T15:55:49Z</time>
      </trkpt>
      <trkpt lat="46.20638" lon="6.24997">
        <ele>470.99</ele>
        <time>2019-12-21T15:55:53Z</time>
      </trkpt>
      <trkpt lat="46.20622" lon="6.24974">
        <ele>471.02</ele>
        <time>2019-12-21T15:55:57Z</time>
      </trkpt>
      <trkpt lat="46.20607" lon="6.24952">
        <ele>470.44</ele>
        <time>2019-12-21T15:56:01Z</time>
      </trkpt>
      <trkpt lat="46.20587" lon="6.24937">
        <ele>471.36</ele>
        <time>2019-12-21T15:56:05Z</time>
      </trkpt>
      <trkpt lat="46.20563" lon="6.24947">
        <ele>470.45</ele>
        <time>2019-12-21T15:56:09Z</time>
      </trkpt>
      <trkpt lat="46.20542" lon="6.24966">
        <ele>468.89</ele>
        <time>2019-12-21T15:56:13Z</time>
      </trkpt>
      <trkpt lat="46.20514" lon="6.24963">
        <ele>467.64</ele>
        <time>2019-12-21T15:56:17Z</time>
      </trkpt>
      <trkpt lat="46.20483" lon="6.24954">
        <ele>467.53</ele>
        <time>2019-12-21T15:56:21Z</time>
      </trkpt>
      <trkpt lat="46.20452" lon="6.24951">
        <ele>467.51</ele>
        <time>2019-12-21T15:56:25Z</time>
      </trkpt>
      <trkpt lat="46.20429" lon="6.24952">
        <ele>467.92</ele>
        <time>2019-12-21T15:56:29Z</time>
      </trkpt>
      <trkpt lat="46.20407" lon="6.24964">
        <ele>466.78</ele>
        <time>2019-12-21T15:56:33Z</time>
      </trkpt>
      <trkpt lat="46.20387" lon="6.24977">
        <ele>466.38</ele>
        <time>2019-12-21T15:56:37Z</time>
      </trkpt>
      <trkpt lat="46.20364" lon="6.24981">
        <ele>464.33</ele>
        <time>2019-12-21T15:56:43Z</time>
      </trkpt>
      <trkpt lat="46.20344" lon="6.2498">
        <ele>463.08</ele>
        <time>2019-12-21T15:56:51Z</time>
      </trkpt>
      <trkpt lat="46.20336" lon="6.24948">
        <ele>463.43</ele>
        <time>2019-12-21T15:56:57Z</time>
      </trkpt>
      <trkpt lat="46.20335" lon="6.24917">
        <ele>463.47</ele>
        <time>2019-12-21T15:57:01Z</time>
      </trkpt>
      <trkpt lat="46.20331" lon="6.24881">
        <ele>463.64</ele>
        <time>2019-12-21T15:57:05Z</time>
      </trkpt>
      <trkpt lat="46.2032" lon="6.24847">
        <ele>463.6</ele>
        <time>2019-12-21T15:57:09Z</time>
      </trkpt>
      <trkpt lat="46.20317" lon="6.2481">
        <ele>463.69</ele>
        <time>2019-12-21T15:57:13Z</time>
      </trkpt>
      <trkpt lat="46.20324" lon="6.24772">
        <ele>463.68</ele>
        <time>2019-12-21T15:57:17Z</time>
      </trkpt>
      <trkpt lat="46.20334" lon="6.24733">
        <ele>463.85</ele>
        <time>2019-12-21T15:57:21Z</time>
      </trkpt>
      <trkpt lat="46.20336" lon="6.24705">
        <ele>463.87</ele>
        <time>2019-12-21T15:57:25Z</time>
      </trkpt>
      <trkpt lat="46.20322" lon="6.24684">
        <ele>464.09</ele>
        <time>2019-12-21T15:57:29Z</time>
      </trkpt>
      <trkpt lat="46.20304" lon="6.24663">
        <ele>464.5</ele>
        <time>2019-12-21T15:57:33Z</time>
      </trkpt>
      <trkpt lat="46.20285" lon="6.24643">
        <ele>464.69</ele>
        <time>2019-12-21T15:57:37Z</time>
      </trkpt>
      <trkpt lat="46.20264" lon="6.24622">
        <ele>464.49</ele>
        <time>2019-12-21T15:57:41Z</time>
      </trkpt>
      <trkpt lat="46.20241" lon="6.24603">
        <ele>463.73</ele>
        <time>2019-12-21T15:57:45Z</time>
      </trkpt>
      <trkpt lat="46.20216" lon="6.24586">
        <ele>463.18</ele>
        <time>2019-12-21T15:57:49Z</time>
      </trkpt>
      <trkpt lat="46.20194" lon="6.24573">
        <ele>463.01</ele>
        <time>2019-12-21T15:57:53Z</time>
      </trkpt>
      <trkpt lat="46.20171" lon="6.24561">
        <ele>463.86</ele>
        <time>2019-12-21T15:57:57Z</time>
      </trkpt>
      <trkpt lat="46.2015" lon="6.24551">
        <ele>464.7</ele>
        <time>2019-12-21T15:58:01Z</time>
      </trkpt>
      <trkpt lat="46.20133" lon="6.24566">
        <ele>463.6</ele>
        <time>2019-12-21T15:58:05Z</time>
      </trkpt>
      <trkpt lat="46.20138" lon="6.24593">
        <ele>463.39</ele>
        <time>2019-12-21T15:58:09Z</time>
      </trkpt>
      <trkpt lat="46.20128" lon="6.24617">
        <ele>463.73</ele>
        <time>2019-12-21T15:58:13Z</time>
      </trkpt>
      <trkpt lat="46.20109" lon="6.24619">
        <ele>464.22</ele>
        <time>2019-12-21T15:58:17Z</time>
      </trkpt>
      <trkpt lat="46.20089" lon="6.24612">
        <ele>464.88</ele>
        <time>2019-12-21T15:58:21Z</time>
      </trkpt>
      <trkpt lat="46.20067" lon="6.24604">
        <ele>465.57</ele>
        <time>2019-12-21T15:58:25Z</time>
      </trkpt>
      <trkpt lat="46.20044" lon="6.24595">
        <ele>465.79</ele>
        <time>2019-12-21T15:58:29Z</time>
      </trkpt>
      <trkpt lat="46.20021" lon="6.24583">
        <ele>465.75</ele>
        <time>2019-12-21T15:58:33Z</time>
      </trkpt>
      <trkpt lat="46.19997" lon="6.24569">
        <ele>465.79</ele>
        <time>2019-12-21T15:58:37Z</time>
      </trkpt>
      <trkpt lat="46.19976" lon="6.24551">
        <ele>465.53</ele>
        <time>2019-12-21T15:58:41Z</time>
      </trkpt>
      <trkpt lat="46.19956" lon="6.24528">
        <ele>465.6</ele>
        <time>2019-12-21T15:58:45Z</time>
      </trkpt>
      <trkpt lat="46.19937" lon="6.24503">
        <ele>465.73</ele>
        <time>2019-12-21T15:58:49Z</time>
      </trkpt>
      <trkpt lat="46.19918" lon="6.24478">
        <ele>465.65</ele>
        <time>2019-12-21T15:58:53Z</time>
      </trkpt>
      <trkpt lat="46.19899" lon="6.24452">
        <ele>465.47</ele>
        <time>2019-12-21T15:58:57Z</time>
      </trkpt>
      <trkpt lat="46.19879" lon="6.24427">
        <ele>465.2</ele>
        <time>2019-12-21T15:59:01Z</time>
      </trkpt>
      <trkpt lat="46.1986" lon="6.24404">
        <ele>464.95</ele>
        <time>2019-12-21T15:59:05Z</time>
      </trkpt>
      <trkpt lat="46.19838" lon="6.2438">
        <ele>464.46</ele>
        <time>2019-12-21T15:59:09Z</time>
      </trkpt>
      <trkpt lat="46.19813" lon="6.24357">
        <ele>464.56</ele>
        <time>2019-12-21T15:59:13Z</time>
      </trkpt>
      <trkpt lat="46.19788" lon="6.24337">
        <ele>464.45</ele>
        <time>2019-12-21T15:59:17Z</time>
      </trkpt>
      <trkpt lat="46.19764" lon="6.24318">
        <ele>463.87</ele>
        <time>2019-12-21T15:59:21Z</time>
      </trkpt>
      <trkpt lat="46.1974" lon="6.24298">
        <ele>463.38</ele>
        <time>2019-12-21T15:59:25Z</time>
      </trkpt>
      <trkpt lat="46.19716" lon="6.24279">
        <ele>463.07</ele>
        <time>2019-12-21T15:59:29Z</time>
      </trkpt>
      <trkpt lat="46.19693" lon="6.24259">
        <ele>463.12</ele>
        <time>2019-12-21T15:59:33Z</time>
      </trkpt>
      <trkpt lat="46.19671" lon="6.2424">
        <ele>463.34</ele>
        <time>2019-12-21T15:59:37Z</time>
      </trkpt>
      <trkpt lat="46.19651" lon="6.24223">
        <ele>462.88</ele>
        <time>2019-12-21T15:59:41Z</time>
      </trkpt>
      <trkpt lat="46.1963" lon="6.24208">
        <ele>462.35</ele>
        <time>2019-12-21T15:59:47Z</time>
      </trkpt>
      <trkpt lat="46.19612" lon="6.24225">
        <ele>462.14</ele>
        <time>2019-12-21T15:59:53Z</time>
      </trkpt>
      <trkpt lat="46.196" lon="6.24246">
        <ele>462.01</ele>
        <time>2019-12-21T15:59:57Z</time>
      </trkpt>
      <trkpt lat="46.19589" lon="6.24268">
        <ele>461.58</ele>
        <time>2019-12-21T16:00:01Z</time>
      </trkpt>
      <trkpt lat="46.19575" lon="6.24292">
        <ele>461.6</ele>
        <time>2019-12-21T16:00:05Z</time>
      </trkpt>
      <trkpt lat="46.19562" lon="6.24314">
        <ele>461.49</ele>
        <time>2019-12-21T16:00:09Z</time>
      </trkpt>
      <trkpt lat="46.1955" lon="6.24334">
        <ele>461.78</ele>
        <time>2019-12-21T16:00:15Z</time>
      </trkpt>
      <trkpt lat="46.19532" lon="6.24361">
        <ele>460.81</ele>
        <time>2019-12-21T16:00:21Z</time>
      </trkpt>
      <trkpt lat="46.19519" lon="6.24385">
        <ele>460.27</ele>
        <time>2019-12-21T16:00:25Z</time>
      </trkpt>
      <trkpt lat="46.19503" lon="6.24409">
        <ele>460.18</ele>
        <time>2019-12-21T16:00:29Z</time>
      </trkpt>
      <trkpt lat="46.19488" lon="6.24433">
        <ele>460.39</ele>
        <time>2019-12-21T16:00:33Z</time>
      </trkpt>
      <trkpt lat="46.19473" lon="6.24457">
        <ele>461.34</ele>
        <time>2019-12-21T16:00:37Z</time>
      </trkpt>
      <trkpt lat="46.19458" lon="6.2448">
        <ele>461.72</ele>
        <time>2019-12-21T16:00:41Z</time>
      </trkpt>
      <trkpt lat="46.19445" lon="6.24502">
        <ele>462.18</ele>
        <time>2019-12-21T16:00:45Z</time>
      </trkpt>
      <trkpt lat="46.19431" lon="6.24521">
        <ele>461.76</ele>
        <time>2019-12-21T16:00:49Z</time>
      </trkpt>
      <trkpt lat="46.19408" lon="6.24518">
        <ele>461.14</ele>
        <time>2019-12-21T16:00:53Z</time>
      </trkpt>
      <trkpt lat="46.19388" lon="6.24508">
        <ele>461.79</ele>
        <time>2019-12-21T16:00:57Z</time>
      </trkpt>
      <trkpt lat="46.19363" lon="6.24496">
        <ele>462.81</ele>
        <time>2019-12-21T16:01:03Z</time>
      </trkpt>
      <trkpt lat="46.19344" lon="6.24487">
        <ele>463.38</ele>
        <time>2019-12-21T16:01:09Z</time>
      </trkpt>
      <trkpt lat="46.19327" lon="6.24478">
        <ele>462.99</ele>
        <time>2019-12-21T16:01:15Z</time>
      </trkpt>
      <trkpt lat="46.1931" lon="6.24465">
        <ele>462.9</ele>
        <time>2019-12-21T16:01:25Z</time>
      </trkpt>
      <trkpt lat="46.19286" lon="6.24451">
        <ele>461.32</ele>
        <time>2019-12-21T16:01:33Z</time>
      </trkpt>
      <trkpt lat="46.1927" lon="6.24439">
        <ele>461.05</ele>
        <time>2019-12-21T16:01:37Z</time>
      </trkpt>
      <trkpt lat="46.1925" lon="6.24424">
        <ele>460.89</ele>
        <time>2019-12-21T16:01:41Z</time>
      </trkpt>
      <trkpt lat="46.19232" lon="6.2441">
        <ele>461.12</ele>
        <time>2019-12-21T16:01:45Z</time>
      </trkpt>
      <trkpt lat="46.19212" lon="6.24395">
        <ele>461.42</ele>
        <time>2019-12-21T16:01:49Z</time>
      </trkpt>
      <trkpt lat="46.19192" lon="6.24379">
        <ele>461.77</ele>
        <time>2019-12-21T16:01:53Z</time>
      </trkpt>
      <trkpt lat="46.19172" lon="6.24364">
        <ele>461.49</ele>
        <time>2019-12-21T16:01:57Z</time>
      </trkpt>
      <trkpt lat="46.19152" lon="6.24348">
        <ele>462.01</ele>
        <time>2019-12-21T16:02:01Z</time>
      </trkpt>
      <trkpt lat="46.1913" lon="6.2433">
        <ele>462.62</ele>
        <time>2019-12-21T16:02:07Z</time>
      </trkpt>
      <trkpt lat="46.19115" lon="6.24316">
        <ele>461.75</ele>
        <time>2019-12-21T16:02:19Z</time>
      </trkpt>
      <trkpt lat="46.19094" lon="6.243">
        <ele>461.81</ele>
        <time>2019-12-21T16:02:25Z</time>
      </trkpt>
      <trkpt lat="46.19075" lon="6.24283">
        <ele>460.88</ele>
        <time>2019-12-21T16:02:31Z</time>
      </trkpt>
      <trkpt lat="46.19057" lon="6.2426">
        <ele>459.73</ele>
        <time>2019-12-21T16:02:39Z</time>
      </trkpt>
      <trkpt lat="46.19029" lon="6.24266">
        <ele>458.87</ele>
        <time>2019-12-21T16:02:45Z</time>
      </trkpt>
      <trkpt lat="46.19007" lon="6.24278">
        <ele>458.89</ele>
        <time>2019-12-21T16:02:49Z</time>
      </trkpt>
      <trkpt lat="46.18986" lon="6.24291">
        <ele>459.36</ele>
        <time>2019-12-21T16:02:53Z</time>
      </trkpt>
      <trkpt lat="46.18967" lon="6.24303">
        <ele>460.24</ele>
        <time>2019-12-21T16:02:57Z</time>
      </trkpt>
      <trkpt lat="46.18948" lon="6.24313">
        <ele>461.01</ele>
        <time>2019-12-21T16:03:01Z</time>
      </trkpt>
      <trkpt lat="46.18929" lon="6.24322">
        <ele>461.66</ele>
        <time>2019-12-21T16:03:05Z</time>
      </trkpt>
      <trkpt lat="46.1891" lon="6.24328">
        <ele>462.55</ele>
        <time>2019-12-21T16:03:09Z</time>
      </trkpt>
      <trkpt lat="46.18892" lon="6.24332">
        <ele>463.39</ele>
        <time>2019-12-21T16:03:13Z</time>
      </trkpt>
      <trkpt lat="46.18873" lon="6.24337">
        <ele>463.57</ele>
        <time>2019-12-21T16:03:17Z</time>
      </trkpt>
      <trkpt lat="46.18854" lon="6.24342">
        <ele>463.29</ele>
        <time>2019-12-21T16:03:21Z</time>
      </trkpt>
      <trkpt lat="46.18834" lon="6.24351">
        <ele>463.11</ele>
        <time>2019-12-21T16:03:25Z</time>
      </trkpt>
      <trkpt lat="46.1882" lon="6.24372">
        <ele>463.5</ele>
        <time>2019-12-21T16:03:29Z</time>
      </trkpt>
      <trkpt lat="46.18811" lon="6.24398">
        <ele>463.96</ele>
        <time>2019-12-21T16:03:33Z</time>
      </trkpt>
      <trkpt lat="46.18802" lon="6.24423">
        <ele>464.85</ele>
        <time>2019-12-21T16:03:37Z</time>
      </trkpt>
      <trkpt lat="46.18794" lon="6.2445">
        <ele>466.3</ele>
        <time>2019-12-21T16:03:41Z</time>
      </trkpt>
      <trkpt lat="46.18787" lon="6.24474">
        <ele>467.21</ele>
        <time>2019-12-21T16:03:45Z</time>
      </trkpt>
      <trkpt lat="46.18776" lon="6.24508">
        <ele>467.4</ele>
        <time>2019-12-21T16:03:51Z</time>
      </trkpt>
      <trkpt lat="46.18768" lon="6.24535">
        <ele>467.5</ele>
        <time>2019-12-21T16:03:55Z</time>
      </trkpt>
      <trkpt lat="46.1876" lon="6.24562">
        <ele>468.16</ele>
        <time>2019-12-21T16:03:59Z</time>
      </trkpt>
      <trkpt lat="46.18752" lon="6.24589">
        <ele>468.84</ele>
        <time>2019-12-21T16:04:03Z</time>
      </trkpt>
      <trkpt lat="46.18744" lon="6.24614">
        <ele>469.45</ele>
        <time>2019-12-21T16:04:07Z</time>
      </trkpt>
      <trkpt lat="46.18735" lon="6.24647">
        <ele>470.74</ele>
        <time>2019-12-21T16:04:13Z</time>
      </trkpt>
      <trkpt lat="46.18728" lon="6.24673">
        <ele>472.36</ele>
        <time>2019-12-21T16:04:17Z</time>
      </trkpt>
      <trkpt lat="46.18718" lon="6.24697">
        <ele>473.41</ele>
        <time>2019-12-21T16:04:21Z</time>
      </trkpt>
      <trkpt lat="46.18709" lon="6.24724">
        <ele>473.95</ele>
        <time>2019-12-21T16:04:25Z</time>
      </trkpt>
      <trkpt lat="46.18702" lon="6.24748">
        <ele>473.76</ele>
        <time>2019-12-21T16:04:29Z</time>
      </trkpt>
      <trkpt lat="46.18688" lon="6.24767">
        <ele>474.52</ele>
        <time>2019-12-21T16:04:39Z</time>
      </trkpt>
      <trkpt lat="46.18668" lon="6.24771">
        <ele>476</ele>
        <time>2019-12-21T16:04:55Z</time>
      </trkpt>
      <trkpt lat="46.18648" lon="6.24768">
        <ele>476.76</ele>
        <time>2019-12-21T16:05:03Z</time>
      </trkpt>
      <trkpt lat="46.18633" lon="6.24783">
        <ele>476.24</ele>
        <time>2019-12-21T16:05:09Z</time>
      </trkpt>
      <trkpt lat="46.18626" lon="6.2481">
        <ele>476.33</ele>
        <time>2019-12-21T16:05:15Z</time>
      </trkpt>
      <trkpt lat="46.18618" lon="6.2484">
        <ele>476.83</ele>
        <time>2019-12-21T16:05:21Z</time>
      </trkpt>
      <trkpt lat="46.18611" lon="6.24871">
        <ele>478.19</ele>
        <time>2019-12-21T16:05:27Z</time>
      </trkpt>
      <trkpt lat="46.18604" lon="6.24902">
        <ele>479.67</ele>
        <time>2019-12-21T16:05:33Z</time>
      </trkpt>
      <trkpt lat="46.18596" lon="6.24937">
        <ele>480.43</ele>
        <time>2019-12-21T16:05:39Z</time>
      </trkpt>
      <trkpt lat="46.18588" lon="6.2497">
        <ele>481.64</ele>
        <time>2019-12-21T16:05:45Z</time>
      </trkpt>
      <trkpt lat="46.18583" lon="6.24997">
        <ele>482.97</ele>
        <time>2019-12-21T16:05:51Z</time>
      </trkpt>
      <trkpt lat="46.18563" lon="6.25003">
        <ele>482.1</ele>
        <time>2019-12-21T16:05:57Z</time>
      </trkpt>
      <trkpt lat="46.18544" lon="6.25007">
        <ele>481.42</ele>
        <time>2019-12-21T16:06:01Z</time>
      </trkpt>
      <trkpt lat="46.18522" lon="6.25006">
        <ele>479.96</ele>
        <time>2019-12-21T16:06:05Z</time>
      </trkpt>
      <trkpt lat="46.18496" lon="6.25">
        <ele>479.67</ele>
        <time>2019-12-21T16:06:09Z</time>
      </trkpt>
      <trkpt lat="46.18467" lon="6.24992">
        <ele>479.4</ele>
        <time>2019-12-21T16:06:13Z</time>
      </trkpt>
      <trkpt lat="46.18437" lon="6.24983">
        <ele>478.83</ele>
        <time>2019-12-21T16:06:17Z</time>
      </trkpt>
      <trkpt lat="46.18407" lon="6.24975">
        <ele>478.04</ele>
        <time>2019-12-21T16:06:21Z</time>
      </trkpt>
      <trkpt lat="46.18376" lon="6.24967">
        <ele>477.43</ele>
        <time>2019-12-21T16:06:25Z</time>
      </trkpt>
      <trkpt lat="46.18343" lon="6.24958">
        <ele>476.38</ele>
        <time>2019-12-21T16:06:29Z</time>
      </trkpt>
      <trkpt lat="46.18308" lon="6.24947">
        <ele>475.01</ele>
        <time>2019-12-21T16:06:33Z</time>
      </trkpt>
      <trkpt lat="46.18273" lon="6.24935">
        <ele>474.06</ele>
        <time>2019-12-21T16:06:37Z</time>
      </trkpt>
      <trkpt lat="46.18239" lon="6.24923">
        <ele>473.18</ele>
        <time>2019-12-21T16:06:41Z</time>
      </trkpt>
      <trkpt lat="46.18207" lon="6.24912">
        <ele>472.53</ele>
        <time>2019-12-21T16:06:45Z</time>
      </trkpt>
      <trkpt lat="46.18175" lon="6.24903">
        <ele>471.99</ele>
        <time>2019-12-21T16:06:49Z</time>
      </trkpt>
      <trkpt lat="46.18151" lon="6.24896">
        <ele>471.48</ele>
        <time>2019-12-21T16:06:53Z</time>
      </trkpt>
      <trkpt lat="46.18133" lon="6.24909">
        <ele>470.2</ele>
        <time>2019-12-21T16:07:05Z</time>
      </trkpt>
      <trkpt lat="46.18122" lon="6.24939">
        <ele>470.49</ele>
        <time>2019-12-21T16:07:11Z</time>
      </trkpt>
      <trkpt lat="46.18115" lon="6.24965">
        <ele>471.32</ele>
        <time>2019-12-21T16:07:15Z</time>
      </trkpt>
      <trkpt lat="46.18111" lon="6.24998">
        <ele>472.37</ele>
        <time>2019-12-21T16:07:19Z</time>
      </trkpt>
      <trkpt lat="46.1811" lon="6.25033">
        <ele>472.53</ele>
        <time>2019-12-21T16:07:23Z</time>
      </trkpt>
      <trkpt lat="46.18111" lon="6.25063">
        <ele>474.07</ele>
        <time>2019-12-21T16:07:27Z</time>
      </trkpt>
      <trkpt lat="46.1811" lon="6.25089">
        <ele>475.13</ele>
        <time>2019-12-21T16:07:31Z</time>
      </trkpt>
      <trkpt lat="46.18116" lon="6.25124">
        <ele>476.49</ele>
        <time>2019-12-21T16:07:37Z</time>
      </trkpt>
      <trkpt lat="46.18143" lon="6.25126">
        <ele>476.31</ele>
        <time>2019-12-21T16:07:43Z</time>
      </trkpt>
      <trkpt lat="46.18162" lon="6.25123">
        <ele>476.32</ele>
        <time>2019-12-21T16:07:47Z</time>
      </trkpt>
      <trkpt lat="46.18183" lon="6.25119">
        <ele>476.5</ele>
        <time>2019-12-21T16:07:51Z</time>
      </trkpt>
      <trkpt lat="46.18201" lon="6.25114">
        <ele>477.24</ele>
        <time>2019-12-21T16:07:55Z</time>
      </trkpt>
      <trkpt lat="46.18222" lon="6.2511">
        <ele>477.58</ele>
        <time>2019-12-21T16:08:01Z</time>
      </trkpt>
      <trkpt lat="46.18233" lon="6.25135">
        <ele>479.56</ele>
        <time>2019-12-21T16:08:11Z</time>
      </trkpt>
      <trkpt lat="46.18236" lon="6.25165">
        <ele>481.54</ele>
        <time>2019-12-21T16:08:17Z</time>
      </trkpt>
    </trkseg>
  </trk>
</gpx>